<?xml version="1.0"?>
<gpx
 version="1.1"
 creator="Satmap Active 20"
 xmlns:xsi="http://www.w3.org/2001/XMLSchema-instance"
 xmlns="http://www.topografix.com/GPX/1/1"
 xmlns:satmap="http://www.satmap.com/updates/xmlschemas/GpxExtensions/v2/GpxExtensions_v2.xsd"
 xsi:schemaLocation="http://www.topografix.com/GPX/1/1 http://www.topografix.com/GPX/1/1/gpx.xsd">
<metadata>
<time>2022-10-15T09:10:17Z</time>
<extensions>
<satmap:platform>43</satmap:platform>
<satmap:software version="3.12.831">SM15.exe</satmap:software>
<satmap:username>Jim Grant</satmap:username>
<satmap:network_ids>
<satmap:network_id type="wifi">00-23-A7-EC-D5-78</satmap:network_id>
<satmap:network_id type="bluetooth">80-BB-EB-D7-5B-7C</satmap:network_id>
</satmap:network_ids>
<satmap:snap_type>simple</satmap:snap_type>
</extensions>
</metadata>
<trk>
<name>2022-10-15_0910</name>
<desc>Track 1</desc>
<number>1</number>
<trkseg>
<trkpt lat="52.923230" lon="-3.436348"><ele>172</ele><time>2022-10-15T09:10:17Z</time><name>PT1</name></trkpt>
<trkpt lat="52.923224" lon="-3.436358"><ele>170</ele><time>2022-10-15T09:10:33Z</time><name>PT2</name></trkpt>
<trkpt lat="52.923214" lon="-3.436367"><ele>170</ele><time>2022-10-15T09:10:37Z</time><name>PT3</name></trkpt>
<trkpt lat="52.923198" lon="-3.436379"><ele>169</ele><time>2022-10-15T09:13:37Z</time><name>PT4</name></trkpt>
<trkpt lat="52.923196" lon="-3.436379"><ele>169</ele><time>2022-10-15T09:13:41Z</time><name>PT5</name></trkpt>
<trkpt lat="52.923181" lon="-3.436398"><ele>169</ele><time>2022-10-15T09:13:57Z</time><name>PT6</name></trkpt>
<trkpt lat="52.923179" lon="-3.436405"><ele>169</ele><time>2022-10-15T09:14:00Z</time><name>PT7</name></trkpt>
<trkpt lat="52.923170" lon="-3.436390"><ele>168</ele><time>2022-10-15T09:14:16Z</time><name>PT8</name></trkpt>
<trkpt lat="52.923165" lon="-3.436391"><ele>168</ele><time>2022-10-15T09:14:19Z</time><name>PT9</name></trkpt>
<trkpt lat="52.923109" lon="-3.436362"><ele>167</ele><time>2022-10-15T09:14:37Z</time><name>PT10</name></trkpt>
<trkpt lat="52.923072" lon="-3.436354"><ele>166</ele><time>2022-10-15T09:14:40Z</time><name>PT11</name></trkpt>
<trkpt lat="52.923038" lon="-3.436350"><ele>165</ele><time>2022-10-15T09:14:43Z</time><name>PT12</name></trkpt>
<trkpt lat="52.923002" lon="-3.436334"><ele>163</ele><time>2022-10-15T09:14:47Z</time><name>PT13</name></trkpt>
<trkpt lat="52.922960" lon="-3.436319"><ele>162</ele><time>2022-10-15T09:14:51Z</time><name>PT14</name></trkpt>
<trkpt lat="52.922934" lon="-3.436312"><ele>160</ele><time>2022-10-15T09:14:54Z</time><name>PT15</name></trkpt>
<trkpt lat="52.922891" lon="-3.436294"><ele>159</ele><time>2022-10-15T09:14:58Z</time><name>PT16</name></trkpt>
<trkpt lat="52.922868" lon="-3.436282"><ele>156</ele><time>2022-10-15T09:15:01Z</time><name>PT17</name></trkpt>
<trkpt lat="52.922825" lon="-3.436271"><ele>154</ele><time>2022-10-15T09:15:05Z</time><name>PT18</name></trkpt>
<trkpt lat="52.922789" lon="-3.436274"><ele>153</ele><time>2022-10-15T09:15:09Z</time><name>PT19</name></trkpt>
<trkpt lat="52.922762" lon="-3.436278"><ele>152</ele><time>2022-10-15T09:15:12Z</time><name>PT20</name></trkpt>
<trkpt lat="52.922726" lon="-3.436281"><ele>152</ele><time>2022-10-15T09:15:15Z</time><name>PT21</name></trkpt>
<trkpt lat="52.922700" lon="-3.436285"><ele>151</ele><time>2022-10-15T09:15:18Z</time><name>PT22</name></trkpt>
<trkpt lat="52.922663" lon="-3.436285"><ele>151</ele><time>2022-10-15T09:15:21Z</time><name>PT23</name></trkpt>
<trkpt lat="52.922612" lon="-3.436288"><ele>152</ele><time>2022-10-15T09:15:25Z</time><name>PT24</name></trkpt>
<trkpt lat="52.922571" lon="-3.436291"><ele>155</ele><time>2022-10-15T09:15:28Z</time><name>PT25</name></trkpt>
<trkpt lat="52.922528" lon="-3.436290"><ele>155</ele><time>2022-10-15T09:15:31Z</time><name>PT26</name></trkpt>
<trkpt lat="52.922474" lon="-3.436299"><ele>155</ele><time>2022-10-15T09:15:35Z</time><name>PT27</name></trkpt>
<trkpt lat="52.922427" lon="-3.436311"><ele>156</ele><time>2022-10-15T09:15:38Z</time><name>PT28</name></trkpt>
<trkpt lat="52.922391" lon="-3.436320"><ele>156</ele><time>2022-10-15T09:15:41Z</time><name>PT29</name></trkpt>
<trkpt lat="52.922344" lon="-3.436332"><ele>158</ele><time>2022-10-15T09:15:45Z</time><name>PT30</name></trkpt>
<trkpt lat="52.922293" lon="-3.436339"><ele>158</ele><time>2022-10-15T09:15:49Z</time><name>PT31</name></trkpt>
<trkpt lat="52.922250" lon="-3.436352"><ele>158</ele><time>2022-10-15T09:15:53Z</time><name>PT32</name></trkpt>
<trkpt lat="52.922205" lon="-3.436365"><ele>157</ele><time>2022-10-15T09:15:57Z</time><name>PT33</name></trkpt>
<trkpt lat="52.922186" lon="-3.436387"><ele>157</ele><time>2022-10-15T09:16:00Z</time><name>PT34</name></trkpt>
<trkpt lat="52.922175" lon="-3.436381"><ele>157</ele><time>2022-10-15T09:16:04Z</time><name>PT35</name></trkpt>
<trkpt lat="52.922170" lon="-3.436381"><ele>158</ele><time>2022-10-15T09:16:08Z</time><name>PT36</name></trkpt>
<trkpt lat="52.922169" lon="-3.436384"><ele>158</ele><time>2022-10-15T09:16:12Z</time><name>PT37</name></trkpt>
<trkpt lat="52.922165" lon="-3.436371"><ele>158</ele><time>2022-10-15T09:16:19Z</time><name>PT38</name></trkpt>
<trkpt lat="52.922099" lon="-3.436390"><ele>157</ele><time>2022-10-15T09:16:23Z</time><name>PT39</name></trkpt>
<trkpt lat="52.922070" lon="-3.436413"><ele>156</ele><time>2022-10-15T09:16:26Z</time><name>PT40</name></trkpt>
<trkpt lat="52.922026" lon="-3.436402"><ele>156</ele><time>2022-10-15T09:16:30Z</time><name>PT41</name></trkpt>
<trkpt lat="52.921980" lon="-3.436406"><ele>160</ele><time>2022-10-15T09:16:33Z</time><name>PT42</name></trkpt>
<trkpt lat="52.921928" lon="-3.436409"><ele>162</ele><time>2022-10-15T09:16:37Z</time><name>PT43</name></trkpt>
<trkpt lat="52.921891" lon="-3.436417"><ele>164</ele><time>2022-10-15T09:16:40Z</time><name>PT44</name></trkpt>
<trkpt lat="52.921842" lon="-3.436436"><ele>164</ele><time>2022-10-15T09:16:44Z</time><name>PT45</name></trkpt>
<trkpt lat="52.921797" lon="-3.436444"><ele>164</ele><time>2022-10-15T09:16:48Z</time><name>PT46</name></trkpt>
<trkpt lat="52.921772" lon="-3.436452"><ele>163</ele><time>2022-10-15T09:16:51Z</time><name>PT47</name></trkpt>
<trkpt lat="52.921756" lon="-3.436469"><ele>163</ele><time>2022-10-15T09:16:55Z</time><name>PT48</name></trkpt>
<trkpt lat="52.921754" lon="-3.436469"><ele>162</ele><time>2022-10-15T09:16:58Z</time><name>PT49</name></trkpt>
<trkpt lat="52.921754" lon="-3.436469"><ele>162</ele><time>2022-10-15T09:17:06Z</time><name>PT50</name></trkpt>
<trkpt lat="52.921782" lon="-3.436447"><ele>162</ele><time>2022-10-15T09:17:10Z</time><name>PT51</name></trkpt>
<trkpt lat="52.921822" lon="-3.436436"><ele>161</ele><time>2022-10-15T09:17:14Z</time><name>PT52</name></trkpt>
<trkpt lat="52.921859" lon="-3.436432"><ele>161</ele><time>2022-10-15T09:17:18Z</time><name>PT53</name></trkpt>
<trkpt lat="52.921893" lon="-3.436427"><ele>161</ele><time>2022-10-15T09:17:21Z</time><name>PT54</name></trkpt>
<trkpt lat="52.921930" lon="-3.436430"><ele>161</ele><time>2022-10-15T09:17:25Z</time><name>PT55</name></trkpt>
<trkpt lat="52.921935" lon="-3.436428"><ele>161</ele><time>2022-10-15T09:17:28Z</time><name>PT56</name></trkpt>
<trkpt lat="52.921939" lon="-3.436425"><ele>161</ele><time>2022-10-15T09:17:31Z</time><name>PT57</name></trkpt>
<trkpt lat="52.921943" lon="-3.436424"><ele>161</ele><time>2022-10-15T09:17:53Z</time><name>PT58</name></trkpt>
<trkpt lat="52.921951" lon="-3.436423"><ele>160</ele><time>2022-10-15T09:17:56Z</time><name>PT59</name></trkpt>
<trkpt lat="52.921985" lon="-3.436412"><ele>160</ele><time>2022-10-15T09:18:00Z</time><name>PT60</name></trkpt>
<trkpt lat="52.922010" lon="-3.436413"><ele>160</ele><time>2022-10-15T09:18:03Z</time><name>PT61</name></trkpt>
<trkpt lat="52.922043" lon="-3.436414"><ele>160</ele><time>2022-10-15T09:18:07Z</time><name>PT62</name></trkpt>
<trkpt lat="52.922068" lon="-3.436407"><ele>160</ele><time>2022-10-15T09:18:11Z</time><name>PT63</name></trkpt>
<trkpt lat="52.922102" lon="-3.436386"><ele>161</ele><time>2022-10-15T09:18:15Z</time><name>PT64</name></trkpt>
<trkpt lat="52.922127" lon="-3.436373"><ele>162</ele><time>2022-10-15T09:18:18Z</time><name>PT65</name></trkpt>
<trkpt lat="52.922149" lon="-3.436367"><ele>161</ele><time>2022-10-15T09:18:21Z</time><name>PT66</name></trkpt>
<trkpt lat="52.922177" lon="-3.436356"><ele>161</ele><time>2022-10-15T09:18:24Z</time><name>PT67</name></trkpt>
<trkpt lat="52.922226" lon="-3.436341"><ele>160</ele><time>2022-10-15T09:18:28Z</time><name>PT68</name></trkpt>
<trkpt lat="52.922269" lon="-3.436336"><ele>160</ele><time>2022-10-15T09:18:31Z</time><name>PT69</name></trkpt>
<trkpt lat="52.922317" lon="-3.436319"><ele>159</ele><time>2022-10-15T09:18:35Z</time><name>PT70</name></trkpt>
<trkpt lat="52.922351" lon="-3.436307"><ele>158</ele><time>2022-10-15T09:18:38Z</time><name>PT71</name></trkpt>
<trkpt lat="52.922400" lon="-3.436298"><ele>159</ele><time>2022-10-15T09:18:42Z</time><name>PT72</name></trkpt>
<trkpt lat="52.922445" lon="-3.436291"><ele>160</ele><time>2022-10-15T09:18:46Z</time><name>PT73</name></trkpt>
<trkpt lat="52.922477" lon="-3.436279"><ele>160</ele><time>2022-10-15T09:18:49Z</time><name>PT74</name></trkpt>
<trkpt lat="52.922526" lon="-3.436268"><ele>162</ele><time>2022-10-15T09:18:52Z</time><name>PT75</name></trkpt>
<trkpt lat="52.922575" lon="-3.436243"><ele>162</ele><time>2022-10-15T09:18:56Z</time><name>PT76</name></trkpt>
<trkpt lat="52.922605" lon="-3.436239"><ele>160</ele><time>2022-10-15T09:18:59Z</time><name>PT77</name></trkpt>
<trkpt lat="52.922635" lon="-3.436246"><ele>158</ele><time>2022-10-15T09:19:03Z</time><name>PT78</name></trkpt>
<trkpt lat="52.922674" lon="-3.436255"><ele>157</ele><time>2022-10-15T09:19:06Z</time><name>PT79</name></trkpt>
<trkpt lat="52.922714" lon="-3.436248"><ele>158</ele><time>2022-10-15T09:19:10Z</time><name>PT80</name></trkpt>
<trkpt lat="52.922763" lon="-3.436262"><ele>156</ele><time>2022-10-15T09:19:14Z</time><name>PT81</name></trkpt>
<trkpt lat="52.922801" lon="-3.436267"><ele>156</ele><time>2022-10-15T09:19:17Z</time><name>PT82</name></trkpt>
<trkpt lat="52.922832" lon="-3.436250"><ele>153</ele><time>2022-10-15T09:19:21Z</time><name>PT83</name></trkpt>
<trkpt lat="52.922856" lon="-3.436246"><ele>152</ele><time>2022-10-15T09:19:24Z</time><name>PT84</name></trkpt>
<trkpt lat="52.922884" lon="-3.436249"><ele>156</ele><time>2022-10-15T09:19:27Z</time><name>PT85</name></trkpt>
<trkpt lat="52.922920" lon="-3.436211"><ele>160</ele><time>2022-10-15T09:19:31Z</time><name>PT86</name></trkpt>
<trkpt lat="52.922944" lon="-3.436163"><ele>160</ele><time>2022-10-15T09:19:34Z</time><name>PT87</name></trkpt>
<trkpt lat="52.922973" lon="-3.436108"><ele>160</ele><time>2022-10-15T09:19:37Z</time><name>PT88</name></trkpt>
<trkpt lat="52.922993" lon="-3.436056"><ele>161</ele><time>2022-10-15T09:19:40Z</time><name>PT89</name></trkpt>
<trkpt lat="52.923015" lon="-3.435997"><ele>162</ele><time>2022-10-15T09:19:43Z</time><name>PT90</name></trkpt>
<trkpt lat="52.923033" lon="-3.435934"><ele>161</ele><time>2022-10-15T09:19:47Z</time><name>PT91</name></trkpt>
<trkpt lat="52.923058" lon="-3.435866"><ele>162</ele><time>2022-10-15T09:19:51Z</time><name>PT92</name></trkpt>
<trkpt lat="52.923077" lon="-3.435789"><ele>164</ele><time>2022-10-15T09:19:55Z</time><name>PT93</name></trkpt>
<trkpt lat="52.923087" lon="-3.435746"><ele>163</ele><time>2022-10-15T09:19:58Z</time><name>PT94</name></trkpt>
<trkpt lat="52.923097" lon="-3.435710"><ele>162</ele><time>2022-10-15T09:20:01Z</time><name>PT95</name></trkpt>
<trkpt lat="52.923099" lon="-3.435688"><ele>162</ele><time>2022-10-15T09:20:04Z</time><name>PT96</name></trkpt>
<trkpt lat="52.923090" lon="-3.435644"><ele>163</ele><time>2022-10-15T09:20:08Z</time><name>PT97</name></trkpt>
<trkpt lat="52.923064" lon="-3.435634"><ele>161</ele><time>2022-10-15T09:20:12Z</time><name>PT98</name></trkpt>
<trkpt lat="52.923045" lon="-3.435613"><ele>160</ele><time>2022-10-15T09:20:15Z</time><name>PT99</name></trkpt>
<trkpt lat="52.923016" lon="-3.435578"><ele>160</ele><time>2022-10-15T09:20:19Z</time><name>PT100</name></trkpt>
<trkpt lat="52.922985" lon="-3.435543"><ele>159</ele><time>2022-10-15T09:20:23Z</time><name>PT101</name></trkpt>
<trkpt lat="52.922966" lon="-3.435539"><ele>158</ele><time>2022-10-15T09:20:26Z</time><name>PT102</name></trkpt>
<trkpt lat="52.922934" lon="-3.435526"><ele>157</ele><time>2022-10-15T09:20:30Z</time><name>PT103</name></trkpt>
<trkpt lat="52.922897" lon="-3.435501"><ele>156</ele><time>2022-10-15T09:20:34Z</time><name>PT104</name></trkpt>
<trkpt lat="52.922870" lon="-3.435485"><ele>154</ele><time>2022-10-15T09:20:37Z</time><name>PT105</name></trkpt>
<trkpt lat="52.922851" lon="-3.435483"><ele>152</ele><time>2022-10-15T09:20:40Z</time><name>PT106</name></trkpt>
<trkpt lat="52.922837" lon="-3.435488"><ele>153</ele><time>2022-10-15T09:20:43Z</time><name>PT107</name></trkpt>
<trkpt lat="52.922809" lon="-3.435469"><ele>149</ele><time>2022-10-15T09:20:46Z</time><name>PT108</name></trkpt>
<trkpt lat="52.922767" lon="-3.435446"><ele>146</ele><time>2022-10-15T09:20:50Z</time><name>PT109</name></trkpt>
<trkpt lat="52.922737" lon="-3.435440"><ele>145</ele><time>2022-10-15T09:20:53Z</time><name>PT110</name></trkpt>
<trkpt lat="52.922693" lon="-3.435427"><ele>148</ele><time>2022-10-15T09:20:56Z</time><name>PT111</name></trkpt>
<trkpt lat="52.922657" lon="-3.435407"><ele>147</ele><time>2022-10-15T09:21:00Z</time><name>PT112</name></trkpt>
<trkpt lat="52.922626" lon="-3.435380"><ele>147</ele><time>2022-10-15T09:21:03Z</time><name>PT113</name></trkpt>
<trkpt lat="52.922586" lon="-3.435364"><ele>148</ele><time>2022-10-15T09:21:06Z</time><name>PT114</name></trkpt>
<trkpt lat="52.922525" lon="-3.435324"><ele>151</ele><time>2022-10-15T09:21:10Z</time><name>PT115</name></trkpt>
<trkpt lat="52.922467" lon="-3.435283"><ele>153</ele><time>2022-10-15T09:21:14Z</time><name>PT116</name></trkpt>
<trkpt lat="52.922426" lon="-3.435243"><ele>154</ele><time>2022-10-15T09:21:18Z</time><name>PT117</name></trkpt>
<trkpt lat="52.922383" lon="-3.435216"><ele>155</ele><time>2022-10-15T09:21:22Z</time><name>PT118</name></trkpt>
<trkpt lat="52.922346" lon="-3.435184"><ele>159</ele><time>2022-10-15T09:21:25Z</time><name>PT119</name></trkpt>
<trkpt lat="52.922318" lon="-3.435163"><ele>160</ele><time>2022-10-15T09:21:29Z</time><name>PT120</name></trkpt>
<trkpt lat="52.922301" lon="-3.435156"><ele>160</ele><time>2022-10-15T09:21:33Z</time><name>PT121</name></trkpt>
<trkpt lat="52.922271" lon="-3.435143"><ele>161</ele><time>2022-10-15T09:21:36Z</time><name>PT122</name></trkpt>
<trkpt lat="52.922215" lon="-3.435133"><ele>165</ele><time>2022-10-15T09:21:40Z</time><name>PT123</name></trkpt>
<trkpt lat="52.922207" lon="-3.435130"><ele>167</ele><time>2022-10-15T09:21:44Z</time><name>PT124</name></trkpt>
<trkpt lat="52.922184" lon="-3.435128"><ele>167</ele><time>2022-10-15T09:21:47Z</time><name>PT125</name></trkpt>
<trkpt lat="52.922143" lon="-3.435096"><ele>166</ele><time>2022-10-15T09:21:51Z</time><name>PT126</name></trkpt>
<trkpt lat="52.922114" lon="-3.435077"><ele>166</ele><time>2022-10-15T09:21:55Z</time><name>PT127</name></trkpt>
<trkpt lat="52.922077" lon="-3.435042"><ele>165</ele><time>2022-10-15T09:21:59Z</time><name>PT128</name></trkpt>
<trkpt lat="52.922033" lon="-3.435026"><ele>164</ele><time>2022-10-15T09:22:03Z</time><name>PT129</name></trkpt>
<trkpt lat="52.921989" lon="-3.434997"><ele>162</ele><time>2022-10-15T09:22:07Z</time><name>PT130</name></trkpt>
<trkpt lat="52.921940" lon="-3.434956"><ele>160</ele><time>2022-10-15T09:22:11Z</time><name>PT131</name></trkpt>
<trkpt lat="52.921904" lon="-3.434931"><ele>159</ele><time>2022-10-15T09:22:14Z</time><name>PT132</name></trkpt>
<trkpt lat="52.921869" lon="-3.434901"><ele>159</ele><time>2022-10-15T09:22:17Z</time><name>PT133</name></trkpt>
<trkpt lat="52.921824" lon="-3.434867"><ele>159</ele><time>2022-10-15T09:22:21Z</time><name>PT134</name></trkpt>
<trkpt lat="52.921785" lon="-3.434841"><ele>160</ele><time>2022-10-15T09:22:25Z</time><name>PT135</name></trkpt>
<trkpt lat="52.921756" lon="-3.434814"><ele>160</ele><time>2022-10-15T09:22:28Z</time><name>PT136</name></trkpt>
<trkpt lat="52.921727" lon="-3.434790"><ele>161</ele><time>2022-10-15T09:22:31Z</time><name>PT137</name></trkpt>
<trkpt lat="52.921692" lon="-3.434762"><ele>162</ele><time>2022-10-15T09:22:35Z</time><name>PT138</name></trkpt>
<trkpt lat="52.921659" lon="-3.434727"><ele>163</ele><time>2022-10-15T09:22:39Z</time><name>PT139</name></trkpt>
<trkpt lat="52.921635" lon="-3.434665"><ele>164</ele><time>2022-10-15T09:22:43Z</time><name>PT140</name></trkpt>
<trkpt lat="52.921615" lon="-3.434597"><ele>164</ele><time>2022-10-15T09:22:47Z</time><name>PT141</name></trkpt>
<trkpt lat="52.921603" lon="-3.434547"><ele>164</ele><time>2022-10-15T09:22:50Z</time><name>PT142</name></trkpt>
<trkpt lat="52.921584" lon="-3.434483"><ele>164</ele><time>2022-10-15T09:22:54Z</time><name>PT143</name></trkpt>
<trkpt lat="52.921560" lon="-3.434413"><ele>164</ele><time>2022-10-15T09:22:58Z</time><name>PT144</name></trkpt>
<trkpt lat="52.921536" lon="-3.434343"><ele>165</ele><time>2022-10-15T09:23:02Z</time><name>PT145</name></trkpt>
<trkpt lat="52.921519" lon="-3.434293"><ele>165</ele><time>2022-10-15T09:23:05Z</time><name>PT146</name></trkpt>
<trkpt lat="52.921496" lon="-3.434226"><ele>165</ele><time>2022-10-15T09:23:09Z</time><name>PT147</name></trkpt>
<trkpt lat="52.921473" lon="-3.434156"><ele>165</ele><time>2022-10-15T09:23:13Z</time><name>PT148</name></trkpt>
<trkpt lat="52.921456" lon="-3.434102"><ele>165</ele><time>2022-10-15T09:23:16Z</time><name>PT149</name></trkpt>
<trkpt lat="52.921433" lon="-3.434030"><ele>165</ele><time>2022-10-15T09:23:20Z</time><name>PT150</name></trkpt>
<trkpt lat="52.921420" lon="-3.433941"><ele>165</ele><time>2022-10-15T09:23:24Z</time><name>PT151</name></trkpt>
<trkpt lat="52.921414" lon="-3.433884"><ele>165</ele><time>2022-10-15T09:23:27Z</time><name>PT152</name></trkpt>
<trkpt lat="52.921408" lon="-3.433828"><ele>165</ele><time>2022-10-15T09:23:30Z</time><name>PT153</name></trkpt>
<trkpt lat="52.921400" lon="-3.433762"><ele>165</ele><time>2022-10-15T09:23:34Z</time><name>PT154</name></trkpt>
<trkpt lat="52.921392" lon="-3.433730"><ele>165</ele><time>2022-10-15T09:23:37Z</time><name>PT155</name></trkpt>
<trkpt lat="52.921387" lon="-3.433715"><ele>164</ele><time>2022-10-15T09:23:41Z</time><name>PT156</name></trkpt>
<trkpt lat="52.921385" lon="-3.433710"><ele>164</ele><time>2022-10-15T09:23:47Z</time><name>PT157</name></trkpt>
<trkpt lat="52.921349" lon="-3.433722"><ele>163</ele><time>2022-10-15T09:23:51Z</time><name>PT158</name></trkpt>
<trkpt lat="52.921327" lon="-3.433742"><ele>162</ele><time>2022-10-15T09:23:54Z</time><name>PT159</name></trkpt>
<trkpt lat="52.921290" lon="-3.433750"><ele>161</ele><time>2022-10-15T09:23:58Z</time><name>PT160</name></trkpt>
<trkpt lat="52.921246" lon="-3.433746"><ele>160</ele><time>2022-10-15T09:24:02Z</time><name>PT161</name></trkpt>
<trkpt lat="52.921211" lon="-3.433743"><ele>159</ele><time>2022-10-15T09:24:05Z</time><name>PT162</name></trkpt>
<trkpt lat="52.921170" lon="-3.433741"><ele>159</ele><time>2022-10-15T09:24:09Z</time><name>PT163</name></trkpt>
<trkpt lat="52.921128" lon="-3.433715"><ele>158</ele><time>2022-10-15T09:24:12Z</time><name>PT164</name></trkpt>
<trkpt lat="52.921083" lon="-3.433691"><ele>158</ele><time>2022-10-15T09:24:16Z</time><name>PT165</name></trkpt>
<trkpt lat="52.921035" lon="-3.433653"><ele>158</ele><time>2022-10-15T09:24:20Z</time><name>PT166</name></trkpt>
<trkpt lat="52.920991" lon="-3.433616"><ele>157</ele><time>2022-10-15T09:24:24Z</time><name>PT167</name></trkpt>
<trkpt lat="52.920949" lon="-3.433599"><ele>157</ele><time>2022-10-15T09:24:28Z</time><name>PT168</name></trkpt>
<trkpt lat="52.920914" lon="-3.433571"><ele>156</ele><time>2022-10-15T09:24:32Z</time><name>PT169</name></trkpt>
<trkpt lat="52.920890" lon="-3.433552"><ele>155</ele><time>2022-10-15T09:24:35Z</time><name>PT170</name></trkpt>
<trkpt lat="52.920864" lon="-3.433531"><ele>155</ele><time>2022-10-15T09:24:38Z</time><name>PT171</name></trkpt>
<trkpt lat="52.920818" lon="-3.433508"><ele>156</ele><time>2022-10-15T09:24:42Z</time><name>PT172</name></trkpt>
<trkpt lat="52.920772" lon="-3.433497"><ele>156</ele><time>2022-10-15T09:24:46Z</time><name>PT173</name></trkpt>
<trkpt lat="52.920723" lon="-3.433474"><ele>156</ele><time>2022-10-15T09:24:50Z</time><name>PT174</name></trkpt>
<trkpt lat="52.920678" lon="-3.433443"><ele>156</ele><time>2022-10-15T09:24:54Z</time><name>PT175</name></trkpt>
<trkpt lat="52.920647" lon="-3.433426"><ele>156</ele><time>2022-10-15T09:24:58Z</time><name>PT176</name></trkpt>
<trkpt lat="52.920641" lon="-3.433429"><ele>156</ele><time>2022-10-15T09:25:01Z</time><name>PT177</name></trkpt>
<trkpt lat="52.920617" lon="-3.433427"><ele>156</ele><time>2022-10-15T09:25:09Z</time><name>PT178</name></trkpt>
<trkpt lat="52.920563" lon="-3.433381"><ele>156</ele><time>2022-10-15T09:25:13Z</time><name>PT179</name></trkpt>
<trkpt lat="52.920512" lon="-3.433332"><ele>156</ele><time>2022-10-15T09:25:17Z</time><name>PT180</name></trkpt>
<trkpt lat="52.920483" lon="-3.433302"><ele>156</ele><time>2022-10-15T09:25:20Z</time><name>PT181</name></trkpt>
<trkpt lat="52.920454" lon="-3.433269"><ele>156</ele><time>2022-10-15T09:25:23Z</time><name>PT182</name></trkpt>
<trkpt lat="52.920423" lon="-3.433213"><ele>156</ele><time>2022-10-15T09:25:27Z</time><name>PT183</name></trkpt>
<trkpt lat="52.920394" lon="-3.433169"><ele>157</ele><time>2022-10-15T09:25:30Z</time><name>PT184</name></trkpt>
<trkpt lat="52.920369" lon="-3.433124"><ele>156</ele><time>2022-10-15T09:25:34Z</time><name>PT185</name></trkpt>
<trkpt lat="52.920351" lon="-3.433081"><ele>157</ele><time>2022-10-15T09:25:37Z</time><name>PT186</name></trkpt>
<trkpt lat="52.920337" lon="-3.433046"><ele>158</ele><time>2022-10-15T09:25:41Z</time><name>PT187</name></trkpt>
<trkpt lat="52.920324" lon="-3.433015"><ele>158</ele><time>2022-10-15T09:25:44Z</time><name>PT188</name></trkpt>
<trkpt lat="52.920302" lon="-3.432956"><ele>158</ele><time>2022-10-15T09:25:48Z</time><name>PT189</name></trkpt>
<trkpt lat="52.920273" lon="-3.432885"><ele>162</ele><time>2022-10-15T09:25:52Z</time><name>PT190</name></trkpt>
<trkpt lat="52.920252" lon="-3.432836"><ele>164</ele><time>2022-10-15T09:25:55Z</time><name>PT191</name></trkpt>
<trkpt lat="52.920224" lon="-3.432779"><ele>167</ele><time>2022-10-15T09:25:59Z</time><name>PT192</name></trkpt>
<trkpt lat="52.920201" lon="-3.432726"><ele>167</ele><time>2022-10-15T09:26:03Z</time><name>PT193</name></trkpt>
<trkpt lat="52.920171" lon="-3.432673"><ele>169</ele><time>2022-10-15T09:26:07Z</time><name>PT194</name></trkpt>
<trkpt lat="52.920142" lon="-3.432617"><ele>172</ele><time>2022-10-15T09:26:11Z</time><name>PT195</name></trkpt>
<trkpt lat="52.920111" lon="-3.432571"><ele>175</ele><time>2022-10-15T09:26:14Z</time><name>PT196</name></trkpt>
<trkpt lat="52.920077" lon="-3.432515"><ele>176</ele><time>2022-10-15T09:26:18Z</time><name>PT197</name></trkpt>
<trkpt lat="52.920057" lon="-3.432469"><ele>177</ele><time>2022-10-15T09:26:21Z</time><name>PT198</name></trkpt>
<trkpt lat="52.920023" lon="-3.432415"><ele>179</ele><time>2022-10-15T09:26:25Z</time><name>PT199</name></trkpt>
<trkpt lat="52.919994" lon="-3.432366"><ele>179</ele><time>2022-10-15T09:26:29Z</time><name>PT200</name></trkpt>
<trkpt lat="52.919964" lon="-3.432316"><ele>180</ele><time>2022-10-15T09:26:33Z</time><name>PT201</name></trkpt>
<trkpt lat="52.919933" lon="-3.432257"><ele>181</ele><time>2022-10-15T09:26:37Z</time><name>PT202</name></trkpt>
<trkpt lat="52.919903" lon="-3.432214"><ele>182</ele><time>2022-10-15T09:26:41Z</time><name>PT203</name></trkpt>
<trkpt lat="52.919879" lon="-3.432166"><ele>184</ele><time>2022-10-15T09:26:45Z</time><name>PT204</name></trkpt>
<trkpt lat="52.919870" lon="-3.432123"><ele>185</ele><time>2022-10-15T09:26:49Z</time><name>PT205</name></trkpt>
<trkpt lat="52.919850" lon="-3.432089"><ele>185</ele><time>2022-10-15T09:26:52Z</time><name>PT206</name></trkpt>
<trkpt lat="52.919831" lon="-3.432054"><ele>186</ele><time>2022-10-15T09:26:55Z</time><name>PT207</name></trkpt>
<trkpt lat="52.919811" lon="-3.432000"><ele>187</ele><time>2022-10-15T09:26:59Z</time><name>PT208</name></trkpt>
<trkpt lat="52.919794" lon="-3.431958"><ele>187</ele><time>2022-10-15T09:27:03Z</time><name>PT209</name></trkpt>
<trkpt lat="52.919776" lon="-3.431928"><ele>188</ele><time>2022-10-15T09:27:06Z</time><name>PT210</name></trkpt>
<trkpt lat="52.919756" lon="-3.431908"><ele>188</ele><time>2022-10-15T09:27:10Z</time><name>PT211</name></trkpt>
<trkpt lat="52.919741" lon="-3.431893"><ele>188</ele><time>2022-10-15T09:27:14Z</time><name>PT212</name></trkpt>
<trkpt lat="52.919724" lon="-3.431884"><ele>188</ele><time>2022-10-15T09:27:28Z</time><name>PT213</name></trkpt>
<trkpt lat="52.919699" lon="-3.431849"><ele>188</ele><time>2022-10-15T09:27:31Z</time><name>PT214</name></trkpt>
<trkpt lat="52.919662" lon="-3.431808"><ele>188</ele><time>2022-10-15T09:27:35Z</time><name>PT215</name></trkpt>
<trkpt lat="52.919634" lon="-3.431780"><ele>188</ele><time>2022-10-15T09:27:39Z</time><name>PT216</name></trkpt>
<trkpt lat="52.919602" lon="-3.431742"><ele>188</ele><time>2022-10-15T09:27:43Z</time><name>PT217</name></trkpt>
<trkpt lat="52.919589" lon="-3.431726"><ele>189</ele><time>2022-10-15T09:27:47Z</time><name>PT218</name></trkpt>
<trkpt lat="52.919549" lon="-3.431691"><ele>190</ele><time>2022-10-15T09:27:59Z</time><name>PT219</name></trkpt>
<trkpt lat="52.919516" lon="-3.431641"><ele>191</ele><time>2022-10-15T09:28:03Z</time><name>PT220</name></trkpt>
<trkpt lat="52.919493" lon="-3.431586"><ele>190</ele><time>2022-10-15T09:28:07Z</time><name>PT221</name></trkpt>
<trkpt lat="52.919482" lon="-3.431566"><ele>190</ele><time>2022-10-15T09:28:11Z</time><name>PT222</name></trkpt>
<trkpt lat="52.919443" lon="-3.431529"><ele>191</ele><time>2022-10-15T09:28:22Z</time><name>PT223</name></trkpt>
<trkpt lat="52.919398" lon="-3.431487"><ele>191</ele><time>2022-10-15T09:28:26Z</time><name>PT224</name></trkpt>
<trkpt lat="52.919371" lon="-3.431462"><ele>191</ele><time>2022-10-15T09:28:29Z</time><name>PT225</name></trkpt>
<trkpt lat="52.919349" lon="-3.431441"><ele>191</ele><time>2022-10-15T09:28:32Z</time><name>PT226</name></trkpt>
<trkpt lat="52.919315" lon="-3.431416"><ele>191</ele><time>2022-10-15T09:28:36Z</time><name>PT227</name></trkpt>
<trkpt lat="52.919295" lon="-3.431391"><ele>191</ele><time>2022-10-15T09:28:39Z</time><name>PT228</name></trkpt>
<trkpt lat="52.919270" lon="-3.431366"><ele>192</ele><time>2022-10-15T09:28:42Z</time><name>PT229</name></trkpt>
<trkpt lat="52.919244" lon="-3.431333"><ele>193</ele><time>2022-10-15T09:28:46Z</time><name>PT230</name></trkpt>
<trkpt lat="52.919212" lon="-3.431306"><ele>193</ele><time>2022-10-15T09:28:50Z</time><name>PT231</name></trkpt>
<trkpt lat="52.919189" lon="-3.431273"><ele>194</ele><time>2022-10-15T09:28:54Z</time><name>PT232</name></trkpt>
<trkpt lat="52.919168" lon="-3.431247"><ele>195</ele><time>2022-10-15T09:28:58Z</time><name>PT233</name></trkpt>
<trkpt lat="52.919166" lon="-3.431242"><ele>195</ele><time>2022-10-15T09:29:02Z</time><name>PT234</name></trkpt>
<trkpt lat="52.919166" lon="-3.431239"><ele>195</ele><time>2022-10-15T09:29:05Z</time><name>PT235</name></trkpt>
<trkpt lat="52.919142" lon="-3.431195"><ele>195</ele><time>2022-10-15T09:29:09Z</time><name>PT236</name></trkpt>
<trkpt lat="52.919121" lon="-3.431180"><ele>196</ele><time>2022-10-15T09:29:13Z</time><name>PT237</name></trkpt>
<trkpt lat="52.919105" lon="-3.431170"><ele>196</ele><time>2022-10-15T09:29:21Z</time><name>PT238</name></trkpt>
<trkpt lat="52.919079" lon="-3.431145"><ele>197</ele><time>2022-10-15T09:29:25Z</time><name>PT239</name></trkpt>
<trkpt lat="52.919050" lon="-3.431130"><ele>197</ele><time>2022-10-15T09:29:33Z</time><name>PT240</name></trkpt>
<trkpt lat="52.919022" lon="-3.431120"><ele>197</ele><time>2022-10-15T09:29:37Z</time><name>PT241</name></trkpt>
<trkpt lat="52.918987" lon="-3.431097"><ele>197</ele><time>2022-10-15T09:29:41Z</time><name>PT242</name></trkpt>
<trkpt lat="52.918949" lon="-3.431084"><ele>197</ele><time>2022-10-15T09:29:44Z</time><name>PT243</name></trkpt>
<trkpt lat="52.918914" lon="-3.431079"><ele>199</ele><time>2022-10-15T09:29:48Z</time><name>PT244</name></trkpt>
<trkpt lat="52.918895" lon="-3.431075"><ele>200</ele><time>2022-10-15T09:29:51Z</time><name>PT245</name></trkpt>
<trkpt lat="52.918894" lon="-3.431076"><ele>200</ele><time>2022-10-15T09:29:55Z</time><name>PT246</name></trkpt>
<trkpt lat="52.918871" lon="-3.431066"><ele>201</ele><time>2022-10-15T09:29:59Z</time><name>PT247</name></trkpt>
<trkpt lat="52.918866" lon="-3.431062"><ele>201</ele><time>2022-10-15T09:30:03Z</time><name>PT248</name></trkpt>
<trkpt lat="52.918858" lon="-3.431048"><ele>200</ele><time>2022-10-15T09:30:06Z</time><name>PT249</name></trkpt>
<trkpt lat="52.918800" lon="-3.431048"><ele>201</ele><time>2022-10-15T09:30:26Z</time><name>PT250</name></trkpt>
<trkpt lat="52.918755" lon="-3.431029"><ele>201</ele><time>2022-10-15T09:30:30Z</time><name>PT251</name></trkpt>
<trkpt lat="52.918715" lon="-3.431020"><ele>201</ele><time>2022-10-15T09:30:34Z</time><name>PT252</name></trkpt>
<trkpt lat="52.918676" lon="-3.431014"><ele>202</ele><time>2022-10-15T09:30:38Z</time><name>PT253</name></trkpt>
<trkpt lat="52.918636" lon="-3.431007"><ele>202</ele><time>2022-10-15T09:30:42Z</time><name>PT254</name></trkpt>
<trkpt lat="52.918601" lon="-3.430988"><ele>201</ele><time>2022-10-15T09:30:46Z</time><name>PT255</name></trkpt>
<trkpt lat="52.918570" lon="-3.430970"><ele>201</ele><time>2022-10-15T09:30:50Z</time><name>PT256</name></trkpt>
<trkpt lat="52.918514" lon="-3.430967"><ele>204</ele><time>2022-10-15T09:30:54Z</time><name>PT257</name></trkpt>
<trkpt lat="52.918477" lon="-3.430974"><ele>204</ele><time>2022-10-15T09:30:58Z</time><name>PT258</name></trkpt>
<trkpt lat="52.918439" lon="-3.430970"><ele>205</ele><time>2022-10-15T09:31:02Z</time><name>PT259</name></trkpt>
<trkpt lat="52.918404" lon="-3.430965"><ele>205</ele><time>2022-10-15T09:31:06Z</time><name>PT260</name></trkpt>
<trkpt lat="52.918369" lon="-3.430963"><ele>206</ele><time>2022-10-15T09:31:10Z</time><name>PT261</name></trkpt>
<trkpt lat="52.918339" lon="-3.430966"><ele>207</ele><time>2022-10-15T09:31:14Z</time><name>PT262</name></trkpt>
<trkpt lat="52.918301" lon="-3.430989"><ele>209</ele><time>2022-10-15T09:31:18Z</time><name>PT263</name></trkpt>
<trkpt lat="52.918279" lon="-3.430992"><ele>210</ele><time>2022-10-15T09:31:22Z</time><name>PT264</name></trkpt>
<trkpt lat="52.918194" lon="-3.430978"><ele>211</ele><time>2022-10-15T09:31:41Z</time><name>PT265</name></trkpt>
<trkpt lat="52.918130" lon="-3.430977"><ele>211</ele><time>2022-10-15T09:31:45Z</time><name>PT266</name></trkpt>
<trkpt lat="52.918086" lon="-3.430961"><ele>211</ele><time>2022-10-15T09:31:49Z</time><name>PT267</name></trkpt>
<trkpt lat="52.918056" lon="-3.430962"><ele>210</ele><time>2022-10-15T09:31:53Z</time><name>PT268</name></trkpt>
<trkpt lat="52.918017" lon="-3.430962"><ele>210</ele><time>2022-10-15T09:31:57Z</time><name>PT269</name></trkpt>
<trkpt lat="52.917984" lon="-3.430949"><ele>209</ele><time>2022-10-15T09:32:01Z</time><name>PT270</name></trkpt>
<trkpt lat="52.917963" lon="-3.430940"><ele>209</ele><time>2022-10-15T09:32:04Z</time><name>PT271</name></trkpt>
<trkpt lat="52.917953" lon="-3.430938"><ele>209</ele><time>2022-10-15T09:32:08Z</time><name>PT272</name></trkpt>
<trkpt lat="52.917945" lon="-3.430937"><ele>210</ele><time>2022-10-15T09:32:23Z</time><name>PT273</name></trkpt>
<trkpt lat="52.917886" lon="-3.430927"><ele>209</ele><time>2022-10-15T09:32:27Z</time><name>PT274</name></trkpt>
<trkpt lat="52.917851" lon="-3.430922"><ele>209</ele><time>2022-10-15T09:32:30Z</time><name>PT275</name></trkpt>
<trkpt lat="52.917842" lon="-3.430923"><ele>210</ele><time>2022-10-15T09:32:34Z</time><name>PT276</name></trkpt>
<trkpt lat="52.917811" lon="-3.430928"><ele>210</ele><time>2022-10-15T09:32:42Z</time><name>PT277</name></trkpt>
<trkpt lat="52.917785" lon="-3.430924"><ele>211</ele><time>2022-10-15T09:32:46Z</time><name>PT278</name></trkpt>
<trkpt lat="52.917760" lon="-3.430921"><ele>212</ele><time>2022-10-15T09:32:49Z</time><name>PT279</name></trkpt>
<trkpt lat="52.917735" lon="-3.430905"><ele>212</ele><time>2022-10-15T09:32:53Z</time><name>PT280</name></trkpt>
<trkpt lat="52.917724" lon="-3.430919"><ele>213</ele><time>2022-10-15T09:32:57Z</time><name>PT281</name></trkpt>
<trkpt lat="52.917667" lon="-3.430920"><ele>212</ele><time>2022-10-15T09:33:01Z</time><name>PT282</name></trkpt>
<trkpt lat="52.917615" lon="-3.430920"><ele>212</ele><time>2022-10-15T09:33:05Z</time><name>PT283</name></trkpt>
<trkpt lat="52.917548" lon="-3.430917"><ele>212</ele><time>2022-10-15T09:33:09Z</time><name>PT284</name></trkpt>
<trkpt lat="52.917510" lon="-3.430903"><ele>213</ele><time>2022-10-15T09:33:13Z</time><name>PT285</name></trkpt>
<trkpt lat="52.917492" lon="-3.430897"><ele>213</ele><time>2022-10-15T09:33:16Z</time><name>PT286</name></trkpt>
<trkpt lat="52.917455" lon="-3.430917"><ele>216</ele><time>2022-10-15T09:33:32Z</time><name>PT287</name></trkpt>
<trkpt lat="52.917384" lon="-3.430922"><ele>217</ele><time>2022-10-15T09:33:36Z</time><name>PT288</name></trkpt>
<trkpt lat="52.917341" lon="-3.430913"><ele>218</ele><time>2022-10-15T09:33:40Z</time><name>PT289</name></trkpt>
<trkpt lat="52.917282" lon="-3.430952"><ele>221</ele><time>2022-10-15T09:33:44Z</time><name>PT290</name></trkpt>
<trkpt lat="52.917247" lon="-3.430955"><ele>223</ele><time>2022-10-15T09:33:48Z</time><name>PT291</name></trkpt>
<trkpt lat="52.917204" lon="-3.430966"><ele>224</ele><time>2022-10-15T09:33:52Z</time><name>PT292</name></trkpt>
<trkpt lat="52.917155" lon="-3.430989"><ele>227</ele><time>2022-10-15T09:33:56Z</time><name>PT293</name></trkpt>
<trkpt lat="52.917128" lon="-3.431012"><ele>228</ele><time>2022-10-15T09:34:00Z</time><name>PT294</name></trkpt>
<trkpt lat="52.917095" lon="-3.431018"><ele>229</ele><time>2022-10-15T09:34:04Z</time><name>PT295</name></trkpt>
<trkpt lat="52.917069" lon="-3.431078"><ele>228</ele><time>2022-10-15T09:34:08Z</time><name>PT296</name></trkpt>
<trkpt lat="52.917020" lon="-3.431108"><ele>229</ele><time>2022-10-15T09:34:12Z</time><name>PT297</name></trkpt>
<trkpt lat="52.916995" lon="-3.431125"><ele>232</ele><time>2022-10-15T09:34:16Z</time><name>PT298</name></trkpt>
<trkpt lat="52.916953" lon="-3.431167"><ele>234</ele><time>2022-10-15T09:34:20Z</time><name>PT299</name></trkpt>
<trkpt lat="52.916909" lon="-3.431220"><ele>236</ele><time>2022-10-15T09:34:24Z</time><name>PT300</name></trkpt>
<trkpt lat="52.916861" lon="-3.431266"><ele>239</ele><time>2022-10-15T09:34:28Z</time><name>PT301</name></trkpt>
<trkpt lat="52.916830" lon="-3.431281"><ele>239</ele><time>2022-10-15T09:34:32Z</time><name>PT302</name></trkpt>
<trkpt lat="52.916810" lon="-3.431305"><ele>239</ele><time>2022-10-15T09:34:36Z</time><name>PT303</name></trkpt>
<trkpt lat="52.916783" lon="-3.431341"><ele>239</ele><time>2022-10-15T09:34:40Z</time><name>PT304</name></trkpt>
<trkpt lat="52.916742" lon="-3.431380"><ele>235</ele><time>2022-10-15T09:34:44Z</time><name>PT305</name></trkpt>
<trkpt lat="52.916697" lon="-3.431446"><ele>237</ele><time>2022-10-15T09:34:48Z</time><name>PT306</name></trkpt>
<trkpt lat="52.916656" lon="-3.431513"><ele>237</ele><time>2022-10-15T09:34:52Z</time><name>PT307</name></trkpt>
<trkpt lat="52.916614" lon="-3.431559"><ele>236</ele><time>2022-10-15T09:34:56Z</time><name>PT308</name></trkpt>
<trkpt lat="52.916579" lon="-3.431596"><ele>234</ele><time>2022-10-15T09:35:00Z</time><name>PT309</name></trkpt>
<trkpt lat="52.916549" lon="-3.431627"><ele>232</ele><time>2022-10-15T09:35:04Z</time><name>PT310</name></trkpt>
<trkpt lat="52.916515" lon="-3.431671"><ele>233</ele><time>2022-10-15T09:35:08Z</time><name>PT311</name></trkpt>
<trkpt lat="52.916501" lon="-3.431689"><ele>234</ele><time>2022-10-15T09:35:12Z</time><name>PT312</name></trkpt>
<trkpt lat="52.916473" lon="-3.431694"><ele>232</ele><time>2022-10-15T09:35:20Z</time><name>PT313</name></trkpt>
<trkpt lat="52.916437" lon="-3.431698"><ele>232</ele><time>2022-10-15T09:35:24Z</time><name>PT314</name></trkpt>
<trkpt lat="52.916388" lon="-3.431722"><ele>232</ele><time>2022-10-15T09:35:28Z</time><name>PT315</name></trkpt>
<trkpt lat="52.916339" lon="-3.431760"><ele>232</ele><time>2022-10-15T09:35:32Z</time><name>PT316</name></trkpt>
<trkpt lat="52.916283" lon="-3.431799"><ele>232</ele><time>2022-10-15T09:35:36Z</time><name>PT317</name></trkpt>
<trkpt lat="52.916221" lon="-3.431838"><ele>234</ele><time>2022-10-15T09:35:40Z</time><name>PT318</name></trkpt>
<trkpt lat="52.916169" lon="-3.431862"><ele>235</ele><time>2022-10-15T09:35:44Z</time><name>PT319</name></trkpt>
<trkpt lat="52.916139" lon="-3.431888"><ele>236</ele><time>2022-10-15T09:35:48Z</time><name>PT320</name></trkpt>
<trkpt lat="52.916135" lon="-3.431895"><ele>237</ele><time>2022-10-15T09:35:52Z</time><name>PT321</name></trkpt>
<trkpt lat="52.916131" lon="-3.431895"><ele>237</ele><time>2022-10-15T09:36:07Z</time><name>PT322</name></trkpt>
<trkpt lat="52.916077" lon="-3.431899"><ele>238</ele><time>2022-10-15T09:36:11Z</time><name>PT323</name></trkpt>
<trkpt lat="52.916053" lon="-3.431907"><ele>237</ele><time>2022-10-15T09:36:14Z</time><name>PT324</name></trkpt>
<trkpt lat="52.916016" lon="-3.431892"><ele>236</ele><time>2022-10-15T09:36:18Z</time><name>PT325</name></trkpt>
<trkpt lat="52.915976" lon="-3.431873"><ele>237</ele><time>2022-10-15T09:36:22Z</time><name>PT326</name></trkpt>
<trkpt lat="52.915946" lon="-3.431850"><ele>235</ele><time>2022-10-15T09:36:26Z</time><name>PT327</name></trkpt>
<trkpt lat="52.915912" lon="-3.431844"><ele>234</ele><time>2022-10-15T09:36:30Z</time><name>PT328</name></trkpt>
<trkpt lat="52.915874" lon="-3.431846"><ele>234</ele><time>2022-10-15T09:36:34Z</time><name>PT329</name></trkpt>
<trkpt lat="52.915842" lon="-3.431840"><ele>234</ele><time>2022-10-15T09:36:38Z</time><name>PT330</name></trkpt>
<trkpt lat="52.915803" lon="-3.431823"><ele>234</ele><time>2022-10-15T09:36:42Z</time><name>PT331</name></trkpt>
<trkpt lat="52.915789" lon="-3.431801"><ele>234</ele><time>2022-10-15T09:36:45Z</time><name>PT332</name></trkpt>
<trkpt lat="52.915757" lon="-3.431809"><ele>233</ele><time>2022-10-15T09:36:49Z</time><name>PT333</name></trkpt>
<trkpt lat="52.915723" lon="-3.431806"><ele>234</ele><time>2022-10-15T09:36:53Z</time><name>PT334</name></trkpt>
<trkpt lat="52.915679" lon="-3.431787"><ele>234</ele><time>2022-10-15T09:36:57Z</time><name>PT335</name></trkpt>
<trkpt lat="52.915634" lon="-3.431787"><ele>234</ele><time>2022-10-15T09:37:01Z</time><name>PT336</name></trkpt>
<trkpt lat="52.915565" lon="-3.431805"><ele>238</ele><time>2022-10-15T09:37:05Z</time><name>PT337</name></trkpt>
<trkpt lat="52.915497" lon="-3.431818"><ele>241</ele><time>2022-10-15T09:37:09Z</time><name>PT338</name></trkpt>
<trkpt lat="52.915457" lon="-3.431844"><ele>240</ele><time>2022-10-15T09:37:13Z</time><name>PT339</name></trkpt>
<trkpt lat="52.915428" lon="-3.431838"><ele>239</ele><time>2022-10-15T09:37:17Z</time><name>PT340</name></trkpt>
<trkpt lat="52.915382" lon="-3.431849"><ele>241</ele><time>2022-10-15T09:37:21Z</time><name>PT341</name></trkpt>
<trkpt lat="52.915339" lon="-3.431839"><ele>244</ele><time>2022-10-15T09:37:24Z</time><name>PT342</name></trkpt>
<trkpt lat="52.915282" lon="-3.431853"><ele>249</ele><time>2022-10-15T09:37:28Z</time><name>PT343</name></trkpt>
<trkpt lat="52.915253" lon="-3.431859"><ele>253</ele><time>2022-10-15T09:37:32Z</time><name>PT344</name></trkpt>
<trkpt lat="52.915215" lon="-3.431873"><ele>254</ele><time>2022-10-15T09:37:36Z</time><name>PT345</name></trkpt>
<trkpt lat="52.915194" lon="-3.431860"><ele>251</ele><time>2022-10-15T09:37:40Z</time><name>PT346</name></trkpt>
<trkpt lat="52.915147" lon="-3.431850"><ele>252</ele><time>2022-10-15T09:37:44Z</time><name>PT347</name></trkpt>
<trkpt lat="52.915103" lon="-3.431859"><ele>251</ele><time>2022-10-15T09:37:48Z</time><name>PT348</name></trkpt>
<trkpt lat="52.915046" lon="-3.431866"><ele>255</ele><time>2022-10-15T09:37:52Z</time><name>PT349</name></trkpt>
<trkpt lat="52.915010" lon="-3.431877"><ele>256</ele><time>2022-10-15T09:37:56Z</time><name>PT350</name></trkpt>
<trkpt lat="52.914977" lon="-3.431896"><ele>258</ele><time>2022-10-15T09:38:00Z</time><name>PT351</name></trkpt>
<trkpt lat="52.914946" lon="-3.431885"><ele>256</ele><time>2022-10-15T09:38:04Z</time><name>PT352</name></trkpt>
<trkpt lat="52.914916" lon="-3.431882"><ele>256</ele><time>2022-10-15T09:38:08Z</time><name>PT353</name></trkpt>
<trkpt lat="52.914888" lon="-3.431862"><ele>257</ele><time>2022-10-15T09:38:12Z</time><name>PT354</name></trkpt>
<trkpt lat="52.914865" lon="-3.431866"><ele>258</ele><time>2022-10-15T09:38:16Z</time><name>PT355</name></trkpt>
<trkpt lat="52.914828" lon="-3.431879"><ele>258</ele><time>2022-10-15T09:38:20Z</time><name>PT356</name></trkpt>
<trkpt lat="52.914790" lon="-3.431904"><ele>262</ele><time>2022-10-15T09:38:24Z</time><name>PT357</name></trkpt>
<trkpt lat="52.914751" lon="-3.431916"><ele>265</ele><time>2022-10-15T09:38:28Z</time><name>PT358</name></trkpt>
<trkpt lat="52.914718" lon="-3.431914"><ele>266</ele><time>2022-10-15T09:38:31Z</time><name>PT359</name></trkpt>
<trkpt lat="52.914688" lon="-3.431916"><ele>267</ele><time>2022-10-15T09:38:35Z</time><name>PT360</name></trkpt>
<trkpt lat="52.914668" lon="-3.431897"><ele>265</ele><time>2022-10-15T09:38:39Z</time><name>PT361</name></trkpt>
<trkpt lat="52.914645" lon="-3.431913"><ele>267</ele><time>2022-10-15T09:38:43Z</time><name>PT362</name></trkpt>
<trkpt lat="52.914617" lon="-3.431913"><ele>268</ele><time>2022-10-15T09:38:47Z</time><name>PT363</name></trkpt>
<trkpt lat="52.914598" lon="-3.431922"><ele>269</ele><time>2022-10-15T09:38:50Z</time><name>PT364</name></trkpt>
<trkpt lat="52.914570" lon="-3.431916"><ele>270</ele><time>2022-10-15T09:38:54Z</time><name>PT365</name></trkpt>
<trkpt lat="52.914529" lon="-3.431897"><ele>271</ele><time>2022-10-15T09:38:58Z</time><name>PT366</name></trkpt>
<trkpt lat="52.914506" lon="-3.431897"><ele>270</ele><time>2022-10-15T09:39:01Z</time><name>PT367</name></trkpt>
<trkpt lat="52.914480" lon="-3.431883"><ele>270</ele><time>2022-10-15T09:39:04Z</time><name>PT368</name></trkpt>
<trkpt lat="52.914453" lon="-3.431868"><ele>269</ele><time>2022-10-15T09:39:08Z</time><name>PT369</name></trkpt>
<trkpt lat="52.914412" lon="-3.431875"><ele>266</ele><time>2022-10-15T09:39:12Z</time><name>PT370</name></trkpt>
<trkpt lat="52.914387" lon="-3.431886"><ele>265</ele><time>2022-10-15T09:39:15Z</time><name>PT371</name></trkpt>
<trkpt lat="52.914357" lon="-3.431891"><ele>264</ele><time>2022-10-15T09:39:19Z</time><name>PT372</name></trkpt>
<trkpt lat="52.914323" lon="-3.431922"><ele>267</ele><time>2022-10-15T09:39:22Z</time><name>PT373</name></trkpt>
<trkpt lat="52.914283" lon="-3.431943"><ele>269</ele><time>2022-10-15T09:39:26Z</time><name>PT374</name></trkpt>
<trkpt lat="52.914256" lon="-3.431954"><ele>268</ele><time>2022-10-15T09:39:30Z</time><name>PT375</name></trkpt>
<trkpt lat="52.914235" lon="-3.431951"><ele>266</ele><time>2022-10-15T09:39:34Z</time><name>PT376</name></trkpt>
<trkpt lat="52.914210" lon="-3.431953"><ele>266</ele><time>2022-10-15T09:39:38Z</time><name>PT377</name></trkpt>
<trkpt lat="52.914183" lon="-3.431968"><ele>266</ele><time>2022-10-15T09:39:42Z</time><name>PT378</name></trkpt>
<trkpt lat="52.914141" lon="-3.431979"><ele>269</ele><time>2022-10-15T09:39:46Z</time><name>PT379</name></trkpt>
<trkpt lat="52.914105" lon="-3.431983"><ele>269</ele><time>2022-10-15T09:39:50Z</time><name>PT380</name></trkpt>
<trkpt lat="52.914034" lon="-3.432002"><ele>273</ele><time>2022-10-15T09:39:54Z</time><name>PT381</name></trkpt>
<trkpt lat="52.913983" lon="-3.432037"><ele>278</ele><time>2022-10-15T09:39:58Z</time><name>PT382</name></trkpt>
<trkpt lat="52.913934" lon="-3.432058"><ele>282</ele><time>2022-10-15T09:40:02Z</time><name>PT383</name></trkpt>
<trkpt lat="52.913887" lon="-3.432088"><ele>285</ele><time>2022-10-15T09:40:06Z</time><name>PT384</name></trkpt>
<trkpt lat="52.913847" lon="-3.432087"><ele>285</ele><time>2022-10-15T09:40:10Z</time><name>PT385</name></trkpt>
<trkpt lat="52.913820" lon="-3.432108"><ele>285</ele><time>2022-10-15T09:40:14Z</time><name>PT386</name></trkpt>
<trkpt lat="52.913784" lon="-3.432104"><ele>285</ele><time>2022-10-15T09:40:18Z</time><name>PT387</name></trkpt>
<trkpt lat="52.913739" lon="-3.432083"><ele>282</ele><time>2022-10-15T09:40:22Z</time><name>PT388</name></trkpt>
<trkpt lat="52.913694" lon="-3.432107"><ele>284</ele><time>2022-10-15T09:40:26Z</time><name>PT389</name></trkpt>
<trkpt lat="52.913653" lon="-3.432132"><ele>286</ele><time>2022-10-15T09:40:30Z</time><name>PT390</name></trkpt>
<trkpt lat="52.913613" lon="-3.432152"><ele>287</ele><time>2022-10-15T09:40:34Z</time><name>PT391</name></trkpt>
<trkpt lat="52.913595" lon="-3.432169"><ele>286</ele><time>2022-10-15T09:40:38Z</time><name>PT392</name></trkpt>
<trkpt lat="52.913595" lon="-3.432179"><ele>284</ele><time>2022-10-15T09:40:42Z</time><name>PT393</name></trkpt>
<trkpt lat="52.913581" lon="-3.432205"><ele>283</ele><time>2022-10-15T09:40:46Z</time><name>PT394</name></trkpt>
<trkpt lat="52.913556" lon="-3.432230"><ele>281</ele><time>2022-10-15T09:40:50Z</time><name>PT395</name></trkpt>
<trkpt lat="52.913529" lon="-3.432253"><ele>279</ele><time>2022-10-15T09:40:54Z</time><name>PT396</name></trkpt>
<trkpt lat="52.913499" lon="-3.432257"><ele>277</ele><time>2022-10-15T09:40:58Z</time><name>PT397</name></trkpt>
<trkpt lat="52.913451" lon="-3.432282"><ele>279</ele><time>2022-10-15T09:41:02Z</time><name>PT398</name></trkpt>
<trkpt lat="52.913414" lon="-3.432300"><ele>280</ele><time>2022-10-15T09:41:06Z</time><name>PT399</name></trkpt>
<trkpt lat="52.913377" lon="-3.432312"><ele>279</ele><time>2022-10-15T09:41:10Z</time><name>PT400</name></trkpt>
<trkpt lat="52.913327" lon="-3.432323"><ele>281</ele><time>2022-10-15T09:41:14Z</time><name>PT401</name></trkpt>
<trkpt lat="52.913274" lon="-3.432342"><ele>281</ele><time>2022-10-15T09:41:18Z</time><name>PT402</name></trkpt>
<trkpt lat="52.913241" lon="-3.432359"><ele>280</ele><time>2022-10-15T09:41:22Z</time><name>PT403</name></trkpt>
<trkpt lat="52.913194" lon="-3.432359"><ele>280</ele><time>2022-10-15T09:41:26Z</time><name>PT404</name></trkpt>
<trkpt lat="52.913167" lon="-3.432374"><ele>278</ele><time>2022-10-15T09:41:30Z</time><name>PT405</name></trkpt>
<trkpt lat="52.913131" lon="-3.432370"><ele>280</ele><time>2022-10-15T09:41:34Z</time><name>PT406</name></trkpt>
<trkpt lat="52.913116" lon="-3.432374"><ele>282</ele><time>2022-10-15T09:41:38Z</time><name>PT407</name></trkpt>
<trkpt lat="52.913096" lon="-3.432379"><ele>282</ele><time>2022-10-15T09:41:42Z</time><name>PT408</name></trkpt>
<trkpt lat="52.913049" lon="-3.432381"><ele>280</ele><time>2022-10-15T09:41:46Z</time><name>PT409</name></trkpt>
<trkpt lat="52.913011" lon="-3.432400"><ele>280</ele><time>2022-10-15T09:41:50Z</time><name>PT410</name></trkpt>
<trkpt lat="52.912976" lon="-3.432417"><ele>281</ele><time>2022-10-15T09:41:54Z</time><name>PT411</name></trkpt>
<trkpt lat="52.912940" lon="-3.432416"><ele>281</ele><time>2022-10-15T09:41:58Z</time><name>PT412</name></trkpt>
<trkpt lat="52.912902" lon="-3.432427"><ele>281</ele><time>2022-10-15T09:42:02Z</time><name>PT413</name></trkpt>
<trkpt lat="52.912869" lon="-3.432429"><ele>284</ele><time>2022-10-15T09:42:06Z</time><name>PT414</name></trkpt>
<trkpt lat="52.912857" lon="-3.432445"><ele>284</ele><time>2022-10-15T09:42:10Z</time><name>PT415</name></trkpt>
<trkpt lat="52.912833" lon="-3.432463"><ele>284</ele><time>2022-10-15T09:42:14Z</time><name>PT416</name></trkpt>
<trkpt lat="52.912804" lon="-3.432472"><ele>285</ele><time>2022-10-15T09:42:17Z</time><name>PT417</name></trkpt>
<trkpt lat="52.912768" lon="-3.432483"><ele>285</ele><time>2022-10-15T09:42:21Z</time><name>PT418</name></trkpt>
<trkpt lat="52.912732" lon="-3.432481"><ele>286</ele><time>2022-10-15T09:42:25Z</time><name>PT419</name></trkpt>
<trkpt lat="52.912698" lon="-3.432493"><ele>286</ele><time>2022-10-15T09:42:29Z</time><name>PT420</name></trkpt>
<trkpt lat="52.912671" lon="-3.432486"><ele>285</ele><time>2022-10-15T09:42:33Z</time><name>PT421</name></trkpt>
<trkpt lat="52.912637" lon="-3.432483"><ele>286</ele><time>2022-10-15T09:42:37Z</time><name>PT422</name></trkpt>
<trkpt lat="52.912598" lon="-3.432495"><ele>287</ele><time>2022-10-15T09:42:41Z</time><name>PT423</name></trkpt>
<trkpt lat="52.912561" lon="-3.432494"><ele>287</ele><time>2022-10-15T09:42:45Z</time><name>PT424</name></trkpt>
<trkpt lat="52.912530" lon="-3.432496"><ele>287</ele><time>2022-10-15T09:42:49Z</time><name>PT425</name></trkpt>
<trkpt lat="52.912493" lon="-3.432496"><ele>288</ele><time>2022-10-15T09:42:53Z</time><name>PT426</name></trkpt>
<trkpt lat="52.912450" lon="-3.432508"><ele>289</ele><time>2022-10-15T09:42:57Z</time><name>PT427</name></trkpt>
<trkpt lat="52.912412" lon="-3.432502"><ele>290</ele><time>2022-10-15T09:43:01Z</time><name>PT428</name></trkpt>
<trkpt lat="52.912381" lon="-3.432498"><ele>289</ele><time>2022-10-15T09:43:05Z</time><name>PT429</name></trkpt>
<trkpt lat="52.912349" lon="-3.432506"><ele>290</ele><time>2022-10-15T09:43:09Z</time><name>PT430</name></trkpt>
<trkpt lat="52.912304" lon="-3.432499"><ele>291</ele><time>2022-10-15T09:43:13Z</time><name>PT431</name></trkpt>
<trkpt lat="52.912273" lon="-3.432503"><ele>290</ele><time>2022-10-15T09:43:17Z</time><name>PT432</name></trkpt>
<trkpt lat="52.912232" lon="-3.432522"><ele>291</ele><time>2022-10-15T09:43:21Z</time><name>PT433</name></trkpt>
<trkpt lat="52.912192" lon="-3.432538"><ele>292</ele><time>2022-10-15T09:43:25Z</time><name>PT434</name></trkpt>
<trkpt lat="52.912159" lon="-3.432555"><ele>293</ele><time>2022-10-15T09:43:29Z</time><name>PT435</name></trkpt>
<trkpt lat="52.912123" lon="-3.432555"><ele>292</ele><time>2022-10-15T09:43:33Z</time><name>PT436</name></trkpt>
<trkpt lat="52.912087" lon="-3.432547"><ele>292</ele><time>2022-10-15T09:43:37Z</time><name>PT437</name></trkpt>
<trkpt lat="52.912053" lon="-3.432551"><ele>292</ele><time>2022-10-15T09:43:41Z</time><name>PT438</name></trkpt>
<trkpt lat="52.912032" lon="-3.432543"><ele>290</ele><time>2022-10-15T09:43:45Z</time><name>PT439</name></trkpt>
<trkpt lat="52.911995" lon="-3.432563"><ele>292</ele><time>2022-10-15T09:43:49Z</time><name>PT440</name></trkpt>
<trkpt lat="52.911954" lon="-3.432580"><ele>295</ele><time>2022-10-15T09:43:53Z</time><name>PT441</name></trkpt>
<trkpt lat="52.911933" lon="-3.432579"><ele>295</ele><time>2022-10-15T09:43:56Z</time><name>PT442</name></trkpt>
<trkpt lat="52.911897" lon="-3.432586"><ele>297</ele><time>2022-10-15T09:44:00Z</time><name>PT443</name></trkpt>
<trkpt lat="52.911866" lon="-3.432603"><ele>297</ele><time>2022-10-15T09:44:04Z</time><name>PT444</name></trkpt>
<trkpt lat="52.911835" lon="-3.432612"><ele>297</ele><time>2022-10-15T09:44:08Z</time><name>PT445</name></trkpt>
<trkpt lat="52.911798" lon="-3.432622"><ele>299</ele><time>2022-10-15T09:44:12Z</time><name>PT446</name></trkpt>
<trkpt lat="52.911776" lon="-3.432617"><ele>299</ele><time>2022-10-15T09:44:16Z</time><name>PT447</name></trkpt>
<trkpt lat="52.911723" lon="-3.432625"><ele>301</ele><time>2022-10-15T09:44:20Z</time><name>PT448</name></trkpt>
<trkpt lat="52.911686" lon="-3.432625"><ele>300</ele><time>2022-10-15T09:44:24Z</time><name>PT449</name></trkpt>
<trkpt lat="52.911656" lon="-3.432625"><ele>297</ele><time>2022-10-15T09:44:28Z</time><name>PT450</name></trkpt>
<trkpt lat="52.911614" lon="-3.432615"><ele>299</ele><time>2022-10-15T09:44:32Z</time><name>PT451</name></trkpt>
<trkpt lat="52.911587" lon="-3.432628"><ele>300</ele><time>2022-10-15T09:44:36Z</time><name>PT452</name></trkpt>
<trkpt lat="52.911552" lon="-3.432616"><ele>300</ele><time>2022-10-15T09:44:40Z</time><name>PT453</name></trkpt>
<trkpt lat="52.911516" lon="-3.432593"><ele>300</ele><time>2022-10-15T09:44:44Z</time><name>PT454</name></trkpt>
<trkpt lat="52.911473" lon="-3.432577"><ele>297</ele><time>2022-10-15T09:44:48Z</time><name>PT455</name></trkpt>
<trkpt lat="52.911450" lon="-3.432583"><ele>296</ele><time>2022-10-15T09:44:51Z</time><name>PT456</name></trkpt>
<trkpt lat="52.911411" lon="-3.432578"><ele>299</ele><time>2022-10-15T09:44:55Z</time><name>PT457</name></trkpt>
<trkpt lat="52.911375" lon="-3.432595"><ele>300</ele><time>2022-10-15T09:44:59Z</time><name>PT458</name></trkpt>
<trkpt lat="52.911335" lon="-3.432605"><ele>303</ele><time>2022-10-15T09:45:03Z</time><name>PT459</name></trkpt>
<trkpt lat="52.911295" lon="-3.432615"><ele>305</ele><time>2022-10-15T09:45:07Z</time><name>PT460</name></trkpt>
<trkpt lat="52.911257" lon="-3.432605"><ele>305</ele><time>2022-10-15T09:45:11Z</time><name>PT461</name></trkpt>
<trkpt lat="52.911215" lon="-3.432602"><ele>305</ele><time>2022-10-15T09:45:15Z</time><name>PT462</name></trkpt>
<trkpt lat="52.911174" lon="-3.432595"><ele>307</ele><time>2022-10-15T09:45:19Z</time><name>PT463</name></trkpt>
<trkpt lat="52.911142" lon="-3.432594"><ele>306</ele><time>2022-10-15T09:45:23Z</time><name>PT464</name></trkpt>
<trkpt lat="52.911126" lon="-3.432589"><ele>306</ele><time>2022-10-15T09:45:27Z</time><name>PT465</name></trkpt>
<trkpt lat="52.911087" lon="-3.432580"><ele>305</ele><time>2022-10-15T09:45:31Z</time><name>PT466</name></trkpt>
<trkpt lat="52.911054" lon="-3.432577"><ele>306</ele><time>2022-10-15T09:45:35Z</time><name>PT467</name></trkpt>
<trkpt lat="52.911024" lon="-3.432583"><ele>306</ele><time>2022-10-15T09:45:39Z</time><name>PT468</name></trkpt>
<trkpt lat="52.910997" lon="-3.432569"><ele>306</ele><time>2022-10-15T09:45:42Z</time><name>PT469</name></trkpt>
<trkpt lat="52.910977" lon="-3.432573"><ele>306</ele><time>2022-10-15T09:45:46Z</time><name>PT470</name></trkpt>
<trkpt lat="52.910949" lon="-3.432558"><ele>307</ele><time>2022-10-15T09:45:50Z</time><name>PT471</name></trkpt>
<trkpt lat="52.910926" lon="-3.432553"><ele>310</ele><time>2022-10-15T09:45:54Z</time><name>PT472</name></trkpt>
<trkpt lat="52.910890" lon="-3.432518"><ele>310</ele><time>2022-10-15T09:45:57Z</time><name>PT473</name></trkpt>
<trkpt lat="52.910862" lon="-3.432507"><ele>311</ele><time>2022-10-15T09:46:00Z</time><name>PT474</name></trkpt>
<trkpt lat="52.910835" lon="-3.432508"><ele>310</ele><time>2022-10-15T09:46:04Z</time><name>PT475</name></trkpt>
<trkpt lat="52.910800" lon="-3.432504"><ele>311</ele><time>2022-10-15T09:46:08Z</time><name>PT476</name></trkpt>
<trkpt lat="52.910784" lon="-3.432495"><ele>311</ele><time>2022-10-15T09:46:11Z</time><name>PT477</name></trkpt>
<trkpt lat="52.910764" lon="-3.432485"><ele>312</ele><time>2022-10-15T09:46:14Z</time><name>PT478</name></trkpt>
<trkpt lat="52.910728" lon="-3.432488"><ele>314</ele><time>2022-10-15T09:46:18Z</time><name>PT479</name></trkpt>
<trkpt lat="52.910715" lon="-3.432468"><ele>315</ele><time>2022-10-15T09:46:21Z</time><name>PT480</name></trkpt>
<trkpt lat="52.910696" lon="-3.432450"><ele>316</ele><time>2022-10-15T09:46:25Z</time><name>PT481</name></trkpt>
<trkpt lat="52.910657" lon="-3.432445"><ele>318</ele><time>2022-10-15T09:46:29Z</time><name>PT482</name></trkpt>
<trkpt lat="52.910636" lon="-3.432406"><ele>318</ele><time>2022-10-15T09:46:33Z</time><name>PT483</name></trkpt>
<trkpt lat="52.910594" lon="-3.432396"><ele>321</ele><time>2022-10-15T09:46:37Z</time><name>PT484</name></trkpt>
<trkpt lat="52.910581" lon="-3.432394"><ele>322</ele><time>2022-10-15T09:46:41Z</time><name>PT485</name></trkpt>
<trkpt lat="52.910557" lon="-3.432406"><ele>320</ele><time>2022-10-15T09:46:45Z</time><name>PT486</name></trkpt>
<trkpt lat="52.910535" lon="-3.432380"><ele>319</ele><time>2022-10-15T09:46:49Z</time><name>PT487</name></trkpt>
<trkpt lat="52.910515" lon="-3.432351"><ele>319</ele><time>2022-10-15T09:46:53Z</time><name>PT488</name></trkpt>
<trkpt lat="52.910497" lon="-3.432330"><ele>318</ele><time>2022-10-15T09:46:57Z</time><name>PT489</name></trkpt>
<trkpt lat="52.910484" lon="-3.432335"><ele>318</ele><time>2022-10-15T09:47:01Z</time><name>PT490</name></trkpt>
<trkpt lat="52.910457" lon="-3.432317"><ele>319</ele><time>2022-10-15T09:47:05Z</time><name>PT491</name></trkpt>
<trkpt lat="52.910445" lon="-3.432323"><ele>320</ele><time>2022-10-15T09:47:09Z</time><name>PT492</name></trkpt>
<trkpt lat="52.910426" lon="-3.432319"><ele>319</ele><time>2022-10-15T09:47:12Z</time><name>PT493</name></trkpt>
<trkpt lat="52.910390" lon="-3.432287"><ele>320</ele><time>2022-10-15T09:47:16Z</time><name>PT494</name></trkpt>
<trkpt lat="52.910354" lon="-3.432263"><ele>320</ele><time>2022-10-15T09:47:19Z</time><name>PT495</name></trkpt>
<trkpt lat="52.910322" lon="-3.432241"><ele>320</ele><time>2022-10-15T09:47:23Z</time><name>PT496</name></trkpt>
<trkpt lat="52.910296" lon="-3.432238"><ele>319</ele><time>2022-10-15T09:47:26Z</time><name>PT497</name></trkpt>
<trkpt lat="52.910274" lon="-3.432218"><ele>318</ele><time>2022-10-15T09:47:30Z</time><name>PT498</name></trkpt>
<trkpt lat="52.910253" lon="-3.432205"><ele>319</ele><time>2022-10-15T09:47:33Z</time><name>PT499</name></trkpt>
<trkpt lat="52.910234" lon="-3.432194"><ele>321</ele><time>2022-10-15T09:47:36Z</time><name>PT500</name></trkpt>
<trkpt lat="52.910208" lon="-3.432170"><ele>321</ele><time>2022-10-15T09:47:40Z</time><name>PT501</name></trkpt>
<trkpt lat="52.910184" lon="-3.432156"><ele>322</ele><time>2022-10-15T09:47:43Z</time><name>PT502</name></trkpt>
<trkpt lat="52.910160" lon="-3.432130"><ele>325</ele><time>2022-10-15T09:47:46Z</time><name>PT503</name></trkpt>
<trkpt lat="52.910132" lon="-3.432107"><ele>326</ele><time>2022-10-15T09:47:50Z</time><name>PT504</name></trkpt>
<trkpt lat="52.910103" lon="-3.432084"><ele>326</ele><time>2022-10-15T09:47:53Z</time><name>PT505</name></trkpt>
<trkpt lat="52.910073" lon="-3.432055"><ele>328</ele><time>2022-10-15T09:47:57Z</time><name>PT506</name></trkpt>
<trkpt lat="52.910046" lon="-3.432024"><ele>329</ele><time>2022-10-15T09:48:01Z</time><name>PT507</name></trkpt>
<trkpt lat="52.910021" lon="-3.431983"><ele>330</ele><time>2022-10-15T09:48:05Z</time><name>PT508</name></trkpt>
<trkpt lat="52.909996" lon="-3.431943"><ele>332</ele><time>2022-10-15T09:48:09Z</time><name>PT509</name></trkpt>
<trkpt lat="52.909975" lon="-3.431920"><ele>331</ele><time>2022-10-15T09:48:12Z</time><name>PT510</name></trkpt>
<trkpt lat="52.909954" lon="-3.431888"><ele>330</ele><time>2022-10-15T09:48:16Z</time><name>PT511</name></trkpt>
<trkpt lat="52.909932" lon="-3.431864"><ele>330</ele><time>2022-10-15T09:48:19Z</time><name>PT512</name></trkpt>
<trkpt lat="52.909911" lon="-3.431821"><ele>329</ele><time>2022-10-15T09:48:23Z</time><name>PT513</name></trkpt>
<trkpt lat="52.909886" lon="-3.431776"><ele>329</ele><time>2022-10-15T09:48:27Z</time><name>PT514</name></trkpt>
<trkpt lat="52.909867" lon="-3.431747"><ele>330</ele><time>2022-10-15T09:48:30Z</time><name>PT515</name></trkpt>
<trkpt lat="52.909839" lon="-3.431707"><ele>330</ele><time>2022-10-15T09:48:34Z</time><name>PT516</name></trkpt>
<trkpt lat="52.909815" lon="-3.431664"><ele>330</ele><time>2022-10-15T09:48:38Z</time><name>PT517</name></trkpt>
<trkpt lat="52.909795" lon="-3.431625"><ele>331</ele><time>2022-10-15T09:48:42Z</time><name>PT518</name></trkpt>
<trkpt lat="52.909769" lon="-3.431574"><ele>331</ele><time>2022-10-15T09:48:46Z</time><name>PT519</name></trkpt>
<trkpt lat="52.909749" lon="-3.431526"><ele>331</ele><time>2022-10-15T09:48:50Z</time><name>PT520</name></trkpt>
<trkpt lat="52.909726" lon="-3.431485"><ele>332</ele><time>2022-10-15T09:48:54Z</time><name>PT521</name></trkpt>
<trkpt lat="52.909708" lon="-3.431453"><ele>333</ele><time>2022-10-15T09:48:57Z</time><name>PT522</name></trkpt>
<trkpt lat="52.909690" lon="-3.431423"><ele>333</ele><time>2022-10-15T09:49:00Z</time><name>PT523</name></trkpt>
<trkpt lat="52.909659" lon="-3.431371"><ele>334</ele><time>2022-10-15T09:49:04Z</time><name>PT524</name></trkpt>
<trkpt lat="52.909635" lon="-3.431320"><ele>335</ele><time>2022-10-15T09:49:08Z</time><name>PT525</name></trkpt>
<trkpt lat="52.909611" lon="-3.431274"><ele>336</ele><time>2022-10-15T09:49:12Z</time><name>PT526</name></trkpt>
<trkpt lat="52.909592" lon="-3.431241"><ele>337</ele><time>2022-10-15T09:49:16Z</time><name>PT527</name></trkpt>
<trkpt lat="52.909589" lon="-3.431196"><ele>336</ele><time>2022-10-15T09:49:20Z</time><name>PT528</name></trkpt>
<trkpt lat="52.909580" lon="-3.431162"><ele>337</ele><time>2022-10-15T09:49:23Z</time><name>PT529</name></trkpt>
<trkpt lat="52.909579" lon="-3.431124"><ele>338</ele><time>2022-10-15T09:49:27Z</time><name>PT530</name></trkpt>
<trkpt lat="52.909577" lon="-3.431097"><ele>337</ele><time>2022-10-15T09:49:30Z</time><name>PT531</name></trkpt>
<trkpt lat="52.909574" lon="-3.431091"><ele>337</ele><time>2022-10-15T09:49:34Z</time><name>PT532</name></trkpt>
<trkpt lat="52.909571" lon="-3.431092"><ele>337</ele><time>2022-10-15T09:49:37Z</time><name>PT533</name></trkpt>
<trkpt lat="52.909568" lon="-3.431110"><ele>338</ele><time>2022-10-15T09:49:40Z</time><name>PT534</name></trkpt>
<trkpt lat="52.909560" lon="-3.431108"><ele>338</ele><time>2022-10-15T09:49:43Z</time><name>PT535</name></trkpt>
<trkpt lat="52.909566" lon="-3.431104"><ele>338</ele><time>2022-10-15T09:49:47Z</time><name>PT536</name></trkpt>
<trkpt lat="52.909568" lon="-3.431086"><ele>338</ele><time>2022-10-15T09:49:54Z</time><name>PT537</name></trkpt>
<trkpt lat="52.909572" lon="-3.431089"><ele>338</ele><time>2022-10-15T09:49:58Z</time><name>PT538</name></trkpt>
<trkpt lat="52.909569" lon="-3.431093"><ele>338</ele><time>2022-10-15T09:50:08Z</time><name>PT539</name></trkpt>
<trkpt lat="52.909561" lon="-3.431091"><ele>338</ele><time>2022-10-15T09:50:12Z</time><name>PT540</name></trkpt>
<trkpt lat="52.909568" lon="-3.431081"><ele>338</ele><time>2022-10-15T09:50:15Z</time><name>PT541</name></trkpt>
<trkpt lat="52.909577" lon="-3.431059"><ele>338</ele><time>2022-10-15T09:50:18Z</time><name>PT542</name></trkpt>
<trkpt lat="52.909579" lon="-3.431047"><ele>339</ele><time>2022-10-15T09:50:21Z</time><name>PT543</name></trkpt>
<trkpt lat="52.909574" lon="-3.431031"><ele>340</ele><time>2022-10-15T09:50:25Z</time><name>PT544</name></trkpt>
<trkpt lat="52.909574" lon="-3.431038"><ele>340</ele><time>2022-10-15T09:50:29Z</time><name>PT545</name></trkpt>
<trkpt lat="52.909580" lon="-3.431022"><ele>339</ele><time>2022-10-15T09:50:48Z</time><name>PT546</name></trkpt>
<trkpt lat="52.909579" lon="-3.431011"><ele>340</ele><time>2022-10-15T09:51:12Z</time><name>PT547</name></trkpt>
<trkpt lat="52.909587" lon="-3.431006"><ele>340</ele><time>2022-10-15T09:51:15Z</time><name>PT548</name></trkpt>
<trkpt lat="52.909586" lon="-3.431008"><ele>340</ele><time>2022-10-15T09:51:18Z</time><name>PT549</name></trkpt>
<trkpt lat="52.909575" lon="-3.431026"><ele>340</ele><time>2022-10-15T09:53:24Z</time><name>PT550</name></trkpt>
<trkpt lat="52.909567" lon="-3.431036"><ele>340</ele><time>2022-10-15T09:53:28Z</time><name>PT551</name></trkpt>
<trkpt lat="52.909557" lon="-3.431035"><ele>339</ele><time>2022-10-15T09:53:36Z</time><name>PT552</name></trkpt>
<trkpt lat="52.909543" lon="-3.431009"><ele>339</ele><time>2022-10-15T09:53:43Z</time><name>PT553</name></trkpt>
<trkpt lat="52.909517" lon="-3.430966"><ele>339</ele><time>2022-10-15T09:53:47Z</time><name>PT554</name></trkpt>
<trkpt lat="52.909495" lon="-3.430925"><ele>339</ele><time>2022-10-15T09:53:51Z</time><name>PT555</name></trkpt>
<trkpt lat="52.909471" lon="-3.430880"><ele>339</ele><time>2022-10-15T09:53:55Z</time><name>PT556</name></trkpt>
<trkpt lat="52.909444" lon="-3.430841"><ele>340</ele><time>2022-10-15T09:53:59Z</time><name>PT557</name></trkpt>
<trkpt lat="52.909421" lon="-3.430801"><ele>340</ele><time>2022-10-15T09:54:02Z</time><name>PT558</name></trkpt>
<trkpt lat="52.909401" lon="-3.430762"><ele>340</ele><time>2022-10-15T09:54:06Z</time><name>PT559</name></trkpt>
<trkpt lat="52.909382" lon="-3.430711"><ele>340</ele><time>2022-10-15T09:54:10Z</time><name>PT560</name></trkpt>
<trkpt lat="52.909366" lon="-3.430676"><ele>340</ele><time>2022-10-15T09:54:13Z</time><name>PT561</name></trkpt>
<trkpt lat="52.909351" lon="-3.430640"><ele>340</ele><time>2022-10-15T09:54:16Z</time><name>PT562</name></trkpt>
<trkpt lat="52.909335" lon="-3.430609"><ele>340</ele><time>2022-10-15T09:54:19Z</time><name>PT563</name></trkpt>
<trkpt lat="52.909321" lon="-3.430564"><ele>341</ele><time>2022-10-15T09:54:23Z</time><name>PT564</name></trkpt>
<trkpt lat="52.909305" lon="-3.430528"><ele>341</ele><time>2022-10-15T09:54:26Z</time><name>PT565</name></trkpt>
<trkpt lat="52.909284" lon="-3.430486"><ele>341</ele><time>2022-10-15T09:54:29Z</time><name>PT566</name></trkpt>
<trkpt lat="52.909266" lon="-3.430443"><ele>341</ele><time>2022-10-15T09:54:33Z</time><name>PT567</name></trkpt>
<trkpt lat="52.909250" lon="-3.430398"><ele>342</ele><time>2022-10-15T09:54:37Z</time><name>PT568</name></trkpt>
<trkpt lat="52.909233" lon="-3.430365"><ele>343</ele><time>2022-10-15T09:54:40Z</time><name>PT569</name></trkpt>
<trkpt lat="52.909220" lon="-3.430334"><ele>344</ele><time>2022-10-15T09:54:43Z</time><name>PT570</name></trkpt>
<trkpt lat="52.909194" lon="-3.430289"><ele>344</ele><time>2022-10-15T09:54:47Z</time><name>PT571</name></trkpt>
<trkpt lat="52.909174" lon="-3.430258"><ele>344</ele><time>2022-10-15T09:54:50Z</time><name>PT572</name></trkpt>
<trkpt lat="52.909163" lon="-3.430229"><ele>344</ele><time>2022-10-15T09:54:53Z</time><name>PT573</name></trkpt>
<trkpt lat="52.909153" lon="-3.430201"><ele>344</ele><time>2022-10-15T09:54:56Z</time><name>PT574</name></trkpt>
<trkpt lat="52.909139" lon="-3.430165"><ele>344</ele><time>2022-10-15T09:54:59Z</time><name>PT575</name></trkpt>
<trkpt lat="52.909123" lon="-3.430136"><ele>344</ele><time>2022-10-15T09:55:02Z</time><name>PT576</name></trkpt>
<trkpt lat="52.909096" lon="-3.430088"><ele>345</ele><time>2022-10-15T09:55:06Z</time><name>PT577</name></trkpt>
<trkpt lat="52.909065" lon="-3.430040"><ele>346</ele><time>2022-10-15T09:55:10Z</time><name>PT578</name></trkpt>
<trkpt lat="52.909043" lon="-3.430005"><ele>346</ele><time>2022-10-15T09:55:13Z</time><name>PT579</name></trkpt>
<trkpt lat="52.909019" lon="-3.429958"><ele>346</ele><time>2022-10-15T09:55:17Z</time><name>PT580</name></trkpt>
<trkpt lat="52.908996" lon="-3.429919"><ele>346</ele><time>2022-10-15T09:55:21Z</time><name>PT581</name></trkpt>
<trkpt lat="52.908974" lon="-3.429873"><ele>347</ele><time>2022-10-15T09:55:25Z</time><name>PT582</name></trkpt>
<trkpt lat="52.908961" lon="-3.429838"><ele>348</ele><time>2022-10-15T09:55:28Z</time><name>PT583</name></trkpt>
<trkpt lat="52.908938" lon="-3.429805"><ele>348</ele><time>2022-10-15T09:55:31Z</time><name>PT584</name></trkpt>
<trkpt lat="52.908910" lon="-3.429763"><ele>348</ele><time>2022-10-15T09:55:35Z</time><name>PT585</name></trkpt>
<trkpt lat="52.908885" lon="-3.429726"><ele>348</ele><time>2022-10-15T09:55:39Z</time><name>PT586</name></trkpt>
<trkpt lat="52.908866" lon="-3.429692"><ele>349</ele><time>2022-10-15T09:55:42Z</time><name>PT587</name></trkpt>
<trkpt lat="52.908846" lon="-3.429658"><ele>349</ele><time>2022-10-15T09:55:45Z</time><name>PT588</name></trkpt>
<trkpt lat="52.908825" lon="-3.429623"><ele>350</ele><time>2022-10-15T09:55:48Z</time><name>PT589</name></trkpt>
<trkpt lat="52.908805" lon="-3.429581"><ele>351</ele><time>2022-10-15T09:55:52Z</time><name>PT590</name></trkpt>
<trkpt lat="52.908787" lon="-3.429552"><ele>351</ele><time>2022-10-15T09:55:55Z</time><name>PT591</name></trkpt>
<trkpt lat="52.908771" lon="-3.429514"><ele>351</ele><time>2022-10-15T09:55:59Z</time><name>PT592</name></trkpt>
<trkpt lat="52.908757" lon="-3.429488"><ele>350</ele><time>2022-10-15T09:56:02Z</time><name>PT593</name></trkpt>
<trkpt lat="52.908755" lon="-3.429479"><ele>350</ele><time>2022-10-15T09:56:05Z</time><name>PT594</name></trkpt>
<trkpt lat="52.908733" lon="-3.429447"><ele>352</ele><time>2022-10-15T09:56:11Z</time><name>PT595</name></trkpt>
<trkpt lat="52.908700" lon="-3.429399"><ele>352</ele><time>2022-10-15T09:56:15Z</time><name>PT596</name></trkpt>
<trkpt lat="52.908673" lon="-3.429370"><ele>353</ele><time>2022-10-15T09:56:18Z</time><name>PT597</name></trkpt>
<trkpt lat="52.908630" lon="-3.429342"><ele>353</ele><time>2022-10-15T09:56:22Z</time><name>PT598</name></trkpt>
<trkpt lat="52.908601" lon="-3.429298"><ele>353</ele><time>2022-10-15T09:56:25Z</time><name>PT599</name></trkpt>
<trkpt lat="52.908570" lon="-3.429269"><ele>353</ele><time>2022-10-15T09:56:28Z</time><name>PT600</name></trkpt>
<trkpt lat="52.908539" lon="-3.429233"><ele>354</ele><time>2022-10-15T09:56:31Z</time><name>PT601</name></trkpt>
<trkpt lat="52.908497" lon="-3.429191"><ele>354</ele><time>2022-10-15T09:56:35Z</time><name>PT602</name></trkpt>
<trkpt lat="52.908459" lon="-3.429151"><ele>355</ele><time>2022-10-15T09:56:39Z</time><name>PT603</name></trkpt>
<trkpt lat="52.908431" lon="-3.429125"><ele>356</ele><time>2022-10-15T09:56:42Z</time><name>PT604</name></trkpt>
<trkpt lat="52.908389" lon="-3.429094"><ele>357</ele><time>2022-10-15T09:56:46Z</time><name>PT605</name></trkpt>
<trkpt lat="52.908363" lon="-3.429069"><ele>357</ele><time>2022-10-15T09:56:49Z</time><name>PT606</name></trkpt>
<trkpt lat="52.908334" lon="-3.429040"><ele>357</ele><time>2022-10-15T09:56:52Z</time><name>PT607</name></trkpt>
<trkpt lat="52.908302" lon="-3.428996"><ele>358</ele><time>2022-10-15T09:56:56Z</time><name>PT608</name></trkpt>
<trkpt lat="52.908263" lon="-3.428965"><ele>358</ele><time>2022-10-15T09:57:00Z</time><name>PT609</name></trkpt>
<trkpt lat="52.908238" lon="-3.428937"><ele>358</ele><time>2022-10-15T09:57:03Z</time><name>PT610</name></trkpt>
<trkpt lat="52.908210" lon="-3.428911"><ele>359</ele><time>2022-10-15T09:57:06Z</time><name>PT611</name></trkpt>
<trkpt lat="52.908169" lon="-3.428879"><ele>359</ele><time>2022-10-15T09:57:10Z</time><name>PT612</name></trkpt>
<trkpt lat="52.908130" lon="-3.428841"><ele>360</ele><time>2022-10-15T09:57:14Z</time><name>PT613</name></trkpt>
<trkpt lat="52.908090" lon="-3.428813"><ele>361</ele><time>2022-10-15T09:57:18Z</time><name>PT614</name></trkpt>
<trkpt lat="52.908063" lon="-3.428780"><ele>361</ele><time>2022-10-15T09:57:21Z</time><name>PT615</name></trkpt>
<trkpt lat="52.908040" lon="-3.428748"><ele>360</ele><time>2022-10-15T09:57:24Z</time><name>PT616</name></trkpt>
<trkpt lat="52.908012" lon="-3.428705"><ele>361</ele><time>2022-10-15T09:57:28Z</time><name>PT617</name></trkpt>
<trkpt lat="52.907992" lon="-3.428677"><ele>361</ele><time>2022-10-15T09:57:31Z</time><name>PT618</name></trkpt>
<trkpt lat="52.907970" lon="-3.428641"><ele>361</ele><time>2022-10-15T09:57:34Z</time><name>PT619</name></trkpt>
<trkpt lat="52.907938" lon="-3.428599"><ele>361</ele><time>2022-10-15T09:57:38Z</time><name>PT620</name></trkpt>
<trkpt lat="52.907909" lon="-3.428570"><ele>361</ele><time>2022-10-15T09:57:41Z</time><name>PT621</name></trkpt>
<trkpt lat="52.907886" lon="-3.428523"><ele>361</ele><time>2022-10-15T09:57:45Z</time><name>PT622</name></trkpt>
<trkpt lat="52.907856" lon="-3.428474"><ele>362</ele><time>2022-10-15T09:57:49Z</time><name>PT623</name></trkpt>
<trkpt lat="52.907831" lon="-3.428436"><ele>362</ele><time>2022-10-15T09:57:52Z</time><name>PT624</name></trkpt>
<trkpt lat="52.907797" lon="-3.428400"><ele>362</ele><time>2022-10-15T09:57:56Z</time><name>PT625</name></trkpt>
<trkpt lat="52.907779" lon="-3.428374"><ele>361</ele><time>2022-10-15T09:57:59Z</time><name>PT626</name></trkpt>
<trkpt lat="52.907755" lon="-3.428343"><ele>362</ele><time>2022-10-15T09:58:02Z</time><name>PT627</name></trkpt>
<trkpt lat="52.907718" lon="-3.428298"><ele>363</ele><time>2022-10-15T09:58:06Z</time><name>PT628</name></trkpt>
<trkpt lat="52.907683" lon="-3.428251"><ele>363</ele><time>2022-10-15T09:58:10Z</time><name>PT629</name></trkpt>
<trkpt lat="52.907651" lon="-3.428212"><ele>364</ele><time>2022-10-15T09:58:13Z</time><name>PT630</name></trkpt>
<trkpt lat="52.907617" lon="-3.428173"><ele>365</ele><time>2022-10-15T09:58:16Z</time><name>PT631</name></trkpt>
<trkpt lat="52.907576" lon="-3.428120"><ele>365</ele><time>2022-10-15T09:58:20Z</time><name>PT632</name></trkpt>
<trkpt lat="52.907538" lon="-3.428072"><ele>366</ele><time>2022-10-15T09:58:24Z</time><name>PT633</name></trkpt>
<trkpt lat="52.907511" lon="-3.428033"><ele>366</ele><time>2022-10-15T09:58:27Z</time><name>PT634</name></trkpt>
<trkpt lat="52.907476" lon="-3.427992"><ele>366</ele><time>2022-10-15T09:58:31Z</time><name>PT635</name></trkpt>
<trkpt lat="52.907446" lon="-3.427946"><ele>367</ele><time>2022-10-15T09:58:35Z</time><name>PT636</name></trkpt>
<trkpt lat="52.907422" lon="-3.427911"><ele>367</ele><time>2022-10-15T09:58:38Z</time><name>PT637</name></trkpt>
<trkpt lat="52.907389" lon="-3.427862"><ele>367</ele><time>2022-10-15T09:58:42Z</time><name>PT638</name></trkpt>
<trkpt lat="52.907368" lon="-3.427819"><ele>368</ele><time>2022-10-15T09:58:45Z</time><name>PT639</name></trkpt>
<trkpt lat="52.907337" lon="-3.427771"><ele>368</ele><time>2022-10-15T09:58:49Z</time><name>PT640</name></trkpt>
<trkpt lat="52.907314" lon="-3.427738"><ele>367</ele><time>2022-10-15T09:58:52Z</time><name>PT641</name></trkpt>
<trkpt lat="52.907296" lon="-3.427697"><ele>368</ele><time>2022-10-15T09:58:55Z</time><name>PT642</name></trkpt>
<trkpt lat="52.907276" lon="-3.427654"><ele>368</ele><time>2022-10-15T09:58:58Z</time><name>PT643</name></trkpt>
<trkpt lat="52.907248" lon="-3.427602"><ele>368</ele><time>2022-10-15T09:59:02Z</time><name>PT644</name></trkpt>
<trkpt lat="52.907227" lon="-3.427565"><ele>368</ele><time>2022-10-15T09:59:05Z</time><name>PT645</name></trkpt>
<trkpt lat="52.907199" lon="-3.427515"><ele>369</ele><time>2022-10-15T09:59:09Z</time><name>PT646</name></trkpt>
<trkpt lat="52.907176" lon="-3.427471"><ele>369</ele><time>2022-10-15T09:59:13Z</time><name>PT647</name></trkpt>
<trkpt lat="52.907156" lon="-3.427429"><ele>369</ele><time>2022-10-15T09:59:16Z</time><name>PT648</name></trkpt>
<trkpt lat="52.907125" lon="-3.427386"><ele>370</ele><time>2022-10-15T09:59:20Z</time><name>PT649</name></trkpt>
<trkpt lat="52.907103" lon="-3.427332"><ele>369</ele><time>2022-10-15T09:59:24Z</time><name>PT650</name></trkpt>
<trkpt lat="52.907080" lon="-3.427300"><ele>369</ele><time>2022-10-15T09:59:27Z</time><name>PT651</name></trkpt>
<trkpt lat="52.907067" lon="-3.427263"><ele>368</ele><time>2022-10-15T09:59:30Z</time><name>PT652</name></trkpt>
<trkpt lat="52.907048" lon="-3.427212"><ele>369</ele><time>2022-10-15T09:59:34Z</time><name>PT653</name></trkpt>
<trkpt lat="52.907024" lon="-3.427165"><ele>370</ele><time>2022-10-15T09:59:38Z</time><name>PT654</name></trkpt>
<trkpt lat="52.906998" lon="-3.427129"><ele>370</ele><time>2022-10-15T09:59:41Z</time><name>PT655</name></trkpt>
<trkpt lat="52.906966" lon="-3.427074"><ele>371</ele><time>2022-10-15T09:59:45Z</time><name>PT656</name></trkpt>
<trkpt lat="52.906939" lon="-3.427029"><ele>371</ele><time>2022-10-15T09:59:49Z</time><name>PT657</name></trkpt>
<trkpt lat="52.906912" lon="-3.426974"><ele>370</ele><time>2022-10-15T09:59:53Z</time><name>PT658</name></trkpt>
<trkpt lat="52.906889" lon="-3.426925"><ele>370</ele><time>2022-10-15T09:59:57Z</time><name>PT659</name></trkpt>
<trkpt lat="52.906871" lon="-3.426881"><ele>371</ele><time>2022-10-15T10:00:00Z</time><name>PT660</name></trkpt>
<trkpt lat="52.906853" lon="-3.426816"><ele>371</ele><time>2022-10-15T10:00:04Z</time><name>PT661</name></trkpt>
<trkpt lat="52.906841" lon="-3.426769"><ele>372</ele><time>2022-10-15T10:00:07Z</time><name>PT662</name></trkpt>
<trkpt lat="52.906821" lon="-3.426709"><ele>372</ele><time>2022-10-15T10:00:11Z</time><name>PT663</name></trkpt>
<trkpt lat="52.906802" lon="-3.426639"><ele>373</ele><time>2022-10-15T10:00:15Z</time><name>PT664</name></trkpt>
<trkpt lat="52.906786" lon="-3.426604"><ele>373</ele><time>2022-10-15T10:00:18Z</time><name>PT665</name></trkpt>
<trkpt lat="52.906770" lon="-3.426541"><ele>373</ele><time>2022-10-15T10:00:22Z</time><name>PT666</name></trkpt>
<trkpt lat="52.906756" lon="-3.426494"><ele>373</ele><time>2022-10-15T10:00:25Z</time><name>PT667</name></trkpt>
<trkpt lat="52.906737" lon="-3.426432"><ele>373</ele><time>2022-10-15T10:00:29Z</time><name>PT668</name></trkpt>
<trkpt lat="52.906724" lon="-3.426391"><ele>374</ele><time>2022-10-15T10:00:32Z</time><name>PT669</name></trkpt>
<trkpt lat="52.906708" lon="-3.426339"><ele>374</ele><time>2022-10-15T10:00:36Z</time><name>PT670</name></trkpt>
<trkpt lat="52.906689" lon="-3.426278"><ele>374</ele><time>2022-10-15T10:00:40Z</time><name>PT671</name></trkpt>
<trkpt lat="52.906677" lon="-3.426238"><ele>374</ele><time>2022-10-15T10:00:43Z</time><name>PT672</name></trkpt>
<trkpt lat="52.906658" lon="-3.426172"><ele>374</ele><time>2022-10-15T10:00:47Z</time><name>PT673</name></trkpt>
<trkpt lat="52.906643" lon="-3.426127"><ele>374</ele><time>2022-10-15T10:00:50Z</time><name>PT674</name></trkpt>
<trkpt lat="52.906626" lon="-3.426065"><ele>374</ele><time>2022-10-15T10:00:54Z</time><name>PT675</name></trkpt>
<trkpt lat="52.906612" lon="-3.426023"><ele>374</ele><time>2022-10-15T10:00:57Z</time><name>PT676</name></trkpt>
<trkpt lat="52.906598" lon="-3.425974"><ele>375</ele><time>2022-10-15T10:01:00Z</time><name>PT677</name></trkpt>
<trkpt lat="52.906578" lon="-3.425911"><ele>375</ele><time>2022-10-15T10:01:04Z</time><name>PT678</name></trkpt>
<trkpt lat="52.906562" lon="-3.425847"><ele>375</ele><time>2022-10-15T10:01:08Z</time><name>PT679</name></trkpt>
<trkpt lat="52.906546" lon="-3.425801"><ele>375</ele><time>2022-10-15T10:01:11Z</time><name>PT680</name></trkpt>
<trkpt lat="52.906524" lon="-3.425729"><ele>376</ele><time>2022-10-15T10:01:15Z</time><name>PT681</name></trkpt>
<trkpt lat="52.906505" lon="-3.425664"><ele>376</ele><time>2022-10-15T10:01:19Z</time><name>PT682</name></trkpt>
<trkpt lat="52.906494" lon="-3.425614"><ele>377</ele><time>2022-10-15T10:01:22Z</time><name>PT683</name></trkpt>
<trkpt lat="52.906472" lon="-3.425545"><ele>378</ele><time>2022-10-15T10:01:26Z</time><name>PT684</name></trkpt>
<trkpt lat="52.906454" lon="-3.425478"><ele>378</ele><time>2022-10-15T10:01:30Z</time><name>PT685</name></trkpt>
<trkpt lat="52.906439" lon="-3.425429"><ele>378</ele><time>2022-10-15T10:01:33Z</time><name>PT686</name></trkpt>
<trkpt lat="52.906418" lon="-3.425365"><ele>378</ele><time>2022-10-15T10:01:37Z</time><name>PT687</name></trkpt>
<trkpt lat="52.906404" lon="-3.425316"><ele>379</ele><time>2022-10-15T10:01:40Z</time><name>PT688</name></trkpt>
<trkpt lat="52.906392" lon="-3.425270"><ele>379</ele><time>2022-10-15T10:01:43Z</time><name>PT689</name></trkpt>
<trkpt lat="52.906377" lon="-3.425222"><ele>379</ele><time>2022-10-15T10:01:46Z</time><name>PT690</name></trkpt>
<trkpt lat="52.906362" lon="-3.425170"><ele>379</ele><time>2022-10-15T10:01:49Z</time><name>PT691</name></trkpt>
<trkpt lat="52.906342" lon="-3.425101"><ele>381</ele><time>2022-10-15T10:01:53Z</time><name>PT692</name></trkpt>
<trkpt lat="52.906329" lon="-3.425056"><ele>380</ele><time>2022-10-15T10:01:56Z</time><name>PT693</name></trkpt>
<trkpt lat="52.906317" lon="-3.425018"><ele>381</ele><time>2022-10-15T10:02:00Z</time><name>PT694</name></trkpt>
<trkpt lat="52.906316" lon="-3.425009"><ele>382</ele><time>2022-10-15T10:02:04Z</time><name>PT695</name></trkpt>
<trkpt lat="52.906315" lon="-3.424992"><ele>382</ele><time>2022-10-15T10:02:15Z</time><name>PT696</name></trkpt>
<trkpt lat="52.906313" lon="-3.424923"><ele>382</ele><time>2022-10-15T10:02:19Z</time><name>PT697</name></trkpt>
<trkpt lat="52.906307" lon="-3.424853"><ele>383</ele><time>2022-10-15T10:02:23Z</time><name>PT698</name></trkpt>
<trkpt lat="52.906309" lon="-3.424787"><ele>383</ele><time>2022-10-15T10:02:27Z</time><name>PT699</name></trkpt>
<trkpt lat="52.906307" lon="-3.424726"><ele>383</ele><time>2022-10-15T10:02:31Z</time><name>PT700</name></trkpt>
<trkpt lat="52.906304" lon="-3.424667"><ele>383</ele><time>2022-10-15T10:02:35Z</time><name>PT701</name></trkpt>
<trkpt lat="52.906303" lon="-3.424659"><ele>383</ele><time>2022-10-15T10:02:39Z</time><name>PT702</name></trkpt>
<trkpt lat="52.906292" lon="-3.424598"><ele>383</ele><time>2022-10-15T10:02:42Z</time><name>PT703</name></trkpt>
<trkpt lat="52.906296" lon="-3.424541"><ele>382</ele><time>2022-10-15T10:02:46Z</time><name>PT704</name></trkpt>
<trkpt lat="52.906290" lon="-3.424495"><ele>383</ele><time>2022-10-15T10:02:49Z</time><name>PT705</name></trkpt>
<trkpt lat="52.906281" lon="-3.424448"><ele>383</ele><time>2022-10-15T10:02:53Z</time><name>PT706</name></trkpt>
<trkpt lat="52.906275" lon="-3.424413"><ele>383</ele><time>2022-10-15T10:02:56Z</time><name>PT707</name></trkpt>
<trkpt lat="52.906274" lon="-3.424410"><ele>384</ele><time>2022-10-15T10:03:00Z</time><name>PT708</name></trkpt>
<trkpt lat="52.906283" lon="-3.424401"><ele>384</ele><time>2022-10-15T10:03:11Z</time><name>PT709</name></trkpt>
<trkpt lat="52.906282" lon="-3.424397"><ele>384</ele><time>2022-10-15T10:03:15Z</time><name>PT710</name></trkpt>
<trkpt lat="52.906279" lon="-3.424393"><ele>385</ele><time>2022-10-15T10:03:18Z</time><name>PT711</name></trkpt>
<trkpt lat="52.906272" lon="-3.424373"><ele>384</ele><time>2022-10-15T10:03:22Z</time><name>PT712</name></trkpt>
<trkpt lat="52.906270" lon="-3.424346"><ele>385</ele><time>2022-10-15T10:03:25Z</time><name>PT713</name></trkpt>
<trkpt lat="52.906261" lon="-3.424315"><ele>385</ele><time>2022-10-15T10:03:28Z</time><name>PT714</name></trkpt>
<trkpt lat="52.906249" lon="-3.424261"><ele>385</ele><time>2022-10-15T10:03:32Z</time><name>PT715</name></trkpt>
<trkpt lat="52.906243" lon="-3.424200"><ele>385</ele><time>2022-10-15T10:03:36Z</time><name>PT716</name></trkpt>
<trkpt lat="52.906232" lon="-3.424146"><ele>385</ele><time>2022-10-15T10:03:40Z</time><name>PT717</name></trkpt>
<trkpt lat="52.906224" lon="-3.424110"><ele>385</ele><time>2022-10-15T10:03:43Z</time><name>PT718</name></trkpt>
<trkpt lat="52.906212" lon="-3.424067"><ele>385</ele><time>2022-10-15T10:03:46Z</time><name>PT719</name></trkpt>
<trkpt lat="52.906198" lon="-3.424004"><ele>385</ele><time>2022-10-15T10:03:50Z</time><name>PT720</name></trkpt>
<trkpt lat="52.906185" lon="-3.423930"><ele>385</ele><time>2022-10-15T10:03:54Z</time><name>PT721</name></trkpt>
<trkpt lat="52.906177" lon="-3.423878"><ele>385</ele><time>2022-10-15T10:03:57Z</time><name>PT722</name></trkpt>
<trkpt lat="52.906171" lon="-3.423807"><ele>386</ele><time>2022-10-15T10:04:01Z</time><name>PT723</name></trkpt>
<trkpt lat="52.906165" lon="-3.423739"><ele>386</ele><time>2022-10-15T10:04:05Z</time><name>PT724</name></trkpt>
<trkpt lat="52.906162" lon="-3.423692"><ele>387</ele><time>2022-10-15T10:04:09Z</time><name>PT725</name></trkpt>
<trkpt lat="52.906159" lon="-3.423647"><ele>387</ele><time>2022-10-15T10:04:12Z</time><name>PT726</name></trkpt>
<trkpt lat="52.906151" lon="-3.423593"><ele>387</ele><time>2022-10-15T10:04:16Z</time><name>PT727</name></trkpt>
<trkpt lat="52.906144" lon="-3.423531"><ele>387</ele><time>2022-10-15T10:04:20Z</time><name>PT728</name></trkpt>
<trkpt lat="52.906136" lon="-3.423478"><ele>388</ele><time>2022-10-15T10:04:23Z</time><name>PT729</name></trkpt>
<trkpt lat="52.906121" lon="-3.423413"><ele>388</ele><time>2022-10-15T10:04:27Z</time><name>PT730</name></trkpt>
<trkpt lat="52.906111" lon="-3.423366"><ele>387</ele><time>2022-10-15T10:04:30Z</time><name>PT731</name></trkpt>
<trkpt lat="52.906097" lon="-3.423290"><ele>388</ele><time>2022-10-15T10:04:34Z</time><name>PT732</name></trkpt>
<trkpt lat="52.906082" lon="-3.423215"><ele>388</ele><time>2022-10-15T10:04:38Z</time><name>PT733</name></trkpt>
<trkpt lat="52.906064" lon="-3.423135"><ele>388</ele><time>2022-10-15T10:04:42Z</time><name>PT734</name></trkpt>
<trkpt lat="52.906054" lon="-3.423084"><ele>387</ele><time>2022-10-15T10:04:45Z</time><name>PT735</name></trkpt>
<trkpt lat="52.906041" lon="-3.422999"><ele>389</ele><time>2022-10-15T10:04:49Z</time><name>PT736</name></trkpt>
<trkpt lat="52.906032" lon="-3.422937"><ele>388</ele><time>2022-10-15T10:04:52Z</time><name>PT737</name></trkpt>
<trkpt lat="52.906034" lon="-3.422882"><ele>388</ele><time>2022-10-15T10:04:55Z</time><name>PT738</name></trkpt>
<trkpt lat="52.906030" lon="-3.422807"><ele>389</ele><time>2022-10-15T10:04:59Z</time><name>PT739</name></trkpt>
<trkpt lat="52.906036" lon="-3.422747"><ele>390</ele><time>2022-10-15T10:05:02Z</time><name>PT740</name></trkpt>
<trkpt lat="52.906043" lon="-3.422665"><ele>390</ele><time>2022-10-15T10:05:06Z</time><name>PT741</name></trkpt>
<trkpt lat="52.906049" lon="-3.422593"><ele>390</ele><time>2022-10-15T10:05:09Z</time><name>PT742</name></trkpt>
<trkpt lat="52.906053" lon="-3.422514"><ele>390</ele><time>2022-10-15T10:05:13Z</time><name>PT743</name></trkpt>
<trkpt lat="52.906053" lon="-3.422459"><ele>390</ele><time>2022-10-15T10:05:16Z</time><name>PT744</name></trkpt>
<trkpt lat="52.906051" lon="-3.422394"><ele>390</ele><time>2022-10-15T10:05:19Z</time><name>PT745</name></trkpt>
<trkpt lat="52.906039" lon="-3.422319"><ele>390</ele><time>2022-10-15T10:05:23Z</time><name>PT746</name></trkpt>
<trkpt lat="52.906029" lon="-3.422263"><ele>389</ele><time>2022-10-15T10:05:26Z</time><name>PT747</name></trkpt>
<trkpt lat="52.906023" lon="-3.422218"><ele>388</ele><time>2022-10-15T10:05:29Z</time><name>PT748</name></trkpt>
<trkpt lat="52.906016" lon="-3.422138"><ele>389</ele><time>2022-10-15T10:05:33Z</time><name>PT749</name></trkpt>
<trkpt lat="52.906003" lon="-3.422093"><ele>389</ele><time>2022-10-15T10:05:36Z</time><name>PT750</name></trkpt>
<trkpt lat="52.905991" lon="-3.422049"><ele>388</ele><time>2022-10-15T10:05:40Z</time><name>PT751</name></trkpt>
<trkpt lat="52.905985" lon="-3.422024"><ele>388</ele><time>2022-10-15T10:05:44Z</time><name>PT752</name></trkpt>
<trkpt lat="52.905974" lon="-3.422021"><ele>388</ele><time>2022-10-15T10:05:48Z</time><name>PT753</name></trkpt>
<trkpt lat="52.905965" lon="-3.421998"><ele>388</ele><time>2022-10-15T10:05:52Z</time><name>PT754</name></trkpt>
<trkpt lat="52.905980" lon="-3.421974"><ele>388</ele><time>2022-10-15T10:05:56Z</time><name>PT755</name></trkpt>
<trkpt lat="52.905999" lon="-3.421967"><ele>388</ele><time>2022-10-15T10:05:59Z</time><name>PT756</name></trkpt>
<trkpt lat="52.906015" lon="-3.421928"><ele>388</ele><time>2022-10-15T10:06:03Z</time><name>PT757</name></trkpt>
<trkpt lat="52.906013" lon="-3.421874"><ele>388</ele><time>2022-10-15T10:06:07Z</time><name>PT758</name></trkpt>
<trkpt lat="52.906008" lon="-3.421826"><ele>388</ele><time>2022-10-15T10:06:10Z</time><name>PT759</name></trkpt>
<trkpt lat="52.905994" lon="-3.421766"><ele>388</ele><time>2022-10-15T10:06:14Z</time><name>PT760</name></trkpt>
<trkpt lat="52.905987" lon="-3.421698"><ele>388</ele><time>2022-10-15T10:06:18Z</time><name>PT761</name></trkpt>
<trkpt lat="52.905980" lon="-3.421638"><ele>387</ele><time>2022-10-15T10:06:21Z</time><name>PT762</name></trkpt>
<trkpt lat="52.905975" lon="-3.421573"><ele>387</ele><time>2022-10-15T10:06:24Z</time><name>PT763</name></trkpt>
<trkpt lat="52.905971" lon="-3.421504"><ele>387</ele><time>2022-10-15T10:06:28Z</time><name>PT764</name></trkpt>
<trkpt lat="52.905968" lon="-3.421446"><ele>386</ele><time>2022-10-15T10:06:31Z</time><name>PT765</name></trkpt>
<trkpt lat="52.905968" lon="-3.421394"><ele>386</ele><time>2022-10-15T10:06:34Z</time><name>PT766</name></trkpt>
<trkpt lat="52.905962" lon="-3.421348"><ele>386</ele><time>2022-10-15T10:06:38Z</time><name>PT767</name></trkpt>
<trkpt lat="52.905959" lon="-3.421302"><ele>385</ele><time>2022-10-15T10:06:42Z</time><name>PT768</name></trkpt>
<trkpt lat="52.905957" lon="-3.421257"><ele>386</ele><time>2022-10-15T10:06:45Z</time><name>PT769</name></trkpt>
<trkpt lat="52.905955" lon="-3.421208"><ele>385</ele><time>2022-10-15T10:06:48Z</time><name>PT770</name></trkpt>
<trkpt lat="52.905952" lon="-3.421159"><ele>385</ele><time>2022-10-15T10:06:51Z</time><name>PT771</name></trkpt>
<trkpt lat="52.905948" lon="-3.421102"><ele>386</ele><time>2022-10-15T10:06:54Z</time><name>PT772</name></trkpt>
<trkpt lat="52.905943" lon="-3.421039"><ele>385</ele><time>2022-10-15T10:06:58Z</time><name>PT773</name></trkpt>
<trkpt lat="52.905940" lon="-3.420969"><ele>385</ele><time>2022-10-15T10:07:02Z</time><name>PT774</name></trkpt>
<trkpt lat="52.905932" lon="-3.420895"><ele>384</ele><time>2022-10-15T10:07:06Z</time><name>PT775</name></trkpt>
<trkpt lat="52.905929" lon="-3.420832"><ele>384</ele><time>2022-10-15T10:07:10Z</time><name>PT776</name></trkpt>
<trkpt lat="52.905925" lon="-3.420756"><ele>384</ele><time>2022-10-15T10:07:14Z</time><name>PT777</name></trkpt>
<trkpt lat="52.905921" lon="-3.420690"><ele>383</ele><time>2022-10-15T10:07:18Z</time><name>PT778</name></trkpt>
<trkpt lat="52.905915" lon="-3.420631"><ele>383</ele><time>2022-10-15T10:07:21Z</time><name>PT779</name></trkpt>
<trkpt lat="52.905908" lon="-3.420575"><ele>383</ele><time>2022-10-15T10:07:24Z</time><name>PT780</name></trkpt>
<trkpt lat="52.905891" lon="-3.420498"><ele>384</ele><time>2022-10-15T10:07:28Z</time><name>PT781</name></trkpt>
<trkpt lat="52.905883" lon="-3.420460"><ele>383</ele><time>2022-10-15T10:07:31Z</time><name>PT782</name></trkpt>
<trkpt lat="52.905872" lon="-3.420413"><ele>383</ele><time>2022-10-15T10:07:34Z</time><name>PT783</name></trkpt>
<trkpt lat="52.905863" lon="-3.420367"><ele>383</ele><time>2022-10-15T10:07:37Z</time><name>PT784</name></trkpt>
<trkpt lat="52.905857" lon="-3.420292"><ele>382</ele><time>2022-10-15T10:07:41Z</time><name>PT785</name></trkpt>
<trkpt lat="52.905858" lon="-3.420241"><ele>381</ele><time>2022-10-15T10:07:44Z</time><name>PT786</name></trkpt>
<trkpt lat="52.905865" lon="-3.420188"><ele>380</ele><time>2022-10-15T10:07:47Z</time><name>PT787</name></trkpt>
<trkpt lat="52.905873" lon="-3.420125"><ele>381</ele><time>2022-10-15T10:07:50Z</time><name>PT788</name></trkpt>
<trkpt lat="52.905885" lon="-3.420050"><ele>381</ele><time>2022-10-15T10:07:54Z</time><name>PT789</name></trkpt>
<trkpt lat="52.905883" lon="-3.419967"><ele>383</ele><time>2022-10-15T10:07:58Z</time><name>PT790</name></trkpt>
<trkpt lat="52.905864" lon="-3.419911"><ele>383</ele><time>2022-10-15T10:08:01Z</time><name>PT791</name></trkpt>
<trkpt lat="52.905862" lon="-3.419848"><ele>384</ele><time>2022-10-15T10:08:05Z</time><name>PT792</name></trkpt>
<trkpt lat="52.905856" lon="-3.419781"><ele>384</ele><time>2022-10-15T10:08:09Z</time><name>PT793</name></trkpt>
<trkpt lat="52.905832" lon="-3.419700"><ele>384</ele><time>2022-10-15T10:08:13Z</time><name>PT794</name></trkpt>
<trkpt lat="52.905817" lon="-3.419657"><ele>384</ele><time>2022-10-15T10:08:16Z</time><name>PT795</name></trkpt>
<trkpt lat="52.905817" lon="-3.419607"><ele>384</ele><time>2022-10-15T10:08:20Z</time><name>PT796</name></trkpt>
<trkpt lat="52.905811" lon="-3.419574"><ele>384</ele><time>2022-10-15T10:08:23Z</time><name>PT797</name></trkpt>
<trkpt lat="52.905811" lon="-3.419569"><ele>384</ele><time>2022-10-15T10:08:26Z</time><name>PT798</name></trkpt>
<trkpt lat="52.905793" lon="-3.419518"><ele>384</ele><time>2022-10-15T10:08:33Z</time><name>PT799</name></trkpt>
<trkpt lat="52.905766" lon="-3.419456"><ele>384</ele><time>2022-10-15T10:08:37Z</time><name>PT800</name></trkpt>
<trkpt lat="52.905756" lon="-3.419414"><ele>383</ele><time>2022-10-15T10:08:40Z</time><name>PT801</name></trkpt>
<trkpt lat="52.905741" lon="-3.419354"><ele>383</ele><time>2022-10-15T10:08:44Z</time><name>PT802</name></trkpt>
<trkpt lat="52.905735" lon="-3.419303"><ele>384</ele><time>2022-10-15T10:08:47Z</time><name>PT803</name></trkpt>
<trkpt lat="52.905725" lon="-3.419239"><ele>384</ele><time>2022-10-15T10:08:51Z</time><name>PT804</name></trkpt>
<trkpt lat="52.905704" lon="-3.419180"><ele>384</ele><time>2022-10-15T10:08:55Z</time><name>PT805</name></trkpt>
<trkpt lat="52.905689" lon="-3.419148"><ele>384</ele><time>2022-10-15T10:08:58Z</time><name>PT806</name></trkpt>
<trkpt lat="52.905667" lon="-3.419113"><ele>384</ele><time>2022-10-15T10:09:01Z</time><name>PT807</name></trkpt>
<trkpt lat="52.905639" lon="-3.419081"><ele>382</ele><time>2022-10-15T10:09:05Z</time><name>PT808</name></trkpt>
<trkpt lat="52.905603" lon="-3.419049"><ele>382</ele><time>2022-10-15T10:09:09Z</time><name>PT809</name></trkpt>
<trkpt lat="52.905581" lon="-3.419019"><ele>382</ele><time>2022-10-15T10:09:12Z</time><name>PT810</name></trkpt>
<trkpt lat="52.905555" lon="-3.418988"><ele>383</ele><time>2022-10-15T10:09:16Z</time><name>PT811</name></trkpt>
<trkpt lat="52.905538" lon="-3.418965"><ele>382</ele><time>2022-10-15T10:09:19Z</time><name>PT812</name></trkpt>
<trkpt lat="52.905520" lon="-3.418928"><ele>382</ele><time>2022-10-15T10:09:23Z</time><name>PT813</name></trkpt>
<trkpt lat="52.905514" lon="-3.418917"><ele>383</ele><time>2022-10-15T10:09:26Z</time><name>PT814</name></trkpt>
<trkpt lat="52.905489" lon="-3.418854"><ele>382</ele><time>2022-10-15T10:09:33Z</time><name>PT815</name></trkpt>
<trkpt lat="52.905477" lon="-3.418787"><ele>382</ele><time>2022-10-15T10:09:37Z</time><name>PT816</name></trkpt>
<trkpt lat="52.905468" lon="-3.418740"><ele>382</ele><time>2022-10-15T10:09:40Z</time><name>PT817</name></trkpt>
<trkpt lat="52.905460" lon="-3.418701"><ele>381</ele><time>2022-10-15T10:09:43Z</time><name>PT818</name></trkpt>
<trkpt lat="52.905463" lon="-3.418646"><ele>382</ele><time>2022-10-15T10:09:47Z</time><name>PT819</name></trkpt>
<trkpt lat="52.905467" lon="-3.418604"><ele>382</ele><time>2022-10-15T10:09:50Z</time><name>PT820</name></trkpt>
<trkpt lat="52.905486" lon="-3.418571"><ele>381</ele><time>2022-10-15T10:09:54Z</time><name>PT821</name></trkpt>
<trkpt lat="52.905501" lon="-3.418513"><ele>382</ele><time>2022-10-15T10:09:58Z</time><name>PT822</name></trkpt>
<trkpt lat="52.905520" lon="-3.418474"><ele>383</ele><time>2022-10-15T10:10:01Z</time><name>PT823</name></trkpt>
<trkpt lat="52.905537" lon="-3.418409"><ele>384</ele><time>2022-10-15T10:10:05Z</time><name>PT824</name></trkpt>
<trkpt lat="52.905532" lon="-3.418353"><ele>384</ele><time>2022-10-15T10:10:08Z</time><name>PT825</name></trkpt>
<trkpt lat="52.905529" lon="-3.418283"><ele>384</ele><time>2022-10-15T10:10:12Z</time><name>PT826</name></trkpt>
<trkpt lat="52.905522" lon="-3.418240"><ele>384</ele><time>2022-10-15T10:10:15Z</time><name>PT827</name></trkpt>
<trkpt lat="52.905509" lon="-3.418180"><ele>385</ele><time>2022-10-15T10:10:18Z</time><name>PT828</name></trkpt>
<trkpt lat="52.905509" lon="-3.418108"><ele>386</ele><time>2022-10-15T10:10:22Z</time><name>PT829</name></trkpt>
<trkpt lat="52.905511" lon="-3.418040"><ele>387</ele><time>2022-10-15T10:10:26Z</time><name>PT830</name></trkpt>
<trkpt lat="52.905515" lon="-3.417975"><ele>387</ele><time>2022-10-15T10:10:30Z</time><name>PT831</name></trkpt>
<trkpt lat="52.905520" lon="-3.417929"><ele>388</ele><time>2022-10-15T10:10:34Z</time><name>PT832</name></trkpt>
<trkpt lat="52.905534" lon="-3.417877"><ele>388</ele><time>2022-10-15T10:10:37Z</time><name>PT833</name></trkpt>
<trkpt lat="52.905543" lon="-3.417833"><ele>388</ele><time>2022-10-15T10:10:40Z</time><name>PT834</name></trkpt>
<trkpt lat="52.905553" lon="-3.417777"><ele>389</ele><time>2022-10-15T10:10:44Z</time><name>PT835</name></trkpt>
<trkpt lat="52.905564" lon="-3.417719"><ele>389</ele><time>2022-10-15T10:10:48Z</time><name>PT836</name></trkpt>
<trkpt lat="52.905567" lon="-3.417647"><ele>390</ele><time>2022-10-15T10:10:52Z</time><name>PT837</name></trkpt>
<trkpt lat="52.905576" lon="-3.417594"><ele>390</ele><time>2022-10-15T10:10:56Z</time><name>PT838</name></trkpt>
<trkpt lat="52.905580" lon="-3.417550"><ele>391</ele><time>2022-10-15T10:10:59Z</time><name>PT839</name></trkpt>
<trkpt lat="52.905578" lon="-3.417500"><ele>392</ele><time>2022-10-15T10:11:02Z</time><name>PT840</name></trkpt>
<trkpt lat="52.905573" lon="-3.417437"><ele>391</ele><time>2022-10-15T10:11:06Z</time><name>PT841</name></trkpt>
<trkpt lat="52.905561" lon="-3.417402"><ele>391</ele><time>2022-10-15T10:11:09Z</time><name>PT842</name></trkpt>
<trkpt lat="52.905550" lon="-3.417364"><ele>391</ele><time>2022-10-15T10:11:12Z</time><name>PT843</name></trkpt>
<trkpt lat="52.905540" lon="-3.417312"><ele>391</ele><time>2022-10-15T10:11:15Z</time><name>PT844</name></trkpt>
<trkpt lat="52.905534" lon="-3.417263"><ele>392</ele><time>2022-10-15T10:11:18Z</time><name>PT845</name></trkpt>
<trkpt lat="52.905533" lon="-3.417205"><ele>392</ele><time>2022-10-15T10:11:22Z</time><name>PT846</name></trkpt>
<trkpt lat="52.905534" lon="-3.417142"><ele>393</ele><time>2022-10-15T10:11:26Z</time><name>PT847</name></trkpt>
<trkpt lat="52.905535" lon="-3.417101"><ele>393</ele><time>2022-10-15T10:11:29Z</time><name>PT848</name></trkpt>
<trkpt lat="52.905542" lon="-3.417048"><ele>392</ele><time>2022-10-15T10:11:33Z</time><name>PT849</name></trkpt>
<trkpt lat="52.905548" lon="-3.416979"><ele>393</ele><time>2022-10-15T10:11:37Z</time><name>PT850</name></trkpt>
<trkpt lat="52.905555" lon="-3.416937"><ele>393</ele><time>2022-10-15T10:11:40Z</time><name>PT851</name></trkpt>
<trkpt lat="52.905558" lon="-3.416886"><ele>393</ele><time>2022-10-15T10:11:43Z</time><name>PT852</name></trkpt>
<trkpt lat="52.905552" lon="-3.416842"><ele>393</ele><time>2022-10-15T10:11:46Z</time><name>PT853</name></trkpt>
<trkpt lat="52.905542" lon="-3.416789"><ele>392</ele><time>2022-10-15T10:11:49Z</time><name>PT854</name></trkpt>
<trkpt lat="52.905536" lon="-3.416734"><ele>393</ele><time>2022-10-15T10:11:52Z</time><name>PT855</name></trkpt>
<trkpt lat="52.905527" lon="-3.416686"><ele>393</ele><time>2022-10-15T10:11:55Z</time><name>PT856</name></trkpt>
<trkpt lat="52.905513" lon="-3.416627"><ele>392</ele><time>2022-10-15T10:11:59Z</time><name>PT857</name></trkpt>
<trkpt lat="52.905504" lon="-3.416585"><ele>392</ele><time>2022-10-15T10:12:02Z</time><name>PT858</name></trkpt>
<trkpt lat="52.905495" lon="-3.416550"><ele>392</ele><time>2022-10-15T10:12:05Z</time><name>PT859</name></trkpt>
<trkpt lat="52.905484" lon="-3.416498"><ele>393</ele><time>2022-10-15T10:12:09Z</time><name>PT860</name></trkpt>
<trkpt lat="52.905474" lon="-3.416438"><ele>393</ele><time>2022-10-15T10:12:13Z</time><name>PT861</name></trkpt>
<trkpt lat="52.905463" lon="-3.416402"><ele>393</ele><time>2022-10-15T10:12:16Z</time><name>PT862</name></trkpt>
<trkpt lat="52.905436" lon="-3.416363"><ele>394</ele><time>2022-10-15T10:12:20Z</time><name>PT863</name></trkpt>
<trkpt lat="52.905418" lon="-3.416328"><ele>394</ele><time>2022-10-15T10:12:23Z</time><name>PT864</name></trkpt>
<trkpt lat="52.905402" lon="-3.416280"><ele>395</ele><time>2022-10-15T10:12:27Z</time><name>PT865</name></trkpt>
<trkpt lat="52.905398" lon="-3.416238"><ele>395</ele><time>2022-10-15T10:12:30Z</time><name>PT866</name></trkpt>
<trkpt lat="52.905385" lon="-3.416170"><ele>396</ele><time>2022-10-15T10:12:34Z</time><name>PT867</name></trkpt>
<trkpt lat="52.905375" lon="-3.416112"><ele>396</ele><time>2022-10-15T10:12:38Z</time><name>PT868</name></trkpt>
<trkpt lat="52.905365" lon="-3.416052"><ele>396</ele><time>2022-10-15T10:12:42Z</time><name>PT869</name></trkpt>
<trkpt lat="52.905360" lon="-3.416010"><ele>396</ele><time>2022-10-15T10:12:45Z</time><name>PT870</name></trkpt>
<trkpt lat="52.905356" lon="-3.415969"><ele>396</ele><time>2022-10-15T10:12:48Z</time><name>PT871</name></trkpt>
<trkpt lat="52.905342" lon="-3.415897"><ele>396</ele><time>2022-10-15T10:12:52Z</time><name>PT872</name></trkpt>
<trkpt lat="52.905322" lon="-3.415860"><ele>396</ele><time>2022-10-15T10:12:55Z</time><name>PT873</name></trkpt>
<trkpt lat="52.905293" lon="-3.415820"><ele>396</ele><time>2022-10-15T10:12:59Z</time><name>PT874</name></trkpt>
<trkpt lat="52.905260" lon="-3.415801"><ele>396</ele><time>2022-10-15T10:13:03Z</time><name>PT875</name></trkpt>
<trkpt lat="52.905236" lon="-3.415764"><ele>397</ele><time>2022-10-15T10:13:07Z</time><name>PT876</name></trkpt>
<trkpt lat="52.905226" lon="-3.415719"><ele>397</ele><time>2022-10-15T10:13:10Z</time><name>PT877</name></trkpt>
<trkpt lat="52.905214" lon="-3.415668"><ele>397</ele><time>2022-10-15T10:13:14Z</time><name>PT878</name></trkpt>
<trkpt lat="52.905218" lon="-3.415619"><ele>397</ele><time>2022-10-15T10:13:17Z</time><name>PT879</name></trkpt>
<trkpt lat="52.905217" lon="-3.415566"><ele>397</ele><time>2022-10-15T10:13:20Z</time><name>PT880</name></trkpt>
<trkpt lat="52.905217" lon="-3.415513"><ele>398</ele><time>2022-10-15T10:13:23Z</time><name>PT881</name></trkpt>
<trkpt lat="52.905206" lon="-3.415442"><ele>398</ele><time>2022-10-15T10:13:27Z</time><name>PT882</name></trkpt>
<trkpt lat="52.905207" lon="-3.415402"><ele>398</ele><time>2022-10-15T10:13:30Z</time><name>PT883</name></trkpt>
<trkpt lat="52.905209" lon="-3.415351"><ele>399</ele><time>2022-10-15T10:13:33Z</time><name>PT884</name></trkpt>
<trkpt lat="52.905211" lon="-3.415300"><ele>399</ele><time>2022-10-15T10:13:36Z</time><name>PT885</name></trkpt>
<trkpt lat="52.905212" lon="-3.415240"><ele>398</ele><time>2022-10-15T10:13:40Z</time><name>PT886</name></trkpt>
<trkpt lat="52.905202" lon="-3.415203"><ele>397</ele><time>2022-10-15T10:13:43Z</time><name>PT887</name></trkpt>
<trkpt lat="52.905198" lon="-3.415169"><ele>397</ele><time>2022-10-15T10:13:46Z</time><name>PT888</name></trkpt>
<trkpt lat="52.905193" lon="-3.415121"><ele>398</ele><time>2022-10-15T10:13:49Z</time><name>PT889</name></trkpt>
<trkpt lat="52.905185" lon="-3.415063"><ele>398</ele><time>2022-10-15T10:13:53Z</time><name>PT890</name></trkpt>
<trkpt lat="52.905179" lon="-3.415006"><ele>398</ele><time>2022-10-15T10:13:57Z</time><name>PT891</name></trkpt>
<trkpt lat="52.905181" lon="-3.414953"><ele>398</ele><time>2022-10-15T10:14:01Z</time><name>PT892</name></trkpt>
<trkpt lat="52.905182" lon="-3.414910"><ele>398</ele><time>2022-10-15T10:14:04Z</time><name>PT893</name></trkpt>
<trkpt lat="52.905186" lon="-3.414847"><ele>399</ele><time>2022-10-15T10:14:08Z</time><name>PT894</name></trkpt>
<trkpt lat="52.905195" lon="-3.414804"><ele>400</ele><time>2022-10-15T10:14:11Z</time><name>PT895</name></trkpt>
<trkpt lat="52.905196" lon="-3.414745"><ele>400</ele><time>2022-10-15T10:14:15Z</time><name>PT896</name></trkpt>
<trkpt lat="52.905192" lon="-3.414674"><ele>401</ele><time>2022-10-15T10:14:19Z</time><name>PT897</name></trkpt>
<trkpt lat="52.905189" lon="-3.414626"><ele>401</ele><time>2022-10-15T10:14:22Z</time><name>PT898</name></trkpt>
<trkpt lat="52.905182" lon="-3.414568"><ele>402</ele><time>2022-10-15T10:14:26Z</time><name>PT899</name></trkpt>
<trkpt lat="52.905178" lon="-3.414532"><ele>402</ele><time>2022-10-15T10:14:30Z</time><name>PT900</name></trkpt>
<trkpt lat="52.905172" lon="-3.414510"><ele>401</ele><time>2022-10-15T10:14:34Z</time><name>PT901</name></trkpt>
<trkpt lat="52.905159" lon="-3.414503"><ele>401</ele><time>2022-10-15T10:14:38Z</time><name>PT902</name></trkpt>
<trkpt lat="52.905146" lon="-3.414464"><ele>401</ele><time>2022-10-15T10:14:41Z</time><name>PT903</name></trkpt>
<trkpt lat="52.905136" lon="-3.414421"><ele>401</ele><time>2022-10-15T10:14:45Z</time><name>PT904</name></trkpt>
<trkpt lat="52.905133" lon="-3.414380"><ele>401</ele><time>2022-10-15T10:14:48Z</time><name>PT905</name></trkpt>
<trkpt lat="52.905129" lon="-3.414335"><ele>402</ele><time>2022-10-15T10:14:51Z</time><name>PT906</name></trkpt>
<trkpt lat="52.905124" lon="-3.414293"><ele>402</ele><time>2022-10-15T10:14:54Z</time><name>PT907</name></trkpt>
<trkpt lat="52.905115" lon="-3.414231"><ele>402</ele><time>2022-10-15T10:14:58Z</time><name>PT908</name></trkpt>
<trkpt lat="52.905108" lon="-3.414185"><ele>402</ele><time>2022-10-15T10:15:01Z</time><name>PT909</name></trkpt>
<trkpt lat="52.905104" lon="-3.414125"><ele>402</ele><time>2022-10-15T10:15:05Z</time><name>PT910</name></trkpt>
<trkpt lat="52.905099" lon="-3.414062"><ele>402</ele><time>2022-10-15T10:15:09Z</time><name>PT911</name></trkpt>
<trkpt lat="52.905095" lon="-3.414004"><ele>403</ele><time>2022-10-15T10:15:13Z</time><name>PT912</name></trkpt>
<trkpt lat="52.905087" lon="-3.413960"><ele>403</ele><time>2022-10-15T10:15:17Z</time><name>PT913</name></trkpt>
<trkpt lat="52.905082" lon="-3.413914"><ele>403</ele><time>2022-10-15T10:15:21Z</time><name>PT914</name></trkpt>
<trkpt lat="52.905076" lon="-3.413857"><ele>403</ele><time>2022-10-15T10:15:25Z</time><name>PT915</name></trkpt>
<trkpt lat="52.905073" lon="-3.413823"><ele>403</ele><time>2022-10-15T10:15:28Z</time><name>PT916</name></trkpt>
<trkpt lat="52.905069" lon="-3.413776"><ele>403</ele><time>2022-10-15T10:15:32Z</time><name>PT917</name></trkpt>
<trkpt lat="52.905073" lon="-3.413735"><ele>404</ele><time>2022-10-15T10:15:35Z</time><name>PT918</name></trkpt>
<trkpt lat="52.905084" lon="-3.413686"><ele>404</ele><time>2022-10-15T10:15:39Z</time><name>PT919</name></trkpt>
<trkpt lat="52.905086" lon="-3.413640"><ele>404</ele><time>2022-10-15T10:15:42Z</time><name>PT920</name></trkpt>
<trkpt lat="52.905088" lon="-3.413595"><ele>404</ele><time>2022-10-15T10:15:45Z</time><name>PT921</name></trkpt>
<trkpt lat="52.905085" lon="-3.413551"><ele>405</ele><time>2022-10-15T10:15:49Z</time><name>PT922</name></trkpt>
<trkpt lat="52.905080" lon="-3.413522"><ele>405</ele><time>2022-10-15T10:15:52Z</time><name>PT923</name></trkpt>
<trkpt lat="52.905067" lon="-3.413462"><ele>404</ele><time>2022-10-15T10:15:56Z</time><name>PT924</name></trkpt>
<trkpt lat="52.905059" lon="-3.413419"><ele>404</ele><time>2022-10-15T10:15:59Z</time><name>PT925</name></trkpt>
<trkpt lat="52.905058" lon="-3.413365"><ele>405</ele><time>2022-10-15T10:16:03Z</time><name>PT926</name></trkpt>
<trkpt lat="52.905043" lon="-3.413334"><ele>405</ele><time>2022-10-15T10:16:06Z</time><name>PT927</name></trkpt>
<trkpt lat="52.905045" lon="-3.413288"><ele>405</ele><time>2022-10-15T10:16:10Z</time><name>PT928</name></trkpt>
<trkpt lat="52.905050" lon="-3.413219"><ele>405</ele><time>2022-10-15T10:16:14Z</time><name>PT929</name></trkpt>
<trkpt lat="52.905061" lon="-3.413159"><ele>406</ele><time>2022-10-15T10:16:18Z</time><name>PT930</name></trkpt>
<trkpt lat="52.905065" lon="-3.413119"><ele>405</ele><time>2022-10-15T10:16:21Z</time><name>PT931</name></trkpt>
<trkpt lat="52.905074" lon="-3.413058"><ele>405</ele><time>2022-10-15T10:16:25Z</time><name>PT932</name></trkpt>
<trkpt lat="52.905081" lon="-3.413014"><ele>406</ele><time>2022-10-15T10:16:28Z</time><name>PT933</name></trkpt>
<trkpt lat="52.905084" lon="-3.412966"><ele>406</ele><time>2022-10-15T10:16:31Z</time><name>PT934</name></trkpt>
<trkpt lat="52.905094" lon="-3.412915"><ele>407</ele><time>2022-10-15T10:16:35Z</time><name>PT935</name></trkpt>
<trkpt lat="52.905104" lon="-3.412861"><ele>407</ele><time>2022-10-15T10:16:39Z</time><name>PT936</name></trkpt>
<trkpt lat="52.905112" lon="-3.412792"><ele>408</ele><time>2022-10-15T10:16:43Z</time><name>PT937</name></trkpt>
<trkpt lat="52.905111" lon="-3.412745"><ele>408</ele><time>2022-10-15T10:16:47Z</time><name>PT938</name></trkpt>
<trkpt lat="52.905111" lon="-3.412741"><ele>407</ele><time>2022-10-15T10:16:51Z</time><name>PT939</name></trkpt>
<trkpt lat="52.905111" lon="-3.412699"><ele>408</ele><time>2022-10-15T10:16:57Z</time><name>PT940</name></trkpt>
<trkpt lat="52.905094" lon="-3.412621"><ele>408</ele><time>2022-10-15T10:17:01Z</time><name>PT941</name></trkpt>
<trkpt lat="52.905075" lon="-3.412537"><ele>408</ele><time>2022-10-15T10:17:05Z</time><name>PT942</name></trkpt>
<trkpt lat="52.905064" lon="-3.412481"><ele>408</ele><time>2022-10-15T10:17:08Z</time><name>PT943</name></trkpt>
<trkpt lat="52.905042" lon="-3.412402"><ele>408</ele><time>2022-10-15T10:17:12Z</time><name>PT944</name></trkpt>
<trkpt lat="52.905034" lon="-3.412352"><ele>408</ele><time>2022-10-15T10:17:15Z</time><name>PT945</name></trkpt>
<trkpt lat="52.905024" lon="-3.412310"><ele>408</ele><time>2022-10-15T10:17:18Z</time><name>PT946</name></trkpt>
<trkpt lat="52.905011" lon="-3.412251"><ele>408</ele><time>2022-10-15T10:17:21Z</time><name>PT947</name></trkpt>
<trkpt lat="52.904989" lon="-3.412193"><ele>408</ele><time>2022-10-15T10:17:25Z</time><name>PT948</name></trkpt>
<trkpt lat="52.904970" lon="-3.412147"><ele>408</ele><time>2022-10-15T10:17:28Z</time><name>PT949</name></trkpt>
<trkpt lat="52.904949" lon="-3.412101"><ele>408</ele><time>2022-10-15T10:17:31Z</time><name>PT950</name></trkpt>
<trkpt lat="52.904944" lon="-3.412047"><ele>409</ele><time>2022-10-15T10:17:34Z</time><name>PT951</name></trkpt>
<trkpt lat="52.904957" lon="-3.412000"><ele>409</ele><time>2022-10-15T10:17:37Z</time><name>PT952</name></trkpt>
<trkpt lat="52.904975" lon="-3.411926"><ele>410</ele><time>2022-10-15T10:17:41Z</time><name>PT953</name></trkpt>
<trkpt lat="52.905000" lon="-3.411873"><ele>411</ele><time>2022-10-15T10:17:45Z</time><name>PT954</name></trkpt>
<trkpt lat="52.905012" lon="-3.411842"><ele>410</ele><time>2022-10-15T10:17:48Z</time><name>PT955</name></trkpt>
<trkpt lat="52.905033" lon="-3.411798"><ele>411</ele><time>2022-10-15T10:17:52Z</time><name>PT956</name></trkpt>
<trkpt lat="52.905050" lon="-3.411768"><ele>410</ele><time>2022-10-15T10:17:55Z</time><name>PT957</name></trkpt>
<trkpt lat="52.905075" lon="-3.411715"><ele>411</ele><time>2022-10-15T10:17:59Z</time><name>PT958</name></trkpt>
<trkpt lat="52.905092" lon="-3.411673"><ele>411</ele><time>2022-10-15T10:18:02Z</time><name>PT959</name></trkpt>
<trkpt lat="52.905113" lon="-3.411638"><ele>411</ele><time>2022-10-15T10:18:05Z</time><name>PT960</name></trkpt>
<trkpt lat="52.905127" lon="-3.411605"><ele>411</ele><time>2022-10-15T10:18:08Z</time><name>PT961</name></trkpt>
<trkpt lat="52.905150" lon="-3.411559"><ele>411</ele><time>2022-10-15T10:18:12Z</time><name>PT962</name></trkpt>
<trkpt lat="52.905167" lon="-3.411524"><ele>412</ele><time>2022-10-15T10:18:15Z</time><name>PT963</name></trkpt>
<trkpt lat="52.905191" lon="-3.411468"><ele>413</ele><time>2022-10-15T10:18:19Z</time><name>PT964</name></trkpt>
<trkpt lat="52.905198" lon="-3.411406"><ele>413</ele><time>2022-10-15T10:18:23Z</time><name>PT965</name></trkpt>
<trkpt lat="52.905191" lon="-3.411346"><ele>413</ele><time>2022-10-15T10:18:27Z</time><name>PT966</name></trkpt>
<trkpt lat="52.905185" lon="-3.411286"><ele>414</ele><time>2022-10-15T10:18:30Z</time><name>PT967</name></trkpt>
<trkpt lat="52.905181" lon="-3.411232"><ele>414</ele><time>2022-10-15T10:18:34Z</time><name>PT968</name></trkpt>
<trkpt lat="52.905170" lon="-3.411175"><ele>413</ele><time>2022-10-15T10:18:38Z</time><name>PT969</name></trkpt>
<trkpt lat="52.905166" lon="-3.411118"><ele>414</ele><time>2022-10-15T10:18:41Z</time><name>PT970</name></trkpt>
<trkpt lat="52.905159" lon="-3.411067"><ele>413</ele><time>2022-10-15T10:18:45Z</time><name>PT971</name></trkpt>
<trkpt lat="52.905160" lon="-3.411026"><ele>414</ele><time>2022-10-15T10:18:48Z</time><name>PT972</name></trkpt>
<trkpt lat="52.905165" lon="-3.410978"><ele>414</ele><time>2022-10-15T10:18:52Z</time><name>PT973</name></trkpt>
<trkpt lat="52.905165" lon="-3.410936"><ele>414</ele><time>2022-10-15T10:18:55Z</time><name>PT974</name></trkpt>
<trkpt lat="52.905163" lon="-3.410882"><ele>414</ele><time>2022-10-15T10:18:59Z</time><name>PT975</name></trkpt>
<trkpt lat="52.905165" lon="-3.410830"><ele>413</ele><time>2022-10-15T10:19:03Z</time><name>PT976</name></trkpt>
<trkpt lat="52.905164" lon="-3.410788"><ele>413</ele><time>2022-10-15T10:19:06Z</time><name>PT977</name></trkpt>
<trkpt lat="52.905166" lon="-3.410731"><ele>414</ele><time>2022-10-15T10:19:09Z</time><name>PT978</name></trkpt>
<trkpt lat="52.905166" lon="-3.410670"><ele>413</ele><time>2022-10-15T10:19:13Z</time><name>PT979</name></trkpt>
<trkpt lat="52.905167" lon="-3.410614"><ele>413</ele><time>2022-10-15T10:19:16Z</time><name>PT980</name></trkpt>
<trkpt lat="52.905170" lon="-3.410569"><ele>413</ele><time>2022-10-15T10:19:19Z</time><name>PT981</name></trkpt>
<trkpt lat="52.905177" lon="-3.410508"><ele>414</ele><time>2022-10-15T10:19:23Z</time><name>PT982</name></trkpt>
<trkpt lat="52.905181" lon="-3.410463"><ele>414</ele><time>2022-10-15T10:19:27Z</time><name>PT983</name></trkpt>
<trkpt lat="52.905194" lon="-3.410417"><ele>415</ele><time>2022-10-15T10:19:30Z</time><name>PT984</name></trkpt>
<trkpt lat="52.905221" lon="-3.410368"><ele>416</ele><time>2022-10-15T10:19:34Z</time><name>PT985</name></trkpt>
<trkpt lat="52.905238" lon="-3.410337"><ele>417</ele><time>2022-10-15T10:19:37Z</time><name>PT986</name></trkpt>
<trkpt lat="52.905255" lon="-3.410317"><ele>417</ele><time>2022-10-15T10:19:40Z</time><name>PT987</name></trkpt>
<trkpt lat="52.905273" lon="-3.410277"><ele>417</ele><time>2022-10-15T10:19:44Z</time><name>PT988</name></trkpt>
<trkpt lat="52.905293" lon="-3.410245"><ele>417</ele><time>2022-10-15T10:19:48Z</time><name>PT989</name></trkpt>
<trkpt lat="52.905296" lon="-3.410211"><ele>417</ele><time>2022-10-15T10:19:51Z</time><name>PT990</name></trkpt>
<trkpt lat="52.905302" lon="-3.410152"><ele>416</ele><time>2022-10-15T10:19:54Z</time><name>PT991</name></trkpt>
<trkpt lat="52.905305" lon="-3.410091"><ele>415</ele><time>2022-10-15T10:19:58Z</time><name>PT992</name></trkpt>
<trkpt lat="52.905306" lon="-3.410045"><ele>415</ele><time>2022-10-15T10:20:01Z</time><name>PT993</name></trkpt>
<trkpt lat="52.905308" lon="-3.409997"><ele>415</ele><time>2022-10-15T10:20:05Z</time><name>PT994</name></trkpt>
<trkpt lat="52.905315" lon="-3.409952"><ele>416</ele><time>2022-10-15T10:20:08Z</time><name>PT995</name></trkpt>
<trkpt lat="52.905329" lon="-3.409902"><ele>418</ele><time>2022-10-15T10:20:12Z</time><name>PT996</name></trkpt>
<trkpt lat="52.905347" lon="-3.409840"><ele>418</ele><time>2022-10-15T10:20:16Z</time><name>PT997</name></trkpt>
<trkpt lat="52.905368" lon="-3.409800"><ele>418</ele><time>2022-10-15T10:20:20Z</time><name>PT998</name></trkpt>
<trkpt lat="52.905385" lon="-3.409782"><ele>419</ele><time>2022-10-15T10:20:23Z</time><name>PT999</name></trkpt>
<trkpt lat="52.905402" lon="-3.409739"><ele>419</ele><time>2022-10-15T10:20:27Z</time><name>PT1000</name></trkpt>
<trkpt lat="52.905424" lon="-3.409692"><ele>419</ele><time>2022-10-15T10:20:31Z</time><name>PT1001</name></trkpt>
<trkpt lat="52.905448" lon="-3.409649"><ele>418</ele><time>2022-10-15T10:20:35Z</time><name>PT1002</name></trkpt>
<trkpt lat="52.905470" lon="-3.409622"><ele>418</ele><time>2022-10-15T10:20:39Z</time><name>PT1003</name></trkpt>
<trkpt lat="52.905488" lon="-3.409592"><ele>418</ele><time>2022-10-15T10:20:42Z</time><name>PT1004</name></trkpt>
<trkpt lat="52.905521" lon="-3.409561"><ele>418</ele><time>2022-10-15T10:20:46Z</time><name>PT1005</name></trkpt>
<trkpt lat="52.905539" lon="-3.409536"><ele>419</ele><time>2022-10-15T10:20:49Z</time><name>PT1006</name></trkpt>
<trkpt lat="52.905553" lon="-3.409506"><ele>419</ele><time>2022-10-15T10:20:52Z</time><name>PT1007</name></trkpt>
<trkpt lat="52.905579" lon="-3.409475"><ele>419</ele><time>2022-10-15T10:20:56Z</time><name>PT1008</name></trkpt>
<trkpt lat="52.905596" lon="-3.409447"><ele>420</ele><time>2022-10-15T10:20:59Z</time><name>PT1009</name></trkpt>
<trkpt lat="52.905614" lon="-3.409418"><ele>419</ele><time>2022-10-15T10:21:03Z</time><name>PT1010</name></trkpt>
<trkpt lat="52.905636" lon="-3.409411"><ele>420</ele><time>2022-10-15T10:21:06Z</time><name>PT1011</name></trkpt>
<trkpt lat="52.905655" lon="-3.409394"><ele>419</ele><time>2022-10-15T10:21:09Z</time><name>PT1012</name></trkpt>
<trkpt lat="52.905680" lon="-3.409374"><ele>420</ele><time>2022-10-15T10:21:13Z</time><name>PT1013</name></trkpt>
<trkpt lat="52.905697" lon="-3.409361"><ele>420</ele><time>2022-10-15T10:21:16Z</time><name>PT1014</name></trkpt>
<trkpt lat="52.905718" lon="-3.409344"><ele>421</ele><time>2022-10-15T10:21:19Z</time><name>PT1015</name></trkpt>
<trkpt lat="52.905739" lon="-3.409339"><ele>421</ele><time>2022-10-15T10:21:22Z</time><name>PT1016</name></trkpt>
<trkpt lat="52.905761" lon="-3.409325"><ele>421</ele><time>2022-10-15T10:21:25Z</time><name>PT1017</name></trkpt>
<trkpt lat="52.905784" lon="-3.409314"><ele>422</ele><time>2022-10-15T10:21:28Z</time><name>PT1018</name></trkpt>
<trkpt lat="52.905812" lon="-3.409289"><ele>423</ele><time>2022-10-15T10:21:32Z</time><name>PT1019</name></trkpt>
<trkpt lat="52.905842" lon="-3.409264"><ele>423</ele><time>2022-10-15T10:21:36Z</time><name>PT1020</name></trkpt>
<trkpt lat="52.905871" lon="-3.409235"><ele>423</ele><time>2022-10-15T10:21:40Z</time><name>PT1021</name></trkpt>
<trkpt lat="52.905892" lon="-3.409213"><ele>423</ele><time>2022-10-15T10:21:44Z</time><name>PT1022</name></trkpt>
<trkpt lat="52.905918" lon="-3.409184"><ele>424</ele><time>2022-10-15T10:21:51Z</time><name>PT1023</name></trkpt>
<trkpt lat="52.905921" lon="-3.409132"><ele>425</ele><time>2022-10-15T10:21:55Z</time><name>PT1024</name></trkpt>
<trkpt lat="52.905933" lon="-3.409113"><ele>426</ele><time>2022-10-15T10:21:58Z</time><name>PT1025</name></trkpt>
<trkpt lat="52.905946" lon="-3.409094"><ele>428</ele><time>2022-10-15T10:22:01Z</time><name>PT1026</name></trkpt>
<trkpt lat="52.905951" lon="-3.409070"><ele>429</ele><time>2022-10-15T10:22:04Z</time><name>PT1027</name></trkpt>
<trkpt lat="52.905955" lon="-3.409066"><ele>429</ele><time>2022-10-15T10:22:08Z</time><name>PT1028</name></trkpt>
<trkpt lat="52.905962" lon="-3.409050"><ele>430</ele><time>2022-10-15T10:22:15Z</time><name>PT1029</name></trkpt>
<trkpt lat="52.905973" lon="-3.409017"><ele>430</ele><time>2022-10-15T10:22:18Z</time><name>PT1030</name></trkpt>
<trkpt lat="52.905987" lon="-3.408976"><ele>430</ele><time>2022-10-15T10:22:22Z</time><name>PT1031</name></trkpt>
<trkpt lat="52.906010" lon="-3.408929"><ele>431</ele><time>2022-10-15T10:22:26Z</time><name>PT1032</name></trkpt>
<trkpt lat="52.906021" lon="-3.408847"><ele>430</ele><time>2022-10-15T10:22:30Z</time><name>PT1033</name></trkpt>
<trkpt lat="52.906039" lon="-3.408784"><ele>429</ele><time>2022-10-15T10:22:34Z</time><name>PT1034</name></trkpt>
<trkpt lat="52.906046" lon="-3.408747"><ele>430</ele><time>2022-10-15T10:22:38Z</time><name>PT1035</name></trkpt>
<trkpt lat="52.906046" lon="-3.408723"><ele>429</ele><time>2022-10-15T10:22:41Z</time><name>PT1036</name></trkpt>
<trkpt lat="52.906048" lon="-3.408717"><ele>430</ele><time>2022-10-15T10:22:44Z</time><name>PT1037</name></trkpt>
<trkpt lat="52.906047" lon="-3.408716"><ele>430</ele><time>2022-10-15T10:22:48Z</time><name>PT1038</name></trkpt>
<trkpt lat="52.906057" lon="-3.408693"><ele>430</ele><time>2022-10-15T10:22:55Z</time><name>PT1039</name></trkpt>
<trkpt lat="52.906077" lon="-3.408654"><ele>430</ele><time>2022-10-15T10:22:59Z</time><name>PT1040</name></trkpt>
<trkpt lat="52.906094" lon="-3.408615"><ele>430</ele><time>2022-10-15T10:23:02Z</time><name>PT1041</name></trkpt>
<trkpt lat="52.906110" lon="-3.408593"><ele>430</ele><time>2022-10-15T10:23:06Z</time><name>PT1042</name></trkpt>
<trkpt lat="52.906119" lon="-3.408567"><ele>430</ele><time>2022-10-15T10:23:09Z</time><name>PT1043</name></trkpt>
<trkpt lat="52.906123" lon="-3.408555"><ele>430</ele><time>2022-10-15T10:23:13Z</time><name>PT1044</name></trkpt>
<trkpt lat="52.906126" lon="-3.408556"><ele>430</ele><time>2022-10-15T10:23:16Z</time><name>PT1045</name></trkpt>
<trkpt lat="52.906144" lon="-3.408518"><ele>430</ele><time>2022-10-15T10:23:19Z</time><name>PT1046</name></trkpt>
<trkpt lat="52.906159" lon="-3.408489"><ele>429</ele><time>2022-10-15T10:23:22Z</time><name>PT1047</name></trkpt>
<trkpt lat="52.906170" lon="-3.408464"><ele>428</ele><time>2022-10-15T10:23:26Z</time><name>PT1048</name></trkpt>
<trkpt lat="52.906190" lon="-3.408454"><ele>430</ele><time>2022-10-15T10:23:29Z</time><name>PT1049</name></trkpt>
<trkpt lat="52.906218" lon="-3.408433"><ele>430</ele><time>2022-10-15T10:23:32Z</time><name>PT1050</name></trkpt>
<trkpt lat="52.906231" lon="-3.408425"><ele>431</ele><time>2022-10-15T10:23:35Z</time><name>PT1051</name></trkpt>
<trkpt lat="52.906249" lon="-3.408410"><ele>431</ele><time>2022-10-15T10:23:38Z</time><name>PT1052</name></trkpt>
<trkpt lat="52.906277" lon="-3.408383"><ele>432</ele><time>2022-10-15T10:23:42Z</time><name>PT1053</name></trkpt>
<trkpt lat="52.906300" lon="-3.408346"><ele>433</ele><time>2022-10-15T10:23:46Z</time><name>PT1054</name></trkpt>
<trkpt lat="52.906305" lon="-3.408321"><ele>434</ele><time>2022-10-15T10:23:49Z</time><name>PT1055</name></trkpt>
<trkpt lat="52.906323" lon="-3.408305"><ele>435</ele><time>2022-10-15T10:23:53Z</time><name>PT1056</name></trkpt>
<trkpt lat="52.906345" lon="-3.408274"><ele>435</ele><time>2022-10-15T10:23:56Z</time><name>PT1057</name></trkpt>
<trkpt lat="52.906352" lon="-3.408270"><ele>435</ele><time>2022-10-15T10:23:59Z</time><name>PT1058</name></trkpt>
<trkpt lat="52.906358" lon="-3.408254"><ele>435</ele><time>2022-10-15T10:24:03Z</time><name>PT1059</name></trkpt>
<trkpt lat="52.906369" lon="-3.408220"><ele>434</ele><time>2022-10-15T10:24:06Z</time><name>PT1060</name></trkpt>
<trkpt lat="52.906397" lon="-3.408170"><ele>433</ele><time>2022-10-15T10:24:10Z</time><name>PT1061</name></trkpt>
<trkpt lat="52.906405" lon="-3.408139"><ele>433</ele><time>2022-10-15T10:24:13Z</time><name>PT1062</name></trkpt>
<trkpt lat="52.906416" lon="-3.408090"><ele>434</ele><time>2022-10-15T10:24:17Z</time><name>PT1063</name></trkpt>
<trkpt lat="52.906421" lon="-3.408055"><ele>434</ele><time>2022-10-15T10:24:20Z</time><name>PT1064</name></trkpt>
<trkpt lat="52.906441" lon="-3.408046"><ele>435</ele><time>2022-10-15T10:24:23Z</time><name>PT1065</name></trkpt>
<trkpt lat="52.906453" lon="-3.408020"><ele>435</ele><time>2022-10-15T10:24:26Z</time><name>PT1066</name></trkpt>
<trkpt lat="52.906461" lon="-3.407992"><ele>434</ele><time>2022-10-15T10:24:30Z</time><name>PT1067</name></trkpt>
<trkpt lat="52.906462" lon="-3.407966"><ele>435</ele><time>2022-10-15T10:24:33Z</time><name>PT1068</name></trkpt>
<trkpt lat="52.906459" lon="-3.407936"><ele>436</ele><time>2022-10-15T10:24:36Z</time><name>PT1069</name></trkpt>
<trkpt lat="52.906456" lon="-3.407901"><ele>436</ele><time>2022-10-15T10:24:39Z</time><name>PT1070</name></trkpt>
<trkpt lat="52.906445" lon="-3.407864"><ele>438</ele><time>2022-10-15T10:24:43Z</time><name>PT1071</name></trkpt>
<trkpt lat="52.906437" lon="-3.407830"><ele>438</ele><time>2022-10-15T10:24:46Z</time><name>PT1072</name></trkpt>
<trkpt lat="52.906423" lon="-3.407783"><ele>438</ele><time>2022-10-15T10:24:50Z</time><name>PT1073</name></trkpt>
<trkpt lat="52.906412" lon="-3.407753"><ele>439</ele><time>2022-10-15T10:24:53Z</time><name>PT1074</name></trkpt>
<trkpt lat="52.906393" lon="-3.407725"><ele>438</ele><time>2022-10-15T10:24:56Z</time><name>PT1075</name></trkpt>
<trkpt lat="52.906379" lon="-3.407686"><ele>438</ele><time>2022-10-15T10:24:59Z</time><name>PT1076</name></trkpt>
<trkpt lat="52.906363" lon="-3.407635"><ele>439</ele><time>2022-10-15T10:25:03Z</time><name>PT1077</name></trkpt>
<trkpt lat="52.906348" lon="-3.407609"><ele>439</ele><time>2022-10-15T10:25:07Z</time><name>PT1078</name></trkpt>
<trkpt lat="52.906337" lon="-3.407580"><ele>438</ele><time>2022-10-15T10:25:10Z</time><name>PT1079</name></trkpt>
<trkpt lat="52.906324" lon="-3.407548"><ele>438</ele><time>2022-10-15T10:25:13Z</time><name>PT1080</name></trkpt>
<trkpt lat="52.906321" lon="-3.407507"><ele>439</ele><time>2022-10-15T10:25:17Z</time><name>PT1081</name></trkpt>
<trkpt lat="52.906319" lon="-3.407470"><ele>439</ele><time>2022-10-15T10:25:20Z</time><name>PT1082</name></trkpt>
<trkpt lat="52.906304" lon="-3.407430"><ele>440</ele><time>2022-10-15T10:25:24Z</time><name>PT1083</name></trkpt>
<trkpt lat="52.906286" lon="-3.407382"><ele>440</ele><time>2022-10-15T10:25:28Z</time><name>PT1084</name></trkpt>
<trkpt lat="52.906265" lon="-3.407346"><ele>441</ele><time>2022-10-15T10:25:32Z</time><name>PT1085</name></trkpt>
<trkpt lat="52.906243" lon="-3.407300"><ele>441</ele><time>2022-10-15T10:25:36Z</time><name>PT1086</name></trkpt>
<trkpt lat="52.906221" lon="-3.407251"><ele>442</ele><time>2022-10-15T10:25:40Z</time><name>PT1087</name></trkpt>
<trkpt lat="52.906194" lon="-3.407204"><ele>443</ele><time>2022-10-15T10:25:44Z</time><name>PT1088</name></trkpt>
<trkpt lat="52.906162" lon="-3.407156"><ele>444</ele><time>2022-10-15T10:25:48Z</time><name>PT1089</name></trkpt>
<trkpt lat="52.906146" lon="-3.407118"><ele>444</ele><time>2022-10-15T10:25:51Z</time><name>PT1090</name></trkpt>
<trkpt lat="52.906133" lon="-3.407085"><ele>445</ele><time>2022-10-15T10:25:54Z</time><name>PT1091</name></trkpt>
<trkpt lat="52.906120" lon="-3.407061"><ele>445</ele><time>2022-10-15T10:25:57Z</time><name>PT1092</name></trkpt>
<trkpt lat="52.906103" lon="-3.407027"><ele>445</ele><time>2022-10-15T10:26:01Z</time><name>PT1093</name></trkpt>
<trkpt lat="52.906085" lon="-3.406971"><ele>445</ele><time>2022-10-15T10:26:05Z</time><name>PT1094</name></trkpt>
<trkpt lat="52.906080" lon="-3.406918"><ele>445</ele><time>2022-10-15T10:26:08Z</time><name>PT1095</name></trkpt>
<trkpt lat="52.906087" lon="-3.406880"><ele>445</ele><time>2022-10-15T10:26:11Z</time><name>PT1096</name></trkpt>
<trkpt lat="52.906095" lon="-3.406823"><ele>445</ele><time>2022-10-15T10:26:15Z</time><name>PT1097</name></trkpt>
<trkpt lat="52.906097" lon="-3.406769"><ele>446</ele><time>2022-10-15T10:26:19Z</time><name>PT1098</name></trkpt>
<trkpt lat="52.906088" lon="-3.406726"><ele>446</ele><time>2022-10-15T10:26:22Z</time><name>PT1099</name></trkpt>
<trkpt lat="52.906081" lon="-3.406691"><ele>446</ele><time>2022-10-15T10:26:25Z</time><name>PT1100</name></trkpt>
<trkpt lat="52.906057" lon="-3.406687"><ele>447</ele><time>2022-10-15T10:26:29Z</time><name>PT1101</name></trkpt>
<trkpt lat="52.906015" lon="-3.406670"><ele>447</ele><time>2022-10-15T10:26:33Z</time><name>PT1102</name></trkpt>
<trkpt lat="52.905979" lon="-3.406634"><ele>448</ele><time>2022-10-15T10:26:37Z</time><name>PT1103</name></trkpt>
<trkpt lat="52.905928" lon="-3.406587"><ele>447</ele><time>2022-10-15T10:26:41Z</time><name>PT1104</name></trkpt>
<trkpt lat="52.905895" lon="-3.406575"><ele>447</ele><time>2022-10-15T10:26:44Z</time><name>PT1105</name></trkpt>
<trkpt lat="52.905850" lon="-3.406587"><ele>447</ele><time>2022-10-15T10:26:48Z</time><name>PT1106</name></trkpt>
<trkpt lat="52.905803" lon="-3.406582"><ele>446</ele><time>2022-10-15T10:26:52Z</time><name>PT1107</name></trkpt>
<trkpt lat="52.905762" lon="-3.406553"><ele>445</ele><time>2022-10-15T10:26:56Z</time><name>PT1108</name></trkpt>
<trkpt lat="52.905730" lon="-3.406531"><ele>444</ele><time>2022-10-15T10:26:59Z</time><name>PT1109</name></trkpt>
<trkpt lat="52.905696" lon="-3.406506"><ele>444</ele><time>2022-10-15T10:27:02Z</time><name>PT1110</name></trkpt>
<trkpt lat="52.905662" lon="-3.406461"><ele>444</ele><time>2022-10-15T10:27:06Z</time><name>PT1111</name></trkpt>
<trkpt lat="52.905639" lon="-3.406399"><ele>445</ele><time>2022-10-15T10:27:10Z</time><name>PT1112</name></trkpt>
<trkpt lat="52.905614" lon="-3.406354"><ele>444</ele><time>2022-10-15T10:27:13Z</time><name>PT1113</name></trkpt>
<trkpt lat="52.905603" lon="-3.406300"><ele>444</ele><time>2022-10-15T10:27:16Z</time><name>PT1114</name></trkpt>
<trkpt lat="52.905591" lon="-3.406242"><ele>444</ele><time>2022-10-15T10:27:20Z</time><name>PT1115</name></trkpt>
<trkpt lat="52.905581" lon="-3.406191"><ele>444</ele><time>2022-10-15T10:27:24Z</time><name>PT1116</name></trkpt>
<trkpt lat="52.905560" lon="-3.406146"><ele>444</ele><time>2022-10-15T10:27:27Z</time><name>PT1117</name></trkpt>
<trkpt lat="52.905548" lon="-3.406073"><ele>445</ele><time>2022-10-15T10:27:30Z</time><name>PT1118</name></trkpt>
<trkpt lat="52.905519" lon="-3.406022"><ele>446</ele><time>2022-10-15T10:27:34Z</time><name>PT1119</name></trkpt>
<trkpt lat="52.905509" lon="-3.405959"><ele>445</ele><time>2022-10-15T10:27:38Z</time><name>PT1120</name></trkpt>
<trkpt lat="52.905503" lon="-3.405897"><ele>447</ele><time>2022-10-15T10:27:41Z</time><name>PT1121</name></trkpt>
<trkpt lat="52.905492" lon="-3.405835"><ele>446</ele><time>2022-10-15T10:27:45Z</time><name>PT1122</name></trkpt>
<trkpt lat="52.905482" lon="-3.405787"><ele>446</ele><time>2022-10-15T10:27:48Z</time><name>PT1123</name></trkpt>
<trkpt lat="52.905480" lon="-3.405747"><ele>446</ele><time>2022-10-15T10:27:51Z</time><name>PT1124</name></trkpt>
<trkpt lat="52.905477" lon="-3.405702"><ele>446</ele><time>2022-10-15T10:27:54Z</time><name>PT1125</name></trkpt>
<trkpt lat="52.905475" lon="-3.405635"><ele>447</ele><time>2022-10-15T10:27:58Z</time><name>PT1126</name></trkpt>
<trkpt lat="52.905469" lon="-3.405583"><ele>446</ele><time>2022-10-15T10:28:01Z</time><name>PT1127</name></trkpt>
<trkpt lat="52.905473" lon="-3.405547"><ele>446</ele><time>2022-10-15T10:28:04Z</time><name>PT1128</name></trkpt>
<trkpt lat="52.905469" lon="-3.405507"><ele>447</ele><time>2022-10-15T10:28:07Z</time><name>PT1129</name></trkpt>
<trkpt lat="52.905453" lon="-3.405456"><ele>447</ele><time>2022-10-15T10:28:11Z</time><name>PT1130</name></trkpt>
<trkpt lat="52.905434" lon="-3.405412"><ele>448</ele><time>2022-10-15T10:28:14Z</time><name>PT1131</name></trkpt>
<trkpt lat="52.905419" lon="-3.405360"><ele>448</ele><time>2022-10-15T10:28:18Z</time><name>PT1132</name></trkpt>
<trkpt lat="52.905412" lon="-3.405323"><ele>449</ele><time>2022-10-15T10:28:21Z</time><name>PT1133</name></trkpt>
<trkpt lat="52.905386" lon="-3.405245"><ele>452</ele><time>2022-10-15T10:28:25Z</time><name>PT1134</name></trkpt>
<trkpt lat="52.905371" lon="-3.405203"><ele>452</ele><time>2022-10-15T10:28:29Z</time><name>PT1135</name></trkpt>
<trkpt lat="52.905350" lon="-3.405166"><ele>452</ele><time>2022-10-15T10:28:32Z</time><name>PT1136</name></trkpt>
<trkpt lat="52.905319" lon="-3.405155"><ele>452</ele><time>2022-10-15T10:28:36Z</time><name>PT1137</name></trkpt>
<trkpt lat="52.905303" lon="-3.405117"><ele>452</ele><time>2022-10-15T10:28:40Z</time><name>PT1138</name></trkpt>
<trkpt lat="52.905280" lon="-3.405092"><ele>452</ele><time>2022-10-15T10:28:43Z</time><name>PT1139</name></trkpt>
<trkpt lat="52.905253" lon="-3.405069"><ele>451</ele><time>2022-10-15T10:28:46Z</time><name>PT1140</name></trkpt>
<trkpt lat="52.905221" lon="-3.405050"><ele>450</ele><time>2022-10-15T10:28:50Z</time><name>PT1141</name></trkpt>
<trkpt lat="52.905201" lon="-3.405018"><ele>450</ele><time>2022-10-15T10:28:53Z</time><name>PT1142</name></trkpt>
<trkpt lat="52.905200" lon="-3.404978"><ele>451</ele><time>2022-10-15T10:28:56Z</time><name>PT1143</name></trkpt>
<trkpt lat="52.905175" lon="-3.404965"><ele>451</ele><time>2022-10-15T10:29:00Z</time><name>PT1144</name></trkpt>
<trkpt lat="52.905157" lon="-3.404929"><ele>450</ele><time>2022-10-15T10:29:03Z</time><name>PT1145</name></trkpt>
<trkpt lat="52.905153" lon="-3.404907"><ele>449</ele><time>2022-10-15T10:29:06Z</time><name>PT1146</name></trkpt>
<trkpt lat="52.905147" lon="-3.404866"><ele>449</ele><time>2022-10-15T10:29:09Z</time><name>PT1147</name></trkpt>
<trkpt lat="52.905151" lon="-3.404813"><ele>450</ele><time>2022-10-15T10:29:13Z</time><name>PT1148</name></trkpt>
<trkpt lat="52.905165" lon="-3.404760"><ele>450</ele><time>2022-10-15T10:29:17Z</time><name>PT1149</name></trkpt>
<trkpt lat="52.905163" lon="-3.404724"><ele>450</ele><time>2022-10-15T10:29:20Z</time><name>PT1150</name></trkpt>
<trkpt lat="52.905149" lon="-3.404674"><ele>451</ele><time>2022-10-15T10:29:23Z</time><name>PT1151</name></trkpt>
<trkpt lat="52.905131" lon="-3.404628"><ele>451</ele><time>2022-10-15T10:29:27Z</time><name>PT1152</name></trkpt>
<trkpt lat="52.905116" lon="-3.404592"><ele>451</ele><time>2022-10-15T10:29:30Z</time><name>PT1153</name></trkpt>
<trkpt lat="52.905104" lon="-3.404556"><ele>452</ele><time>2022-10-15T10:29:33Z</time><name>PT1154</name></trkpt>
<trkpt lat="52.905098" lon="-3.404521"><ele>453</ele><time>2022-10-15T10:29:36Z</time><name>PT1155</name></trkpt>
<trkpt lat="52.905088" lon="-3.404462"><ele>452</ele><time>2022-10-15T10:29:40Z</time><name>PT1156</name></trkpt>
<trkpt lat="52.905059" lon="-3.404434"><ele>453</ele><time>2022-10-15T10:29:44Z</time><name>PT1157</name></trkpt>
<trkpt lat="52.905025" lon="-3.404399"><ele>453</ele><time>2022-10-15T10:29:47Z</time><name>PT1158</name></trkpt>
<trkpt lat="52.905002" lon="-3.404375"><ele>454</ele><time>2022-10-15T10:29:50Z</time><name>PT1159</name></trkpt>
<trkpt lat="52.904965" lon="-3.404331"><ele>454</ele><time>2022-10-15T10:29:54Z</time><name>PT1160</name></trkpt>
<trkpt lat="52.904936" lon="-3.404314"><ele>454</ele><time>2022-10-15T10:29:57Z</time><name>PT1161</name></trkpt>
<trkpt lat="52.904908" lon="-3.404289"><ele>455</ele><time>2022-10-15T10:30:00Z</time><name>PT1162</name></trkpt>
<trkpt lat="52.904874" lon="-3.404246"><ele>456</ele><time>2022-10-15T10:30:04Z</time><name>PT1163</name></trkpt>
<trkpt lat="52.904833" lon="-3.404215"><ele>455</ele><time>2022-10-15T10:30:08Z</time><name>PT1164</name></trkpt>
<trkpt lat="52.904808" lon="-3.404197"><ele>455</ele><time>2022-10-15T10:30:12Z</time><name>PT1165</name></trkpt>
<trkpt lat="52.904784" lon="-3.404176"><ele>454</ele><time>2022-10-15T10:30:16Z</time><name>PT1166</name></trkpt>
<trkpt lat="52.904763" lon="-3.404144"><ele>454</ele><time>2022-10-15T10:30:19Z</time><name>PT1167</name></trkpt>
<trkpt lat="52.904742" lon="-3.404125"><ele>453</ele><time>2022-10-15T10:30:23Z</time><name>PT1168</name></trkpt>
<trkpt lat="52.904741" lon="-3.404126"><ele>453</ele><time>2022-10-15T10:30:26Z</time><name>PT1169</name></trkpt>
<trkpt lat="52.904734" lon="-3.404120"><ele>453</ele><time>2022-10-15T10:30:30Z</time><name>PT1170</name></trkpt>
<trkpt lat="52.904712" lon="-3.404135"><ele>452</ele><time>2022-10-15T10:30:33Z</time><name>PT1171</name></trkpt>
<trkpt lat="52.904684" lon="-3.404144"><ele>451</ele><time>2022-10-15T10:30:37Z</time><name>PT1172</name></trkpt>
<trkpt lat="52.904676" lon="-3.404138"><ele>450</ele><time>2022-10-15T10:30:40Z</time><name>PT1173</name></trkpt>
<trkpt lat="52.904656" lon="-3.404100"><ele>451</ele><time>2022-10-15T10:30:43Z</time><name>PT1174</name></trkpt>
<trkpt lat="52.904642" lon="-3.404046"><ele>450</ele><time>2022-10-15T10:30:47Z</time><name>PT1175</name></trkpt>
<trkpt lat="52.904627" lon="-3.403995"><ele>450</ele><time>2022-10-15T10:30:50Z</time><name>PT1176</name></trkpt>
<trkpt lat="52.904612" lon="-3.403933"><ele>450</ele><time>2022-10-15T10:30:54Z</time><name>PT1177</name></trkpt>
<trkpt lat="52.904603" lon="-3.403867"><ele>449</ele><time>2022-10-15T10:30:58Z</time><name>PT1178</name></trkpt>
<trkpt lat="52.904591" lon="-3.403805"><ele>450</ele><time>2022-10-15T10:31:01Z</time><name>PT1179</name></trkpt>
<trkpt lat="52.904576" lon="-3.403726"><ele>450</ele><time>2022-10-15T10:31:05Z</time><name>PT1180</name></trkpt>
<trkpt lat="52.904559" lon="-3.403664"><ele>451</ele><time>2022-10-15T10:31:09Z</time><name>PT1181</name></trkpt>
<trkpt lat="52.904546" lon="-3.403597"><ele>452</ele><time>2022-10-15T10:31:13Z</time><name>PT1182</name></trkpt>
<trkpt lat="52.904535" lon="-3.403534"><ele>452</ele><time>2022-10-15T10:31:17Z</time><name>PT1183</name></trkpt>
<trkpt lat="52.904527" lon="-3.403481"><ele>452</ele><time>2022-10-15T10:31:20Z</time><name>PT1184</name></trkpt>
<trkpt lat="52.904521" lon="-3.403411"><ele>452</ele><time>2022-10-15T10:31:24Z</time><name>PT1185</name></trkpt>
<trkpt lat="52.904520" lon="-3.403385"><ele>452</ele><time>2022-10-15T10:31:27Z</time><name>PT1186</name></trkpt>
<trkpt lat="52.904511" lon="-3.403329"><ele>453</ele><time>2022-10-15T10:31:31Z</time><name>PT1187</name></trkpt>
<trkpt lat="52.904510" lon="-3.403255"><ele>455</ele><time>2022-10-15T10:31:35Z</time><name>PT1188</name></trkpt>
<trkpt lat="52.904505" lon="-3.403206"><ele>455</ele><time>2022-10-15T10:31:38Z</time><name>PT1189</name></trkpt>
<trkpt lat="52.904498" lon="-3.403151"><ele>455</ele><time>2022-10-15T10:31:41Z</time><name>PT1190</name></trkpt>
<trkpt lat="52.904498" lon="-3.403077"><ele>455</ele><time>2022-10-15T10:31:45Z</time><name>PT1191</name></trkpt>
<trkpt lat="52.904490" lon="-3.402998"><ele>454</ele><time>2022-10-15T10:31:49Z</time><name>PT1192</name></trkpt>
<trkpt lat="52.904484" lon="-3.402944"><ele>455</ele><time>2022-10-15T10:31:52Z</time><name>PT1193</name></trkpt>
<trkpt lat="52.904475" lon="-3.402904"><ele>455</ele><time>2022-10-15T10:31:55Z</time><name>PT1194</name></trkpt>
<trkpt lat="52.904469" lon="-3.402858"><ele>454</ele><time>2022-10-15T10:31:58Z</time><name>PT1195</name></trkpt>
<trkpt lat="52.904456" lon="-3.402788"><ele>455</ele><time>2022-10-15T10:32:02Z</time><name>PT1196</name></trkpt>
<trkpt lat="52.904446" lon="-3.402749"><ele>455</ele><time>2022-10-15T10:32:05Z</time><name>PT1197</name></trkpt>
<trkpt lat="52.904426" lon="-3.402688"><ele>454</ele><time>2022-10-15T10:32:09Z</time><name>PT1198</name></trkpt>
<trkpt lat="52.904408" lon="-3.402644"><ele>455</ele><time>2022-10-15T10:32:12Z</time><name>PT1199</name></trkpt>
<trkpt lat="52.904384" lon="-3.402590"><ele>455</ele><time>2022-10-15T10:32:16Z</time><name>PT1200</name></trkpt>
<trkpt lat="52.904361" lon="-3.402529"><ele>456</ele><time>2022-10-15T10:32:20Z</time><name>PT1201</name></trkpt>
<trkpt lat="52.904348" lon="-3.402488"><ele>456</ele><time>2022-10-15T10:32:23Z</time><name>PT1202</name></trkpt>
<trkpt lat="52.904331" lon="-3.402394"><ele>459</ele><time>2022-10-15T10:32:27Z</time><name>PT1203</name></trkpt>
<trkpt lat="52.904307" lon="-3.402320"><ele>460</ele><time>2022-10-15T10:32:31Z</time><name>PT1204</name></trkpt>
<trkpt lat="52.904295" lon="-3.402265"><ele>460</ele><time>2022-10-15T10:32:35Z</time><name>PT1205</name></trkpt>
<trkpt lat="52.904277" lon="-3.402197"><ele>460</ele><time>2022-10-15T10:32:39Z</time><name>PT1206</name></trkpt>
<trkpt lat="52.904259" lon="-3.402145"><ele>460</ele><time>2022-10-15T10:32:42Z</time><name>PT1207</name></trkpt>
<trkpt lat="52.904242" lon="-3.402076"><ele>460</ele><time>2022-10-15T10:32:46Z</time><name>PT1208</name></trkpt>
<trkpt lat="52.904232" lon="-3.402008"><ele>460</ele><time>2022-10-15T10:32:50Z</time><name>PT1209</name></trkpt>
<trkpt lat="52.904231" lon="-3.401973"><ele>460</ele><time>2022-10-15T10:32:53Z</time><name>PT1210</name></trkpt>
<trkpt lat="52.904233" lon="-3.401945"><ele>460</ele><time>2022-10-15T10:32:56Z</time><name>PT1211</name></trkpt>
<trkpt lat="52.904221" lon="-3.401905"><ele>461</ele><time>2022-10-15T10:32:59Z</time><name>PT1212</name></trkpt>
<trkpt lat="52.904217" lon="-3.401855"><ele>461</ele><time>2022-10-15T10:33:03Z</time><name>PT1213</name></trkpt>
<trkpt lat="52.904212" lon="-3.401811"><ele>460</ele><time>2022-10-15T10:33:06Z</time><name>PT1214</name></trkpt>
<trkpt lat="52.904198" lon="-3.401764"><ele>460</ele><time>2022-10-15T10:33:10Z</time><name>PT1215</name></trkpt>
<trkpt lat="52.904200" lon="-3.401713"><ele>459</ele><time>2022-10-15T10:33:14Z</time><name>PT1216</name></trkpt>
<trkpt lat="52.904205" lon="-3.401687"><ele>457</ele><time>2022-10-15T10:33:17Z</time><name>PT1217</name></trkpt>
<trkpt lat="52.904209" lon="-3.401646"><ele>458</ele><time>2022-10-15T10:33:21Z</time><name>PT1218</name></trkpt>
<trkpt lat="52.904212" lon="-3.401619"><ele>459</ele><time>2022-10-15T10:33:24Z</time><name>PT1219</name></trkpt>
<trkpt lat="52.904217" lon="-3.401579"><ele>458</ele><time>2022-10-15T10:33:28Z</time><name>PT1220</name></trkpt>
<trkpt lat="52.904225" lon="-3.401541"><ele>460</ele><time>2022-10-15T10:33:31Z</time><name>PT1221</name></trkpt>
<trkpt lat="52.904229" lon="-3.401494"><ele>463</ele><time>2022-10-15T10:33:34Z</time><name>PT1222</name></trkpt>
<trkpt lat="52.904227" lon="-3.401496"><ele>462</ele><time>2022-10-15T10:34:53Z</time><name>PT1223</name></trkpt>
<trkpt lat="52.904217" lon="-3.401500"><ele>462</ele><time>2022-10-15T10:36:47Z</time><name>PT1224</name></trkpt>
<trkpt lat="52.904231" lon="-3.401494"><ele>459</ele><time>2022-10-15T10:37:35Z</time><name>PT1225</name></trkpt>
<trkpt lat="52.904222" lon="-3.401501"><ele>460</ele><time>2022-10-15T10:38:18Z</time><name>PT1226</name></trkpt>
<trkpt lat="52.904220" lon="-3.401495"><ele>460</ele><time>2022-10-15T10:38:21Z</time><name>PT1227</name></trkpt>
<trkpt lat="52.904246" lon="-3.401508"><ele>461</ele><time>2022-10-15T10:38:56Z</time><name>PT1228</name></trkpt>
<trkpt lat="52.904247" lon="-3.401500"><ele>462</ele><time>2022-10-15T10:38:59Z</time><name>PT1229</name></trkpt>
<trkpt lat="52.904254" lon="-3.401504"><ele>462</ele><time>2022-10-15T10:39:44Z</time><name>PT1230</name></trkpt>
<trkpt lat="52.904261" lon="-3.401503"><ele>462</ele><time>2022-10-15T10:39:47Z</time><name>PT1231</name></trkpt>
<trkpt lat="52.904273" lon="-3.401496"><ele>461</ele><time>2022-10-15T10:40:16Z</time><name>PT1232</name></trkpt>
<trkpt lat="52.904278" lon="-3.401503"><ele>461</ele><time>2022-10-15T10:40:20Z</time><name>PT1233</name></trkpt>
<trkpt lat="52.904280" lon="-3.401492"><ele>460</ele><time>2022-10-15T10:40:23Z</time><name>PT1234</name></trkpt>
<trkpt lat="52.904266" lon="-3.401486"><ele>461</ele><time>2022-10-15T10:40:27Z</time><name>PT1235</name></trkpt>
<trkpt lat="52.904270" lon="-3.401480"><ele>461</ele><time>2022-10-15T10:40:31Z</time><name>PT1236</name></trkpt>
<trkpt lat="52.904266" lon="-3.401480"><ele>460</ele><time>2022-10-15T10:41:20Z</time><name>PT1237</name></trkpt>
<trkpt lat="52.904267" lon="-3.401483"><ele>460</ele><time>2022-10-15T10:41:24Z</time><name>PT1238</name></trkpt>
<trkpt lat="52.904264" lon="-3.401487"><ele>460</ele><time>2022-10-15T10:41:28Z</time><name>PT1239</name></trkpt>
<trkpt lat="52.904247" lon="-3.401473"><ele>461</ele><time>2022-10-15T10:41:32Z</time><name>PT1240</name></trkpt>
<trkpt lat="52.904228" lon="-3.401484"><ele>459</ele><time>2022-10-15T10:41:35Z</time><name>PT1241</name></trkpt>
<trkpt lat="52.904237" lon="-3.401489"><ele>459</ele><time>2022-10-15T10:41:51Z</time><name>PT1242</name></trkpt>
<trkpt lat="52.904255" lon="-3.401505"><ele>459</ele><time>2022-10-15T10:41:55Z</time><name>PT1243</name></trkpt>
<trkpt lat="52.904257" lon="-3.401509"><ele>458</ele><time>2022-10-15T10:41:59Z</time><name>PT1244</name></trkpt>
<trkpt lat="52.904249" lon="-3.401506"><ele>459</ele><time>2022-10-15T10:42:03Z</time><name>PT1245</name></trkpt>
<trkpt lat="52.904251" lon="-3.401490"><ele>460</ele><time>2022-10-15T10:42:06Z</time><name>PT1246</name></trkpt>
<trkpt lat="52.904252" lon="-3.401483"><ele>460</ele><time>2022-10-15T10:42:10Z</time><name>PT1247</name></trkpt>
<trkpt lat="52.904245" lon="-3.401485"><ele>461</ele><time>2022-10-15T10:42:14Z</time><name>PT1248</name></trkpt>
<trkpt lat="52.904248" lon="-3.401479"><ele>460</ele><time>2022-10-15T10:42:25Z</time><name>PT1249</name></trkpt>
<trkpt lat="52.904263" lon="-3.401470"><ele>460</ele><time>2022-10-15T10:42:28Z</time><name>PT1250</name></trkpt>
<trkpt lat="52.904287" lon="-3.401452"><ele>460</ele><time>2022-10-15T10:42:32Z</time><name>PT1251</name></trkpt>
<trkpt lat="52.904304" lon="-3.401438"><ele>459</ele><time>2022-10-15T10:42:36Z</time><name>PT1252</name></trkpt>
<trkpt lat="52.904320" lon="-3.401429"><ele>459</ele><time>2022-10-15T10:42:39Z</time><name>PT1253</name></trkpt>
<trkpt lat="52.904351" lon="-3.401423"><ele>460</ele><time>2022-10-15T10:42:42Z</time><name>PT1254</name></trkpt>
<trkpt lat="52.904373" lon="-3.401400"><ele>460</ele><time>2022-10-15T10:42:46Z</time><name>PT1255</name></trkpt>
<trkpt lat="52.904381" lon="-3.401381"><ele>460</ele><time>2022-10-15T10:42:49Z</time><name>PT1256</name></trkpt>
<trkpt lat="52.904398" lon="-3.401344"><ele>460</ele><time>2022-10-15T10:42:53Z</time><name>PT1257</name></trkpt>
<trkpt lat="52.904406" lon="-3.401319"><ele>459</ele><time>2022-10-15T10:42:57Z</time><name>PT1258</name></trkpt>
<trkpt lat="52.904427" lon="-3.401320"><ele>458</ele><time>2022-10-15T10:43:01Z</time><name>PT1259</name></trkpt>
<trkpt lat="52.904428" lon="-3.401328"><ele>456</ele><time>2022-10-15T10:43:04Z</time><name>PT1260</name></trkpt>
<trkpt lat="52.904434" lon="-3.401292"><ele>457</ele><time>2022-10-15T10:43:08Z</time><name>PT1261</name></trkpt>
<trkpt lat="52.904420" lon="-3.401258"><ele>461</ele><time>2022-10-15T10:43:12Z</time><name>PT1262</name></trkpt>
<trkpt lat="52.904437" lon="-3.401241"><ele>462</ele><time>2022-10-15T10:43:16Z</time><name>PT1263</name></trkpt>
<trkpt lat="52.904458" lon="-3.401235"><ele>462</ele><time>2022-10-15T10:43:20Z</time><name>PT1264</name></trkpt>
<trkpt lat="52.904499" lon="-3.401232"><ele>464</ele><time>2022-10-15T10:43:24Z</time><name>PT1265</name></trkpt>
<trkpt lat="52.904514" lon="-3.401224"><ele>466</ele><time>2022-10-15T10:43:28Z</time><name>PT1266</name></trkpt>
<trkpt lat="52.904520" lon="-3.401213"><ele>466</ele><time>2022-10-15T10:43:31Z</time><name>PT1267</name></trkpt>
<trkpt lat="52.904506" lon="-3.401195"><ele>466</ele><time>2022-10-15T10:43:35Z</time><name>PT1268</name></trkpt>
<trkpt lat="52.904493" lon="-3.401206"><ele>466</ele><time>2022-10-15T10:43:38Z</time><name>PT1269</name></trkpt>
<trkpt lat="52.904500" lon="-3.401229"><ele>466</ele><time>2022-10-15T10:43:42Z</time><name>PT1270</name></trkpt>
<trkpt lat="52.904507" lon="-3.401228"><ele>464</ele><time>2022-10-15T10:43:46Z</time><name>PT1271</name></trkpt>
<trkpt lat="52.904530" lon="-3.401247"><ele>468</ele><time>2022-10-15T10:43:49Z</time><name>PT1272</name></trkpt>
<trkpt lat="52.904537" lon="-3.401251"><ele>472</ele><time>2022-10-15T10:43:53Z</time><name>PT1273</name></trkpt>
<trkpt lat="52.904528" lon="-3.401263"><ele>476</ele><time>2022-10-15T10:43:57Z</time><name>PT1274</name></trkpt>
<trkpt lat="52.904533" lon="-3.401276"><ele>481</ele><time>2022-10-15T10:44:01Z</time><name>PT1275</name></trkpt>
<trkpt lat="52.904538" lon="-3.401253"><ele>481</ele><time>2022-10-15T10:44:05Z</time><name>PT1276</name></trkpt>
<trkpt lat="52.904537" lon="-3.401238"><ele>479</ele><time>2022-10-15T10:44:09Z</time><name>PT1277</name></trkpt>
<trkpt lat="52.904539" lon="-3.401225"><ele>477</ele><time>2022-10-15T10:44:12Z</time><name>PT1278</name></trkpt>
<trkpt lat="52.904542" lon="-3.401206"><ele>476</ele><time>2022-10-15T10:44:16Z</time><name>PT1279</name></trkpt>
<trkpt lat="52.904543" lon="-3.401209"><ele>475</ele><time>2022-10-15T10:44:19Z</time><name>PT1280</name></trkpt>
<trkpt lat="52.904541" lon="-3.401190"><ele>473</ele><time>2022-10-15T10:44:23Z</time><name>PT1281</name></trkpt>
<trkpt lat="52.904555" lon="-3.401178"><ele>471</ele><time>2022-10-15T10:44:27Z</time><name>PT1282</name></trkpt>
<trkpt lat="52.904549" lon="-3.401195"><ele>473</ele><time>2022-10-15T10:44:31Z</time><name>PT1283</name></trkpt>
<trkpt lat="52.904529" lon="-3.401238"><ele>469</ele><time>2022-10-15T10:44:35Z</time><name>PT1284</name></trkpt>
<trkpt lat="52.904500" lon="-3.401260"><ele>464</ele><time>2022-10-15T10:44:38Z</time><name>PT1285</name></trkpt>
<trkpt lat="52.904471" lon="-3.401295"><ele>462</ele><time>2022-10-15T10:44:42Z</time><name>PT1286</name></trkpt>
<trkpt lat="52.904451" lon="-3.401318"><ele>462</ele><time>2022-10-15T10:44:45Z</time><name>PT1287</name></trkpt>
<trkpt lat="52.904417" lon="-3.401321"><ele>460</ele><time>2022-10-15T10:44:49Z</time><name>PT1288</name></trkpt>
<trkpt lat="52.904386" lon="-3.401324"><ele>459</ele><time>2022-10-15T10:44:53Z</time><name>PT1289</name></trkpt>
<trkpt lat="52.904370" lon="-3.401348"><ele>458</ele><time>2022-10-15T10:44:57Z</time><name>PT1290</name></trkpt>
<trkpt lat="52.904350" lon="-3.401373"><ele>456</ele><time>2022-10-15T10:45:01Z</time><name>PT1291</name></trkpt>
<trkpt lat="52.904319" lon="-3.401387"><ele>456</ele><time>2022-10-15T10:45:05Z</time><name>PT1292</name></trkpt>
<trkpt lat="52.904307" lon="-3.401409"><ele>456</ele><time>2022-10-15T10:45:09Z</time><name>PT1293</name></trkpt>
<trkpt lat="52.904294" lon="-3.401426"><ele>456</ele><time>2022-10-15T10:45:12Z</time><name>PT1294</name></trkpt>
<trkpt lat="52.904291" lon="-3.401433"><ele>455</ele><time>2022-10-15T10:45:16Z</time><name>PT1295</name></trkpt>
<trkpt lat="52.904280" lon="-3.401447"><ele>454</ele><time>2022-10-15T10:45:20Z</time><name>PT1296</name></trkpt>
<trkpt lat="52.904270" lon="-3.401448"><ele>455</ele><time>2022-10-15T10:45:24Z</time><name>PT1297</name></trkpt>
<trkpt lat="52.904284" lon="-3.401432"><ele>455</ele><time>2022-10-15T10:45:28Z</time><name>PT1298</name></trkpt>
<trkpt lat="52.904291" lon="-3.401422"><ele>455</ele><time>2022-10-15T10:45:31Z</time><name>PT1299</name></trkpt>
<trkpt lat="52.904297" lon="-3.401425"><ele>455</ele><time>2022-10-15T10:45:35Z</time><name>PT1300</name></trkpt>
<trkpt lat="52.904293" lon="-3.401415"><ele>455</ele><time>2022-10-15T10:45:50Z</time><name>PT1301</name></trkpt>
<trkpt lat="52.904281" lon="-3.401409"><ele>454</ele><time>2022-10-15T10:45:53Z</time><name>PT1302</name></trkpt>
<trkpt lat="52.904278" lon="-3.401427"><ele>455</ele><time>2022-10-15T10:46:05Z</time><name>PT1303</name></trkpt>
<trkpt lat="52.904275" lon="-3.401411"><ele>453</ele><time>2022-10-15T10:46:09Z</time><name>PT1304</name></trkpt>
<trkpt lat="52.904280" lon="-3.401427"><ele>452</ele><time>2022-10-15T10:46:13Z</time><name>PT1305</name></trkpt>
<trkpt lat="52.904283" lon="-3.401457"><ele>452</ele><time>2022-10-15T10:46:17Z</time><name>PT1306</name></trkpt>
<trkpt lat="52.904249" lon="-3.401448"><ele>452</ele><time>2022-10-15T10:46:21Z</time><name>PT1307</name></trkpt>
<trkpt lat="52.904229" lon="-3.401434"><ele>452</ele><time>2022-10-15T10:46:25Z</time><name>PT1308</name></trkpt>
<trkpt lat="52.904205" lon="-3.401417"><ele>452</ele><time>2022-10-15T10:46:29Z</time><name>PT1309</name></trkpt>
<trkpt lat="52.904200" lon="-3.401418"><ele>453</ele><time>2022-10-15T10:46:33Z</time><name>PT1310</name></trkpt>
<trkpt lat="52.904198" lon="-3.401419"><ele>453</ele><time>2022-10-15T10:46:37Z</time><name>PT1311</name></trkpt>
<trkpt lat="52.904159" lon="-3.401359"><ele>453</ele><time>2022-10-15T10:46:41Z</time><name>PT1312</name></trkpt>
<trkpt lat="52.904141" lon="-3.401319"><ele>453</ele><time>2022-10-15T10:46:44Z</time><name>PT1313</name></trkpt>
<trkpt lat="52.904117" lon="-3.401254"><ele>453</ele><time>2022-10-15T10:46:48Z</time><name>PT1314</name></trkpt>
<trkpt lat="52.904106" lon="-3.401216"><ele>453</ele><time>2022-10-15T10:46:51Z</time><name>PT1315</name></trkpt>
<trkpt lat="52.904092" lon="-3.401169"><ele>453</ele><time>2022-10-15T10:46:55Z</time><name>PT1316</name></trkpt>
<trkpt lat="52.904085" lon="-3.401128"><ele>454</ele><time>2022-10-15T10:46:58Z</time><name>PT1317</name></trkpt>
<trkpt lat="52.904079" lon="-3.401079"><ele>454</ele><time>2022-10-15T10:47:02Z</time><name>PT1318</name></trkpt>
<trkpt lat="52.904078" lon="-3.401043"><ele>454</ele><time>2022-10-15T10:47:06Z</time><name>PT1319</name></trkpt>
<trkpt lat="52.904077" lon="-3.401021"><ele>454</ele><time>2022-10-15T10:47:10Z</time><name>PT1320</name></trkpt>
<trkpt lat="52.904043" lon="-3.400985"><ele>455</ele><time>2022-10-15T10:47:14Z</time><name>PT1321</name></trkpt>
<trkpt lat="52.904028" lon="-3.400960"><ele>456</ele><time>2022-10-15T10:47:17Z</time><name>PT1322</name></trkpt>
<trkpt lat="52.904016" lon="-3.400944"><ele>457</ele><time>2022-10-15T10:47:21Z</time><name>PT1323</name></trkpt>
<trkpt lat="52.904003" lon="-3.400932"><ele>457</ele><time>2022-10-15T10:47:25Z</time><name>PT1324</name></trkpt>
<trkpt lat="52.904002" lon="-3.400930"><ele>457</ele><time>2022-10-15T10:47:28Z</time><name>PT1325</name></trkpt>
<trkpt lat="52.903970" lon="-3.400907"><ele>458</ele><time>2022-10-15T10:47:35Z</time><name>PT1326</name></trkpt>
<trkpt lat="52.903953" lon="-3.400871"><ele>458</ele><time>2022-10-15T10:47:39Z</time><name>PT1327</name></trkpt>
<trkpt lat="52.903950" lon="-3.400832"><ele>457</ele><time>2022-10-15T10:47:42Z</time><name>PT1328</name></trkpt>
<trkpt lat="52.903949" lon="-3.400759"><ele>457</ele><time>2022-10-15T10:47:46Z</time><name>PT1329</name></trkpt>
<trkpt lat="52.903951" lon="-3.400704"><ele>457</ele><time>2022-10-15T10:47:49Z</time><name>PT1330</name></trkpt>
<trkpt lat="52.903957" lon="-3.400651"><ele>458</ele><time>2022-10-15T10:47:53Z</time><name>PT1331</name></trkpt>
<trkpt lat="52.903957" lon="-3.400603"><ele>459</ele><time>2022-10-15T10:47:56Z</time><name>PT1332</name></trkpt>
<trkpt lat="52.903962" lon="-3.400559"><ele>459</ele><time>2022-10-15T10:47:59Z</time><name>PT1333</name></trkpt>
<trkpt lat="52.903966" lon="-3.400496"><ele>459</ele><time>2022-10-15T10:48:03Z</time><name>PT1334</name></trkpt>
<trkpt lat="52.903972" lon="-3.400427"><ele>460</ele><time>2022-10-15T10:48:07Z</time><name>PT1335</name></trkpt>
<trkpt lat="52.903982" lon="-3.400381"><ele>462</ele><time>2022-10-15T10:48:10Z</time><name>PT1336</name></trkpt>
<trkpt lat="52.903984" lon="-3.400314"><ele>463</ele><time>2022-10-15T10:48:14Z</time><name>PT1337</name></trkpt>
<trkpt lat="52.903985" lon="-3.400271"><ele>462</ele><time>2022-10-15T10:48:17Z</time><name>PT1338</name></trkpt>
<trkpt lat="52.903979" lon="-3.400210"><ele>463</ele><time>2022-10-15T10:48:21Z</time><name>PT1339</name></trkpt>
<trkpt lat="52.903963" lon="-3.400158"><ele>462</ele><time>2022-10-15T10:48:25Z</time><name>PT1340</name></trkpt>
<trkpt lat="52.903934" lon="-3.400110"><ele>463</ele><time>2022-10-15T10:48:29Z</time><name>PT1341</name></trkpt>
<trkpt lat="52.903900" lon="-3.400062"><ele>463</ele><time>2022-10-15T10:48:33Z</time><name>PT1342</name></trkpt>
<trkpt lat="52.903874" lon="-3.400026"><ele>463</ele><time>2022-10-15T10:48:36Z</time><name>PT1343</name></trkpt>
<trkpt lat="52.903842" lon="-3.399976"><ele>463</ele><time>2022-10-15T10:48:40Z</time><name>PT1344</name></trkpt>
<trkpt lat="52.903812" lon="-3.399921"><ele>463</ele><time>2022-10-15T10:48:44Z</time><name>PT1345</name></trkpt>
<trkpt lat="52.903795" lon="-3.399882"><ele>464</ele><time>2022-10-15T10:48:47Z</time><name>PT1346</name></trkpt>
<trkpt lat="52.903766" lon="-3.399824"><ele>465</ele><time>2022-10-15T10:48:51Z</time><name>PT1347</name></trkpt>
<trkpt lat="52.903740" lon="-3.399780"><ele>465</ele><time>2022-10-15T10:48:55Z</time><name>PT1348</name></trkpt>
<trkpt lat="52.903716" lon="-3.399740"><ele>466</ele><time>2022-10-15T10:48:58Z</time><name>PT1349</name></trkpt>
<trkpt lat="52.903686" lon="-3.399690"><ele>466</ele><time>2022-10-15T10:49:01Z</time><name>PT1350</name></trkpt>
<trkpt lat="52.903668" lon="-3.399651"><ele>467</ele><time>2022-10-15T10:49:04Z</time><name>PT1351</name></trkpt>
<trkpt lat="52.903645" lon="-3.399598"><ele>466</ele><time>2022-10-15T10:49:08Z</time><name>PT1352</name></trkpt>
<trkpt lat="52.903624" lon="-3.399551"><ele>466</ele><time>2022-10-15T10:49:12Z</time><name>PT1353</name></trkpt>
<trkpt lat="52.903592" lon="-3.399513"><ele>466</ele><time>2022-10-15T10:49:16Z</time><name>PT1354</name></trkpt>
<trkpt lat="52.903563" lon="-3.399483"><ele>467</ele><time>2022-10-15T10:49:20Z</time><name>PT1355</name></trkpt>
<trkpt lat="52.903536" lon="-3.399447"><ele>467</ele><time>2022-10-15T10:49:24Z</time><name>PT1356</name></trkpt>
<trkpt lat="52.903516" lon="-3.399417"><ele>467</ele><time>2022-10-15T10:49:27Z</time><name>PT1357</name></trkpt>
<trkpt lat="52.903510" lon="-3.399420"><ele>468</ele><time>2022-10-15T10:49:31Z</time><name>PT1358</name></trkpt>
<trkpt lat="52.903511" lon="-3.399421"><ele>468</ele><time>2022-10-15T10:49:35Z</time><name>PT1359</name></trkpt>
<trkpt lat="52.903490" lon="-3.399389"><ele>468</ele><time>2022-10-15T10:49:38Z</time><name>PT1360</name></trkpt>
<trkpt lat="52.903471" lon="-3.399348"><ele>468</ele><time>2022-10-15T10:49:41Z</time><name>PT1361</name></trkpt>
<trkpt lat="52.903449" lon="-3.399302"><ele>468</ele><time>2022-10-15T10:49:45Z</time><name>PT1362</name></trkpt>
<trkpt lat="52.903425" lon="-3.399255"><ele>469</ele><time>2022-10-15T10:49:49Z</time><name>PT1363</name></trkpt>
<trkpt lat="52.903398" lon="-3.399191"><ele>468</ele><time>2022-10-15T10:49:53Z</time><name>PT1364</name></trkpt>
<trkpt lat="52.903378" lon="-3.399131"><ele>468</ele><time>2022-10-15T10:49:57Z</time><name>PT1365</name></trkpt>
<trkpt lat="52.903355" lon="-3.399078"><ele>469</ele><time>2022-10-15T10:50:01Z</time><name>PT1366</name></trkpt>
<trkpt lat="52.903334" lon="-3.399021"><ele>469</ele><time>2022-10-15T10:50:05Z</time><name>PT1367</name></trkpt>
<trkpt lat="52.903315" lon="-3.398979"><ele>469</ele><time>2022-10-15T10:50:08Z</time><name>PT1368</name></trkpt>
<trkpt lat="52.903300" lon="-3.398933"><ele>469</ele><time>2022-10-15T10:50:11Z</time><name>PT1369</name></trkpt>
<trkpt lat="52.903276" lon="-3.398880"><ele>469</ele><time>2022-10-15T10:50:15Z</time><name>PT1370</name></trkpt>
<trkpt lat="52.903259" lon="-3.398817"><ele>470</ele><time>2022-10-15T10:50:19Z</time><name>PT1371</name></trkpt>
<trkpt lat="52.903236" lon="-3.398755"><ele>471</ele><time>2022-10-15T10:50:23Z</time><name>PT1372</name></trkpt>
<trkpt lat="52.903227" lon="-3.398708"><ele>470</ele><time>2022-10-15T10:50:26Z</time><name>PT1373</name></trkpt>
<trkpt lat="52.903207" lon="-3.398641"><ele>471</ele><time>2022-10-15T10:50:30Z</time><name>PT1374</name></trkpt>
<trkpt lat="52.903196" lon="-3.398577"><ele>472</ele><time>2022-10-15T10:50:34Z</time><name>PT1375</name></trkpt>
<trkpt lat="52.903181" lon="-3.398511"><ele>472</ele><time>2022-10-15T10:50:38Z</time><name>PT1376</name></trkpt>
<trkpt lat="52.903169" lon="-3.398465"><ele>473</ele><time>2022-10-15T10:50:41Z</time><name>PT1377</name></trkpt>
<trkpt lat="52.903151" lon="-3.398391"><ele>473</ele><time>2022-10-15T10:50:45Z</time><name>PT1378</name></trkpt>
<trkpt lat="52.903136" lon="-3.398344"><ele>473</ele><time>2022-10-15T10:50:48Z</time><name>PT1379</name></trkpt>
<trkpt lat="52.903110" lon="-3.398281"><ele>474</ele><time>2022-10-15T10:50:52Z</time><name>PT1380</name></trkpt>
<trkpt lat="52.903094" lon="-3.398235"><ele>474</ele><time>2022-10-15T10:50:56Z</time><name>PT1381</name></trkpt>
<trkpt lat="52.903073" lon="-3.398185"><ele>475</ele><time>2022-10-15T10:51:00Z</time><name>PT1382</name></trkpt>
<trkpt lat="52.903061" lon="-3.398145"><ele>475</ele><time>2022-10-15T10:51:03Z</time><name>PT1383</name></trkpt>
<trkpt lat="52.903039" lon="-3.398094"><ele>476</ele><time>2022-10-15T10:51:07Z</time><name>PT1384</name></trkpt>
<trkpt lat="52.903022" lon="-3.398031"><ele>476</ele><time>2022-10-15T10:51:11Z</time><name>PT1385</name></trkpt>
<trkpt lat="52.903009" lon="-3.397982"><ele>476</ele><time>2022-10-15T10:51:14Z</time><name>PT1386</name></trkpt>
<trkpt lat="52.902995" lon="-3.397915"><ele>476</ele><time>2022-10-15T10:51:18Z</time><name>PT1387</name></trkpt>
<trkpt lat="52.902979" lon="-3.397853"><ele>477</ele><time>2022-10-15T10:51:22Z</time><name>PT1388</name></trkpt>
<trkpt lat="52.902963" lon="-3.397788"><ele>478</ele><time>2022-10-15T10:51:26Z</time><name>PT1389</name></trkpt>
<trkpt lat="52.902952" lon="-3.397725"><ele>478</ele><time>2022-10-15T10:51:30Z</time><name>PT1390</name></trkpt>
<trkpt lat="52.902933" lon="-3.397660"><ele>479</ele><time>2022-10-15T10:51:34Z</time><name>PT1391</name></trkpt>
<trkpt lat="52.902923" lon="-3.397597"><ele>479</ele><time>2022-10-15T10:51:38Z</time><name>PT1392</name></trkpt>
<trkpt lat="52.902910" lon="-3.397532"><ele>480</ele><time>2022-10-15T10:51:42Z</time><name>PT1393</name></trkpt>
<trkpt lat="52.902901" lon="-3.397482"><ele>480</ele><time>2022-10-15T10:51:46Z</time><name>PT1394</name></trkpt>
<trkpt lat="52.902890" lon="-3.397429"><ele>480</ele><time>2022-10-15T10:51:50Z</time><name>PT1395</name></trkpt>
<trkpt lat="52.902862" lon="-3.397371"><ele>481</ele><time>2022-10-15T10:51:54Z</time><name>PT1396</name></trkpt>
<trkpt lat="52.902853" lon="-3.397302"><ele>481</ele><time>2022-10-15T10:51:58Z</time><name>PT1397</name></trkpt>
<trkpt lat="52.902835" lon="-3.397259"><ele>482</ele><time>2022-10-15T10:52:01Z</time><name>PT1398</name></trkpt>
<trkpt lat="52.902817" lon="-3.397194"><ele>482</ele><time>2022-10-15T10:52:05Z</time><name>PT1399</name></trkpt>
<trkpt lat="52.902804" lon="-3.397127"><ele>483</ele><time>2022-10-15T10:52:09Z</time><name>PT1400</name></trkpt>
<trkpt lat="52.902792" lon="-3.397084"><ele>483</ele><time>2022-10-15T10:52:12Z</time><name>PT1401</name></trkpt>
<trkpt lat="52.902773" lon="-3.397026"><ele>483</ele><time>2022-10-15T10:52:16Z</time><name>PT1402</name></trkpt>
<trkpt lat="52.902759" lon="-3.396965"><ele>484</ele><time>2022-10-15T10:52:20Z</time><name>PT1403</name></trkpt>
<trkpt lat="52.902736" lon="-3.396900"><ele>485</ele><time>2022-10-15T10:52:24Z</time><name>PT1404</name></trkpt>
<trkpt lat="52.902719" lon="-3.396846"><ele>486</ele><time>2022-10-15T10:52:28Z</time><name>PT1405</name></trkpt>
<trkpt lat="52.902699" lon="-3.396785"><ele>486</ele><time>2022-10-15T10:52:32Z</time><name>PT1406</name></trkpt>
<trkpt lat="52.902683" lon="-3.396741"><ele>486</ele><time>2022-10-15T10:52:35Z</time><name>PT1407</name></trkpt>
<trkpt lat="52.902663" lon="-3.396679"><ele>486</ele><time>2022-10-15T10:52:39Z</time><name>PT1408</name></trkpt>
<trkpt lat="52.902638" lon="-3.396622"><ele>486</ele><time>2022-10-15T10:52:43Z</time><name>PT1409</name></trkpt>
<trkpt lat="52.902619" lon="-3.396569"><ele>486</ele><time>2022-10-15T10:52:47Z</time><name>PT1410</name></trkpt>
<trkpt lat="52.902600" lon="-3.396515"><ele>487</ele><time>2022-10-15T10:52:51Z</time><name>PT1411</name></trkpt>
<trkpt lat="52.902585" lon="-3.396461"><ele>487</ele><time>2022-10-15T10:52:55Z</time><name>PT1412</name></trkpt>
<trkpt lat="52.902564" lon="-3.396410"><ele>487</ele><time>2022-10-15T10:52:59Z</time><name>PT1413</name></trkpt>
<trkpt lat="52.902552" lon="-3.396369"><ele>487</ele><time>2022-10-15T10:53:02Z</time><name>PT1414</name></trkpt>
<trkpt lat="52.902532" lon="-3.396306"><ele>487</ele><time>2022-10-15T10:53:06Z</time><name>PT1415</name></trkpt>
<trkpt lat="52.902519" lon="-3.396242"><ele>487</ele><time>2022-10-15T10:53:10Z</time><name>PT1416</name></trkpt>
<trkpt lat="52.902501" lon="-3.396178"><ele>487</ele><time>2022-10-15T10:53:14Z</time><name>PT1417</name></trkpt>
<trkpt lat="52.902488" lon="-3.396119"><ele>488</ele><time>2022-10-15T10:53:18Z</time><name>PT1418</name></trkpt>
<trkpt lat="52.902477" lon="-3.396057"><ele>488</ele><time>2022-10-15T10:53:22Z</time><name>PT1419</name></trkpt>
<trkpt lat="52.902466" lon="-3.395990"><ele>489</ele><time>2022-10-15T10:53:26Z</time><name>PT1420</name></trkpt>
<trkpt lat="52.902453" lon="-3.395917"><ele>489</ele><time>2022-10-15T10:53:30Z</time><name>PT1421</name></trkpt>
<trkpt lat="52.902437" lon="-3.395855"><ele>489</ele><time>2022-10-15T10:53:34Z</time><name>PT1422</name></trkpt>
<trkpt lat="52.902418" lon="-3.395792"><ele>490</ele><time>2022-10-15T10:53:38Z</time><name>PT1423</name></trkpt>
<trkpt lat="52.902405" lon="-3.395734"><ele>491</ele><time>2022-10-15T10:53:42Z</time><name>PT1424</name></trkpt>
<trkpt lat="52.902388" lon="-3.395668"><ele>491</ele><time>2022-10-15T10:53:46Z</time><name>PT1425</name></trkpt>
<trkpt lat="52.902380" lon="-3.395622"><ele>492</ele><time>2022-10-15T10:53:49Z</time><name>PT1426</name></trkpt>
<trkpt lat="52.902372" lon="-3.395558"><ele>492</ele><time>2022-10-15T10:53:53Z</time><name>PT1427</name></trkpt>
<trkpt lat="52.902362" lon="-3.395503"><ele>492</ele><time>2022-10-15T10:53:57Z</time><name>PT1428</name></trkpt>
<trkpt lat="52.902356" lon="-3.395455"><ele>492</ele><time>2022-10-15T10:54:01Z</time><name>PT1429</name></trkpt>
<trkpt lat="52.902345" lon="-3.395403"><ele>492</ele><time>2022-10-15T10:54:05Z</time><name>PT1430</name></trkpt>
<trkpt lat="52.902337" lon="-3.395337"><ele>492</ele><time>2022-10-15T10:54:09Z</time><name>PT1431</name></trkpt>
<trkpt lat="52.902329" lon="-3.395273"><ele>493</ele><time>2022-10-15T10:54:13Z</time><name>PT1432</name></trkpt>
<trkpt lat="52.902327" lon="-3.395207"><ele>493</ele><time>2022-10-15T10:54:17Z</time><name>PT1433</name></trkpt>
<trkpt lat="52.902320" lon="-3.395137"><ele>493</ele><time>2022-10-15T10:54:21Z</time><name>PT1434</name></trkpt>
<trkpt lat="52.902319" lon="-3.395067"><ele>494</ele><time>2022-10-15T10:54:25Z</time><name>PT1435</name></trkpt>
<trkpt lat="52.902316" lon="-3.395004"><ele>495</ele><time>2022-10-15T10:54:29Z</time><name>PT1436</name></trkpt>
<trkpt lat="52.902308" lon="-3.394956"><ele>495</ele><time>2022-10-15T10:54:32Z</time><name>PT1437</name></trkpt>
<trkpt lat="52.902296" lon="-3.394887"><ele>496</ele><time>2022-10-15T10:54:36Z</time><name>PT1438</name></trkpt>
<trkpt lat="52.902282" lon="-3.394821"><ele>496</ele><time>2022-10-15T10:54:40Z</time><name>PT1439</name></trkpt>
<trkpt lat="52.902275" lon="-3.394754"><ele>497</ele><time>2022-10-15T10:54:44Z</time><name>PT1440</name></trkpt>
<trkpt lat="52.902269" lon="-3.394697"><ele>498</ele><time>2022-10-15T10:54:48Z</time><name>PT1441</name></trkpt>
<trkpt lat="52.902269" lon="-3.394660"><ele>498</ele><time>2022-10-15T10:54:52Z</time><name>PT1442</name></trkpt>
<trkpt lat="52.902262" lon="-3.394608"><ele>498</ele><time>2022-10-15T10:54:56Z</time><name>PT1443</name></trkpt>
<trkpt lat="52.902258" lon="-3.394548"><ele>498</ele><time>2022-10-15T10:55:00Z</time><name>PT1444</name></trkpt>
<trkpt lat="52.902253" lon="-3.394483"><ele>498</ele><time>2022-10-15T10:55:04Z</time><name>PT1445</name></trkpt>
<trkpt lat="52.902249" lon="-3.394424"><ele>499</ele><time>2022-10-15T10:55:08Z</time><name>PT1446</name></trkpt>
<trkpt lat="52.902244" lon="-3.394365"><ele>500</ele><time>2022-10-15T10:55:12Z</time><name>PT1447</name></trkpt>
<trkpt lat="52.902253" lon="-3.394292"><ele>499</ele><time>2022-10-15T10:55:16Z</time><name>PT1448</name></trkpt>
<trkpt lat="52.902250" lon="-3.394229"><ele>501</ele><time>2022-10-15T10:55:20Z</time><name>PT1449</name></trkpt>
<trkpt lat="52.902255" lon="-3.394174"><ele>501</ele><time>2022-10-15T10:55:24Z</time><name>PT1450</name></trkpt>
<trkpt lat="52.902266" lon="-3.394115"><ele>500</ele><time>2022-10-15T10:55:28Z</time><name>PT1451</name></trkpt>
<trkpt lat="52.902273" lon="-3.394079"><ele>500</ele><time>2022-10-15T10:55:31Z</time><name>PT1452</name></trkpt>
<trkpt lat="52.902275" lon="-3.394021"><ele>502</ele><time>2022-10-15T10:55:35Z</time><name>PT1453</name></trkpt>
<trkpt lat="52.902272" lon="-3.393953"><ele>503</ele><time>2022-10-15T10:55:39Z</time><name>PT1454</name></trkpt>
<trkpt lat="52.902259" lon="-3.393888"><ele>504</ele><time>2022-10-15T10:55:43Z</time><name>PT1455</name></trkpt>
<trkpt lat="52.902241" lon="-3.393825"><ele>506</ele><time>2022-10-15T10:55:47Z</time><name>PT1456</name></trkpt>
<trkpt lat="52.902224" lon="-3.393773"><ele>507</ele><time>2022-10-15T10:55:51Z</time><name>PT1457</name></trkpt>
<trkpt lat="52.902209" lon="-3.393715"><ele>507</ele><time>2022-10-15T10:55:55Z</time><name>PT1458</name></trkpt>
<trkpt lat="52.902197" lon="-3.393654"><ele>508</ele><time>2022-10-15T10:55:59Z</time><name>PT1459</name></trkpt>
<trkpt lat="52.902187" lon="-3.393597"><ele>508</ele><time>2022-10-15T10:56:03Z</time><name>PT1460</name></trkpt>
<trkpt lat="52.902180" lon="-3.393538"><ele>509</ele><time>2022-10-15T10:56:07Z</time><name>PT1461</name></trkpt>
<trkpt lat="52.902178" lon="-3.393479"><ele>509</ele><time>2022-10-15T10:56:11Z</time><name>PT1462</name></trkpt>
<trkpt lat="52.902172" lon="-3.393422"><ele>509</ele><time>2022-10-15T10:56:15Z</time><name>PT1463</name></trkpt>
<trkpt lat="52.902163" lon="-3.393360"><ele>509</ele><time>2022-10-15T10:56:19Z</time><name>PT1464</name></trkpt>
<trkpt lat="52.902157" lon="-3.393300"><ele>510</ele><time>2022-10-15T10:56:23Z</time><name>PT1465</name></trkpt>
<trkpt lat="52.902150" lon="-3.393243"><ele>510</ele><time>2022-10-15T10:56:27Z</time><name>PT1466</name></trkpt>
<trkpt lat="52.902141" lon="-3.393189"><ele>511</ele><time>2022-10-15T10:56:31Z</time><name>PT1467</name></trkpt>
<trkpt lat="52.902133" lon="-3.393127"><ele>511</ele><time>2022-10-15T10:56:35Z</time><name>PT1468</name></trkpt>
<trkpt lat="52.902129" lon="-3.393077"><ele>511</ele><time>2022-10-15T10:56:39Z</time><name>PT1469</name></trkpt>
<trkpt lat="52.902115" lon="-3.393008"><ele>512</ele><time>2022-10-15T10:56:43Z</time><name>PT1470</name></trkpt>
<trkpt lat="52.902106" lon="-3.392946"><ele>512</ele><time>2022-10-15T10:56:47Z</time><name>PT1471</name></trkpt>
<trkpt lat="52.902096" lon="-3.392882"><ele>513</ele><time>2022-10-15T10:56:51Z</time><name>PT1472</name></trkpt>
<trkpt lat="52.902088" lon="-3.392826"><ele>513</ele><time>2022-10-15T10:56:55Z</time><name>PT1473</name></trkpt>
<trkpt lat="52.902082" lon="-3.392766"><ele>512</ele><time>2022-10-15T10:56:59Z</time><name>PT1474</name></trkpt>
<trkpt lat="52.902075" lon="-3.392707"><ele>512</ele><time>2022-10-15T10:57:03Z</time><name>PT1475</name></trkpt>
<trkpt lat="52.902066" lon="-3.392652"><ele>514</ele><time>2022-10-15T10:57:07Z</time><name>PT1476</name></trkpt>
<trkpt lat="52.902064" lon="-3.392606"><ele>513</ele><time>2022-10-15T10:57:11Z</time><name>PT1477</name></trkpt>
<trkpt lat="52.902059" lon="-3.392553"><ele>514</ele><time>2022-10-15T10:57:15Z</time><name>PT1478</name></trkpt>
<trkpt lat="52.902044" lon="-3.392493"><ele>514</ele><time>2022-10-15T10:57:19Z</time><name>PT1479</name></trkpt>
<trkpt lat="52.902027" lon="-3.392429"><ele>514</ele><time>2022-10-15T10:57:23Z</time><name>PT1480</name></trkpt>
<trkpt lat="52.902021" lon="-3.392373"><ele>514</ele><time>2022-10-15T10:57:27Z</time><name>PT1481</name></trkpt>
<trkpt lat="52.902007" lon="-3.392308"><ele>515</ele><time>2022-10-15T10:57:31Z</time><name>PT1482</name></trkpt>
<trkpt lat="52.901992" lon="-3.392244"><ele>516</ele><time>2022-10-15T10:57:35Z</time><name>PT1483</name></trkpt>
<trkpt lat="52.901982" lon="-3.392190"><ele>516</ele><time>2022-10-15T10:57:39Z</time><name>PT1484</name></trkpt>
<trkpt lat="52.901974" lon="-3.392133"><ele>516</ele><time>2022-10-15T10:57:43Z</time><name>PT1485</name></trkpt>
<trkpt lat="52.901968" lon="-3.392080"><ele>517</ele><time>2022-10-15T10:57:47Z</time><name>PT1486</name></trkpt>
<trkpt lat="52.901959" lon="-3.392028"><ele>517</ele><time>2022-10-15T10:57:51Z</time><name>PT1487</name></trkpt>
<trkpt lat="52.901955" lon="-3.391994"><ele>517</ele><time>2022-10-15T10:57:55Z</time><name>PT1488</name></trkpt>
<trkpt lat="52.901952" lon="-3.391961"><ele>518</ele><time>2022-10-15T10:57:59Z</time><name>PT1489</name></trkpt>
<trkpt lat="52.901948" lon="-3.391939"><ele>517</ele><time>2022-10-15T10:58:03Z</time><name>PT1490</name></trkpt>
<trkpt lat="52.901939" lon="-3.391899"><ele>518</ele><time>2022-10-15T10:58:07Z</time><name>PT1491</name></trkpt>
<trkpt lat="52.901936" lon="-3.391882"><ele>520</ele><time>2022-10-15T10:58:11Z</time><name>PT1492</name></trkpt>
<trkpt lat="52.901944" lon="-3.391865"><ele>519</ele><time>2022-10-15T10:58:15Z</time><name>PT1493</name></trkpt>
<trkpt lat="52.901941" lon="-3.391808"><ele>520</ele><time>2022-10-15T10:58:19Z</time><name>PT1494</name></trkpt>
<trkpt lat="52.901940" lon="-3.391795"><ele>520</ele><time>2022-10-15T10:58:23Z</time><name>PT1495</name></trkpt>
<trkpt lat="52.901956" lon="-3.391821"><ele>521</ele><time>2022-10-15T10:59:39Z</time><name>PT1496</name></trkpt>
<trkpt lat="52.901965" lon="-3.391873"><ele>520</ele><time>2022-10-15T10:59:43Z</time><name>PT1497</name></trkpt>
<trkpt lat="52.901981" lon="-3.391892"><ele>519</ele><time>2022-10-15T10:59:47Z</time><name>PT1498</name></trkpt>
<trkpt lat="52.901991" lon="-3.391906"><ele>519</ele><time>2022-10-15T10:59:51Z</time><name>PT1499</name></trkpt>
<trkpt lat="52.901999" lon="-3.391903"><ele>518</ele><time>2022-10-15T10:59:55Z</time><name>PT1500</name></trkpt>
<trkpt lat="52.901991" lon="-3.391901"><ele>518</ele><time>2022-10-15T10:59:59Z</time><name>PT1501</name></trkpt>
<trkpt lat="52.901990" lon="-3.391902"><ele>517</ele><time>2022-10-15T11:00:03Z</time><name>PT1502</name></trkpt>
<trkpt lat="52.901981" lon="-3.391902"><ele>517</ele><time>2022-10-15T11:00:07Z</time><name>PT1503</name></trkpt>
<trkpt lat="52.901939" lon="-3.391862"><ele>517</ele><time>2022-10-15T11:00:11Z</time><name>PT1504</name></trkpt>
<trkpt lat="52.901908" lon="-3.391825"><ele>516</ele><time>2022-10-15T11:00:15Z</time><name>PT1505</name></trkpt>
<trkpt lat="52.901866" lon="-3.391784"><ele>516</ele><time>2022-10-15T11:00:19Z</time><name>PT1506</name></trkpt>
<trkpt lat="52.901823" lon="-3.391749"><ele>516</ele><time>2022-10-15T11:00:23Z</time><name>PT1507</name></trkpt>
<trkpt lat="52.901780" lon="-3.391707"><ele>516</ele><time>2022-10-15T11:00:27Z</time><name>PT1508</name></trkpt>
<trkpt lat="52.901741" lon="-3.391665"><ele>516</ele><time>2022-10-15T11:00:31Z</time><name>PT1509</name></trkpt>
<trkpt lat="52.901712" lon="-3.391628"><ele>516</ele><time>2022-10-15T11:00:35Z</time><name>PT1510</name></trkpt>
<trkpt lat="52.901687" lon="-3.391591"><ele>516</ele><time>2022-10-15T11:00:39Z</time><name>PT1511</name></trkpt>
<trkpt lat="52.901661" lon="-3.391556"><ele>516</ele><time>2022-10-15T11:00:43Z</time><name>PT1512</name></trkpt>
<trkpt lat="52.901637" lon="-3.391525"><ele>517</ele><time>2022-10-15T11:00:47Z</time><name>PT1513</name></trkpt>
<trkpt lat="52.901604" lon="-3.391479"><ele>518</ele><time>2022-10-15T11:00:51Z</time><name>PT1514</name></trkpt>
<trkpt lat="52.901577" lon="-3.391424"><ele>519</ele><time>2022-10-15T11:00:55Z</time><name>PT1515</name></trkpt>
<trkpt lat="52.901557" lon="-3.391369"><ele>519</ele><time>2022-10-15T11:00:59Z</time><name>PT1516</name></trkpt>
<trkpt lat="52.901539" lon="-3.391327"><ele>519</ele><time>2022-10-15T11:01:03Z</time><name>PT1517</name></trkpt>
<trkpt lat="52.901521" lon="-3.391283"><ele>519</ele><time>2022-10-15T11:01:07Z</time><name>PT1518</name></trkpt>
<trkpt lat="52.901498" lon="-3.391240"><ele>520</ele><time>2022-10-15T11:01:10Z</time><name>PT1519</name></trkpt>
<trkpt lat="52.901479" lon="-3.391196"><ele>521</ele><time>2022-10-15T11:01:14Z</time><name>PT1520</name></trkpt>
<trkpt lat="52.901453" lon="-3.391157"><ele>522</ele><time>2022-10-15T11:01:18Z</time><name>PT1521</name></trkpt>
<trkpt lat="52.901427" lon="-3.391121"><ele>523</ele><time>2022-10-15T11:01:22Z</time><name>PT1522</name></trkpt>
<trkpt lat="52.901406" lon="-3.391086"><ele>522</ele><time>2022-10-15T11:01:26Z</time><name>PT1523</name></trkpt>
<trkpt lat="52.901399" lon="-3.391067"><ele>521</ele><time>2022-10-15T11:01:30Z</time><name>PT1524</name></trkpt>
<trkpt lat="52.901388" lon="-3.391044"><ele>522</ele><time>2022-10-15T11:01:33Z</time><name>PT1525</name></trkpt>
<trkpt lat="52.901369" lon="-3.391011"><ele>523</ele><time>2022-10-15T11:01:37Z</time><name>PT1526</name></trkpt>
<trkpt lat="52.901364" lon="-3.390974"><ele>523</ele><time>2022-10-15T11:01:41Z</time><name>PT1527</name></trkpt>
<trkpt lat="52.901364" lon="-3.390926"><ele>522</ele><time>2022-10-15T11:01:45Z</time><name>PT1528</name></trkpt>
<trkpt lat="52.901358" lon="-3.390874"><ele>523</ele><time>2022-10-15T11:01:49Z</time><name>PT1529</name></trkpt>
<trkpt lat="52.901360" lon="-3.390815"><ele>523</ele><time>2022-10-15T11:01:53Z</time><name>PT1530</name></trkpt>
<trkpt lat="52.901368" lon="-3.390781"><ele>522</ele><time>2022-10-15T11:01:57Z</time><name>PT1531</name></trkpt>
<trkpt lat="52.901353" lon="-3.390705"><ele>522</ele><time>2022-10-15T11:02:01Z</time><name>PT1532</name></trkpt>
<trkpt lat="52.901334" lon="-3.390629"><ele>523</ele><time>2022-10-15T11:02:05Z</time><name>PT1533</name></trkpt>
<trkpt lat="52.901315" lon="-3.390555"><ele>523</ele><time>2022-10-15T11:02:09Z</time><name>PT1534</name></trkpt>
<trkpt lat="52.901306" lon="-3.390498"><ele>522</ele><time>2022-10-15T11:02:13Z</time><name>PT1535</name></trkpt>
<trkpt lat="52.901292" lon="-3.390462"><ele>521</ele><time>2022-10-15T11:02:17Z</time><name>PT1536</name></trkpt>
<trkpt lat="52.901296" lon="-3.390461"><ele>521</ele><time>2022-10-15T11:02:21Z</time><name>PT1537</name></trkpt>
<trkpt lat="52.901286" lon="-3.390452"><ele>520</ele><time>2022-10-15T11:02:28Z</time><name>PT1538</name></trkpt>
<trkpt lat="52.901255" lon="-3.390400"><ele>520</ele><time>2022-10-15T11:02:32Z</time><name>PT1539</name></trkpt>
<trkpt lat="52.901245" lon="-3.390434"><ele>519</ele><time>2022-10-15T11:02:36Z</time><name>PT1540</name></trkpt>
<trkpt lat="52.901224" lon="-3.390429"><ele>520</ele><time>2022-10-15T11:02:40Z</time><name>PT1541</name></trkpt>
<trkpt lat="52.901203" lon="-3.390429"><ele>520</ele><time>2022-10-15T11:02:44Z</time><name>PT1542</name></trkpt>
<trkpt lat="52.901188" lon="-3.390415"><ele>520</ele><time>2022-10-15T11:02:48Z</time><name>PT1543</name></trkpt>
<trkpt lat="52.901197" lon="-3.390424"><ele>520</ele><time>2022-10-15T11:02:51Z</time><name>PT1544</name></trkpt>
<trkpt lat="52.901203" lon="-3.390425"><ele>519</ele><time>2022-10-15T11:02:55Z</time><name>PT1545</name></trkpt>
<trkpt lat="52.901188" lon="-3.390408"><ele>520</ele><time>2022-10-15T11:03:03Z</time><name>PT1546</name></trkpt>
<trkpt lat="52.901160" lon="-3.390373"><ele>520</ele><time>2022-10-15T11:03:07Z</time><name>PT1547</name></trkpt>
<trkpt lat="52.901133" lon="-3.390344"><ele>521</ele><time>2022-10-15T11:03:11Z</time><name>PT1548</name></trkpt>
<trkpt lat="52.901104" lon="-3.390307"><ele>523</ele><time>2022-10-15T11:03:15Z</time><name>PT1549</name></trkpt>
<trkpt lat="52.901075" lon="-3.390281"><ele>525</ele><time>2022-10-15T11:03:19Z</time><name>PT1550</name></trkpt>
<trkpt lat="52.901044" lon="-3.390227"><ele>526</ele><time>2022-10-15T11:03:23Z</time><name>PT1551</name></trkpt>
<trkpt lat="52.901028" lon="-3.390184"><ele>527</ele><time>2022-10-15T11:03:27Z</time><name>PT1552</name></trkpt>
<trkpt lat="52.901014" lon="-3.390134"><ele>527</ele><time>2022-10-15T11:03:31Z</time><name>PT1553</name></trkpt>
<trkpt lat="52.901018" lon="-3.390091"><ele>527</ele><time>2022-10-15T11:03:35Z</time><name>PT1554</name></trkpt>
<trkpt lat="52.901031" lon="-3.390058"><ele>525</ele><time>2022-10-15T11:03:39Z</time><name>PT1555</name></trkpt>
<trkpt lat="52.901037" lon="-3.390010"><ele>524</ele><time>2022-10-15T11:03:43Z</time><name>PT1556</name></trkpt>
<trkpt lat="52.901028" lon="-3.389949"><ele>524</ele><time>2022-10-15T11:03:47Z</time><name>PT1557</name></trkpt>
<trkpt lat="52.901022" lon="-3.389897"><ele>525</ele><time>2022-10-15T11:03:51Z</time><name>PT1558</name></trkpt>
<trkpt lat="52.901023" lon="-3.389852"><ele>526</ele><time>2022-10-15T11:03:55Z</time><name>PT1559</name></trkpt>
<trkpt lat="52.901020" lon="-3.389801"><ele>526</ele><time>2022-10-15T11:03:59Z</time><name>PT1560</name></trkpt>
<trkpt lat="52.901032" lon="-3.389762"><ele>524</ele><time>2022-10-15T11:04:03Z</time><name>PT1561</name></trkpt>
<trkpt lat="52.901035" lon="-3.389708"><ele>524</ele><time>2022-10-15T11:04:07Z</time><name>PT1562</name></trkpt>
<trkpt lat="52.901036" lon="-3.389664"><ele>525</ele><time>2022-10-15T11:04:11Z</time><name>PT1563</name></trkpt>
<trkpt lat="52.901025" lon="-3.389612"><ele>526</ele><time>2022-10-15T11:04:15Z</time><name>PT1564</name></trkpt>
<trkpt lat="52.901020" lon="-3.389578"><ele>527</ele><time>2022-10-15T11:04:18Z</time><name>PT1565</name></trkpt>
<trkpt lat="52.901026" lon="-3.389526"><ele>525</ele><time>2022-10-15T11:04:22Z</time><name>PT1566</name></trkpt>
<trkpt lat="52.901041" lon="-3.389464"><ele>525</ele><time>2022-10-15T11:04:26Z</time><name>PT1567</name></trkpt>
<trkpt lat="52.901061" lon="-3.389420"><ele>524</ele><time>2022-10-15T11:04:30Z</time><name>PT1568</name></trkpt>
<trkpt lat="52.901076" lon="-3.389383"><ele>523</ele><time>2022-10-15T11:04:34Z</time><name>PT1569</name></trkpt>
<trkpt lat="52.901070" lon="-3.389319"><ele>523</ele><time>2022-10-15T11:04:38Z</time><name>PT1570</name></trkpt>
<trkpt lat="52.901066" lon="-3.389269"><ele>524</ele><time>2022-10-15T11:04:42Z</time><name>PT1571</name></trkpt>
<trkpt lat="52.901054" lon="-3.389220"><ele>525</ele><time>2022-10-15T11:04:46Z</time><name>PT1572</name></trkpt>
<trkpt lat="52.901047" lon="-3.389180"><ele>526</ele><time>2022-10-15T11:04:50Z</time><name>PT1573</name></trkpt>
<trkpt lat="52.901033" lon="-3.389128"><ele>527</ele><time>2022-10-15T11:04:54Z</time><name>PT1574</name></trkpt>
<trkpt lat="52.901018" lon="-3.389079"><ele>528</ele><time>2022-10-15T11:04:58Z</time><name>PT1575</name></trkpt>
<trkpt lat="52.900999" lon="-3.389038"><ele>529</ele><time>2022-10-15T11:05:02Z</time><name>PT1576</name></trkpt>
<trkpt lat="52.900982" lon="-3.389009"><ele>529</ele><time>2022-10-15T11:05:06Z</time><name>PT1577</name></trkpt>
<trkpt lat="52.900962" lon="-3.388970"><ele>530</ele><time>2022-10-15T11:05:10Z</time><name>PT1578</name></trkpt>
<trkpt lat="52.900954" lon="-3.388944"><ele>530</ele><time>2022-10-15T11:05:14Z</time><name>PT1579</name></trkpt>
<trkpt lat="52.900946" lon="-3.388939"><ele>530</ele><time>2022-10-15T11:05:18Z</time><name>PT1580</name></trkpt>
<trkpt lat="52.900942" lon="-3.388927"><ele>531</ele><time>2022-10-15T11:05:22Z</time><name>PT1581</name></trkpt>
<trkpt lat="52.900926" lon="-3.388917"><ele>531</ele><time>2022-10-15T11:05:25Z</time><name>PT1582</name></trkpt>
<trkpt lat="52.900902" lon="-3.388898"><ele>532</ele><time>2022-10-15T11:05:29Z</time><name>PT1583</name></trkpt>
<trkpt lat="52.900867" lon="-3.388882"><ele>531</ele><time>2022-10-15T11:05:33Z</time><name>PT1584</name></trkpt>
<trkpt lat="52.900833" lon="-3.388845"><ele>533</ele><time>2022-10-15T11:05:37Z</time><name>PT1585</name></trkpt>
<trkpt lat="52.900803" lon="-3.388804"><ele>533</ele><time>2022-10-15T11:05:41Z</time><name>PT1586</name></trkpt>
<trkpt lat="52.900789" lon="-3.388766"><ele>534</ele><time>2022-10-15T11:05:45Z</time><name>PT1587</name></trkpt>
<trkpt lat="52.900780" lon="-3.388735"><ele>535</ele><time>2022-10-15T11:05:49Z</time><name>PT1588</name></trkpt>
<trkpt lat="52.900775" lon="-3.388714"><ele>535</ele><time>2022-10-15T11:05:53Z</time><name>PT1589</name></trkpt>
<trkpt lat="52.900769" lon="-3.388686"><ele>534</ele><time>2022-10-15T11:06:01Z</time><name>PT1590</name></trkpt>
<trkpt lat="52.900765" lon="-3.388639"><ele>534</ele><time>2022-10-15T11:06:05Z</time><name>PT1591</name></trkpt>
<trkpt lat="52.900753" lon="-3.388618"><ele>535</ele><time>2022-10-15T11:06:09Z</time><name>PT1592</name></trkpt>
<trkpt lat="52.900746" lon="-3.388626"><ele>535</ele><time>2022-10-15T11:06:17Z</time><name>PT1593</name></trkpt>
<trkpt lat="52.900706" lon="-3.388603"><ele>535</ele><time>2022-10-15T11:06:20Z</time><name>PT1594</name></trkpt>
<trkpt lat="52.900672" lon="-3.388577"><ele>535</ele><time>2022-10-15T11:06:24Z</time><name>PT1595</name></trkpt>
<trkpt lat="52.900637" lon="-3.388547"><ele>536</ele><time>2022-10-15T11:06:28Z</time><name>PT1596</name></trkpt>
<trkpt lat="52.900606" lon="-3.388539"><ele>536</ele><time>2022-10-15T11:06:32Z</time><name>PT1597</name></trkpt>
<trkpt lat="52.900571" lon="-3.388519"><ele>536</ele><time>2022-10-15T11:06:36Z</time><name>PT1598</name></trkpt>
<trkpt lat="52.900559" lon="-3.388506"><ele>536</ele><time>2022-10-15T11:06:40Z</time><name>PT1599</name></trkpt>
<trkpt lat="52.900552" lon="-3.388500"><ele>536</ele><time>2022-10-15T11:06:44Z</time><name>PT1600</name></trkpt>
<trkpt lat="52.900548" lon="-3.388493"><ele>537</ele><time>2022-10-15T11:06:51Z</time><name>PT1601</name></trkpt>
<trkpt lat="52.900536" lon="-3.388485"><ele>537</ele><time>2022-10-15T11:07:02Z</time><name>PT1602</name></trkpt>
<trkpt lat="52.900531" lon="-3.388477"><ele>537</ele><time>2022-10-15T11:07:06Z</time><name>PT1603</name></trkpt>
<trkpt lat="52.900512" lon="-3.388470"><ele>538</ele><time>2022-10-15T11:07:22Z</time><name>PT1604</name></trkpt>
<trkpt lat="52.900512" lon="-3.388473"><ele>536</ele><time>2022-10-15T11:07:26Z</time><name>PT1605</name></trkpt>
<trkpt lat="52.900520" lon="-3.388473"><ele>536</ele><time>2022-10-15T11:07:30Z</time><name>PT1606</name></trkpt>
<trkpt lat="52.900507" lon="-3.388474"><ele>537</ele><time>2022-10-15T11:07:34Z</time><name>PT1607</name></trkpt>
<trkpt lat="52.900503" lon="-3.388471"><ele>537</ele><time>2022-10-15T11:07:38Z</time><name>PT1608</name></trkpt>
<trkpt lat="52.900508" lon="-3.388478"><ele>537</ele><time>2022-10-15T11:07:42Z</time><name>PT1609</name></trkpt>
<trkpt lat="52.900509" lon="-3.388480"><ele>537</ele><time>2022-10-15T11:07:46Z</time><name>PT1610</name></trkpt>
<trkpt lat="52.900488" lon="-3.388462"><ele>537</ele><time>2022-10-15T11:08:06Z</time><name>PT1611</name></trkpt>
<trkpt lat="52.900449" lon="-3.388423"><ele>538</ele><time>2022-10-15T11:08:10Z</time><name>PT1612</name></trkpt>
<trkpt lat="52.900412" lon="-3.388396"><ele>539</ele><time>2022-10-15T11:08:14Z</time><name>PT1613</name></trkpt>
<trkpt lat="52.900384" lon="-3.388362"><ele>539</ele><time>2022-10-15T11:08:18Z</time><name>PT1614</name></trkpt>
<trkpt lat="52.900355" lon="-3.388344"><ele>540</ele><time>2022-10-15T11:08:22Z</time><name>PT1615</name></trkpt>
<trkpt lat="52.900331" lon="-3.388325"><ele>541</ele><time>2022-10-15T11:08:26Z</time><name>PT1616</name></trkpt>
<trkpt lat="52.900313" lon="-3.388297"><ele>541</ele><time>2022-10-15T11:08:30Z</time><name>PT1617</name></trkpt>
<trkpt lat="52.900282" lon="-3.388266"><ele>541</ele><time>2022-10-15T11:08:34Z</time><name>PT1618</name></trkpt>
<trkpt lat="52.900249" lon="-3.388241"><ele>542</ele><time>2022-10-15T11:08:38Z</time><name>PT1619</name></trkpt>
<trkpt lat="52.900221" lon="-3.388223"><ele>542</ele><time>2022-10-15T11:08:42Z</time><name>PT1620</name></trkpt>
<trkpt lat="52.900196" lon="-3.388209"><ele>543</ele><time>2022-10-15T11:08:46Z</time><name>PT1621</name></trkpt>
<trkpt lat="52.900177" lon="-3.388187"><ele>542</ele><time>2022-10-15T11:08:50Z</time><name>PT1622</name></trkpt>
<trkpt lat="52.900151" lon="-3.388168"><ele>544</ele><time>2022-10-15T11:08:54Z</time><name>PT1623</name></trkpt>
<trkpt lat="52.900125" lon="-3.388157"><ele>544</ele><time>2022-10-15T11:08:58Z</time><name>PT1624</name></trkpt>
<trkpt lat="52.900116" lon="-3.388149"><ele>545</ele><time>2022-10-15T11:09:02Z</time><name>PT1625</name></trkpt>
<trkpt lat="52.900102" lon="-3.388153"><ele>545</ele><time>2022-10-15T11:09:18Z</time><name>PT1626</name></trkpt>
<trkpt lat="52.900062" lon="-3.388127"><ele>546</ele><time>2022-10-15T11:09:21Z</time><name>PT1627</name></trkpt>
<trkpt lat="52.900008" lon="-3.388083"><ele>546</ele><time>2022-10-15T11:09:25Z</time><name>PT1628</name></trkpt>
<trkpt lat="52.899984" lon="-3.388047"><ele>546</ele><time>2022-10-15T11:09:29Z</time><name>PT1629</name></trkpt>
<trkpt lat="52.899966" lon="-3.388011"><ele>547</ele><time>2022-10-15T11:09:33Z</time><name>PT1630</name></trkpt>
<trkpt lat="52.899929" lon="-3.387987"><ele>548</ele><time>2022-10-15T11:09:37Z</time><name>PT1631</name></trkpt>
<trkpt lat="52.899901" lon="-3.387961"><ele>548</ele><time>2022-10-15T11:09:41Z</time><name>PT1632</name></trkpt>
<trkpt lat="52.899872" lon="-3.387948"><ele>549</ele><time>2022-10-15T11:09:45Z</time><name>PT1633</name></trkpt>
<trkpt lat="52.899833" lon="-3.387930"><ele>549</ele><time>2022-10-15T11:09:49Z</time><name>PT1634</name></trkpt>
<trkpt lat="52.899788" lon="-3.387915"><ele>550</ele><time>2022-10-15T11:09:53Z</time><name>PT1635</name></trkpt>
<trkpt lat="52.899752" lon="-3.387895"><ele>550</ele><time>2022-10-15T11:09:57Z</time><name>PT1636</name></trkpt>
<trkpt lat="52.899722" lon="-3.387872"><ele>552</ele><time>2022-10-15T11:10:01Z</time><name>PT1637</name></trkpt>
<trkpt lat="52.899694" lon="-3.387847"><ele>552</ele><time>2022-10-15T11:10:05Z</time><name>PT1638</name></trkpt>
<trkpt lat="52.899659" lon="-3.387814"><ele>553</ele><time>2022-10-15T11:10:09Z</time><name>PT1639</name></trkpt>
<trkpt lat="52.899636" lon="-3.387780"><ele>554</ele><time>2022-10-15T11:10:13Z</time><name>PT1640</name></trkpt>
<trkpt lat="52.899608" lon="-3.387741"><ele>555</ele><time>2022-10-15T11:10:17Z</time><name>PT1641</name></trkpt>
<trkpt lat="52.899572" lon="-3.387721"><ele>556</ele><time>2022-10-15T11:10:21Z</time><name>PT1642</name></trkpt>
<trkpt lat="52.899543" lon="-3.387707"><ele>557</ele><time>2022-10-15T11:10:25Z</time><name>PT1643</name></trkpt>
<trkpt lat="52.899519" lon="-3.387673"><ele>558</ele><time>2022-10-15T11:10:29Z</time><name>PT1644</name></trkpt>
<trkpt lat="52.899499" lon="-3.387639"><ele>558</ele><time>2022-10-15T11:10:33Z</time><name>PT1645</name></trkpt>
<trkpt lat="52.899480" lon="-3.387610"><ele>558</ele><time>2022-10-15T11:10:37Z</time><name>PT1646</name></trkpt>
<trkpt lat="52.899458" lon="-3.387585"><ele>558</ele><time>2022-10-15T11:10:41Z</time><name>PT1647</name></trkpt>
<trkpt lat="52.899436" lon="-3.387558"><ele>558</ele><time>2022-10-15T11:10:45Z</time><name>PT1648</name></trkpt>
<trkpt lat="52.899414" lon="-3.387534"><ele>559</ele><time>2022-10-15T11:10:49Z</time><name>PT1649</name></trkpt>
<trkpt lat="52.899397" lon="-3.387505"><ele>559</ele><time>2022-10-15T11:10:53Z</time><name>PT1650</name></trkpt>
<trkpt lat="52.899378" lon="-3.387487"><ele>557</ele><time>2022-10-15T11:10:57Z</time><name>PT1651</name></trkpt>
<trkpt lat="52.899358" lon="-3.387459"><ele>558</ele><time>2022-10-15T11:11:01Z</time><name>PT1652</name></trkpt>
<trkpt lat="52.899336" lon="-3.387425"><ele>559</ele><time>2022-10-15T11:11:05Z</time><name>PT1653</name></trkpt>
<trkpt lat="52.899322" lon="-3.387399"><ele>561</ele><time>2022-10-15T11:11:09Z</time><name>PT1654</name></trkpt>
<trkpt lat="52.899314" lon="-3.387368"><ele>561</ele><time>2022-10-15T11:11:13Z</time><name>PT1655</name></trkpt>
<trkpt lat="52.899301" lon="-3.387339"><ele>562</ele><time>2022-10-15T11:11:17Z</time><name>PT1656</name></trkpt>
<trkpt lat="52.899292" lon="-3.387320"><ele>562</ele><time>2022-10-15T11:11:21Z</time><name>PT1657</name></trkpt>
<trkpt lat="52.899288" lon="-3.387309"><ele>563</ele><time>2022-10-15T11:11:25Z</time><name>PT1658</name></trkpt>
<trkpt lat="52.899287" lon="-3.387309"><ele>562</ele><time>2022-10-15T11:11:29Z</time><name>PT1659</name></trkpt>
<trkpt lat="52.899287" lon="-3.387308"><ele>562</ele><time>2022-10-15T11:11:33Z</time><name>PT1660</name></trkpt>
<trkpt lat="52.899283" lon="-3.387303"><ele>562</ele><time>2022-10-15T11:11:37Z</time><name>PT1661</name></trkpt>
<trkpt lat="52.899272" lon="-3.387286"><ele>562</ele><time>2022-10-15T11:11:49Z</time><name>PT1662</name></trkpt>
<trkpt lat="52.899267" lon="-3.387282"><ele>562</ele><time>2022-10-15T11:11:53Z</time><name>PT1663</name></trkpt>
<trkpt lat="52.899246" lon="-3.387240"><ele>563</ele><time>2022-10-15T11:11:57Z</time><name>PT1664</name></trkpt>
<trkpt lat="52.899223" lon="-3.387201"><ele>564</ele><time>2022-10-15T11:12:01Z</time><name>PT1665</name></trkpt>
<trkpt lat="52.899199" lon="-3.387164"><ele>564</ele><time>2022-10-15T11:12:05Z</time><name>PT1666</name></trkpt>
<trkpt lat="52.899182" lon="-3.387136"><ele>565</ele><time>2022-10-15T11:12:09Z</time><name>PT1667</name></trkpt>
<trkpt lat="52.899158" lon="-3.387100"><ele>567</ele><time>2022-10-15T11:12:13Z</time><name>PT1668</name></trkpt>
<trkpt lat="52.899142" lon="-3.387065"><ele>568</ele><time>2022-10-15T11:12:17Z</time><name>PT1669</name></trkpt>
<trkpt lat="52.899126" lon="-3.387025"><ele>568</ele><time>2022-10-15T11:12:21Z</time><name>PT1670</name></trkpt>
<trkpt lat="52.899113" lon="-3.386992"><ele>568</ele><time>2022-10-15T11:12:25Z</time><name>PT1671</name></trkpt>
<trkpt lat="52.899102" lon="-3.386961"><ele>570</ele><time>2022-10-15T11:12:29Z</time><name>PT1672</name></trkpt>
<trkpt lat="52.899091" lon="-3.386925"><ele>571</ele><time>2022-10-15T11:12:33Z</time><name>PT1673</name></trkpt>
<trkpt lat="52.899077" lon="-3.386881"><ele>572</ele><time>2022-10-15T11:12:37Z</time><name>PT1674</name></trkpt>
<trkpt lat="52.899072" lon="-3.386851"><ele>572</ele><time>2022-10-15T11:12:41Z</time><name>PT1675</name></trkpt>
<trkpt lat="52.899056" lon="-3.386812"><ele>573</ele><time>2022-10-15T11:12:45Z</time><name>PT1676</name></trkpt>
<trkpt lat="52.899032" lon="-3.386785"><ele>573</ele><time>2022-10-15T11:12:49Z</time><name>PT1677</name></trkpt>
<trkpt lat="52.899009" lon="-3.386743"><ele>573</ele><time>2022-10-15T11:12:53Z</time><name>PT1678</name></trkpt>
<trkpt lat="52.898999" lon="-3.386701"><ele>574</ele><time>2022-10-15T11:12:57Z</time><name>PT1679</name></trkpt>
<trkpt lat="52.898986" lon="-3.386669"><ele>574</ele><time>2022-10-15T11:13:01Z</time><name>PT1680</name></trkpt>
<trkpt lat="52.898973" lon="-3.386631"><ele>575</ele><time>2022-10-15T11:13:05Z</time><name>PT1681</name></trkpt>
<trkpt lat="52.898962" lon="-3.386596"><ele>575</ele><time>2022-10-15T11:13:09Z</time><name>PT1682</name></trkpt>
<trkpt lat="52.898945" lon="-3.386555"><ele>576</ele><time>2022-10-15T11:13:13Z</time><name>PT1683</name></trkpt>
<trkpt lat="52.898931" lon="-3.386523"><ele>576</ele><time>2022-10-15T11:13:16Z</time><name>PT1684</name></trkpt>
<trkpt lat="52.898914" lon="-3.386488"><ele>577</ele><time>2022-10-15T11:13:20Z</time><name>PT1685</name></trkpt>
<trkpt lat="52.898900" lon="-3.386457"><ele>577</ele><time>2022-10-15T11:13:23Z</time><name>PT1686</name></trkpt>
<trkpt lat="52.898881" lon="-3.386410"><ele>578</ele><time>2022-10-15T11:13:27Z</time><name>PT1687</name></trkpt>
<trkpt lat="52.898855" lon="-3.386365"><ele>578</ele><time>2022-10-15T11:13:31Z</time><name>PT1688</name></trkpt>
<trkpt lat="52.898845" lon="-3.386338"><ele>579</ele><time>2022-10-15T11:13:34Z</time><name>PT1689</name></trkpt>
<trkpt lat="52.898837" lon="-3.386322"><ele>580</ele><time>2022-10-15T11:13:38Z</time><name>PT1690</name></trkpt>
<trkpt lat="52.898823" lon="-3.386287"><ele>580</ele><time>2022-10-15T11:13:42Z</time><name>PT1691</name></trkpt>
<trkpt lat="52.898807" lon="-3.386241"><ele>581</ele><time>2022-10-15T11:13:46Z</time><name>PT1692</name></trkpt>
<trkpt lat="52.898791" lon="-3.386219"><ele>581</ele><time>2022-10-15T11:13:50Z</time><name>PT1693</name></trkpt>
<trkpt lat="52.898776" lon="-3.386186"><ele>581</ele><time>2022-10-15T11:13:54Z</time><name>PT1694</name></trkpt>
<trkpt lat="52.898768" lon="-3.386146"><ele>581</ele><time>2022-10-15T11:13:58Z</time><name>PT1695</name></trkpt>
<trkpt lat="52.898758" lon="-3.386101"><ele>582</ele><time>2022-10-15T11:14:02Z</time><name>PT1696</name></trkpt>
<trkpt lat="52.898742" lon="-3.386057"><ele>582</ele><time>2022-10-15T11:14:06Z</time><name>PT1697</name></trkpt>
<trkpt lat="52.898721" lon="-3.386005"><ele>583</ele><time>2022-10-15T11:14:10Z</time><name>PT1698</name></trkpt>
<trkpt lat="52.898701" lon="-3.385962"><ele>583</ele><time>2022-10-15T11:14:14Z</time><name>PT1699</name></trkpt>
<trkpt lat="52.898689" lon="-3.385923"><ele>583</ele><time>2022-10-15T11:14:18Z</time><name>PT1700</name></trkpt>
<trkpt lat="52.898676" lon="-3.385894"><ele>584</ele><time>2022-10-15T11:14:22Z</time><name>PT1701</name></trkpt>
<trkpt lat="52.898658" lon="-3.385861"><ele>584</ele><time>2022-10-15T11:14:26Z</time><name>PT1702</name></trkpt>
<trkpt lat="52.898645" lon="-3.385821"><ele>584</ele><time>2022-10-15T11:14:30Z</time><name>PT1703</name></trkpt>
<trkpt lat="52.898624" lon="-3.385784"><ele>584</ele><time>2022-10-15T11:14:34Z</time><name>PT1704</name></trkpt>
<trkpt lat="52.898608" lon="-3.385759"><ele>584</ele><time>2022-10-15T11:14:38Z</time><name>PT1705</name></trkpt>
<trkpt lat="52.898586" lon="-3.385730"><ele>585</ele><time>2022-10-15T11:14:42Z</time><name>PT1706</name></trkpt>
<trkpt lat="52.898562" lon="-3.385698"><ele>585</ele><time>2022-10-15T11:14:46Z</time><name>PT1707</name></trkpt>
<trkpt lat="52.898530" lon="-3.385677"><ele>586</ele><time>2022-10-15T11:14:50Z</time><name>PT1708</name></trkpt>
<trkpt lat="52.898505" lon="-3.385656"><ele>586</ele><time>2022-10-15T11:14:54Z</time><name>PT1709</name></trkpt>
<trkpt lat="52.898490" lon="-3.385640"><ele>587</ele><time>2022-10-15T11:14:58Z</time><name>PT1710</name></trkpt>
<trkpt lat="52.898487" lon="-3.385646"><ele>587</ele><time>2022-10-15T11:15:02Z</time><name>PT1711</name></trkpt>
<trkpt lat="52.898482" lon="-3.385647"><ele>587</ele><time>2022-10-15T11:15:14Z</time><name>PT1712</name></trkpt>
<trkpt lat="52.898457" lon="-3.385612"><ele>587</ele><time>2022-10-15T11:15:18Z</time><name>PT1713</name></trkpt>
<trkpt lat="52.898446" lon="-3.385578"><ele>587</ele><time>2022-10-15T11:15:22Z</time><name>PT1714</name></trkpt>
<trkpt lat="52.898441" lon="-3.385560"><ele>587</ele><time>2022-10-15T11:15:30Z</time><name>PT1715</name></trkpt>
<trkpt lat="52.898428" lon="-3.385507"><ele>587</ele><time>2022-10-15T11:15:34Z</time><name>PT1716</name></trkpt>
<trkpt lat="52.898412" lon="-3.385462"><ele>588</ele><time>2022-10-15T11:15:38Z</time><name>PT1717</name></trkpt>
<trkpt lat="52.898402" lon="-3.385419"><ele>588</ele><time>2022-10-15T11:15:42Z</time><name>PT1718</name></trkpt>
<trkpt lat="52.898391" lon="-3.385382"><ele>589</ele><time>2022-10-15T11:15:45Z</time><name>PT1719</name></trkpt>
<trkpt lat="52.898379" lon="-3.385337"><ele>590</ele><time>2022-10-15T11:15:49Z</time><name>PT1720</name></trkpt>
<trkpt lat="52.898363" lon="-3.385294"><ele>591</ele><time>2022-10-15T11:15:53Z</time><name>PT1721</name></trkpt>
<trkpt lat="52.898349" lon="-3.385252"><ele>592</ele><time>2022-10-15T11:15:57Z</time><name>PT1722</name></trkpt>
<trkpt lat="52.898334" lon="-3.385206"><ele>594</ele><time>2022-10-15T11:16:01Z</time><name>PT1723</name></trkpt>
<trkpt lat="52.898323" lon="-3.385156"><ele>595</ele><time>2022-10-15T11:16:05Z</time><name>PT1724</name></trkpt>
<trkpt lat="52.898313" lon="-3.385105"><ele>595</ele><time>2022-10-15T11:16:09Z</time><name>PT1725</name></trkpt>
<trkpt lat="52.898302" lon="-3.385061"><ele>596</ele><time>2022-10-15T11:16:13Z</time><name>PT1726</name></trkpt>
<trkpt lat="52.898293" lon="-3.385013"><ele>595</ele><time>2022-10-15T11:16:17Z</time><name>PT1727</name></trkpt>
<trkpt lat="52.898286" lon="-3.384977"><ele>596</ele><time>2022-10-15T11:16:20Z</time><name>PT1728</name></trkpt>
<trkpt lat="52.898267" lon="-3.384930"><ele>595</ele><time>2022-10-15T11:16:24Z</time><name>PT1729</name></trkpt>
<trkpt lat="52.898265" lon="-3.384891"><ele>595</ele><time>2022-10-15T11:16:28Z</time><name>PT1730</name></trkpt>
<trkpt lat="52.898256" lon="-3.384855"><ele>596</ele><time>2022-10-15T11:16:32Z</time><name>PT1731</name></trkpt>
<trkpt lat="52.898247" lon="-3.384804"><ele>596</ele><time>2022-10-15T11:16:36Z</time><name>PT1732</name></trkpt>
<trkpt lat="52.898243" lon="-3.384751"><ele>596</ele><time>2022-10-15T11:16:40Z</time><name>PT1733</name></trkpt>
<trkpt lat="52.898226" lon="-3.384688"><ele>597</ele><time>2022-10-15T11:16:44Z</time><name>PT1734</name></trkpt>
<trkpt lat="52.898217" lon="-3.384637"><ele>597</ele><time>2022-10-15T11:16:48Z</time><name>PT1735</name></trkpt>
<trkpt lat="52.898202" lon="-3.384590"><ele>598</ele><time>2022-10-15T11:16:52Z</time><name>PT1736</name></trkpt>
<trkpt lat="52.898184" lon="-3.384550"><ele>599</ele><time>2022-10-15T11:16:56Z</time><name>PT1737</name></trkpt>
<trkpt lat="52.898165" lon="-3.384515"><ele>599</ele><time>2022-10-15T11:17:00Z</time><name>PT1738</name></trkpt>
<trkpt lat="52.898152" lon="-3.384465"><ele>600</ele><time>2022-10-15T11:17:04Z</time><name>PT1739</name></trkpt>
<trkpt lat="52.898132" lon="-3.384418"><ele>600</ele><time>2022-10-15T11:17:08Z</time><name>PT1740</name></trkpt>
<trkpt lat="52.898108" lon="-3.384384"><ele>600</ele><time>2022-10-15T11:17:12Z</time><name>PT1741</name></trkpt>
<trkpt lat="52.898090" lon="-3.384335"><ele>601</ele><time>2022-10-15T11:17:16Z</time><name>PT1742</name></trkpt>
<trkpt lat="52.898077" lon="-3.384288"><ele>601</ele><time>2022-10-15T11:17:20Z</time><name>PT1743</name></trkpt>
<trkpt lat="52.898068" lon="-3.384242"><ele>602</ele><time>2022-10-15T11:17:24Z</time><name>PT1744</name></trkpt>
<trkpt lat="52.898051" lon="-3.384198"><ele>602</ele><time>2022-10-15T11:17:28Z</time><name>PT1745</name></trkpt>
<trkpt lat="52.898041" lon="-3.384148"><ele>603</ele><time>2022-10-15T11:17:32Z</time><name>PT1746</name></trkpt>
<trkpt lat="52.898036" lon="-3.384108"><ele>603</ele><time>2022-10-15T11:17:36Z</time><name>PT1747</name></trkpt>
<trkpt lat="52.898041" lon="-3.384102"><ele>602</ele><time>2022-10-15T11:17:40Z</time><name>PT1748</name></trkpt>
<trkpt lat="52.898041" lon="-3.384084"><ele>603</ele><time>2022-10-15T11:17:52Z</time><name>PT1749</name></trkpt>
<trkpt lat="52.898035" lon="-3.383998"><ele>603</ele><time>2022-10-15T11:17:56Z</time><name>PT1750</name></trkpt>
<trkpt lat="52.898020" lon="-3.383945"><ele>603</ele><time>2022-10-15T11:18:00Z</time><name>PT1751</name></trkpt>
<trkpt lat="52.898002" lon="-3.383874"><ele>604</ele><time>2022-10-15T11:18:04Z</time><name>PT1752</name></trkpt>
<trkpt lat="52.898000" lon="-3.383827"><ele>604</ele><time>2022-10-15T11:18:08Z</time><name>PT1753</name></trkpt>
<trkpt lat="52.897996" lon="-3.383783"><ele>604</ele><time>2022-10-15T11:18:12Z</time><name>PT1754</name></trkpt>
<trkpt lat="52.897988" lon="-3.383733"><ele>604</ele><time>2022-10-15T11:18:16Z</time><name>PT1755</name></trkpt>
<trkpt lat="52.897981" lon="-3.383674"><ele>605</ele><time>2022-10-15T11:18:20Z</time><name>PT1756</name></trkpt>
<trkpt lat="52.897972" lon="-3.383609"><ele>606</ele><time>2022-10-15T11:18:24Z</time><name>PT1757</name></trkpt>
<trkpt lat="52.897958" lon="-3.383541"><ele>606</ele><time>2022-10-15T11:18:28Z</time><name>PT1758</name></trkpt>
<trkpt lat="52.897949" lon="-3.383502"><ele>606</ele><time>2022-10-15T11:18:31Z</time><name>PT1759</name></trkpt>
<trkpt lat="52.897938" lon="-3.383438"><ele>607</ele><time>2022-10-15T11:18:35Z</time><name>PT1760</name></trkpt>
<trkpt lat="52.897918" lon="-3.383381"><ele>608</ele><time>2022-10-15T11:18:39Z</time><name>PT1761</name></trkpt>
<trkpt lat="52.897900" lon="-3.383329"><ele>609</ele><time>2022-10-15T11:18:43Z</time><name>PT1762</name></trkpt>
<trkpt lat="52.897882" lon="-3.383275"><ele>609</ele><time>2022-10-15T11:18:47Z</time><name>PT1763</name></trkpt>
<trkpt lat="52.897867" lon="-3.383223"><ele>610</ele><time>2022-10-15T11:18:51Z</time><name>PT1764</name></trkpt>
<trkpt lat="52.897854" lon="-3.383174"><ele>611</ele><time>2022-10-15T11:18:55Z</time><name>PT1765</name></trkpt>
<trkpt lat="52.897842" lon="-3.383134"><ele>612</ele><time>2022-10-15T11:18:59Z</time><name>PT1766</name></trkpt>
<trkpt lat="52.897834" lon="-3.383083"><ele>613</ele><time>2022-10-15T11:19:03Z</time><name>PT1767</name></trkpt>
<trkpt lat="52.897839" lon="-3.383024"><ele>612</ele><time>2022-10-15T11:19:07Z</time><name>PT1768</name></trkpt>
<trkpt lat="52.897837" lon="-3.382972"><ele>612</ele><time>2022-10-15T11:19:11Z</time><name>PT1769</name></trkpt>
<trkpt lat="52.897850" lon="-3.382937"><ele>612</ele><time>2022-10-15T11:19:15Z</time><name>PT1770</name></trkpt>
<trkpt lat="52.897856" lon="-3.382923"><ele>611</ele><time>2022-10-15T11:19:19Z</time><name>PT1771</name></trkpt>
<trkpt lat="52.897871" lon="-3.382876"><ele>612</ele><time>2022-10-15T11:19:27Z</time><name>PT1772</name></trkpt>
<trkpt lat="52.897875" lon="-3.382833"><ele>612</ele><time>2022-10-15T11:19:30Z</time><name>PT1773</name></trkpt>
<trkpt lat="52.897877" lon="-3.382792"><ele>613</ele><time>2022-10-15T11:19:34Z</time><name>PT1774</name></trkpt>
<trkpt lat="52.897876" lon="-3.382731"><ele>613</ele><time>2022-10-15T11:19:38Z</time><name>PT1775</name></trkpt>
<trkpt lat="52.897876" lon="-3.382678"><ele>613</ele><time>2022-10-15T11:19:42Z</time><name>PT1776</name></trkpt>
<trkpt lat="52.897877" lon="-3.382644"><ele>613</ele><time>2022-10-15T11:19:46Z</time><name>PT1777</name></trkpt>
<trkpt lat="52.897879" lon="-3.382590"><ele>614</ele><time>2022-10-15T11:19:50Z</time><name>PT1778</name></trkpt>
<trkpt lat="52.897874" lon="-3.382532"><ele>614</ele><time>2022-10-15T11:19:54Z</time><name>PT1779</name></trkpt>
<trkpt lat="52.897871" lon="-3.382483"><ele>614</ele><time>2022-10-15T11:19:58Z</time><name>PT1780</name></trkpt>
<trkpt lat="52.897873" lon="-3.382434"><ele>614</ele><time>2022-10-15T11:20:02Z</time><name>PT1781</name></trkpt>
<trkpt lat="52.897889" lon="-3.382379"><ele>614</ele><time>2022-10-15T11:20:06Z</time><name>PT1782</name></trkpt>
<trkpt lat="52.897896" lon="-3.382337"><ele>614</ele><time>2022-10-15T11:20:10Z</time><name>PT1783</name></trkpt>
<trkpt lat="52.897893" lon="-3.382309"><ele>615</ele><time>2022-10-15T11:20:13Z</time><name>PT1784</name></trkpt>
<trkpt lat="52.897897" lon="-3.382302"><ele>615</ele><time>2022-10-15T11:20:17Z</time><name>PT1785</name></trkpt>
<trkpt lat="52.897899" lon="-3.382296"><ele>615</ele><time>2022-10-15T11:20:21Z</time><name>PT1786</name></trkpt>
<trkpt lat="52.897892" lon="-3.382234"><ele>615</ele><time>2022-10-15T11:20:25Z</time><name>PT1787</name></trkpt>
<trkpt lat="52.897887" lon="-3.382200"><ele>616</ele><time>2022-10-15T11:20:29Z</time><name>PT1788</name></trkpt>
<trkpt lat="52.897879" lon="-3.382139"><ele>616</ele><time>2022-10-15T11:20:33Z</time><name>PT1789</name></trkpt>
<trkpt lat="52.897871" lon="-3.382087"><ele>617</ele><time>2022-10-15T11:20:37Z</time><name>PT1790</name></trkpt>
<trkpt lat="52.897867" lon="-3.382041"><ele>617</ele><time>2022-10-15T11:20:41Z</time><name>PT1791</name></trkpt>
<trkpt lat="52.897863" lon="-3.381984"><ele>617</ele><time>2022-10-15T11:20:45Z</time><name>PT1792</name></trkpt>
<trkpt lat="52.897857" lon="-3.381940"><ele>616</ele><time>2022-10-15T11:20:49Z</time><name>PT1793</name></trkpt>
<trkpt lat="52.897859" lon="-3.381893"><ele>616</ele><time>2022-10-15T11:20:53Z</time><name>PT1794</name></trkpt>
<trkpt lat="52.897849" lon="-3.381844"><ele>617</ele><time>2022-10-15T11:20:57Z</time><name>PT1795</name></trkpt>
<trkpt lat="52.897849" lon="-3.381805"><ele>618</ele><time>2022-10-15T11:21:00Z</time><name>PT1796</name></trkpt>
<trkpt lat="52.897844" lon="-3.381752"><ele>619</ele><time>2022-10-15T11:21:04Z</time><name>PT1797</name></trkpt>
<trkpt lat="52.897846" lon="-3.381711"><ele>619</ele><time>2022-10-15T11:21:08Z</time><name>PT1798</name></trkpt>
<trkpt lat="52.897845" lon="-3.381669"><ele>619</ele><time>2022-10-15T11:21:12Z</time><name>PT1799</name></trkpt>
<trkpt lat="52.897848" lon="-3.381619"><ele>620</ele><time>2022-10-15T11:21:16Z</time><name>PT1800</name></trkpt>
<trkpt lat="52.897847" lon="-3.381565"><ele>621</ele><time>2022-10-15T11:21:20Z</time><name>PT1801</name></trkpt>
<trkpt lat="52.897843" lon="-3.381516"><ele>622</ele><time>2022-10-15T11:21:24Z</time><name>PT1802</name></trkpt>
<trkpt lat="52.897848" lon="-3.381488"><ele>621</ele><time>2022-10-15T11:21:28Z</time><name>PT1803</name></trkpt>
<trkpt lat="52.897848" lon="-3.381445"><ele>622</ele><time>2022-10-15T11:21:32Z</time><name>PT1804</name></trkpt>
<trkpt lat="52.897848" lon="-3.381399"><ele>623</ele><time>2022-10-15T11:21:36Z</time><name>PT1805</name></trkpt>
<trkpt lat="52.897846" lon="-3.381347"><ele>623</ele><time>2022-10-15T11:21:40Z</time><name>PT1806</name></trkpt>
<trkpt lat="52.897849" lon="-3.381300"><ele>624</ele><time>2022-10-15T11:21:44Z</time><name>PT1807</name></trkpt>
<trkpt lat="52.897854" lon="-3.381247"><ele>625</ele><time>2022-10-15T11:21:48Z</time><name>PT1808</name></trkpt>
<trkpt lat="52.897853" lon="-3.381191"><ele>624</ele><time>2022-10-15T11:21:52Z</time><name>PT1809</name></trkpt>
<trkpt lat="52.897847" lon="-3.381149"><ele>624</ele><time>2022-10-15T11:21:55Z</time><name>PT1810</name></trkpt>
<trkpt lat="52.897843" lon="-3.381131"><ele>624</ele><time>2022-10-15T11:21:59Z</time><name>PT1811</name></trkpt>
<trkpt lat="52.897857" lon="-3.381020"><ele>626</ele><time>2022-10-15T11:22:19Z</time><name>PT1812</name></trkpt>
<trkpt lat="52.897856" lon="-3.380943"><ele>625</ele><time>2022-10-15T11:22:23Z</time><name>PT1813</name></trkpt>
<trkpt lat="52.897847" lon="-3.380900"><ele>626</ele><time>2022-10-15T11:22:26Z</time><name>PT1814</name></trkpt>
<trkpt lat="52.897839" lon="-3.380853"><ele>627</ele><time>2022-10-15T11:22:29Z</time><name>PT1815</name></trkpt>
<trkpt lat="52.897834" lon="-3.380820"><ele>627</ele><time>2022-10-15T11:22:33Z</time><name>PT1816</name></trkpt>
<trkpt lat="52.897831" lon="-3.380789"><ele>627</ele><time>2022-10-15T11:22:37Z</time><name>PT1817</name></trkpt>
<trkpt lat="52.897819" lon="-3.380750"><ele>627</ele><time>2022-10-15T11:22:41Z</time><name>PT1818</name></trkpt>
<trkpt lat="52.897813" lon="-3.380691"><ele>628</ele><time>2022-10-15T11:22:45Z</time><name>PT1819</name></trkpt>
<trkpt lat="52.897810" lon="-3.380638"><ele>627</ele><time>2022-10-15T11:22:49Z</time><name>PT1820</name></trkpt>
<trkpt lat="52.897808" lon="-3.380577"><ele>628</ele><time>2022-10-15T11:22:53Z</time><name>PT1821</name></trkpt>
<trkpt lat="52.897809" lon="-3.380525"><ele>629</ele><time>2022-10-15T11:22:57Z</time><name>PT1822</name></trkpt>
<trkpt lat="52.897810" lon="-3.380470"><ele>629</ele><time>2022-10-15T11:23:01Z</time><name>PT1823</name></trkpt>
<trkpt lat="52.897818" lon="-3.380431"><ele>629</ele><time>2022-10-15T11:23:05Z</time><name>PT1824</name></trkpt>
<trkpt lat="52.897820" lon="-3.380391"><ele>629</ele><time>2022-10-15T11:23:09Z</time><name>PT1825</name></trkpt>
<trkpt lat="52.897823" lon="-3.380364"><ele>630</ele><time>2022-10-15T11:23:13Z</time><name>PT1826</name></trkpt>
<trkpt lat="52.897824" lon="-3.380357"><ele>630</ele><time>2022-10-15T11:23:17Z</time><name>PT1827</name></trkpt>
<trkpt lat="52.897826" lon="-3.380341"><ele>630</ele><time>2022-10-15T11:23:28Z</time><name>PT1828</name></trkpt>
<trkpt lat="52.897826" lon="-3.380265"><ele>630</ele><time>2022-10-15T11:23:31Z</time><name>PT1829</name></trkpt>
<trkpt lat="52.897815" lon="-3.380183"><ele>631</ele><time>2022-10-15T11:23:35Z</time><name>PT1830</name></trkpt>
<trkpt lat="52.897812" lon="-3.380139"><ele>631</ele><time>2022-10-15T11:23:39Z</time><name>PT1831</name></trkpt>
<trkpt lat="52.897817" lon="-3.380106"><ele>631</ele><time>2022-10-15T11:23:43Z</time><name>PT1832</name></trkpt>
<trkpt lat="52.897809" lon="-3.380059"><ele>633</ele><time>2022-10-15T11:23:47Z</time><name>PT1833</name></trkpt>
<trkpt lat="52.897806" lon="-3.380053"><ele>633</ele><time>2022-10-15T11:23:51Z</time><name>PT1834</name></trkpt>
<trkpt lat="52.897797" lon="-3.380021"><ele>633</ele><time>2022-10-15T11:23:55Z</time><name>PT1835</name></trkpt>
<trkpt lat="52.897796" lon="-3.379983"><ele>633</ele><time>2022-10-15T11:23:59Z</time><name>PT1836</name></trkpt>
<trkpt lat="52.897794" lon="-3.379953"><ele>633</ele><time>2022-10-15T11:24:03Z</time><name>PT1837</name></trkpt>
<trkpt lat="52.897791" lon="-3.379929"><ele>633</ele><time>2022-10-15T11:24:07Z</time><name>PT1838</name></trkpt>
<trkpt lat="52.897780" lon="-3.379892"><ele>634</ele><time>2022-10-15T11:24:11Z</time><name>PT1839</name></trkpt>
<trkpt lat="52.897773" lon="-3.379854"><ele>635</ele><time>2022-10-15T11:24:15Z</time><name>PT1840</name></trkpt>
<trkpt lat="52.897768" lon="-3.379822"><ele>635</ele><time>2022-10-15T11:24:19Z</time><name>PT1841</name></trkpt>
<trkpt lat="52.897757" lon="-3.379795"><ele>637</ele><time>2022-10-15T11:24:23Z</time><name>PT1842</name></trkpt>
<trkpt lat="52.897749" lon="-3.379754"><ele>637</ele><time>2022-10-15T11:24:27Z</time><name>PT1843</name></trkpt>
<trkpt lat="52.897741" lon="-3.379692"><ele>639</ele><time>2022-10-15T11:24:31Z</time><name>PT1844</name></trkpt>
<trkpt lat="52.897732" lon="-3.379659"><ele>641</ele><time>2022-10-15T11:24:35Z</time><name>PT1845</name></trkpt>
<trkpt lat="52.897729" lon="-3.379615"><ele>641</ele><time>2022-10-15T11:24:38Z</time><name>PT1846</name></trkpt>
<trkpt lat="52.897723" lon="-3.379564"><ele>641</ele><time>2022-10-15T11:24:42Z</time><name>PT1847</name></trkpt>
<trkpt lat="52.897720" lon="-3.379522"><ele>641</ele><time>2022-10-15T11:24:46Z</time><name>PT1848</name></trkpt>
<trkpt lat="52.897720" lon="-3.379482"><ele>642</ele><time>2022-10-15T11:24:50Z</time><name>PT1849</name></trkpt>
<trkpt lat="52.897723" lon="-3.379473"><ele>642</ele><time>2022-10-15T11:24:53Z</time><name>PT1850</name></trkpt>
<trkpt lat="52.897725" lon="-3.379472"><ele>643</ele><time>2022-10-15T11:24:57Z</time><name>PT1851</name></trkpt>
<trkpt lat="52.897723" lon="-3.379463"><ele>642</ele><time>2022-10-15T11:25:00Z</time><name>PT1852</name></trkpt>
<trkpt lat="52.897726" lon="-3.379434"><ele>643</ele><time>2022-10-15T11:25:07Z</time><name>PT1853</name></trkpt>
<trkpt lat="52.897723" lon="-3.379427"><ele>643</ele><time>2022-10-15T11:25:11Z</time><name>PT1854</name></trkpt>
<trkpt lat="52.897720" lon="-3.379406"><ele>643</ele><time>2022-10-15T11:25:15Z</time><name>PT1855</name></trkpt>
<trkpt lat="52.897720" lon="-3.379407"><ele>643</ele><time>2022-10-15T11:25:19Z</time><name>PT1856</name></trkpt>
<trkpt lat="52.897718" lon="-3.379401"><ele>643</ele><time>2022-10-15T11:25:27Z</time><name>PT1857</name></trkpt>
<trkpt lat="52.897717" lon="-3.379386"><ele>643</ele><time>2022-10-15T11:25:35Z</time><name>PT1858</name></trkpt>
<trkpt lat="52.897718" lon="-3.379335"><ele>644</ele><time>2022-10-15T11:25:39Z</time><name>PT1859</name></trkpt>
<trkpt lat="52.897711" lon="-3.379281"><ele>645</ele><time>2022-10-15T11:25:43Z</time><name>PT1860</name></trkpt>
<trkpt lat="52.897711" lon="-3.379227"><ele>646</ele><time>2022-10-15T11:25:47Z</time><name>PT1861</name></trkpt>
<trkpt lat="52.897704" lon="-3.379174"><ele>646</ele><time>2022-10-15T11:25:51Z</time><name>PT1862</name></trkpt>
<trkpt lat="52.897711" lon="-3.379150"><ele>646</ele><time>2022-10-15T11:25:55Z</time><name>PT1863</name></trkpt>
<trkpt lat="52.897718" lon="-3.379111"><ele>646</ele><time>2022-10-15T11:25:59Z</time><name>PT1864</name></trkpt>
<trkpt lat="52.897729" lon="-3.379060"><ele>647</ele><time>2022-10-15T11:26:03Z</time><name>PT1865</name></trkpt>
<trkpt lat="52.897725" lon="-3.379012"><ele>647</ele><time>2022-10-15T11:26:07Z</time><name>PT1866</name></trkpt>
<trkpt lat="52.897724" lon="-3.378968"><ele>647</ele><time>2022-10-15T11:26:11Z</time><name>PT1867</name></trkpt>
<trkpt lat="52.897723" lon="-3.378921"><ele>649</ele><time>2022-10-15T11:26:15Z</time><name>PT1868</name></trkpt>
<trkpt lat="52.897720" lon="-3.378886"><ele>649</ele><time>2022-10-15T11:26:18Z</time><name>PT1869</name></trkpt>
<trkpt lat="52.897717" lon="-3.378843"><ele>650</ele><time>2022-10-15T11:26:22Z</time><name>PT1870</name></trkpt>
<trkpt lat="52.897716" lon="-3.378794"><ele>650</ele><time>2022-10-15T11:26:26Z</time><name>PT1871</name></trkpt>
<trkpt lat="52.897708" lon="-3.378741"><ele>651</ele><time>2022-10-15T11:26:30Z</time><name>PT1872</name></trkpt>
<trkpt lat="52.897709" lon="-3.378701"><ele>650</ele><time>2022-10-15T11:26:34Z</time><name>PT1873</name></trkpt>
<trkpt lat="52.897712" lon="-3.378674"><ele>651</ele><time>2022-10-15T11:26:37Z</time><name>PT1874</name></trkpt>
<trkpt lat="52.897714" lon="-3.378643"><ele>651</ele><time>2022-10-15T11:26:41Z</time><name>PT1875</name></trkpt>
<trkpt lat="52.897719" lon="-3.378615"><ele>651</ele><time>2022-10-15T11:26:45Z</time><name>PT1876</name></trkpt>
<trkpt lat="52.897721" lon="-3.378578"><ele>651</ele><time>2022-10-15T11:26:49Z</time><name>PT1877</name></trkpt>
<trkpt lat="52.897721" lon="-3.378567"><ele>652</ele><time>2022-10-15T11:26:53Z</time><name>PT1878</name></trkpt>
<trkpt lat="52.897727" lon="-3.378556"><ele>652</ele><time>2022-10-15T11:26:57Z</time><name>PT1879</name></trkpt>
<trkpt lat="52.897729" lon="-3.378557"><ele>653</ele><time>2022-10-15T11:27:01Z</time><name>PT1880</name></trkpt>
<trkpt lat="52.897725" lon="-3.378536"><ele>653</ele><time>2022-10-15T11:27:21Z</time><name>PT1881</name></trkpt>
<trkpt lat="52.897712" lon="-3.378501"><ele>653</ele><time>2022-10-15T11:27:25Z</time><name>PT1882</name></trkpt>
<trkpt lat="52.897705" lon="-3.378464"><ele>655</ele><time>2022-10-15T11:27:29Z</time><name>PT1883</name></trkpt>
<trkpt lat="52.897696" lon="-3.378423"><ele>657</ele><time>2022-10-15T11:27:33Z</time><name>PT1884</name></trkpt>
<trkpt lat="52.897692" lon="-3.378384"><ele>657</ele><time>2022-10-15T11:27:37Z</time><name>PT1885</name></trkpt>
<trkpt lat="52.897692" lon="-3.378369"><ele>657</ele><time>2022-10-15T11:27:41Z</time><name>PT1886</name></trkpt>
<trkpt lat="52.897693" lon="-3.378362"><ele>658</ele><time>2022-10-15T11:27:45Z</time><name>PT1887</name></trkpt>
<trkpt lat="52.897692" lon="-3.378336"><ele>659</ele><time>2022-10-15T11:27:49Z</time><name>PT1888</name></trkpt>
<trkpt lat="52.897688" lon="-3.378311"><ele>659</ele><time>2022-10-15T11:27:53Z</time><name>PT1889</name></trkpt>
<trkpt lat="52.897684" lon="-3.378274"><ele>659</ele><time>2022-10-15T11:27:57Z</time><name>PT1890</name></trkpt>
<trkpt lat="52.897680" lon="-3.378255"><ele>660</ele><time>2022-10-15T11:28:01Z</time><name>PT1891</name></trkpt>
<trkpt lat="52.897665" lon="-3.378211"><ele>661</ele><time>2022-10-15T11:28:17Z</time><name>PT1892</name></trkpt>
<trkpt lat="52.897646" lon="-3.378151"><ele>662</ele><time>2022-10-15T11:28:29Z</time><name>PT1893</name></trkpt>
<trkpt lat="52.897615" lon="-3.378094"><ele>663</ele><time>2022-10-15T11:28:33Z</time><name>PT1894</name></trkpt>
<trkpt lat="52.897591" lon="-3.378048"><ele>664</ele><time>2022-10-15T11:28:37Z</time><name>PT1895</name></trkpt>
<trkpt lat="52.897564" lon="-3.378006"><ele>665</ele><time>2022-10-15T11:28:41Z</time><name>PT1896</name></trkpt>
<trkpt lat="52.897544" lon="-3.377963"><ele>666</ele><time>2022-10-15T11:28:45Z</time><name>PT1897</name></trkpt>
<trkpt lat="52.897518" lon="-3.377923"><ele>667</ele><time>2022-10-15T11:28:49Z</time><name>PT1898</name></trkpt>
<trkpt lat="52.897500" lon="-3.377879"><ele>669</ele><time>2022-10-15T11:28:53Z</time><name>PT1899</name></trkpt>
<trkpt lat="52.897479" lon="-3.377843"><ele>669</ele><time>2022-10-15T11:28:57Z</time><name>PT1900</name></trkpt>
<trkpt lat="52.897462" lon="-3.377808"><ele>669</ele><time>2022-10-15T11:29:01Z</time><name>PT1901</name></trkpt>
<trkpt lat="52.897445" lon="-3.377773"><ele>670</ele><time>2022-10-15T11:29:05Z</time><name>PT1902</name></trkpt>
<trkpt lat="52.897423" lon="-3.377735"><ele>671</ele><time>2022-10-15T11:29:09Z</time><name>PT1903</name></trkpt>
<trkpt lat="52.897401" lon="-3.377698"><ele>671</ele><time>2022-10-15T11:29:13Z</time><name>PT1904</name></trkpt>
<trkpt lat="52.897382" lon="-3.377661"><ele>672</ele><time>2022-10-15T11:29:17Z</time><name>PT1905</name></trkpt>
<trkpt lat="52.897356" lon="-3.377634"><ele>672</ele><time>2022-10-15T11:29:21Z</time><name>PT1906</name></trkpt>
<trkpt lat="52.897338" lon="-3.377600"><ele>673</ele><time>2022-10-15T11:29:25Z</time><name>PT1907</name></trkpt>
<trkpt lat="52.897324" lon="-3.377572"><ele>674</ele><time>2022-10-15T11:29:29Z</time><name>PT1908</name></trkpt>
<trkpt lat="52.897310" lon="-3.377551"><ele>674</ele><time>2022-10-15T11:29:32Z</time><name>PT1909</name></trkpt>
<trkpt lat="52.897290" lon="-3.377520"><ele>674</ele><time>2022-10-15T11:29:36Z</time><name>PT1910</name></trkpt>
<trkpt lat="52.897273" lon="-3.377493"><ele>676</ele><time>2022-10-15T11:29:40Z</time><name>PT1911</name></trkpt>
<trkpt lat="52.897253" lon="-3.377460"><ele>676</ele><time>2022-10-15T11:29:44Z</time><name>PT1912</name></trkpt>
<trkpt lat="52.897241" lon="-3.377445"><ele>676</ele><time>2022-10-15T11:29:47Z</time><name>PT1913</name></trkpt>
<trkpt lat="52.897224" lon="-3.377421"><ele>677</ele><time>2022-10-15T11:29:51Z</time><name>PT1914</name></trkpt>
<trkpt lat="52.897211" lon="-3.377399"><ele>677</ele><time>2022-10-15T11:29:55Z</time><name>PT1915</name></trkpt>
<trkpt lat="52.897209" lon="-3.377399"><ele>677</ele><time>2022-10-15T11:29:59Z</time><name>PT1916</name></trkpt>
<trkpt lat="52.897210" lon="-3.377394"><ele>677</ele><time>2022-10-15T11:30:07Z</time><name>PT1917</name></trkpt>
<trkpt lat="52.897209" lon="-3.377392"><ele>677</ele><time>2022-10-15T11:30:11Z</time><name>PT1918</name></trkpt>
<trkpt lat="52.897210" lon="-3.377391"><ele>677</ele><time>2022-10-15T11:30:31Z</time><name>PT1919</name></trkpt>
<trkpt lat="52.897210" lon="-3.377381"><ele>677</ele><time>2022-10-15T11:30:35Z</time><name>PT1920</name></trkpt>
<trkpt lat="52.897202" lon="-3.377390"><ele>678</ele><time>2022-10-15T11:30:39Z</time><name>PT1921</name></trkpt>
<trkpt lat="52.897203" lon="-3.377391"><ele>677</ele><time>2022-10-15T11:30:43Z</time><name>PT1922</name></trkpt>
<trkpt lat="52.897208" lon="-3.377391"><ele>678</ele><time>2022-10-15T11:30:55Z</time><name>PT1923</name></trkpt>
<trkpt lat="52.897211" lon="-3.377387"><ele>677</ele><time>2022-10-15T11:30:59Z</time><name>PT1924</name></trkpt>
<trkpt lat="52.897209" lon="-3.377372"><ele>677</ele><time>2022-10-15T11:31:03Z</time><name>PT1925</name></trkpt>
<trkpt lat="52.897210" lon="-3.377371"><ele>677</ele><time>2022-10-15T11:31:15Z</time><name>PT1926</name></trkpt>
<trkpt lat="52.897210" lon="-3.377371"><ele>677</ele><time>2022-10-15T11:31:19Z</time><name>PT1927</name></trkpt>
<trkpt lat="52.897205" lon="-3.377374"><ele>677</ele><time>2022-10-15T11:31:31Z</time><name>PT1928</name></trkpt>
<trkpt lat="52.897203" lon="-3.377359"><ele>676</ele><time>2022-10-15T11:31:35Z</time><name>PT1929</name></trkpt>
<trkpt lat="52.897202" lon="-3.377360"><ele>676</ele><time>2022-10-15T11:31:39Z</time><name>PT1930</name></trkpt>
<trkpt lat="52.897197" lon="-3.377357"><ele>676</ele><time>2022-10-15T11:32:15Z</time><name>PT1931</name></trkpt>
<trkpt lat="52.897195" lon="-3.377357"><ele>676</ele><time>2022-10-15T11:32:19Z</time><name>PT1932</name></trkpt>
<trkpt lat="52.897168" lon="-3.377335"><ele>677</ele><time>2022-10-15T11:33:24Z</time><name>PT1933</name></trkpt>
<trkpt lat="52.897141" lon="-3.377297"><ele>678</ele><time>2022-10-15T11:33:28Z</time><name>PT1934</name></trkpt>
<trkpt lat="52.897128" lon="-3.377260"><ele>678</ele><time>2022-10-15T11:33:32Z</time><name>PT1935</name></trkpt>
<trkpt lat="52.897105" lon="-3.377225"><ele>679</ele><time>2022-10-15T11:33:36Z</time><name>PT1936</name></trkpt>
<trkpt lat="52.897091" lon="-3.377189"><ele>679</ele><time>2022-10-15T11:33:40Z</time><name>PT1937</name></trkpt>
<trkpt lat="52.897078" lon="-3.377150"><ele>680</ele><time>2022-10-15T11:33:44Z</time><name>PT1938</name></trkpt>
<trkpt lat="52.897062" lon="-3.377096"><ele>681</ele><time>2022-10-15T11:33:48Z</time><name>PT1939</name></trkpt>
<trkpt lat="52.897047" lon="-3.377058"><ele>682</ele><time>2022-10-15T11:33:52Z</time><name>PT1940</name></trkpt>
<trkpt lat="52.897034" lon="-3.377019"><ele>683</ele><time>2022-10-15T11:33:56Z</time><name>PT1941</name></trkpt>
<trkpt lat="52.897015" lon="-3.376983"><ele>683</ele><time>2022-10-15T11:34:00Z</time><name>PT1942</name></trkpt>
<trkpt lat="52.896990" lon="-3.376950"><ele>684</ele><time>2022-10-15T11:34:04Z</time><name>PT1943</name></trkpt>
<trkpt lat="52.896983" lon="-3.376917"><ele>685</ele><time>2022-10-15T11:34:08Z</time><name>PT1944</name></trkpt>
<trkpt lat="52.896984" lon="-3.376903"><ele>684</ele><time>2022-10-15T11:34:12Z</time><name>PT1945</name></trkpt>
<trkpt lat="52.896974" lon="-3.376868"><ele>686</ele><time>2022-10-15T11:34:16Z</time><name>PT1946</name></trkpt>
<trkpt lat="52.896963" lon="-3.376841"><ele>686</ele><time>2022-10-15T11:34:20Z</time><name>PT1947</name></trkpt>
<trkpt lat="52.896960" lon="-3.376816"><ele>687</ele><time>2022-10-15T11:34:24Z</time><name>PT1948</name></trkpt>
<trkpt lat="52.896968" lon="-3.376779"><ele>687</ele><time>2022-10-15T11:34:28Z</time><name>PT1949</name></trkpt>
<trkpt lat="52.896968" lon="-3.376748"><ele>688</ele><time>2022-10-15T11:34:32Z</time><name>PT1950</name></trkpt>
<trkpt lat="52.896964" lon="-3.376726"><ele>688</ele><time>2022-10-15T11:34:36Z</time><name>PT1951</name></trkpt>
<trkpt lat="52.896963" lon="-3.376720"><ele>688</ele><time>2022-10-15T11:34:47Z</time><name>PT1952</name></trkpt>
<trkpt lat="52.896946" lon="-3.376700"><ele>688</ele><time>2022-10-15T11:34:51Z</time><name>PT1953</name></trkpt>
<trkpt lat="52.896941" lon="-3.376693"><ele>688</ele><time>2022-10-15T11:34:55Z</time><name>PT1954</name></trkpt>
<trkpt lat="52.896937" lon="-3.376670"><ele>689</ele><time>2022-10-15T11:34:59Z</time><name>PT1955</name></trkpt>
<trkpt lat="52.896927" lon="-3.376643"><ele>690</ele><time>2022-10-15T11:35:03Z</time><name>PT1956</name></trkpt>
<trkpt lat="52.896914" lon="-3.376606"><ele>691</ele><time>2022-10-15T11:35:07Z</time><name>PT1957</name></trkpt>
<trkpt lat="52.896920" lon="-3.376588"><ele>691</ele><time>2022-10-15T11:35:11Z</time><name>PT1958</name></trkpt>
<trkpt lat="52.896926" lon="-3.376607"><ele>691</ele><time>2022-10-15T11:35:15Z</time><name>PT1959</name></trkpt>
<trkpt lat="52.896925" lon="-3.376622"><ele>690</ele><time>2022-10-15T11:35:19Z</time><name>PT1960</name></trkpt>
<trkpt lat="52.896922" lon="-3.376620"><ele>690</ele><time>2022-10-15T11:35:23Z</time><name>PT1961</name></trkpt>
<trkpt lat="52.896909" lon="-3.376604"><ele>690</ele><time>2022-10-15T11:35:31Z</time><name>PT1962</name></trkpt>
<trkpt lat="52.896905" lon="-3.376593"><ele>691</ele><time>2022-10-15T11:35:35Z</time><name>PT1963</name></trkpt>
<trkpt lat="52.896893" lon="-3.376573"><ele>691</ele><time>2022-10-15T11:35:39Z</time><name>PT1964</name></trkpt>
<trkpt lat="52.896874" lon="-3.376537"><ele>692</ele><time>2022-10-15T11:35:43Z</time><name>PT1965</name></trkpt>
<trkpt lat="52.896860" lon="-3.376490"><ele>693</ele><time>2022-10-15T11:35:47Z</time><name>PT1966</name></trkpt>
<trkpt lat="52.896843" lon="-3.376458"><ele>693</ele><time>2022-10-15T11:35:51Z</time><name>PT1967</name></trkpt>
<trkpt lat="52.896829" lon="-3.376427"><ele>695</ele><time>2022-10-15T11:35:55Z</time><name>PT1968</name></trkpt>
<trkpt lat="52.896813" lon="-3.376389"><ele>696</ele><time>2022-10-15T11:35:59Z</time><name>PT1969</name></trkpt>
<trkpt lat="52.896795" lon="-3.376346"><ele>698</ele><time>2022-10-15T11:36:03Z</time><name>PT1970</name></trkpt>
<trkpt lat="52.896781" lon="-3.376310"><ele>698</ele><time>2022-10-15T11:36:07Z</time><name>PT1971</name></trkpt>
<trkpt lat="52.896763" lon="-3.376288"><ele>698</ele><time>2022-10-15T11:36:11Z</time><name>PT1972</name></trkpt>
<trkpt lat="52.896750" lon="-3.376270"><ele>698</ele><time>2022-10-15T11:36:15Z</time><name>PT1973</name></trkpt>
<trkpt lat="52.896738" lon="-3.376264"><ele>699</ele><time>2022-10-15T11:36:19Z</time><name>PT1974</name></trkpt>
<trkpt lat="52.896723" lon="-3.376235"><ele>699</ele><time>2022-10-15T11:36:23Z</time><name>PT1975</name></trkpt>
<trkpt lat="52.896705" lon="-3.376199"><ele>699</ele><time>2022-10-15T11:36:27Z</time><name>PT1976</name></trkpt>
<trkpt lat="52.896688" lon="-3.376168"><ele>700</ele><time>2022-10-15T11:36:31Z</time><name>PT1977</name></trkpt>
<trkpt lat="52.896678" lon="-3.376119"><ele>700</ele><time>2022-10-15T11:36:35Z</time><name>PT1978</name></trkpt>
<trkpt lat="52.896668" lon="-3.376085"><ele>700</ele><time>2022-10-15T11:36:39Z</time><name>PT1979</name></trkpt>
<trkpt lat="52.896651" lon="-3.376043"><ele>701</ele><time>2022-10-15T11:36:43Z</time><name>PT1980</name></trkpt>
<trkpt lat="52.896636" lon="-3.376007"><ele>702</ele><time>2022-10-15T11:36:47Z</time><name>PT1981</name></trkpt>
<trkpt lat="52.896619" lon="-3.375972"><ele>702</ele><time>2022-10-15T11:36:51Z</time><name>PT1982</name></trkpt>
<trkpt lat="52.896599" lon="-3.375953"><ele>703</ele><time>2022-10-15T11:36:55Z</time><name>PT1983</name></trkpt>
<trkpt lat="52.896584" lon="-3.375910"><ele>704</ele><time>2022-10-15T11:36:59Z</time><name>PT1984</name></trkpt>
<trkpt lat="52.896567" lon="-3.375872"><ele>705</ele><time>2022-10-15T11:37:03Z</time><name>PT1985</name></trkpt>
<trkpt lat="52.896546" lon="-3.375830"><ele>706</ele><time>2022-10-15T11:37:07Z</time><name>PT1986</name></trkpt>
<trkpt lat="52.896538" lon="-3.375790"><ele>706</ele><time>2022-10-15T11:37:11Z</time><name>PT1987</name></trkpt>
<trkpt lat="52.896529" lon="-3.375755"><ele>706</ele><time>2022-10-15T11:37:15Z</time><name>PT1988</name></trkpt>
<trkpt lat="52.896515" lon="-3.375715"><ele>706</ele><time>2022-10-15T11:37:19Z</time><name>PT1989</name></trkpt>
<trkpt lat="52.896504" lon="-3.375681"><ele>706</ele><time>2022-10-15T11:37:23Z</time><name>PT1990</name></trkpt>
<trkpt lat="52.896494" lon="-3.375639"><ele>706</ele><time>2022-10-15T11:37:27Z</time><name>PT1991</name></trkpt>
<trkpt lat="52.896481" lon="-3.375597"><ele>707</ele><time>2022-10-15T11:37:31Z</time><name>PT1992</name></trkpt>
<trkpt lat="52.896465" lon="-3.375562"><ele>707</ele><time>2022-10-15T11:37:35Z</time><name>PT1993</name></trkpt>
<trkpt lat="52.896451" lon="-3.375533"><ele>708</ele><time>2022-10-15T11:37:38Z</time><name>PT1994</name></trkpt>
<trkpt lat="52.896434" lon="-3.375492"><ele>708</ele><time>2022-10-15T11:37:42Z</time><name>PT1995</name></trkpt>
<trkpt lat="52.896429" lon="-3.375476"><ele>708</ele><time>2022-10-15T11:37:46Z</time><name>PT1996</name></trkpt>
<trkpt lat="52.896419" lon="-3.375473"><ele>708</ele><time>2022-10-15T11:37:54Z</time><name>PT1997</name></trkpt>
<trkpt lat="52.896410" lon="-3.375422"><ele>709</ele><time>2022-10-15T11:37:58Z</time><name>PT1998</name></trkpt>
<trkpt lat="52.896398" lon="-3.375368"><ele>709</ele><time>2022-10-15T11:38:02Z</time><name>PT1999</name></trkpt>
<trkpt lat="52.896390" lon="-3.375320"><ele>710</ele><time>2022-10-15T11:38:06Z</time><name>PT2000</name></trkpt>
<trkpt lat="52.896380" lon="-3.375263"><ele>712</ele><time>2022-10-15T11:38:10Z</time><name>PT2001</name></trkpt>
<trkpt lat="52.896372" lon="-3.375227"><ele>713</ele><time>2022-10-15T11:38:13Z</time><name>PT2002</name></trkpt>
<trkpt lat="52.896359" lon="-3.375182"><ele>714</ele><time>2022-10-15T11:38:17Z</time><name>PT2003</name></trkpt>
<trkpt lat="52.896355" lon="-3.375151"><ele>714</ele><time>2022-10-15T11:38:20Z</time><name>PT2004</name></trkpt>
<trkpt lat="52.896349" lon="-3.375080"><ele>715</ele><time>2022-10-15T11:38:24Z</time><name>PT2005</name></trkpt>
<trkpt lat="52.896359" lon="-3.375044"><ele>714</ele><time>2022-10-15T11:38:28Z</time><name>PT2006</name></trkpt>
<trkpt lat="52.896377" lon="-3.375035"><ele>714</ele><time>2022-10-15T11:38:32Z</time><name>PT2007</name></trkpt>
<trkpt lat="52.896383" lon="-3.375027"><ele>714</ele><time>2022-10-15T11:38:35Z</time><name>PT2008</name></trkpt>
<trkpt lat="52.896383" lon="-3.375024"><ele>714</ele><time>2022-10-15T11:38:39Z</time><name>PT2009</name></trkpt>
<trkpt lat="52.896383" lon="-3.375016"><ele>714</ele><time>2022-10-15T11:39:05Z</time><name>PT2010</name></trkpt>
<trkpt lat="52.896385" lon="-3.374990"><ele>715</ele><time>2022-10-15T11:39:08Z</time><name>PT2011</name></trkpt>
<trkpt lat="52.896387" lon="-3.374984"><ele>715</ele><time>2022-10-15T11:39:12Z</time><name>PT2012</name></trkpt>
<trkpt lat="52.896401" lon="-3.374973"><ele>715</ele><time>2022-10-15T11:39:15Z</time><name>PT2013</name></trkpt>
<trkpt lat="52.896427" lon="-3.374971"><ele>714</ele><time>2022-10-15T11:39:18Z</time><name>PT2014</name></trkpt>
<trkpt lat="52.896475" lon="-3.374956"><ele>713</ele><time>2022-10-15T11:39:22Z</time><name>PT2015</name></trkpt>
<trkpt lat="52.896524" lon="-3.374938"><ele>713</ele><time>2022-10-15T11:39:26Z</time><name>PT2016</name></trkpt>
<trkpt lat="52.896566" lon="-3.374930"><ele>712</ele><time>2022-10-15T11:39:30Z</time><name>PT2017</name></trkpt>
<trkpt lat="52.896601" lon="-3.374938"><ele>712</ele><time>2022-10-15T11:39:34Z</time><name>PT2018</name></trkpt>
<trkpt lat="52.896642" lon="-3.374931"><ele>712</ele><time>2022-10-15T11:39:38Z</time><name>PT2019</name></trkpt>
<trkpt lat="52.896678" lon="-3.374917"><ele>713</ele><time>2022-10-15T11:39:42Z</time><name>PT2020</name></trkpt>
<trkpt lat="52.896684" lon="-3.374897"><ele>714</ele><time>2022-10-15T11:39:45Z</time><name>PT2021</name></trkpt>
<trkpt lat="52.896714" lon="-3.374881"><ele>714</ele><time>2022-10-15T11:39:49Z</time><name>PT2022</name></trkpt>
<trkpt lat="52.896763" lon="-3.374863"><ele>714</ele><time>2022-10-15T11:39:53Z</time><name>PT2023</name></trkpt>
<trkpt lat="52.896814" lon="-3.374846"><ele>714</ele><time>2022-10-15T11:39:57Z</time><name>PT2024</name></trkpt>
<trkpt lat="52.896852" lon="-3.374837"><ele>714</ele><time>2022-10-15T11:40:00Z</time><name>PT2025</name></trkpt>
<trkpt lat="52.896899" lon="-3.374826"><ele>714</ele><time>2022-10-15T11:40:04Z</time><name>PT2026</name></trkpt>
<trkpt lat="52.896936" lon="-3.374812"><ele>714</ele><time>2022-10-15T11:40:07Z</time><name>PT2027</name></trkpt>
<trkpt lat="52.896988" lon="-3.374791"><ele>714</ele><time>2022-10-15T11:40:11Z</time><name>PT2028</name></trkpt>
<trkpt lat="52.897036" lon="-3.374773"><ele>714</ele><time>2022-10-15T11:40:15Z</time><name>PT2029</name></trkpt>
<trkpt lat="52.897073" lon="-3.374760"><ele>714</ele><time>2022-10-15T11:40:18Z</time><name>PT2030</name></trkpt>
<trkpt lat="52.897110" lon="-3.374747"><ele>714</ele><time>2022-10-15T11:40:21Z</time><name>PT2031</name></trkpt>
<trkpt lat="52.897159" lon="-3.374728"><ele>714</ele><time>2022-10-15T11:40:25Z</time><name>PT2032</name></trkpt>
<trkpt lat="52.897200" lon="-3.374712"><ele>714</ele><time>2022-10-15T11:40:28Z</time><name>PT2033</name></trkpt>
<trkpt lat="52.897235" lon="-3.374694"><ele>713</ele><time>2022-10-15T11:40:31Z</time><name>PT2034</name></trkpt>
<trkpt lat="52.897275" lon="-3.374691"><ele>713</ele><time>2022-10-15T11:40:34Z</time><name>PT2035</name></trkpt>
<trkpt lat="52.897311" lon="-3.374676"><ele>714</ele><time>2022-10-15T11:40:37Z</time><name>PT2036</name></trkpt>
<trkpt lat="52.897344" lon="-3.374662"><ele>714</ele><time>2022-10-15T11:40:40Z</time><name>PT2037</name></trkpt>
<trkpt lat="52.897394" lon="-3.374647"><ele>715</ele><time>2022-10-15T11:40:44Z</time><name>PT2038</name></trkpt>
<trkpt lat="52.897439" lon="-3.374628"><ele>716</ele><time>2022-10-15T11:40:48Z</time><name>PT2039</name></trkpt>
<trkpt lat="52.897488" lon="-3.374599"><ele>717</ele><time>2022-10-15T11:40:52Z</time><name>PT2040</name></trkpt>
<trkpt lat="52.897520" lon="-3.374576"><ele>717</ele><time>2022-10-15T11:40:55Z</time><name>PT2041</name></trkpt>
<trkpt lat="52.897566" lon="-3.374557"><ele>717</ele><time>2022-10-15T11:40:59Z</time><name>PT2042</name></trkpt>
<trkpt lat="52.897614" lon="-3.374541"><ele>717</ele><time>2022-10-15T11:41:03Z</time><name>PT2043</name></trkpt>
<trkpt lat="52.897656" lon="-3.374518"><ele>718</ele><time>2022-10-15T11:41:07Z</time><name>PT2044</name></trkpt>
<trkpt lat="52.897706" lon="-3.374498"><ele>718</ele><time>2022-10-15T11:41:11Z</time><name>PT2045</name></trkpt>
<trkpt lat="52.897749" lon="-3.374480"><ele>719</ele><time>2022-10-15T11:41:15Z</time><name>PT2046</name></trkpt>
<trkpt lat="52.897797" lon="-3.374473"><ele>718</ele><time>2022-10-15T11:41:19Z</time><name>PT2047</name></trkpt>
<trkpt lat="52.897842" lon="-3.374462"><ele>718</ele><time>2022-10-15T11:41:23Z</time><name>PT2048</name></trkpt>
<trkpt lat="52.897891" lon="-3.374443"><ele>719</ele><time>2022-10-15T11:41:27Z</time><name>PT2049</name></trkpt>
<trkpt lat="52.897935" lon="-3.374428"><ele>719</ele><time>2022-10-15T11:41:31Z</time><name>PT2050</name></trkpt>
<trkpt lat="52.897974" lon="-3.374413"><ele>719</ele><time>2022-10-15T11:41:34Z</time><name>PT2051</name></trkpt>
<trkpt lat="52.898018" lon="-3.374399"><ele>719</ele><time>2022-10-15T11:41:38Z</time><name>PT2052</name></trkpt>
<trkpt lat="52.898052" lon="-3.374392"><ele>720</ele><time>2022-10-15T11:41:41Z</time><name>PT2053</name></trkpt>
<trkpt lat="52.898100" lon="-3.374380"><ele>720</ele><time>2022-10-15T11:41:45Z</time><name>PT2054</name></trkpt>
<trkpt lat="52.898133" lon="-3.374370"><ele>720</ele><time>2022-10-15T11:41:48Z</time><name>PT2055</name></trkpt>
<trkpt lat="52.898177" lon="-3.374356"><ele>720</ele><time>2022-10-15T11:41:52Z</time><name>PT2056</name></trkpt>
<trkpt lat="52.898211" lon="-3.374346"><ele>721</ele><time>2022-10-15T11:41:55Z</time><name>PT2057</name></trkpt>
<trkpt lat="52.898260" lon="-3.374332"><ele>721</ele><time>2022-10-15T11:41:59Z</time><name>PT2058</name></trkpt>
<trkpt lat="52.898311" lon="-3.374313"><ele>722</ele><time>2022-10-15T11:42:03Z</time><name>PT2059</name></trkpt>
<trkpt lat="52.898350" lon="-3.374302"><ele>722</ele><time>2022-10-15T11:42:06Z</time><name>PT2060</name></trkpt>
<trkpt lat="52.898398" lon="-3.374290"><ele>722</ele><time>2022-10-15T11:42:10Z</time><name>PT2061</name></trkpt>
<trkpt lat="52.898435" lon="-3.374281"><ele>723</ele><time>2022-10-15T11:42:13Z</time><name>PT2062</name></trkpt>
<trkpt lat="52.898473" lon="-3.374273"><ele>723</ele><time>2022-10-15T11:42:16Z</time><name>PT2063</name></trkpt>
<trkpt lat="52.898529" lon="-3.374263"><ele>724</ele><time>2022-10-15T11:42:20Z</time><name>PT2064</name></trkpt>
<trkpt lat="52.898577" lon="-3.374246"><ele>725</ele><time>2022-10-15T11:42:24Z</time><name>PT2065</name></trkpt>
<trkpt lat="52.898626" lon="-3.374231"><ele>725</ele><time>2022-10-15T11:42:28Z</time><name>PT2066</name></trkpt>
<trkpt lat="52.898674" lon="-3.374220"><ele>725</ele><time>2022-10-15T11:42:32Z</time><name>PT2067</name></trkpt>
<trkpt lat="52.898714" lon="-3.374208"><ele>726</ele><time>2022-10-15T11:42:35Z</time><name>PT2068</name></trkpt>
<trkpt lat="52.898768" lon="-3.374196"><ele>726</ele><time>2022-10-15T11:42:39Z</time><name>PT2069</name></trkpt>
<trkpt lat="52.898819" lon="-3.374184"><ele>726</ele><time>2022-10-15T11:42:43Z</time><name>PT2070</name></trkpt>
<trkpt lat="52.898866" lon="-3.374165"><ele>727</ele><time>2022-10-15T11:42:47Z</time><name>PT2071</name></trkpt>
<trkpt lat="52.898903" lon="-3.374153"><ele>727</ele><time>2022-10-15T11:42:50Z</time><name>PT2072</name></trkpt>
<trkpt lat="52.898950" lon="-3.374141"><ele>727</ele><time>2022-10-15T11:42:54Z</time><name>PT2073</name></trkpt>
<trkpt lat="52.898985" lon="-3.374133"><ele>727</ele><time>2022-10-15T11:42:57Z</time><name>PT2074</name></trkpt>
<trkpt lat="52.899020" lon="-3.374122"><ele>728</ele><time>2022-10-15T11:43:00Z</time><name>PT2075</name></trkpt>
<trkpt lat="52.899058" lon="-3.374106"><ele>729</ele><time>2022-10-15T11:43:03Z</time><name>PT2076</name></trkpt>
<trkpt lat="52.899108" lon="-3.374086"><ele>730</ele><time>2022-10-15T11:43:07Z</time><name>PT2077</name></trkpt>
<trkpt lat="52.899157" lon="-3.374072"><ele>730</ele><time>2022-10-15T11:43:11Z</time><name>PT2078</name></trkpt>
<trkpt lat="52.899204" lon="-3.374054"><ele>731</ele><time>2022-10-15T11:43:15Z</time><name>PT2079</name></trkpt>
<trkpt lat="52.899242" lon="-3.374037"><ele>732</ele><time>2022-10-15T11:43:18Z</time><name>PT2080</name></trkpt>
<trkpt lat="52.899284" lon="-3.374017"><ele>732</ele><time>2022-10-15T11:43:22Z</time><name>PT2081</name></trkpt>
<trkpt lat="52.899326" lon="-3.374004"><ele>733</ele><time>2022-10-15T11:43:26Z</time><name>PT2082</name></trkpt>
<trkpt lat="52.899359" lon="-3.373999"><ele>734</ele><time>2022-10-15T11:43:30Z</time><name>PT2083</name></trkpt>
<trkpt lat="52.899381" lon="-3.373990"><ele>734</ele><time>2022-10-15T11:43:33Z</time><name>PT2084</name></trkpt>
<trkpt lat="52.899408" lon="-3.373986"><ele>735</ele><time>2022-10-15T11:43:37Z</time><name>PT2085</name></trkpt>
<trkpt lat="52.899427" lon="-3.373986"><ele>736</ele><time>2022-10-15T11:43:40Z</time><name>PT2086</name></trkpt>
<trkpt lat="52.899455" lon="-3.373966"><ele>737</ele><time>2022-10-15T11:43:44Z</time><name>PT2087</name></trkpt>
<trkpt lat="52.899479" lon="-3.373958"><ele>739</ele><time>2022-10-15T11:43:48Z</time><name>PT2088</name></trkpt>
<trkpt lat="52.899501" lon="-3.373953"><ele>738</ele><time>2022-10-15T11:43:51Z</time><name>PT2089</name></trkpt>
<trkpt lat="52.899527" lon="-3.373939"><ele>738</ele><time>2022-10-15T11:43:55Z</time><name>PT2090</name></trkpt>
<trkpt lat="52.899543" lon="-3.373930"><ele>739</ele><time>2022-10-15T11:43:58Z</time><name>PT2091</name></trkpt>
<trkpt lat="52.899563" lon="-3.373921"><ele>739</ele><time>2022-10-15T11:44:02Z</time><name>PT2092</name></trkpt>
<trkpt lat="52.899587" lon="-3.373904"><ele>740</ele><time>2022-10-15T11:44:06Z</time><name>PT2093</name></trkpt>
<trkpt lat="52.899608" lon="-3.373885"><ele>741</ele><time>2022-10-15T11:44:10Z</time><name>PT2094</name></trkpt>
<trkpt lat="52.899629" lon="-3.373870"><ele>741</ele><time>2022-10-15T11:44:14Z</time><name>PT2095</name></trkpt>
<trkpt lat="52.899637" lon="-3.373855"><ele>742</ele><time>2022-10-15T11:44:18Z</time><name>PT2096</name></trkpt>
<trkpt lat="52.899659" lon="-3.373828"><ele>743</ele><time>2022-10-15T11:44:25Z</time><name>PT2097</name></trkpt>
<trkpt lat="52.899695" lon="-3.373804"><ele>744</ele><time>2022-10-15T11:44:29Z</time><name>PT2098</name></trkpt>
<trkpt lat="52.899721" lon="-3.373776"><ele>745</ele><time>2022-10-15T11:44:33Z</time><name>PT2099</name></trkpt>
<trkpt lat="52.899748" lon="-3.373746"><ele>747</ele><time>2022-10-15T11:44:37Z</time><name>PT2100</name></trkpt>
<trkpt lat="52.899776" lon="-3.373743"><ele>747</ele><time>2022-10-15T11:44:41Z</time><name>PT2101</name></trkpt>
<trkpt lat="52.899797" lon="-3.373738"><ele>749</ele><time>2022-10-15T11:44:45Z</time><name>PT2102</name></trkpt>
<trkpt lat="52.899826" lon="-3.373724"><ele>751</ele><time>2022-10-15T11:44:49Z</time><name>PT2103</name></trkpt>
<trkpt lat="52.899861" lon="-3.373705"><ele>752</ele><time>2022-10-15T11:44:53Z</time><name>PT2104</name></trkpt>
<trkpt lat="52.899897" lon="-3.373682"><ele>752</ele><time>2022-10-15T11:44:57Z</time><name>PT2105</name></trkpt>
<trkpt lat="52.899931" lon="-3.373677"><ele>754</ele><time>2022-10-15T11:45:01Z</time><name>PT2106</name></trkpt>
<trkpt lat="52.899960" lon="-3.373651"><ele>754</ele><time>2022-10-15T11:45:05Z</time><name>PT2107</name></trkpt>
<trkpt lat="52.899988" lon="-3.373631"><ele>756</ele><time>2022-10-15T11:45:09Z</time><name>PT2108</name></trkpt>
<trkpt lat="52.900013" lon="-3.373621"><ele>758</ele><time>2022-10-15T11:45:13Z</time><name>PT2109</name></trkpt>
<trkpt lat="52.900042" lon="-3.373606"><ele>759</ele><time>2022-10-15T11:45:17Z</time><name>PT2110</name></trkpt>
<trkpt lat="52.900063" lon="-3.373595"><ele>760</ele><time>2022-10-15T11:45:20Z</time><name>PT2111</name></trkpt>
<trkpt lat="52.900085" lon="-3.373586"><ele>761</ele><time>2022-10-15T11:45:23Z</time><name>PT2112</name></trkpt>
<trkpt lat="52.900116" lon="-3.373571"><ele>762</ele><time>2022-10-15T11:45:27Z</time><name>PT2113</name></trkpt>
<trkpt lat="52.900138" lon="-3.373562"><ele>763</ele><time>2022-10-15T11:45:30Z</time><name>PT2114</name></trkpt>
<trkpt lat="52.900171" lon="-3.373549"><ele>764</ele><time>2022-10-15T11:45:34Z</time><name>PT2115</name></trkpt>
<trkpt lat="52.900200" lon="-3.373542"><ele>765</ele><time>2022-10-15T11:45:37Z</time><name>PT2116</name></trkpt>
<trkpt lat="52.900238" lon="-3.373531"><ele>766</ele><time>2022-10-15T11:45:41Z</time><name>PT2117</name></trkpt>
<trkpt lat="52.900275" lon="-3.373525"><ele>767</ele><time>2022-10-15T11:45:45Z</time><name>PT2118</name></trkpt>
<trkpt lat="52.900310" lon="-3.373499"><ele>767</ele><time>2022-10-15T11:45:49Z</time><name>PT2119</name></trkpt>
<trkpt lat="52.900344" lon="-3.373479"><ele>769</ele><time>2022-10-15T11:45:53Z</time><name>PT2120</name></trkpt>
<trkpt lat="52.900376" lon="-3.373461"><ele>769</ele><time>2022-10-15T11:45:57Z</time><name>PT2121</name></trkpt>
<trkpt lat="52.900400" lon="-3.373451"><ele>770</ele><time>2022-10-15T11:46:00Z</time><name>PT2122</name></trkpt>
<trkpt lat="52.900436" lon="-3.373446"><ele>771</ele><time>2022-10-15T11:46:04Z</time><name>PT2123</name></trkpt>
<trkpt lat="52.900459" lon="-3.373445"><ele>772</ele><time>2022-10-15T11:46:07Z</time><name>PT2124</name></trkpt>
<trkpt lat="52.900479" lon="-3.373439"><ele>773</ele><time>2022-10-15T11:46:10Z</time><name>PT2125</name></trkpt>
<trkpt lat="52.900504" lon="-3.373440"><ele>774</ele><time>2022-10-15T11:46:14Z</time><name>PT2126</name></trkpt>
<trkpt lat="52.900526" lon="-3.373440"><ele>775</ele><time>2022-10-15T11:46:18Z</time><name>PT2127</name></trkpt>
<trkpt lat="52.900551" lon="-3.373413"><ele>776</ele><time>2022-10-15T11:46:22Z</time><name>PT2128</name></trkpt>
<trkpt lat="52.900577" lon="-3.373391"><ele>776</ele><time>2022-10-15T11:46:26Z</time><name>PT2129</name></trkpt>
<trkpt lat="52.900595" lon="-3.373381"><ele>777</ele><time>2022-10-15T11:46:29Z</time><name>PT2130</name></trkpt>
<trkpt lat="52.900624" lon="-3.373382"><ele>777</ele><time>2022-10-15T11:46:33Z</time><name>PT2131</name></trkpt>
<trkpt lat="52.900651" lon="-3.373374"><ele>777</ele><time>2022-10-15T11:46:37Z</time><name>PT2132</name></trkpt>
<trkpt lat="52.900689" lon="-3.373367"><ele>777</ele><time>2022-10-15T11:46:41Z</time><name>PT2133</name></trkpt>
<trkpt lat="52.900730" lon="-3.373372"><ele>778</ele><time>2022-10-15T11:46:45Z</time><name>PT2134</name></trkpt>
<trkpt lat="52.900760" lon="-3.373373"><ele>779</ele><time>2022-10-15T11:46:48Z</time><name>PT2135</name></trkpt>
<trkpt lat="52.900795" lon="-3.373376"><ele>779</ele><time>2022-10-15T11:46:51Z</time><name>PT2136</name></trkpt>
<trkpt lat="52.900838" lon="-3.373372"><ele>780</ele><time>2022-10-15T11:46:55Z</time><name>PT2137</name></trkpt>
<trkpt lat="52.900887" lon="-3.373352"><ele>781</ele><time>2022-10-15T11:46:59Z</time><name>PT2138</name></trkpt>
<trkpt lat="52.900938" lon="-3.373316"><ele>781</ele><time>2022-10-15T11:47:03Z</time><name>PT2139</name></trkpt>
<trkpt lat="52.900988" lon="-3.373289"><ele>782</ele><time>2022-10-15T11:47:07Z</time><name>PT2140</name></trkpt>
<trkpt lat="52.901025" lon="-3.373244"><ele>782</ele><time>2022-10-15T11:47:11Z</time><name>PT2141</name></trkpt>
<trkpt lat="52.901057" lon="-3.373195"><ele>783</ele><time>2022-10-15T11:47:15Z</time><name>PT2142</name></trkpt>
<trkpt lat="52.901089" lon="-3.373182"><ele>783</ele><time>2022-10-15T11:47:18Z</time><name>PT2143</name></trkpt>
<trkpt lat="52.901128" lon="-3.373159"><ele>783</ele><time>2022-10-15T11:47:22Z</time><name>PT2144</name></trkpt>
<trkpt lat="52.901141" lon="-3.373140"><ele>783</ele><time>2022-10-15T11:47:25Z</time><name>PT2145</name></trkpt>
<trkpt lat="52.901150" lon="-3.373122"><ele>783</ele><time>2022-10-15T11:47:29Z</time><name>PT2146</name></trkpt>
<trkpt lat="52.901175" lon="-3.373107"><ele>783</ele><time>2022-10-15T11:47:32Z</time><name>PT2147</name></trkpt>
<trkpt lat="52.901216" lon="-3.373106"><ele>784</ele><time>2022-10-15T11:47:36Z</time><name>PT2148</name></trkpt>
<trkpt lat="52.901250" lon="-3.373109"><ele>785</ele><time>2022-10-15T11:47:39Z</time><name>PT2149</name></trkpt>
<trkpt lat="52.901280" lon="-3.373110"><ele>785</ele><time>2022-10-15T11:47:42Z</time><name>PT2150</name></trkpt>
<trkpt lat="52.901314" lon="-3.373100"><ele>785</ele><time>2022-10-15T11:47:45Z</time><name>PT2151</name></trkpt>
<trkpt lat="52.901352" lon="-3.373064"><ele>785</ele><time>2022-10-15T11:47:49Z</time><name>PT2152</name></trkpt>
<trkpt lat="52.901384" lon="-3.373028"><ele>785</ele><time>2022-10-15T11:47:53Z</time><name>PT2153</name></trkpt>
<trkpt lat="52.901409" lon="-3.372995"><ele>786</ele><time>2022-10-15T11:47:57Z</time><name>PT2154</name></trkpt>
<trkpt lat="52.901426" lon="-3.372957"><ele>787</ele><time>2022-10-15T11:48:01Z</time><name>PT2155</name></trkpt>
<trkpt lat="52.901430" lon="-3.372951"><ele>788</ele><time>2022-10-15T11:48:05Z</time><name>PT2156</name></trkpt>
<trkpt lat="52.901436" lon="-3.372964"><ele>787</ele><time>2022-10-15T11:48:09Z</time><name>PT2157</name></trkpt>
<trkpt lat="52.901431" lon="-3.372938"><ele>788</ele><time>2022-10-15T11:48:13Z</time><name>PT2158</name></trkpt>
<trkpt lat="52.901432" lon="-3.372937"><ele>788</ele><time>2022-10-15T11:48:17Z</time><name>PT2159</name></trkpt>
<trkpt lat="52.901443" lon="-3.372935"><ele>788</ele><time>2022-10-15T11:48:27Z</time><name>PT2160</name></trkpt>
<trkpt lat="52.901471" lon="-3.372932"><ele>788</ele><time>2022-10-15T11:48:31Z</time><name>PT2161</name></trkpt>
<trkpt lat="52.901472" lon="-3.372932"><ele>788</ele><time>2022-10-15T11:48:35Z</time><name>PT2162</name></trkpt>
<trkpt lat="52.901442" lon="-3.372914"><ele>788</ele><time>2022-10-15T11:48:39Z</time><name>PT2163</name></trkpt>
<trkpt lat="52.901438" lon="-3.372853"><ele>788</ele><time>2022-10-15T11:48:43Z</time><name>PT2164</name></trkpt>
<trkpt lat="52.901441" lon="-3.372859"><ele>789</ele><time>2022-10-15T11:48:47Z</time><name>PT2165</name></trkpt>
<trkpt lat="52.901439" lon="-3.372856"><ele>789</ele><time>2022-10-15T11:48:51Z</time><name>PT2166</name></trkpt>
<trkpt lat="52.901437" lon="-3.372860"><ele>789</ele><time>2022-10-15T11:49:23Z</time><name>PT2167</name></trkpt>
<trkpt lat="52.901438" lon="-3.372872"><ele>790</ele><time>2022-10-15T11:49:27Z</time><name>PT2168</name></trkpt>
<trkpt lat="52.901435" lon="-3.372874"><ele>789</ele><time>2022-10-15T11:49:31Z</time><name>PT2169</name></trkpt>
<trkpt lat="52.901430" lon="-3.372873"><ele>789</ele><time>2022-10-15T11:50:37Z</time><name>PT2170</name></trkpt>
<trkpt lat="52.901427" lon="-3.372877"><ele>789</ele><time>2022-10-15T11:50:41Z</time><name>PT2171</name></trkpt>
<trkpt lat="52.901428" lon="-3.372878"><ele>789</ele><time>2022-10-15T11:50:44Z</time><name>PT2172</name></trkpt>
<trkpt lat="52.901421" lon="-3.372876"><ele>790</ele><time>2022-10-15T11:50:54Z</time><name>PT2173</name></trkpt>
<trkpt lat="52.901419" lon="-3.372876"><ele>790</ele><time>2022-10-15T11:50:57Z</time><name>PT2174</name></trkpt>
<trkpt lat="52.901418" lon="-3.372876"><ele>790</ele><time>2022-10-15T11:51:01Z</time><name>PT2175</name></trkpt>
<trkpt lat="52.901418" lon="-3.372883"><ele>790</ele><time>2022-10-15T11:51:04Z</time><name>PT2176</name></trkpt>
<trkpt lat="52.901415" lon="-3.372890"><ele>790</ele><time>2022-10-15T11:51:07Z</time><name>PT2177</name></trkpt>
<trkpt lat="52.901416" lon="-3.372895"><ele>790</ele><time>2022-10-15T11:51:11Z</time><name>PT2178</name></trkpt>
<trkpt lat="52.901416" lon="-3.372898"><ele>790</ele><time>2022-10-15T11:51:18Z</time><name>PT2179</name></trkpt>
<trkpt lat="52.901415" lon="-3.372920"><ele>790</ele><time>2022-10-15T11:51:21Z</time><name>PT2180</name></trkpt>
<trkpt lat="52.901413" lon="-3.372930"><ele>789</ele><time>2022-10-15T11:51:24Z</time><name>PT2181</name></trkpt>
<trkpt lat="52.901414" lon="-3.372929"><ele>789</ele><time>2022-10-15T11:51:44Z</time><name>PT2182</name></trkpt>
<trkpt lat="52.901416" lon="-3.372928"><ele>789</ele><time>2022-10-15T11:51:48Z</time><name>PT2183</name></trkpt>
<trkpt lat="52.901418" lon="-3.372927"><ele>789</ele><time>2022-10-15T11:51:55Z</time><name>PT2184</name></trkpt>
<trkpt lat="52.901430" lon="-3.372927"><ele>789</ele><time>2022-10-15T11:51:58Z</time><name>PT2185</name></trkpt>
<trkpt lat="52.901433" lon="-3.372931"><ele>789</ele><time>2022-10-15T11:52:01Z</time><name>PT2186</name></trkpt>
<trkpt lat="52.901431" lon="-3.372933"><ele>789</ele><time>2022-10-15T11:52:05Z</time><name>PT2187</name></trkpt>
<trkpt lat="52.901436" lon="-3.372949"><ele>789</ele><time>2022-10-15T11:52:28Z</time><name>PT2188</name></trkpt>
<trkpt lat="52.901436" lon="-3.372945"><ele>789</ele><time>2022-10-15T11:52:32Z</time><name>PT2189</name></trkpt>
<trkpt lat="52.901445" lon="-3.372949"><ele>788</ele><time>2022-10-15T11:53:13Z</time><name>PT2190</name></trkpt>
<trkpt lat="52.901461" lon="-3.372957"><ele>789</ele><time>2022-10-15T11:53:16Z</time><name>PT2191</name></trkpt>
<trkpt lat="52.901464" lon="-3.372961"><ele>788</ele><time>2022-10-15T11:53:19Z</time><name>PT2192</name></trkpt>
<trkpt lat="52.901463" lon="-3.372958"><ele>788</ele><time>2022-10-15T11:53:23Z</time><name>PT2193</name></trkpt>
<trkpt lat="52.901469" lon="-3.372961"><ele>788</ele><time>2022-10-15T11:53:26Z</time><name>PT2194</name></trkpt>
<trkpt lat="52.901471" lon="-3.372961"><ele>788</ele><time>2022-10-15T11:53:29Z</time><name>PT2195</name></trkpt>
<trkpt lat="52.901468" lon="-3.372903"><ele>788</ele><time>2022-10-15T11:54:02Z</time><name>PT2196</name></trkpt>
<trkpt lat="52.901463" lon="-3.372852"><ele>787</ele><time>2022-10-15T11:54:05Z</time><name>PT2197</name></trkpt>
<trkpt lat="52.901459" lon="-3.372821"><ele>787</ele><time>2022-10-15T11:54:09Z</time><name>PT2198</name></trkpt>
<trkpt lat="52.901453" lon="-3.372770"><ele>786</ele><time>2022-10-15T11:54:13Z</time><name>PT2199</name></trkpt>
<trkpt lat="52.901452" lon="-3.372715"><ele>785</ele><time>2022-10-15T11:54:16Z</time><name>PT2200</name></trkpt>
<trkpt lat="52.901459" lon="-3.372654"><ele>785</ele><time>2022-10-15T11:54:19Z</time><name>PT2201</name></trkpt>
<trkpt lat="52.901467" lon="-3.372601"><ele>785</ele><time>2022-10-15T11:54:22Z</time><name>PT2202</name></trkpt>
<trkpt lat="52.901486" lon="-3.372527"><ele>784</ele><time>2022-10-15T11:54:26Z</time><name>PT2203</name></trkpt>
<trkpt lat="52.901495" lon="-3.372463"><ele>785</ele><time>2022-10-15T11:54:29Z</time><name>PT2204</name></trkpt>
<trkpt lat="52.901503" lon="-3.372427"><ele>786</ele><time>2022-10-15T11:54:32Z</time><name>PT2205</name></trkpt>
<trkpt lat="52.901523" lon="-3.372359"><ele>786</ele><time>2022-10-15T11:54:36Z</time><name>PT2206</name></trkpt>
<trkpt lat="52.901544" lon="-3.372314"><ele>786</ele><time>2022-10-15T11:54:39Z</time><name>PT2207</name></trkpt>
<trkpt lat="52.901561" lon="-3.372263"><ele>785</ele><time>2022-10-15T11:54:42Z</time><name>PT2208</name></trkpt>
<trkpt lat="52.901576" lon="-3.372208"><ele>785</ele><time>2022-10-15T11:54:45Z</time><name>PT2209</name></trkpt>
<trkpt lat="52.901600" lon="-3.372150"><ele>784</ele><time>2022-10-15T11:54:49Z</time><name>PT2210</name></trkpt>
<trkpt lat="52.901623" lon="-3.372118"><ele>783</ele><time>2022-10-15T11:54:52Z</time><name>PT2211</name></trkpt>
<trkpt lat="52.901639" lon="-3.372073"><ele>783</ele><time>2022-10-15T11:54:55Z</time><name>PT2212</name></trkpt>
<trkpt lat="52.901656" lon="-3.372016"><ele>782</ele><time>2022-10-15T11:54:59Z</time><name>PT2213</name></trkpt>
<trkpt lat="52.901665" lon="-3.371958"><ele>781</ele><time>2022-10-15T11:55:03Z</time><name>PT2214</name></trkpt>
<trkpt lat="52.901674" lon="-3.371890"><ele>781</ele><time>2022-10-15T11:55:07Z</time><name>PT2215</name></trkpt>
<trkpt lat="52.901678" lon="-3.371828"><ele>780</ele><time>2022-10-15T11:55:11Z</time><name>PT2216</name></trkpt>
<trkpt lat="52.901689" lon="-3.371779"><ele>779</ele><time>2022-10-15T11:55:14Z</time><name>PT2217</name></trkpt>
<trkpt lat="52.901701" lon="-3.371704"><ele>779</ele><time>2022-10-15T11:55:18Z</time><name>PT2218</name></trkpt>
<trkpt lat="52.901710" lon="-3.371644"><ele>780</ele><time>2022-10-15T11:55:21Z</time><name>PT2219</name></trkpt>
<trkpt lat="52.901717" lon="-3.371595"><ele>780</ele><time>2022-10-15T11:55:24Z</time><name>PT2220</name></trkpt>
<trkpt lat="52.901731" lon="-3.371522"><ele>779</ele><time>2022-10-15T11:55:28Z</time><name>PT2221</name></trkpt>
<trkpt lat="52.901745" lon="-3.371471"><ele>779</ele><time>2022-10-15T11:55:31Z</time><name>PT2222</name></trkpt>
<trkpt lat="52.901760" lon="-3.371430"><ele>778</ele><time>2022-10-15T11:55:34Z</time><name>PT2223</name></trkpt>
<trkpt lat="52.901779" lon="-3.371363"><ele>777</ele><time>2022-10-15T11:55:38Z</time><name>PT2224</name></trkpt>
<trkpt lat="52.901798" lon="-3.371299"><ele>777</ele><time>2022-10-15T11:55:42Z</time><name>PT2225</name></trkpt>
<trkpt lat="52.901810" lon="-3.371251"><ele>777</ele><time>2022-10-15T11:55:45Z</time><name>PT2226</name></trkpt>
<trkpt lat="52.901826" lon="-3.371202"><ele>776</ele><time>2022-10-15T11:55:48Z</time><name>PT2227</name></trkpt>
<trkpt lat="52.901843" lon="-3.371139"><ele>776</ele><time>2022-10-15T11:55:52Z</time><name>PT2228</name></trkpt>
<trkpt lat="52.901861" lon="-3.371099"><ele>775</ele><time>2022-10-15T11:55:55Z</time><name>PT2229</name></trkpt>
<trkpt lat="52.901883" lon="-3.371042"><ele>774</ele><time>2022-10-15T11:55:59Z</time><name>PT2230</name></trkpt>
<trkpt lat="52.901899" lon="-3.371005"><ele>774</ele><time>2022-10-15T11:56:02Z</time><name>PT2231</name></trkpt>
<trkpt lat="52.901915" lon="-3.370962"><ele>773</ele><time>2022-10-15T11:56:05Z</time><name>PT2232</name></trkpt>
<trkpt lat="52.901938" lon="-3.370905"><ele>772</ele><time>2022-10-15T11:56:09Z</time><name>PT2233</name></trkpt>
<trkpt lat="52.901955" lon="-3.370862"><ele>772</ele><time>2022-10-15T11:56:12Z</time><name>PT2234</name></trkpt>
<trkpt lat="52.901975" lon="-3.370812"><ele>771</ele><time>2022-10-15T11:56:16Z</time><name>PT2235</name></trkpt>
<trkpt lat="52.901991" lon="-3.370773"><ele>770</ele><time>2022-10-15T11:56:19Z</time><name>PT2236</name></trkpt>
<trkpt lat="52.902014" lon="-3.370722"><ele>770</ele><time>2022-10-15T11:56:23Z</time><name>PT2237</name></trkpt>
<trkpt lat="52.902037" lon="-3.370677"><ele>769</ele><time>2022-10-15T11:56:27Z</time><name>PT2238</name></trkpt>
<trkpt lat="52.902055" lon="-3.370650"><ele>769</ele><time>2022-10-15T11:56:30Z</time><name>PT2239</name></trkpt>
<trkpt lat="52.902071" lon="-3.370616"><ele>769</ele><time>2022-10-15T11:56:33Z</time><name>PT2240</name></trkpt>
<trkpt lat="52.902088" lon="-3.370575"><ele>768</ele><time>2022-10-15T11:56:36Z</time><name>PT2241</name></trkpt>
<trkpt lat="52.902111" lon="-3.370521"><ele>767</ele><time>2022-10-15T11:56:40Z</time><name>PT2242</name></trkpt>
<trkpt lat="52.902131" lon="-3.370482"><ele>766</ele><time>2022-10-15T11:56:43Z</time><name>PT2243</name></trkpt>
<trkpt lat="52.902148" lon="-3.370440"><ele>766</ele><time>2022-10-15T11:56:46Z</time><name>PT2244</name></trkpt>
<trkpt lat="52.902164" lon="-3.370380"><ele>765</ele><time>2022-10-15T11:56:50Z</time><name>PT2245</name></trkpt>
<trkpt lat="52.902179" lon="-3.370329"><ele>764</ele><time>2022-10-15T11:56:53Z</time><name>PT2246</name></trkpt>
<trkpt lat="52.902204" lon="-3.370280"><ele>762</ele><time>2022-10-15T11:56:57Z</time><name>PT2247</name></trkpt>
<trkpt lat="52.902213" lon="-3.370234"><ele>761</ele><time>2022-10-15T11:57:00Z</time><name>PT2248</name></trkpt>
<trkpt lat="52.902230" lon="-3.370189"><ele>761</ele><time>2022-10-15T11:57:03Z</time><name>PT2249</name></trkpt>
<trkpt lat="52.902247" lon="-3.370151"><ele>760</ele><time>2022-10-15T11:57:06Z</time><name>PT2250</name></trkpt>
<trkpt lat="52.902262" lon="-3.370112"><ele>759</ele><time>2022-10-15T11:57:09Z</time><name>PT2251</name></trkpt>
<trkpt lat="52.902282" lon="-3.370048"><ele>758</ele><time>2022-10-15T11:57:13Z</time><name>PT2252</name></trkpt>
<trkpt lat="52.902296" lon="-3.369984"><ele>757</ele><time>2022-10-15T11:57:17Z</time><name>PT2253</name></trkpt>
<trkpt lat="52.902305" lon="-3.369919"><ele>756</ele><time>2022-10-15T11:57:21Z</time><name>PT2254</name></trkpt>
<trkpt lat="52.902315" lon="-3.369869"><ele>756</ele><time>2022-10-15T11:57:24Z</time><name>PT2255</name></trkpt>
<trkpt lat="52.902322" lon="-3.369792"><ele>756</ele><time>2022-10-15T11:57:28Z</time><name>PT2256</name></trkpt>
<trkpt lat="52.902334" lon="-3.369749"><ele>755</ele><time>2022-10-15T11:57:31Z</time><name>PT2257</name></trkpt>
<trkpt lat="52.902360" lon="-3.369672"><ele>756</ele><time>2022-10-15T11:57:35Z</time><name>PT2258</name></trkpt>
<trkpt lat="52.902378" lon="-3.369638"><ele>756</ele><time>2022-10-15T11:57:38Z</time><name>PT2259</name></trkpt>
<trkpt lat="52.902386" lon="-3.369577"><ele>755</ele><time>2022-10-15T11:57:42Z</time><name>PT2260</name></trkpt>
<trkpt lat="52.902393" lon="-3.369530"><ele>755</ele><time>2022-10-15T11:57:45Z</time><name>PT2261</name></trkpt>
<trkpt lat="52.902412" lon="-3.369486"><ele>754</ele><time>2022-10-15T11:57:49Z</time><name>PT2262</name></trkpt>
<trkpt lat="52.902432" lon="-3.369440"><ele>753</ele><time>2022-10-15T11:57:53Z</time><name>PT2263</name></trkpt>
<trkpt lat="52.902442" lon="-3.369401"><ele>752</ele><time>2022-10-15T11:57:56Z</time><name>PT2264</name></trkpt>
<trkpt lat="52.902449" lon="-3.369334"><ele>751</ele><time>2022-10-15T11:58:00Z</time><name>PT2265</name></trkpt>
<trkpt lat="52.902470" lon="-3.369298"><ele>750</ele><time>2022-10-15T11:58:03Z</time><name>PT2266</name></trkpt>
<trkpt lat="52.902494" lon="-3.369270"><ele>749</ele><time>2022-10-15T11:58:06Z</time><name>PT2267</name></trkpt>
<trkpt lat="52.902511" lon="-3.369213"><ele>748</ele><time>2022-10-15T11:58:10Z</time><name>PT2268</name></trkpt>
<trkpt lat="52.902514" lon="-3.369170"><ele>746</ele><time>2022-10-15T11:58:13Z</time><name>PT2269</name></trkpt>
<trkpt lat="52.902526" lon="-3.369100"><ele>744</ele><time>2022-10-15T11:58:17Z</time><name>PT2270</name></trkpt>
<trkpt lat="52.902538" lon="-3.369039"><ele>742</ele><time>2022-10-15T11:58:21Z</time><name>PT2271</name></trkpt>
<trkpt lat="52.902548" lon="-3.368996"><ele>741</ele><time>2022-10-15T11:58:24Z</time><name>PT2272</name></trkpt>
<trkpt lat="52.902558" lon="-3.368938"><ele>740</ele><time>2022-10-15T11:58:28Z</time><name>PT2273</name></trkpt>
<trkpt lat="52.902570" lon="-3.368880"><ele>739</ele><time>2022-10-15T11:58:32Z</time><name>PT2274</name></trkpt>
<trkpt lat="52.902580" lon="-3.368842"><ele>738</ele><time>2022-10-15T11:58:35Z</time><name>PT2275</name></trkpt>
<trkpt lat="52.902588" lon="-3.368797"><ele>738</ele><time>2022-10-15T11:58:38Z</time><name>PT2276</name></trkpt>
<trkpt lat="52.902602" lon="-3.368759"><ele>737</ele><time>2022-10-15T11:58:41Z</time><name>PT2277</name></trkpt>
<trkpt lat="52.902625" lon="-3.368704"><ele>735</ele><time>2022-10-15T11:58:45Z</time><name>PT2278</name></trkpt>
<trkpt lat="52.902651" lon="-3.368651"><ele>734</ele><time>2022-10-15T11:58:49Z</time><name>PT2279</name></trkpt>
<trkpt lat="52.902655" lon="-3.368593"><ele>733</ele><time>2022-10-15T11:58:53Z</time><name>PT2280</name></trkpt>
<trkpt lat="52.902671" lon="-3.368542"><ele>733</ele><time>2022-10-15T11:58:57Z</time><name>PT2281</name></trkpt>
<trkpt lat="52.902679" lon="-3.368504"><ele>733</ele><time>2022-10-15T11:59:00Z</time><name>PT2282</name></trkpt>
<trkpt lat="52.902696" lon="-3.368449"><ele>732</ele><time>2022-10-15T11:59:04Z</time><name>PT2283</name></trkpt>
<trkpt lat="52.902713" lon="-3.368380"><ele>731</ele><time>2022-10-15T11:59:08Z</time><name>PT2284</name></trkpt>
<trkpt lat="52.902724" lon="-3.368320"><ele>729</ele><time>2022-10-15T11:59:12Z</time><name>PT2285</name></trkpt>
<trkpt lat="52.902734" lon="-3.368255"><ele>729</ele><time>2022-10-15T11:59:16Z</time><name>PT2286</name></trkpt>
<trkpt lat="52.902744" lon="-3.368206"><ele>728</ele><time>2022-10-15T11:59:19Z</time><name>PT2287</name></trkpt>
<trkpt lat="52.902750" lon="-3.368160"><ele>728</ele><time>2022-10-15T11:59:22Z</time><name>PT2288</name></trkpt>
<trkpt lat="52.902767" lon="-3.368090"><ele>727</ele><time>2022-10-15T11:59:26Z</time><name>PT2289</name></trkpt>
<trkpt lat="52.902774" lon="-3.368036"><ele>726</ele><time>2022-10-15T11:59:29Z</time><name>PT2290</name></trkpt>
<trkpt lat="52.902784" lon="-3.367980"><ele>727</ele><time>2022-10-15T11:59:32Z</time><name>PT2291</name></trkpt>
<trkpt lat="52.902793" lon="-3.367911"><ele>726</ele><time>2022-10-15T11:59:36Z</time><name>PT2292</name></trkpt>
<trkpt lat="52.902805" lon="-3.367853"><ele>726</ele><time>2022-10-15T11:59:39Z</time><name>PT2293</name></trkpt>
<trkpt lat="52.902814" lon="-3.367801"><ele>725</ele><time>2022-10-15T11:59:42Z</time><name>PT2294</name></trkpt>
<trkpt lat="52.902821" lon="-3.367742"><ele>726</ele><time>2022-10-15T11:59:45Z</time><name>PT2295</name></trkpt>
<trkpt lat="52.902830" lon="-3.367688"><ele>725</ele><time>2022-10-15T11:59:48Z</time><name>PT2296</name></trkpt>
<trkpt lat="52.902846" lon="-3.367619"><ele>724</ele><time>2022-10-15T11:59:52Z</time><name>PT2297</name></trkpt>
<trkpt lat="52.902858" lon="-3.367546"><ele>724</ele><time>2022-10-15T11:59:56Z</time><name>PT2298</name></trkpt>
<trkpt lat="52.902871" lon="-3.367483"><ele>723</ele><time>2022-10-15T12:00:00Z</time><name>PT2299</name></trkpt>
<trkpt lat="52.902888" lon="-3.367414"><ele>722</ele><time>2022-10-15T12:00:04Z</time><name>PT2300</name></trkpt>
<trkpt lat="52.902896" lon="-3.367364"><ele>722</ele><time>2022-10-15T12:00:07Z</time><name>PT2301</name></trkpt>
<trkpt lat="52.902911" lon="-3.367298"><ele>721</ele><time>2022-10-15T12:00:11Z</time><name>PT2302</name></trkpt>
<trkpt lat="52.902917" lon="-3.367246"><ele>721</ele><time>2022-10-15T12:00:14Z</time><name>PT2303</name></trkpt>
<trkpt lat="52.902931" lon="-3.367181"><ele>720</ele><time>2022-10-15T12:00:18Z</time><name>PT2304</name></trkpt>
<trkpt lat="52.902940" lon="-3.367132"><ele>719</ele><time>2022-10-15T12:00:21Z</time><name>PT2305</name></trkpt>
<trkpt lat="52.902946" lon="-3.367089"><ele>718</ele><time>2022-10-15T12:00:24Z</time><name>PT2306</name></trkpt>
<trkpt lat="52.902954" lon="-3.367034"><ele>716</ele><time>2022-10-15T12:00:28Z</time><name>PT2307</name></trkpt>
<trkpt lat="52.902961" lon="-3.366962"><ele>715</ele><time>2022-10-15T12:00:32Z</time><name>PT2308</name></trkpt>
<trkpt lat="52.902973" lon="-3.366919"><ele>715</ele><time>2022-10-15T12:00:35Z</time><name>PT2309</name></trkpt>
<trkpt lat="52.902991" lon="-3.366877"><ele>714</ele><time>2022-10-15T12:00:38Z</time><name>PT2310</name></trkpt>
<trkpt lat="52.903008" lon="-3.366821"><ele>713</ele><time>2022-10-15T12:00:42Z</time><name>PT2311</name></trkpt>
<trkpt lat="52.903016" lon="-3.366764"><ele>712</ele><time>2022-10-15T12:00:46Z</time><name>PT2312</name></trkpt>
<trkpt lat="52.903024" lon="-3.366723"><ele>712</ele><time>2022-10-15T12:00:49Z</time><name>PT2313</name></trkpt>
<trkpt lat="52.903031" lon="-3.366662"><ele>711</ele><time>2022-10-15T12:00:53Z</time><name>PT2314</name></trkpt>
<trkpt lat="52.903041" lon="-3.366603"><ele>709</ele><time>2022-10-15T12:00:57Z</time><name>PT2315</name></trkpt>
<trkpt lat="52.903043" lon="-3.366540"><ele>708</ele><time>2022-10-15T12:01:01Z</time><name>PT2316</name></trkpt>
<trkpt lat="52.903054" lon="-3.366504"><ele>707</ele><time>2022-10-15T12:01:04Z</time><name>PT2317</name></trkpt>
<trkpt lat="52.903073" lon="-3.366470"><ele>706</ele><time>2022-10-15T12:01:07Z</time><name>PT2318</name></trkpt>
<trkpt lat="52.903072" lon="-3.366413"><ele>705</ele><time>2022-10-15T12:01:10Z</time><name>PT2319</name></trkpt>
<trkpt lat="52.903079" lon="-3.366340"><ele>704</ele><time>2022-10-15T12:01:14Z</time><name>PT2320</name></trkpt>
<trkpt lat="52.903082" lon="-3.366284"><ele>704</ele><time>2022-10-15T12:01:18Z</time><name>PT2321</name></trkpt>
<trkpt lat="52.903094" lon="-3.366230"><ele>703</ele><time>2022-10-15T12:01:22Z</time><name>PT2322</name></trkpt>
<trkpt lat="52.903101" lon="-3.366181"><ele>704</ele><time>2022-10-15T12:01:25Z</time><name>PT2323</name></trkpt>
<trkpt lat="52.903117" lon="-3.366115"><ele>703</ele><time>2022-10-15T12:01:29Z</time><name>PT2324</name></trkpt>
<trkpt lat="52.903121" lon="-3.366073"><ele>703</ele><time>2022-10-15T12:01:32Z</time><name>PT2325</name></trkpt>
<trkpt lat="52.903127" lon="-3.366030"><ele>702</ele><time>2022-10-15T12:01:35Z</time><name>PT2326</name></trkpt>
<trkpt lat="52.903143" lon="-3.366002"><ele>701</ele><time>2022-10-15T12:01:38Z</time><name>PT2327</name></trkpt>
<trkpt lat="52.903154" lon="-3.365942"><ele>701</ele><time>2022-10-15T12:01:42Z</time><name>PT2328</name></trkpt>
<trkpt lat="52.903165" lon="-3.365902"><ele>700</ele><time>2022-10-15T12:01:45Z</time><name>PT2329</name></trkpt>
<trkpt lat="52.903175" lon="-3.365857"><ele>699</ele><time>2022-10-15T12:01:48Z</time><name>PT2330</name></trkpt>
<trkpt lat="52.903191" lon="-3.365803"><ele>697</ele><time>2022-10-15T12:01:52Z</time><name>PT2331</name></trkpt>
<trkpt lat="52.903217" lon="-3.365756"><ele>696</ele><time>2022-10-15T12:01:56Z</time><name>PT2332</name></trkpt>
<trkpt lat="52.903227" lon="-3.365722"><ele>695</ele><time>2022-10-15T12:01:59Z</time><name>PT2333</name></trkpt>
<trkpt lat="52.903234" lon="-3.365686"><ele>694</ele><time>2022-10-15T12:02:02Z</time><name>PT2334</name></trkpt>
<trkpt lat="52.903247" lon="-3.365648"><ele>693</ele><time>2022-10-15T12:02:05Z</time><name>PT2335</name></trkpt>
<trkpt lat="52.903267" lon="-3.365595"><ele>693</ele><time>2022-10-15T12:02:09Z</time><name>PT2336</name></trkpt>
<trkpt lat="52.903286" lon="-3.365533"><ele>691</ele><time>2022-10-15T12:02:13Z</time><name>PT2337</name></trkpt>
<trkpt lat="52.903301" lon="-3.365479"><ele>690</ele><time>2022-10-15T12:02:17Z</time><name>PT2338</name></trkpt>
<trkpt lat="52.903328" lon="-3.365444"><ele>690</ele><time>2022-10-15T12:02:21Z</time><name>PT2339</name></trkpt>
<trkpt lat="52.903352" lon="-3.365369"><ele>689</ele><time>2022-10-15T12:02:25Z</time><name>PT2340</name></trkpt>
<trkpt lat="52.903366" lon="-3.365300"><ele>688</ele><time>2022-10-15T12:02:29Z</time><name>PT2341</name></trkpt>
<trkpt lat="52.903388" lon="-3.365233"><ele>688</ele><time>2022-10-15T12:02:33Z</time><name>PT2342</name></trkpt>
<trkpt lat="52.903400" lon="-3.365150"><ele>688</ele><time>2022-10-15T12:02:37Z</time><name>PT2343</name></trkpt>
<trkpt lat="52.903406" lon="-3.365100"><ele>687</ele><time>2022-10-15T12:02:40Z</time><name>PT2344</name></trkpt>
<trkpt lat="52.903419" lon="-3.365046"><ele>687</ele><time>2022-10-15T12:02:43Z</time><name>PT2345</name></trkpt>
<trkpt lat="52.903427" lon="-3.364968"><ele>687</ele><time>2022-10-15T12:02:47Z</time><name>PT2346</name></trkpt>
<trkpt lat="52.903433" lon="-3.364887"><ele>687</ele><time>2022-10-15T12:02:51Z</time><name>PT2347</name></trkpt>
<trkpt lat="52.903436" lon="-3.364828"><ele>687</ele><time>2022-10-15T12:02:54Z</time><name>PT2348</name></trkpt>
<trkpt lat="52.903425" lon="-3.364777"><ele>687</ele><time>2022-10-15T12:02:57Z</time><name>PT2349</name></trkpt>
<trkpt lat="52.903439" lon="-3.364701"><ele>687</ele><time>2022-10-15T12:03:01Z</time><name>PT2350</name></trkpt>
<trkpt lat="52.903447" lon="-3.364650"><ele>687</ele><time>2022-10-15T12:03:04Z</time><name>PT2351</name></trkpt>
<trkpt lat="52.903465" lon="-3.364586"><ele>688</ele><time>2022-10-15T12:03:08Z</time><name>PT2352</name></trkpt>
<trkpt lat="52.903469" lon="-3.364536"><ele>687</ele><time>2022-10-15T12:03:11Z</time><name>PT2353</name></trkpt>
<trkpt lat="52.903493" lon="-3.364490"><ele>686</ele><time>2022-10-15T12:03:15Z</time><name>PT2354</name></trkpt>
<trkpt lat="52.903517" lon="-3.364438"><ele>687</ele><time>2022-10-15T12:03:18Z</time><name>PT2355</name></trkpt>
<trkpt lat="52.903528" lon="-3.364374"><ele>686</ele><time>2022-10-15T12:03:22Z</time><name>PT2356</name></trkpt>
<trkpt lat="52.903545" lon="-3.364307"><ele>686</ele><time>2022-10-15T12:03:26Z</time><name>PT2357</name></trkpt>
<trkpt lat="52.903556" lon="-3.364259"><ele>686</ele><time>2022-10-15T12:03:29Z</time><name>PT2358</name></trkpt>
<trkpt lat="52.903566" lon="-3.364211"><ele>685</ele><time>2022-10-15T12:03:32Z</time><name>PT2359</name></trkpt>
<trkpt lat="52.903587" lon="-3.364159"><ele>684</ele><time>2022-10-15T12:03:36Z</time><name>PT2360</name></trkpt>
<trkpt lat="52.903612" lon="-3.364137"><ele>684</ele><time>2022-10-15T12:03:39Z</time><name>PT2361</name></trkpt>
<trkpt lat="52.903640" lon="-3.364103"><ele>685</ele><time>2022-10-15T12:03:42Z</time><name>PT2362</name></trkpt>
<trkpt lat="52.903647" lon="-3.364066"><ele>684</ele><time>2022-10-15T12:03:45Z</time><name>PT2363</name></trkpt>
<trkpt lat="52.903635" lon="-3.363983"><ele>686</ele><time>2022-10-15T12:03:49Z</time><name>PT2364</name></trkpt>
<trkpt lat="52.903646" lon="-3.363929"><ele>686</ele><time>2022-10-15T12:03:52Z</time><name>PT2365</name></trkpt>
<trkpt lat="52.903650" lon="-3.363868"><ele>686</ele><time>2022-10-15T12:03:55Z</time><name>PT2366</name></trkpt>
<trkpt lat="52.903655" lon="-3.363805"><ele>686</ele><time>2022-10-15T12:03:59Z</time><name>PT2367</name></trkpt>
<trkpt lat="52.903660" lon="-3.363737"><ele>686</ele><time>2022-10-15T12:04:03Z</time><name>PT2368</name></trkpt>
<trkpt lat="52.903666" lon="-3.363673"><ele>686</ele><time>2022-10-15T12:04:07Z</time><name>PT2369</name></trkpt>
<trkpt lat="52.903667" lon="-3.363619"><ele>686</ele><time>2022-10-15T12:04:10Z</time><name>PT2370</name></trkpt>
<trkpt lat="52.903689" lon="-3.363575"><ele>687</ele><time>2022-10-15T12:04:13Z</time><name>PT2371</name></trkpt>
<trkpt lat="52.903708" lon="-3.363521"><ele>686</ele><time>2022-10-15T12:04:17Z</time><name>PT2372</name></trkpt>
<trkpt lat="52.903719" lon="-3.363496"><ele>686</ele><time>2022-10-15T12:04:20Z</time><name>PT2373</name></trkpt>
<trkpt lat="52.903738" lon="-3.363473"><ele>686</ele><time>2022-10-15T12:04:23Z</time><name>PT2374</name></trkpt>
<trkpt lat="52.903754" lon="-3.363473"><ele>687</ele><time>2022-10-15T12:04:26Z</time><name>PT2375</name></trkpt>
<trkpt lat="52.903757" lon="-3.363469"><ele>687</ele><time>2022-10-15T12:04:30Z</time><name>PT2376</name></trkpt>
<trkpt lat="52.903767" lon="-3.363460"><ele>687</ele><time>2022-10-15T12:04:34Z</time><name>PT2377</name></trkpt>
<trkpt lat="52.903786" lon="-3.363446"><ele>687</ele><time>2022-10-15T12:04:38Z</time><name>PT2378</name></trkpt>
<trkpt lat="52.903815" lon="-3.363448"><ele>687</ele><time>2022-10-15T12:04:42Z</time><name>PT2379</name></trkpt>
<trkpt lat="52.903838" lon="-3.363438"><ele>687</ele><time>2022-10-15T12:04:45Z</time><name>PT2380</name></trkpt>
<trkpt lat="52.903876" lon="-3.363439"><ele>687</ele><time>2022-10-15T12:04:49Z</time><name>PT2381</name></trkpt>
<trkpt lat="52.903909" lon="-3.363406"><ele>687</ele><time>2022-10-15T12:04:53Z</time><name>PT2382</name></trkpt>
<trkpt lat="52.903927" lon="-3.363374"><ele>686</ele><time>2022-10-15T12:04:57Z</time><name>PT2383</name></trkpt>
<trkpt lat="52.903931" lon="-3.363331"><ele>686</ele><time>2022-10-15T12:05:00Z</time><name>PT2384</name></trkpt>
<trkpt lat="52.903936" lon="-3.363268"><ele>685</ele><time>2022-10-15T12:05:04Z</time><name>PT2385</name></trkpt>
<trkpt lat="52.903955" lon="-3.363246"><ele>685</ele><time>2022-10-15T12:05:07Z</time><name>PT2386</name></trkpt>
<trkpt lat="52.903983" lon="-3.363236"><ele>685</ele><time>2022-10-15T12:05:10Z</time><name>PT2387</name></trkpt>
<trkpt lat="52.904011" lon="-3.363196"><ele>685</ele><time>2022-10-15T12:05:14Z</time><name>PT2388</name></trkpt>
<trkpt lat="52.904035" lon="-3.363168"><ele>685</ele><time>2022-10-15T12:05:17Z</time><name>PT2389</name></trkpt>
<trkpt lat="52.904061" lon="-3.363136"><ele>685</ele><time>2022-10-15T12:05:20Z</time><name>PT2390</name></trkpt>
<trkpt lat="52.904077" lon="-3.363077"><ele>685</ele><time>2022-10-15T12:05:24Z</time><name>PT2391</name></trkpt>
<trkpt lat="52.904106" lon="-3.363025"><ele>686</ele><time>2022-10-15T12:05:28Z</time><name>PT2392</name></trkpt>
<trkpt lat="52.904126" lon="-3.362980"><ele>686</ele><time>2022-10-15T12:05:31Z</time><name>PT2393</name></trkpt>
<trkpt lat="52.904149" lon="-3.362937"><ele>686</ele><time>2022-10-15T12:05:34Z</time><name>PT2394</name></trkpt>
<trkpt lat="52.904167" lon="-3.362873"><ele>686</ele><time>2022-10-15T12:05:38Z</time><name>PT2395</name></trkpt>
<trkpt lat="52.904189" lon="-3.362813"><ele>685</ele><time>2022-10-15T12:05:42Z</time><name>PT2396</name></trkpt>
<trkpt lat="52.904208" lon="-3.362777"><ele>685</ele><time>2022-10-15T12:05:45Z</time><name>PT2397</name></trkpt>
<trkpt lat="52.904230" lon="-3.362733"><ele>686</ele><time>2022-10-15T12:05:48Z</time><name>PT2398</name></trkpt>
<trkpt lat="52.904259" lon="-3.362683"><ele>685</ele><time>2022-10-15T12:05:52Z</time><name>PT2399</name></trkpt>
<trkpt lat="52.904284" lon="-3.362637"><ele>685</ele><time>2022-10-15T12:05:56Z</time><name>PT2400</name></trkpt>
<trkpt lat="52.904292" lon="-3.362581"><ele>686</ele><time>2022-10-15T12:06:00Z</time><name>PT2401</name></trkpt>
<trkpt lat="52.904318" lon="-3.362539"><ele>685</ele><time>2022-10-15T12:06:04Z</time><name>PT2402</name></trkpt>
<trkpt lat="52.904333" lon="-3.362496"><ele>685</ele><time>2022-10-15T12:06:07Z</time><name>PT2403</name></trkpt>
<trkpt lat="52.904349" lon="-3.362457"><ele>685</ele><time>2022-10-15T12:06:10Z</time><name>PT2404</name></trkpt>
<trkpt lat="52.904366" lon="-3.362400"><ele>686</ele><time>2022-10-15T12:06:14Z</time><name>PT2405</name></trkpt>
<trkpt lat="52.904374" lon="-3.362357"><ele>686</ele><time>2022-10-15T12:06:17Z</time><name>PT2406</name></trkpt>
<trkpt lat="52.904383" lon="-3.362302"><ele>686</ele><time>2022-10-15T12:06:20Z</time><name>PT2407</name></trkpt>
<trkpt lat="52.904398" lon="-3.362261"><ele>687</ele><time>2022-10-15T12:06:24Z</time><name>PT2408</name></trkpt>
<trkpt lat="52.904400" lon="-3.362244"><ele>689</ele><time>2022-10-15T12:06:27Z</time><name>PT2409</name></trkpt>
<trkpt lat="52.904408" lon="-3.362221"><ele>688</ele><time>2022-10-15T12:06:44Z</time><name>PT2410</name></trkpt>
<trkpt lat="52.904437" lon="-3.362174"><ele>688</ele><time>2022-10-15T12:06:48Z</time><name>PT2411</name></trkpt>
<trkpt lat="52.904451" lon="-3.362145"><ele>688</ele><time>2022-10-15T12:06:51Z</time><name>PT2412</name></trkpt>
<trkpt lat="52.904474" lon="-3.362106"><ele>688</ele><time>2022-10-15T12:06:55Z</time><name>PT2413</name></trkpt>
<trkpt lat="52.904493" lon="-3.362084"><ele>689</ele><time>2022-10-15T12:06:58Z</time><name>PT2414</name></trkpt>
<trkpt lat="52.904513" lon="-3.362061"><ele>689</ele><time>2022-10-15T12:07:01Z</time><name>PT2415</name></trkpt>
<trkpt lat="52.904544" lon="-3.362021"><ele>690</ele><time>2022-10-15T12:07:05Z</time><name>PT2416</name></trkpt>
<trkpt lat="52.904554" lon="-3.361974"><ele>690</ele><time>2022-10-15T12:07:08Z</time><name>PT2417</name></trkpt>
<trkpt lat="52.904567" lon="-3.361918"><ele>690</ele><time>2022-10-15T12:07:11Z</time><name>PT2418</name></trkpt>
<trkpt lat="52.904586" lon="-3.361887"><ele>689</ele><time>2022-10-15T12:07:14Z</time><name>PT2419</name></trkpt>
<trkpt lat="52.904610" lon="-3.361820"><ele>689</ele><time>2022-10-15T12:07:18Z</time><name>PT2420</name></trkpt>
<trkpt lat="52.904612" lon="-3.361742"><ele>690</ele><time>2022-10-15T12:07:22Z</time><name>PT2421</name></trkpt>
<trkpt lat="52.904628" lon="-3.361687"><ele>690</ele><time>2022-10-15T12:07:26Z</time><name>PT2422</name></trkpt>
<trkpt lat="52.904643" lon="-3.361636"><ele>690</ele><time>2022-10-15T12:07:29Z</time><name>PT2423</name></trkpt>
<trkpt lat="52.904657" lon="-3.361587"><ele>690</ele><time>2022-10-15T12:07:32Z</time><name>PT2424</name></trkpt>
<trkpt lat="52.904681" lon="-3.361544"><ele>690</ele><time>2022-10-15T12:07:35Z</time><name>PT2425</name></trkpt>
<trkpt lat="52.904705" lon="-3.361485"><ele>690</ele><time>2022-10-15T12:07:39Z</time><name>PT2426</name></trkpt>
<trkpt lat="52.904726" lon="-3.361442"><ele>690</ele><time>2022-10-15T12:07:42Z</time><name>PT2427</name></trkpt>
<trkpt lat="52.904746" lon="-3.361404"><ele>690</ele><time>2022-10-15T12:07:45Z</time><name>PT2428</name></trkpt>
<trkpt lat="52.904766" lon="-3.361363"><ele>690</ele><time>2022-10-15T12:07:48Z</time><name>PT2429</name></trkpt>
<trkpt lat="52.904788" lon="-3.361309"><ele>690</ele><time>2022-10-15T12:07:52Z</time><name>PT2430</name></trkpt>
<trkpt lat="52.904809" lon="-3.361243"><ele>690</ele><time>2022-10-15T12:07:56Z</time><name>PT2431</name></trkpt>
<trkpt lat="52.904828" lon="-3.361199"><ele>691</ele><time>2022-10-15T12:07:59Z</time><name>PT2432</name></trkpt>
<trkpt lat="52.904846" lon="-3.361136"><ele>691</ele><time>2022-10-15T12:08:03Z</time><name>PT2433</name></trkpt>
<trkpt lat="52.904848" lon="-3.361131"><ele>691</ele><time>2022-10-15T12:08:06Z</time><name>PT2434</name></trkpt>
<trkpt lat="52.904858" lon="-3.361098"><ele>690</ele><time>2022-10-15T12:08:13Z</time><name>PT2435</name></trkpt>
<trkpt lat="52.904887" lon="-3.361033"><ele>690</ele><time>2022-10-15T12:08:17Z</time><name>PT2436</name></trkpt>
<trkpt lat="52.904909" lon="-3.360989"><ele>690</ele><time>2022-10-15T12:08:20Z</time><name>PT2437</name></trkpt>
<trkpt lat="52.904932" lon="-3.360925"><ele>689</ele><time>2022-10-15T12:08:24Z</time><name>PT2438</name></trkpt>
<trkpt lat="52.904957" lon="-3.360860"><ele>690</ele><time>2022-10-15T12:08:28Z</time><name>PT2439</name></trkpt>
<trkpt lat="52.904976" lon="-3.360793"><ele>693</ele><time>2022-10-15T12:08:31Z</time><name>PT2440</name></trkpt>
<trkpt lat="52.904993" lon="-3.360749"><ele>693</ele><time>2022-10-15T12:08:34Z</time><name>PT2441</name></trkpt>
<trkpt lat="52.905013" lon="-3.360710"><ele>692</ele><time>2022-10-15T12:08:37Z</time><name>PT2442</name></trkpt>
<trkpt lat="52.905033" lon="-3.360654"><ele>693</ele><time>2022-10-15T12:08:40Z</time><name>PT2443</name></trkpt>
<trkpt lat="52.905050" lon="-3.360585"><ele>693</ele><time>2022-10-15T12:08:44Z</time><name>PT2444</name></trkpt>
<trkpt lat="52.905062" lon="-3.360517"><ele>692</ele><time>2022-10-15T12:08:48Z</time><name>PT2445</name></trkpt>
<trkpt lat="52.905076" lon="-3.360477"><ele>692</ele><time>2022-10-15T12:08:51Z</time><name>PT2446</name></trkpt>
<trkpt lat="52.905094" lon="-3.360444"><ele>692</ele><time>2022-10-15T12:08:54Z</time><name>PT2447</name></trkpt>
<trkpt lat="52.905118" lon="-3.360406"><ele>691</ele><time>2022-10-15T12:08:57Z</time><name>PT2448</name></trkpt>
<trkpt lat="52.905139" lon="-3.360363"><ele>692</ele><time>2022-10-15T12:09:00Z</time><name>PT2449</name></trkpt>
<trkpt lat="52.905166" lon="-3.360334"><ele>692</ele><time>2022-10-15T12:09:03Z</time><name>PT2450</name></trkpt>
<trkpt lat="52.905205" lon="-3.360284"><ele>692</ele><time>2022-10-15T12:09:07Z</time><name>PT2451</name></trkpt>
<trkpt lat="52.905235" lon="-3.360256"><ele>693</ele><time>2022-10-15T12:09:10Z</time><name>PT2452</name></trkpt>
<trkpt lat="52.905259" lon="-3.360231"><ele>693</ele><time>2022-10-15T12:09:13Z</time><name>PT2453</name></trkpt>
<trkpt lat="52.905290" lon="-3.360189"><ele>694</ele><time>2022-10-15T12:09:17Z</time><name>PT2454</name></trkpt>
<trkpt lat="52.905315" lon="-3.360167"><ele>693</ele><time>2022-10-15T12:09:20Z</time><name>PT2455</name></trkpt>
<trkpt lat="52.905342" lon="-3.360152"><ele>693</ele><time>2022-10-15T12:09:23Z</time><name>PT2456</name></trkpt>
<trkpt lat="52.905388" lon="-3.360116"><ele>694</ele><time>2022-10-15T12:09:27Z</time><name>PT2457</name></trkpt>
<trkpt lat="52.905420" lon="-3.360096"><ele>694</ele><time>2022-10-15T12:09:30Z</time><name>PT2458</name></trkpt>
<trkpt lat="52.905450" lon="-3.360061"><ele>695</ele><time>2022-10-15T12:09:33Z</time><name>PT2459</name></trkpt>
<trkpt lat="52.905474" lon="-3.359997"><ele>695</ele><time>2022-10-15T12:09:37Z</time><name>PT2460</name></trkpt>
<trkpt lat="52.905482" lon="-3.359952"><ele>695</ele><time>2022-10-15T12:09:40Z</time><name>PT2461</name></trkpt>
<trkpt lat="52.905505" lon="-3.359913"><ele>696</ele><time>2022-10-15T12:09:43Z</time><name>PT2462</name></trkpt>
<trkpt lat="52.905540" lon="-3.359887"><ele>695</ele><time>2022-10-15T12:09:47Z</time><name>PT2463</name></trkpt>
<trkpt lat="52.905571" lon="-3.359878"><ele>696</ele><time>2022-10-15T12:09:50Z</time><name>PT2464</name></trkpt>
<trkpt lat="52.905597" lon="-3.359844"><ele>696</ele><time>2022-10-15T12:09:53Z</time><name>PT2465</name></trkpt>
<trkpt lat="52.905623" lon="-3.359825"><ele>696</ele><time>2022-10-15T12:09:56Z</time><name>PT2466</name></trkpt>
<trkpt lat="52.905651" lon="-3.359795"><ele>697</ele><time>2022-10-15T12:09:59Z</time><name>PT2467</name></trkpt>
<trkpt lat="52.905685" lon="-3.359757"><ele>697</ele><time>2022-10-15T12:10:03Z</time><name>PT2468</name></trkpt>
<trkpt lat="52.905711" lon="-3.359731"><ele>697</ele><time>2022-10-15T12:10:06Z</time><name>PT2469</name></trkpt>
<trkpt lat="52.905751" lon="-3.359701"><ele>697</ele><time>2022-10-15T12:10:10Z</time><name>PT2470</name></trkpt>
<trkpt lat="52.905780" lon="-3.359678"><ele>697</ele><time>2022-10-15T12:10:13Z</time><name>PT2471</name></trkpt>
<trkpt lat="52.905816" lon="-3.359638"><ele>696</ele><time>2022-10-15T12:10:17Z</time><name>PT2472</name></trkpt>
<trkpt lat="52.905841" lon="-3.359617"><ele>696</ele><time>2022-10-15T12:10:20Z</time><name>PT2473</name></trkpt>
<trkpt lat="52.905879" lon="-3.359579"><ele>696</ele><time>2022-10-15T12:10:24Z</time><name>PT2474</name></trkpt>
<trkpt lat="52.905907" lon="-3.359545"><ele>697</ele><time>2022-10-15T12:10:27Z</time><name>PT2475</name></trkpt>
<trkpt lat="52.905941" lon="-3.359533"><ele>697</ele><time>2022-10-15T12:10:31Z</time><name>PT2476</name></trkpt>
<trkpt lat="52.905964" lon="-3.359512"><ele>697</ele><time>2022-10-15T12:10:35Z</time><name>PT2477</name></trkpt>
<trkpt lat="52.905981" lon="-3.359462"><ele>697</ele><time>2022-10-15T12:10:38Z</time><name>PT2478</name></trkpt>
<trkpt lat="52.905985" lon="-3.359407"><ele>697</ele><time>2022-10-15T12:10:41Z</time><name>PT2479</name></trkpt>
<trkpt lat="52.905993" lon="-3.359363"><ele>697</ele><time>2022-10-15T12:10:44Z</time><name>PT2480</name></trkpt>
<trkpt lat="52.906008" lon="-3.359317"><ele>697</ele><time>2022-10-15T12:10:48Z</time><name>PT2481</name></trkpt>
<trkpt lat="52.906027" lon="-3.359284"><ele>697</ele><time>2022-10-15T12:10:51Z</time><name>PT2482</name></trkpt>
<trkpt lat="52.906043" lon="-3.359254"><ele>697</ele><time>2022-10-15T12:10:54Z</time><name>PT2483</name></trkpt>
<trkpt lat="52.906087" lon="-3.359227"><ele>697</ele><time>2022-10-15T12:10:58Z</time><name>PT2484</name></trkpt>
<trkpt lat="52.906119" lon="-3.359211"><ele>697</ele><time>2022-10-15T12:11:01Z</time><name>PT2485</name></trkpt>
<trkpt lat="52.906157" lon="-3.359190"><ele>698</ele><time>2022-10-15T12:11:05Z</time><name>PT2486</name></trkpt>
<trkpt lat="52.906191" lon="-3.359185"><ele>698</ele><time>2022-10-15T12:11:09Z</time><name>PT2487</name></trkpt>
<trkpt lat="52.906235" lon="-3.359178"><ele>698</ele><time>2022-10-15T12:11:13Z</time><name>PT2488</name></trkpt>
<trkpt lat="52.906264" lon="-3.359155"><ele>698</ele><time>2022-10-15T12:11:16Z</time><name>PT2489</name></trkpt>
<trkpt lat="52.906294" lon="-3.359129"><ele>697</ele><time>2022-10-15T12:11:19Z</time><name>PT2490</name></trkpt>
<trkpt lat="52.906340" lon="-3.359108"><ele>698</ele><time>2022-10-15T12:11:23Z</time><name>PT2491</name></trkpt>
<trkpt lat="52.906369" lon="-3.359089"><ele>698</ele><time>2022-10-15T12:11:26Z</time><name>PT2492</name></trkpt>
<trkpt lat="52.906409" lon="-3.359091"><ele>699</ele><time>2022-10-15T12:11:30Z</time><name>PT2493</name></trkpt>
<trkpt lat="52.906438" lon="-3.359083"><ele>699</ele><time>2022-10-15T12:11:33Z</time><name>PT2494</name></trkpt>
<trkpt lat="52.906474" lon="-3.359071"><ele>699</ele><time>2022-10-15T12:11:36Z</time><name>PT2495</name></trkpt>
<trkpt lat="52.906519" lon="-3.359072"><ele>699</ele><time>2022-10-15T12:11:40Z</time><name>PT2496</name></trkpt>
<trkpt lat="52.906549" lon="-3.359091"><ele>699</ele><time>2022-10-15T12:11:43Z</time><name>PT2497</name></trkpt>
<trkpt lat="52.906595" lon="-3.359109"><ele>700</ele><time>2022-10-15T12:11:47Z</time><name>PT2498</name></trkpt>
<trkpt lat="52.906606" lon="-3.359078"><ele>699</ele><time>2022-10-15T12:11:50Z</time><name>PT2499</name></trkpt>
<trkpt lat="52.906626" lon="-3.359044"><ele>699</ele><time>2022-10-15T12:11:53Z</time><name>PT2500</name></trkpt>
<trkpt lat="52.906662" lon="-3.359012"><ele>700</ele><time>2022-10-15T12:11:57Z</time><name>PT2501</name></trkpt>
<trkpt lat="52.906698" lon="-3.358996"><ele>701</ele><time>2022-10-15T12:12:00Z</time><name>PT2502</name></trkpt>
<trkpt lat="52.906730" lon="-3.358982"><ele>700</ele><time>2022-10-15T12:12:03Z</time><name>PT2503</name></trkpt>
<trkpt lat="52.906774" lon="-3.358964"><ele>700</ele><time>2022-10-15T12:12:07Z</time><name>PT2504</name></trkpt>
<trkpt lat="52.906813" lon="-3.358972"><ele>700</ele><time>2022-10-15T12:12:11Z</time><name>PT2505</name></trkpt>
<trkpt lat="52.906840" lon="-3.358975"><ele>699</ele><time>2022-10-15T12:12:14Z</time><name>PT2506</name></trkpt>
<trkpt lat="52.906888" lon="-3.358966"><ele>700</ele><time>2022-10-15T12:12:18Z</time><name>PT2507</name></trkpt>
<trkpt lat="52.906919" lon="-3.358938"><ele>700</ele><time>2022-10-15T12:12:21Z</time><name>PT2508</name></trkpt>
<trkpt lat="52.906946" lon="-3.358883"><ele>699</ele><time>2022-10-15T12:12:25Z</time><name>PT2509</name></trkpt>
<trkpt lat="52.906961" lon="-3.358830"><ele>699</ele><time>2022-10-15T12:12:28Z</time><name>PT2510</name></trkpt>
<trkpt lat="52.906974" lon="-3.358777"><ele>700</ele><time>2022-10-15T12:12:31Z</time><name>PT2511</name></trkpt>
<trkpt lat="52.906997" lon="-3.358729"><ele>699</ele><time>2022-10-15T12:12:35Z</time><name>PT2512</name></trkpt>
<trkpt lat="52.907029" lon="-3.358694"><ele>699</ele><time>2022-10-15T12:12:39Z</time><name>PT2513</name></trkpt>
<trkpt lat="52.907053" lon="-3.358664"><ele>699</ele><time>2022-10-15T12:12:42Z</time><name>PT2514</name></trkpt>
<trkpt lat="52.907094" lon="-3.358636"><ele>699</ele><time>2022-10-15T12:12:46Z</time><name>PT2515</name></trkpt>
<trkpt lat="52.907126" lon="-3.358636"><ele>699</ele><time>2022-10-15T12:12:49Z</time><name>PT2516</name></trkpt>
<trkpt lat="52.907155" lon="-3.358603"><ele>699</ele><time>2022-10-15T12:12:52Z</time><name>PT2517</name></trkpt>
<trkpt lat="52.907179" lon="-3.358558"><ele>699</ele><time>2022-10-15T12:12:55Z</time><name>PT2518</name></trkpt>
<trkpt lat="52.907216" lon="-3.358510"><ele>699</ele><time>2022-10-15T12:12:59Z</time><name>PT2519</name></trkpt>
<trkpt lat="52.907253" lon="-3.358473"><ele>699</ele><time>2022-10-15T12:13:03Z</time><name>PT2520</name></trkpt>
<trkpt lat="52.907290" lon="-3.358428"><ele>699</ele><time>2022-10-15T12:13:07Z</time><name>PT2521</name></trkpt>
<trkpt lat="52.907329" lon="-3.358400"><ele>699</ele><time>2022-10-15T12:13:11Z</time><name>PT2522</name></trkpt>
<trkpt lat="52.907355" lon="-3.358346"><ele>699</ele><time>2022-10-15T12:13:15Z</time><name>PT2523</name></trkpt>
<trkpt lat="52.907376" lon="-3.358316"><ele>698</ele><time>2022-10-15T12:13:18Z</time><name>PT2524</name></trkpt>
<trkpt lat="52.907409" lon="-3.358270"><ele>698</ele><time>2022-10-15T12:13:22Z</time><name>PT2525</name></trkpt>
<trkpt lat="52.907436" lon="-3.358236"><ele>698</ele><time>2022-10-15T12:13:25Z</time><name>PT2526</name></trkpt>
<trkpt lat="52.907482" lon="-3.358194"><ele>698</ele><time>2022-10-15T12:13:29Z</time><name>PT2527</name></trkpt>
<trkpt lat="52.907512" lon="-3.358170"><ele>698</ele><time>2022-10-15T12:13:33Z</time><name>PT2528</name></trkpt>
<trkpt lat="52.907515" lon="-3.358166"><ele>698</ele><time>2022-10-15T12:13:36Z</time><name>PT2529</name></trkpt>
<trkpt lat="52.907522" lon="-3.358171"><ele>698</ele><time>2022-10-15T12:13:39Z</time><name>PT2530</name></trkpt>
<trkpt lat="52.907537" lon="-3.358132"><ele>699</ele><time>2022-10-15T12:14:04Z</time><name>PT2531</name></trkpt>
<trkpt lat="52.907563" lon="-3.358071"><ele>698</ele><time>2022-10-15T12:14:08Z</time><name>PT2532</name></trkpt>
<trkpt lat="52.907595" lon="-3.358015"><ele>698</ele><time>2022-10-15T12:14:12Z</time><name>PT2533</name></trkpt>
<trkpt lat="52.907622" lon="-3.357975"><ele>697</ele><time>2022-10-15T12:14:15Z</time><name>PT2534</name></trkpt>
<trkpt lat="52.907650" lon="-3.357945"><ele>697</ele><time>2022-10-15T12:14:18Z</time><name>PT2535</name></trkpt>
<trkpt lat="52.907684" lon="-3.357918"><ele>696</ele><time>2022-10-15T12:14:22Z</time><name>PT2536</name></trkpt>
<trkpt lat="52.907713" lon="-3.357884"><ele>695</ele><time>2022-10-15T12:14:25Z</time><name>PT2537</name></trkpt>
<trkpt lat="52.907740" lon="-3.357849"><ele>694</ele><time>2022-10-15T12:14:28Z</time><name>PT2538</name></trkpt>
<trkpt lat="52.907765" lon="-3.357824"><ele>694</ele><time>2022-10-15T12:14:31Z</time><name>PT2539</name></trkpt>
<trkpt lat="52.907793" lon="-3.357801"><ele>693</ele><time>2022-10-15T12:14:35Z</time><name>PT2540</name></trkpt>
<trkpt lat="52.907802" lon="-3.357782"><ele>693</ele><time>2022-10-15T12:14:38Z</time><name>PT2541</name></trkpt>
<trkpt lat="52.907823" lon="-3.357766"><ele>693</ele><time>2022-10-15T12:14:41Z</time><name>PT2542</name></trkpt>
<trkpt lat="52.907858" lon="-3.357735"><ele>693</ele><time>2022-10-15T12:14:45Z</time><name>PT2543</name></trkpt>
<trkpt lat="52.907890" lon="-3.357733"><ele>692</ele><time>2022-10-15T12:14:49Z</time><name>PT2544</name></trkpt>
<trkpt lat="52.907921" lon="-3.357723"><ele>693</ele><time>2022-10-15T12:14:52Z</time><name>PT2545</name></trkpt>
<trkpt lat="52.907950" lon="-3.357704"><ele>692</ele><time>2022-10-15T12:14:56Z</time><name>PT2546</name></trkpt>
<trkpt lat="52.907958" lon="-3.357691"><ele>692</ele><time>2022-10-15T12:14:59Z</time><name>PT2547</name></trkpt>
<trkpt lat="52.907959" lon="-3.357689"><ele>692</ele><time>2022-10-15T12:15:02Z</time><name>PT2548</name></trkpt>
<trkpt lat="52.907964" lon="-3.357683"><ele>692</ele><time>2022-10-15T12:15:05Z</time><name>PT2549</name></trkpt>
<trkpt lat="52.907965" lon="-3.357682"><ele>692</ele><time>2022-10-15T12:15:09Z</time><name>PT2550</name></trkpt>
<trkpt lat="52.907970" lon="-3.357676"><ele>693</ele><time>2022-10-15T12:15:12Z</time><name>PT2551</name></trkpt>
<trkpt lat="52.907970" lon="-3.357679"><ele>693</ele><time>2022-10-15T12:15:16Z</time><name>PT2552</name></trkpt>
<trkpt lat="52.907959" lon="-3.357708"><ele>694</ele><time>2022-10-15T12:15:45Z</time><name>PT2553</name></trkpt>
<trkpt lat="52.907959" lon="-3.357713"><ele>695</ele><time>2022-10-15T12:15:48Z</time><name>PT2554</name></trkpt>
<trkpt lat="52.907961" lon="-3.357712"><ele>695</ele><time>2022-10-15T12:15:52Z</time><name>PT2555</name></trkpt>
<trkpt lat="52.907983" lon="-3.357681"><ele>694</ele><time>2022-10-15T12:15:59Z</time><name>PT2556</name></trkpt>
<trkpt lat="52.908017" lon="-3.357662"><ele>693</ele><time>2022-10-15T12:16:03Z</time><name>PT2557</name></trkpt>
<trkpt lat="52.908035" lon="-3.357641"><ele>693</ele><time>2022-10-15T12:16:06Z</time><name>PT2558</name></trkpt>
<trkpt lat="52.908050" lon="-3.357622"><ele>693</ele><time>2022-10-15T12:16:09Z</time><name>PT2559</name></trkpt>
<trkpt lat="52.908072" lon="-3.357603"><ele>692</ele><time>2022-10-15T12:16:12Z</time><name>PT2560</name></trkpt>
<trkpt lat="52.908099" lon="-3.357576"><ele>691</ele><time>2022-10-15T12:16:16Z</time><name>PT2561</name></trkpt>
<trkpt lat="52.908135" lon="-3.357555"><ele>691</ele><time>2022-10-15T12:16:20Z</time><name>PT2562</name></trkpt>
<trkpt lat="52.908172" lon="-3.357548"><ele>690</ele><time>2022-10-15T12:16:24Z</time><name>PT2563</name></trkpt>
<trkpt lat="52.908193" lon="-3.357505"><ele>690</ele><time>2022-10-15T12:16:28Z</time><name>PT2564</name></trkpt>
<trkpt lat="52.908195" lon="-3.357444"><ele>689</ele><time>2022-10-15T12:16:32Z</time><name>PT2565</name></trkpt>
<trkpt lat="52.908198" lon="-3.357394"><ele>689</ele><time>2022-10-15T12:16:35Z</time><name>PT2566</name></trkpt>
<trkpt lat="52.908215" lon="-3.357347"><ele>689</ele><time>2022-10-15T12:16:39Z</time><name>PT2567</name></trkpt>
<trkpt lat="52.908240" lon="-3.357308"><ele>689</ele><time>2022-10-15T12:16:43Z</time><name>PT2568</name></trkpt>
<trkpt lat="52.908242" lon="-3.357304"><ele>689</ele><time>2022-10-15T12:16:46Z</time><name>PT2569</name></trkpt>
<trkpt lat="52.908255" lon="-3.357287"><ele>689</ele><time>2022-10-15T12:16:50Z</time><name>PT2570</name></trkpt>
<trkpt lat="52.908291" lon="-3.357251"><ele>689</ele><time>2022-10-15T12:16:54Z</time><name>PT2571</name></trkpt>
<trkpt lat="52.908325" lon="-3.357249"><ele>688</ele><time>2022-10-15T12:16:58Z</time><name>PT2572</name></trkpt>
<trkpt lat="52.908355" lon="-3.357251"><ele>687</ele><time>2022-10-15T12:17:01Z</time><name>PT2573</name></trkpt>
<trkpt lat="52.908393" lon="-3.357217"><ele>685</ele><time>2022-10-15T12:17:05Z</time><name>PT2574</name></trkpt>
<trkpt lat="52.908419" lon="-3.357166"><ele>685</ele><time>2022-10-15T12:17:08Z</time><name>PT2575</name></trkpt>
<trkpt lat="52.908446" lon="-3.357119"><ele>684</ele><time>2022-10-15T12:17:12Z</time><name>PT2576</name></trkpt>
<trkpt lat="52.908473" lon="-3.357088"><ele>683</ele><time>2022-10-15T12:17:15Z</time><name>PT2577</name></trkpt>
<trkpt lat="52.908505" lon="-3.357056"><ele>683</ele><time>2022-10-15T12:17:19Z</time><name>PT2578</name></trkpt>
<trkpt lat="52.908526" lon="-3.357028"><ele>682</ele><time>2022-10-15T12:17:22Z</time><name>PT2579</name></trkpt>
<trkpt lat="52.908542" lon="-3.357001"><ele>680</ele><time>2022-10-15T12:17:25Z</time><name>PT2580</name></trkpt>
<trkpt lat="52.908581" lon="-3.356956"><ele>680</ele><time>2022-10-15T12:17:29Z</time><name>PT2581</name></trkpt>
<trkpt lat="52.908611" lon="-3.356967"><ele>680</ele><time>2022-10-15T12:17:32Z</time><name>PT2582</name></trkpt>
<trkpt lat="52.908639" lon="-3.356974"><ele>680</ele><time>2022-10-15T12:17:35Z</time><name>PT2583</name></trkpt>
<trkpt lat="52.908668" lon="-3.356960"><ele>680</ele><time>2022-10-15T12:17:38Z</time><name>PT2584</name></trkpt>
<trkpt lat="52.908701" lon="-3.356947"><ele>680</ele><time>2022-10-15T12:17:42Z</time><name>PT2585</name></trkpt>
<trkpt lat="52.908724" lon="-3.356912"><ele>679</ele><time>2022-10-15T12:17:45Z</time><name>PT2586</name></trkpt>
<trkpt lat="52.908748" lon="-3.356892"><ele>678</ele><time>2022-10-15T12:17:48Z</time><name>PT2587</name></trkpt>
<trkpt lat="52.908772" lon="-3.356873"><ele>678</ele><time>2022-10-15T12:17:52Z</time><name>PT2588</name></trkpt>
<trkpt lat="52.908792" lon="-3.356840"><ele>677</ele><time>2022-10-15T12:17:55Z</time><name>PT2589</name></trkpt>
<trkpt lat="52.908810" lon="-3.356784"><ele>676</ele><time>2022-10-15T12:17:59Z</time><name>PT2590</name></trkpt>
<trkpt lat="52.908823" lon="-3.356757"><ele>676</ele><time>2022-10-15T12:18:02Z</time><name>PT2591</name></trkpt>
<trkpt lat="52.908848" lon="-3.356734"><ele>675</ele><time>2022-10-15T12:18:05Z</time><name>PT2592</name></trkpt>
<trkpt lat="52.908868" lon="-3.356706"><ele>675</ele><time>2022-10-15T12:18:08Z</time><name>PT2593</name></trkpt>
<trkpt lat="52.908892" lon="-3.356677"><ele>675</ele><time>2022-10-15T12:18:11Z</time><name>PT2594</name></trkpt>
<trkpt lat="52.908927" lon="-3.356640"><ele>674</ele><time>2022-10-15T12:18:15Z</time><name>PT2595</name></trkpt>
<trkpt lat="52.908952" lon="-3.356630"><ele>673</ele><time>2022-10-15T12:18:18Z</time><name>PT2596</name></trkpt>
<trkpt lat="52.908987" lon="-3.356613"><ele>673</ele><time>2022-10-15T12:18:22Z</time><name>PT2597</name></trkpt>
<trkpt lat="52.909018" lon="-3.356603"><ele>672</ele><time>2022-10-15T12:18:26Z</time><name>PT2598</name></trkpt>
<trkpt lat="52.909038" lon="-3.356575"><ele>672</ele><time>2022-10-15T12:18:29Z</time><name>PT2599</name></trkpt>
<trkpt lat="52.909062" lon="-3.356540"><ele>671</ele><time>2022-10-15T12:18:33Z</time><name>PT2600</name></trkpt>
<trkpt lat="52.909080" lon="-3.356508"><ele>671</ele><time>2022-10-15T12:18:36Z</time><name>PT2601</name></trkpt>
<trkpt lat="52.909099" lon="-3.356487"><ele>670</ele><time>2022-10-15T12:18:39Z</time><name>PT2602</name></trkpt>
<trkpt lat="52.909128" lon="-3.356467"><ele>668</ele><time>2022-10-15T12:18:43Z</time><name>PT2603</name></trkpt>
<trkpt lat="52.909150" lon="-3.356441"><ele>668</ele><time>2022-10-15T12:18:46Z</time><name>PT2604</name></trkpt>
<trkpt lat="52.909185" lon="-3.356418"><ele>667</ele><time>2022-10-15T12:18:50Z</time><name>PT2605</name></trkpt>
<trkpt lat="52.909206" lon="-3.356390"><ele>666</ele><time>2022-10-15T12:18:53Z</time><name>PT2606</name></trkpt>
<trkpt lat="52.909228" lon="-3.356357"><ele>666</ele><time>2022-10-15T12:18:56Z</time><name>PT2607</name></trkpt>
<trkpt lat="52.909244" lon="-3.356322"><ele>665</ele><time>2022-10-15T12:18:59Z</time><name>PT2608</name></trkpt>
<trkpt lat="52.909259" lon="-3.356274"><ele>665</ele><time>2022-10-15T12:19:03Z</time><name>PT2609</name></trkpt>
<trkpt lat="52.909268" lon="-3.356237"><ele>664</ele><time>2022-10-15T12:19:06Z</time><name>PT2610</name></trkpt>
<trkpt lat="52.909282" lon="-3.356198"><ele>663</ele><time>2022-10-15T12:19:09Z</time><name>PT2611</name></trkpt>
<trkpt lat="52.909309" lon="-3.356162"><ele>663</ele><time>2022-10-15T12:19:13Z</time><name>PT2612</name></trkpt>
<trkpt lat="52.909338" lon="-3.356141"><ele>662</ele><time>2022-10-15T12:19:16Z</time><name>PT2613</name></trkpt>
<trkpt lat="52.909364" lon="-3.356124"><ele>662</ele><time>2022-10-15T12:19:19Z</time><name>PT2614</name></trkpt>
<trkpt lat="52.909385" lon="-3.356104"><ele>661</ele><time>2022-10-15T12:19:22Z</time><name>PT2615</name></trkpt>
<trkpt lat="52.909415" lon="-3.356078"><ele>660</ele><time>2022-10-15T12:19:26Z</time><name>PT2616</name></trkpt>
<trkpt lat="52.909450" lon="-3.356051"><ele>659</ele><time>2022-10-15T12:19:30Z</time><name>PT2617</name></trkpt>
<trkpt lat="52.909469" lon="-3.356029"><ele>658</ele><time>2022-10-15T12:19:33Z</time><name>PT2618</name></trkpt>
<trkpt lat="52.909487" lon="-3.356011"><ele>658</ele><time>2022-10-15T12:19:36Z</time><name>PT2619</name></trkpt>
<trkpt lat="52.909507" lon="-3.355989"><ele>657</ele><time>2022-10-15T12:19:39Z</time><name>PT2620</name></trkpt>
<trkpt lat="52.909532" lon="-3.355960"><ele>657</ele><time>2022-10-15T12:19:43Z</time><name>PT2621</name></trkpt>
<trkpt lat="52.909568" lon="-3.355940"><ele>656</ele><time>2022-10-15T12:19:47Z</time><name>PT2622</name></trkpt>
<trkpt lat="52.909596" lon="-3.355921"><ele>655</ele><time>2022-10-15T12:19:50Z</time><name>PT2623</name></trkpt>
<trkpt lat="52.909635" lon="-3.355909"><ele>655</ele><time>2022-10-15T12:19:54Z</time><name>PT2624</name></trkpt>
<trkpt lat="52.909666" lon="-3.355902"><ele>654</ele><time>2022-10-15T12:19:58Z</time><name>PT2625</name></trkpt>
<trkpt lat="52.909693" lon="-3.355906"><ele>653</ele><time>2022-10-15T12:20:01Z</time><name>PT2626</name></trkpt>
<trkpt lat="52.909726" lon="-3.355911"><ele>652</ele><time>2022-10-15T12:20:05Z</time><name>PT2627</name></trkpt>
<trkpt lat="52.909748" lon="-3.355908"><ele>651</ele><time>2022-10-15T12:20:08Z</time><name>PT2628</name></trkpt>
<trkpt lat="52.909779" lon="-3.355897"><ele>651</ele><time>2022-10-15T12:20:12Z</time><name>PT2629</name></trkpt>
<trkpt lat="52.909801" lon="-3.355893"><ele>650</ele><time>2022-10-15T12:20:15Z</time><name>PT2630</name></trkpt>
<trkpt lat="52.909827" lon="-3.355895"><ele>649</ele><time>2022-10-15T12:20:18Z</time><name>PT2631</name></trkpt>
<trkpt lat="52.909851" lon="-3.355893"><ele>649</ele><time>2022-10-15T12:20:21Z</time><name>PT2632</name></trkpt>
<trkpt lat="52.909879" lon="-3.355889"><ele>649</ele><time>2022-10-15T12:20:25Z</time><name>PT2633</name></trkpt>
<trkpt lat="52.909885" lon="-3.355884"><ele>648</ele><time>2022-10-15T12:20:28Z</time><name>PT2634</name></trkpt>
<trkpt lat="52.909886" lon="-3.355883"><ele>648</ele><time>2022-10-15T12:20:31Z</time><name>PT2635</name></trkpt>
<trkpt lat="52.909879" lon="-3.355877"><ele>649</ele><time>2022-10-15T12:20:34Z</time><name>PT2636</name></trkpt>
<trkpt lat="52.909885" lon="-3.355874"><ele>648</ele><time>2022-10-15T12:20:37Z</time><name>PT2637</name></trkpt>
<trkpt lat="52.909884" lon="-3.355872"><ele>648</ele><time>2022-10-15T12:20:41Z</time><name>PT2638</name></trkpt>
<trkpt lat="52.909885" lon="-3.355873"><ele>648</ele><time>2022-10-15T12:20:44Z</time><name>PT2639</name></trkpt>
<trkpt lat="52.909889" lon="-3.355876"><ele>648</ele><time>2022-10-15T12:21:04Z</time><name>PT2640</name></trkpt>
<trkpt lat="52.909893" lon="-3.355888"><ele>648</ele><time>2022-10-15T12:21:07Z</time><name>PT2641</name></trkpt>
<trkpt lat="52.909898" lon="-3.355886"><ele>648</ele><time>2022-10-15T12:21:11Z</time><name>PT2642</name></trkpt>
<trkpt lat="52.909908" lon="-3.355878"><ele>648</ele><time>2022-10-15T12:21:14Z</time><name>PT2643</name></trkpt>
<trkpt lat="52.909944" lon="-3.355884"><ele>647</ele><time>2022-10-15T12:21:18Z</time><name>PT2644</name></trkpt>
<trkpt lat="52.909963" lon="-3.355888"><ele>646</ele><time>2022-10-15T12:21:21Z</time><name>PT2645</name></trkpt>
<trkpt lat="52.909983" lon="-3.355896"><ele>645</ele><time>2022-10-15T12:21:24Z</time><name>PT2646</name></trkpt>
<trkpt lat="52.910001" lon="-3.355907"><ele>645</ele><time>2022-10-15T12:21:27Z</time><name>PT2647</name></trkpt>
<trkpt lat="52.910018" lon="-3.355913"><ele>644</ele><time>2022-10-15T12:21:30Z</time><name>PT2648</name></trkpt>
<trkpt lat="52.910042" lon="-3.355922"><ele>643</ele><time>2022-10-15T12:21:34Z</time><name>PT2649</name></trkpt>
<trkpt lat="52.910047" lon="-3.355914"><ele>643</ele><time>2022-10-15T12:21:37Z</time><name>PT2650</name></trkpt>
<trkpt lat="52.910054" lon="-3.355918"><ele>643</ele><time>2022-10-15T12:21:40Z</time><name>PT2651</name></trkpt>
<trkpt lat="52.910064" lon="-3.355902"><ele>643</ele><time>2022-10-15T12:21:43Z</time><name>PT2652</name></trkpt>
<trkpt lat="52.910081" lon="-3.355878"><ele>642</ele><time>2022-10-15T12:21:46Z</time><name>PT2653</name></trkpt>
<trkpt lat="52.910111" lon="-3.355876"><ele>641</ele><time>2022-10-15T12:21:50Z</time><name>PT2654</name></trkpt>
<trkpt lat="52.910128" lon="-3.355864"><ele>640</ele><time>2022-10-15T12:21:53Z</time><name>PT2655</name></trkpt>
<trkpt lat="52.910149" lon="-3.355850"><ele>639</ele><time>2022-10-15T12:21:56Z</time><name>PT2656</name></trkpt>
<trkpt lat="52.910170" lon="-3.355834"><ele>639</ele><time>2022-10-15T12:21:59Z</time><name>PT2657</name></trkpt>
<trkpt lat="52.910194" lon="-3.355824"><ele>639</ele><time>2022-10-15T12:22:03Z</time><name>PT2658</name></trkpt>
<trkpt lat="52.910213" lon="-3.355829"><ele>638</ele><time>2022-10-15T12:22:06Z</time><name>PT2659</name></trkpt>
<trkpt lat="52.910236" lon="-3.355829"><ele>636</ele><time>2022-10-15T12:22:10Z</time><name>PT2660</name></trkpt>
<trkpt lat="52.910259" lon="-3.355822"><ele>636</ele><time>2022-10-15T12:22:14Z</time><name>PT2661</name></trkpt>
<trkpt lat="52.910275" lon="-3.355810"><ele>635</ele><time>2022-10-15T12:22:17Z</time><name>PT2662</name></trkpt>
<trkpt lat="52.910307" lon="-3.355788"><ele>635</ele><time>2022-10-15T12:22:21Z</time><name>PT2663</name></trkpt>
<trkpt lat="52.910339" lon="-3.355762"><ele>634</ele><time>2022-10-15T12:22:24Z</time><name>PT2664</name></trkpt>
<trkpt lat="52.910383" lon="-3.355740"><ele>633</ele><time>2022-10-15T12:22:28Z</time><name>PT2665</name></trkpt>
<trkpt lat="52.910412" lon="-3.355730"><ele>632</ele><time>2022-10-15T12:22:31Z</time><name>PT2666</name></trkpt>
<trkpt lat="52.910442" lon="-3.355711"><ele>631</ele><time>2022-10-15T12:22:34Z</time><name>PT2667</name></trkpt>
<trkpt lat="52.910468" lon="-3.355697"><ele>630</ele><time>2022-10-15T12:22:37Z</time><name>PT2668</name></trkpt>
<trkpt lat="52.910494" lon="-3.355678"><ele>629</ele><time>2022-10-15T12:22:40Z</time><name>PT2669</name></trkpt>
<trkpt lat="52.910524" lon="-3.355650"><ele>628</ele><time>2022-10-15T12:22:44Z</time><name>PT2670</name></trkpt>
<trkpt lat="52.910556" lon="-3.355639"><ele>628</ele><time>2022-10-15T12:22:48Z</time><name>PT2671</name></trkpt>
<trkpt lat="52.910584" lon="-3.355617"><ele>627</ele><time>2022-10-15T12:22:52Z</time><name>PT2672</name></trkpt>
<trkpt lat="52.910599" lon="-3.355624"><ele>627</ele><time>2022-10-15T12:22:55Z</time><name>PT2673</name></trkpt>
<trkpt lat="52.910623" lon="-3.355619"><ele>627</ele><time>2022-10-15T12:22:59Z</time><name>PT2674</name></trkpt>
<trkpt lat="52.910637" lon="-3.355622"><ele>626</ele><time>2022-10-15T12:23:02Z</time><name>PT2675</name></trkpt>
<trkpt lat="52.910661" lon="-3.355589"><ele>625</ele><time>2022-10-15T12:23:06Z</time><name>PT2676</name></trkpt>
<trkpt lat="52.910687" lon="-3.355578"><ele>625</ele><time>2022-10-15T12:23:10Z</time><name>PT2677</name></trkpt>
<trkpt lat="52.910718" lon="-3.355565"><ele>624</ele><time>2022-10-15T12:23:13Z</time><name>PT2678</name></trkpt>
<trkpt lat="52.910737" lon="-3.355546"><ele>623</ele><time>2022-10-15T12:23:16Z</time><name>PT2679</name></trkpt>
<trkpt lat="52.910759" lon="-3.355521"><ele>623</ele><time>2022-10-15T12:23:19Z</time><name>PT2680</name></trkpt>
<trkpt lat="52.910803" lon="-3.355516"><ele>623</ele><time>2022-10-15T12:23:23Z</time><name>PT2681</name></trkpt>
<trkpt lat="52.910826" lon="-3.355496"><ele>623</ele><time>2022-10-15T12:23:26Z</time><name>PT2682</name></trkpt>
<trkpt lat="52.910865" lon="-3.355478"><ele>622</ele><time>2022-10-15T12:23:30Z</time><name>PT2683</name></trkpt>
<trkpt lat="52.910906" lon="-3.355451"><ele>622</ele><time>2022-10-15T12:23:34Z</time><name>PT2684</name></trkpt>
<trkpt lat="52.910935" lon="-3.355428"><ele>621</ele><time>2022-10-15T12:23:37Z</time><name>PT2685</name></trkpt>
<trkpt lat="52.910967" lon="-3.355423"><ele>621</ele><time>2022-10-15T12:23:40Z</time><name>PT2686</name></trkpt>
<trkpt lat="52.911001" lon="-3.355419"><ele>620</ele><time>2022-10-15T12:23:43Z</time><name>PT2687</name></trkpt>
<trkpt lat="52.911043" lon="-3.355409"><ele>620</ele><time>2022-10-15T12:23:47Z</time><name>PT2688</name></trkpt>
<trkpt lat="52.911071" lon="-3.355399"><ele>618</ele><time>2022-10-15T12:23:50Z</time><name>PT2689</name></trkpt>
<trkpt lat="52.911099" lon="-3.355378"><ele>618</ele><time>2022-10-15T12:23:53Z</time><name>PT2690</name></trkpt>
<trkpt lat="52.911136" lon="-3.355350"><ele>618</ele><time>2022-10-15T12:23:57Z</time><name>PT2691</name></trkpt>
<trkpt lat="52.911161" lon="-3.355336"><ele>617</ele><time>2022-10-15T12:24:00Z</time><name>PT2692</name></trkpt>
<trkpt lat="52.911190" lon="-3.355322"><ele>617</ele><time>2022-10-15T12:24:03Z</time><name>PT2693</name></trkpt>
<trkpt lat="52.911226" lon="-3.355292"><ele>617</ele><time>2022-10-15T12:24:07Z</time><name>PT2694</name></trkpt>
<trkpt lat="52.911265" lon="-3.355293"><ele>616</ele><time>2022-10-15T12:24:11Z</time><name>PT2695</name></trkpt>
<trkpt lat="52.911293" lon="-3.355288"><ele>616</ele><time>2022-10-15T12:24:15Z</time><name>PT2696</name></trkpt>
<trkpt lat="52.911302" lon="-3.355275"><ele>616</ele><time>2022-10-15T12:24:18Z</time><name>PT2697</name></trkpt>
<trkpt lat="52.911343" lon="-3.355259"><ele>615</ele><time>2022-10-15T12:24:22Z</time><name>PT2698</name></trkpt>
<trkpt lat="52.911373" lon="-3.355240"><ele>615</ele><time>2022-10-15T12:24:25Z</time><name>PT2699</name></trkpt>
<trkpt lat="52.911404" lon="-3.355223"><ele>615</ele><time>2022-10-15T12:24:29Z</time><name>PT2700</name></trkpt>
<trkpt lat="52.911438" lon="-3.355204"><ele>615</ele><time>2022-10-15T12:24:32Z</time><name>PT2701</name></trkpt>
<trkpt lat="52.911470" lon="-3.355191"><ele>615</ele><time>2022-10-15T12:24:35Z</time><name>PT2702</name></trkpt>
<trkpt lat="52.911497" lon="-3.355160"><ele>615</ele><time>2022-10-15T12:24:38Z</time><name>PT2703</name></trkpt>
<trkpt lat="52.911528" lon="-3.355163"><ele>615</ele><time>2022-10-15T12:24:42Z</time><name>PT2704</name></trkpt>
<trkpt lat="52.911553" lon="-3.355173"><ele>615</ele><time>2022-10-15T12:24:45Z</time><name>PT2705</name></trkpt>
<trkpt lat="52.911576" lon="-3.355186"><ele>615</ele><time>2022-10-15T12:24:48Z</time><name>PT2706</name></trkpt>
<trkpt lat="52.911603" lon="-3.355200"><ele>615</ele><time>2022-10-15T12:24:51Z</time><name>PT2707</name></trkpt>
<trkpt lat="52.911639" lon="-3.355215"><ele>614</ele><time>2022-10-15T12:24:55Z</time><name>PT2708</name></trkpt>
<trkpt lat="52.911685" lon="-3.355214"><ele>614</ele><time>2022-10-15T12:24:59Z</time><name>PT2709</name></trkpt>
<trkpt lat="52.911711" lon="-3.355228"><ele>614</ele><time>2022-10-15T12:25:02Z</time><name>PT2710</name></trkpt>
<trkpt lat="52.911738" lon="-3.355250"><ele>613</ele><time>2022-10-15T12:25:05Z</time><name>PT2711</name></trkpt>
<trkpt lat="52.911775" lon="-3.355233"><ele>613</ele><time>2022-10-15T12:25:09Z</time><name>PT2712</name></trkpt>
<trkpt lat="52.911801" lon="-3.355230"><ele>613</ele><time>2022-10-15T12:25:12Z</time><name>PT2713</name></trkpt>
<trkpt lat="52.911813" lon="-3.355239"><ele>613</ele><time>2022-10-15T12:25:16Z</time><name>PT2714</name></trkpt>
<trkpt lat="52.911838" lon="-3.355265"><ele>612</ele><time>2022-10-15T12:25:20Z</time><name>PT2715</name></trkpt>
<trkpt lat="52.911864" lon="-3.355269"><ele>612</ele><time>2022-10-15T12:25:23Z</time><name>PT2716</name></trkpt>
<trkpt lat="52.911890" lon="-3.355268"><ele>612</ele><time>2022-10-15T12:25:27Z</time><name>PT2717</name></trkpt>
<trkpt lat="52.911893" lon="-3.355248"><ele>612</ele><time>2022-10-15T12:25:30Z</time><name>PT2718</name></trkpt>
<trkpt lat="52.911911" lon="-3.355223"><ele>612</ele><time>2022-10-15T12:25:33Z</time><name>PT2719</name></trkpt>
<trkpt lat="52.911942" lon="-3.355213"><ele>612</ele><time>2022-10-15T12:25:37Z</time><name>PT2720</name></trkpt>
<trkpt lat="52.911969" lon="-3.355208"><ele>612</ele><time>2022-10-15T12:25:40Z</time><name>PT2721</name></trkpt>
<trkpt lat="52.912003" lon="-3.355215"><ele>612</ele><time>2022-10-15T12:25:44Z</time><name>PT2722</name></trkpt>
<trkpt lat="52.912031" lon="-3.355226"><ele>612</ele><time>2022-10-15T12:25:47Z</time><name>PT2723</name></trkpt>
<trkpt lat="52.912070" lon="-3.355246"><ele>612</ele><time>2022-10-15T12:25:51Z</time><name>PT2724</name></trkpt>
<trkpt lat="52.912099" lon="-3.355201"><ele>613</ele><time>2022-10-15T12:25:55Z</time><name>PT2725</name></trkpt>
<trkpt lat="52.912119" lon="-3.355168"><ele>613</ele><time>2022-10-15T12:25:58Z</time><name>PT2726</name></trkpt>
<trkpt lat="52.912149" lon="-3.355143"><ele>613</ele><time>2022-10-15T12:26:01Z</time><name>PT2727</name></trkpt>
<trkpt lat="52.912180" lon="-3.355127"><ele>614</ele><time>2022-10-15T12:26:04Z</time><name>PT2728</name></trkpt>
<trkpt lat="52.912195" lon="-3.355113"><ele>614</ele><time>2022-10-15T12:26:08Z</time><name>PT2729</name></trkpt>
<trkpt lat="52.912224" lon="-3.355077"><ele>614</ele><time>2022-10-15T12:26:16Z</time><name>PT2730</name></trkpt>
<trkpt lat="52.912253" lon="-3.355046"><ele>614</ele><time>2022-10-15T12:26:19Z</time><name>PT2731</name></trkpt>
<trkpt lat="52.912292" lon="-3.355016"><ele>614</ele><time>2022-10-15T12:26:23Z</time><name>PT2732</name></trkpt>
<trkpt lat="52.912331" lon="-3.354987"><ele>614</ele><time>2022-10-15T12:26:27Z</time><name>PT2733</name></trkpt>
<trkpt lat="52.912358" lon="-3.354959"><ele>615</ele><time>2022-10-15T12:26:30Z</time><name>PT2734</name></trkpt>
<trkpt lat="52.912372" lon="-3.354934"><ele>615</ele><time>2022-10-15T12:26:34Z</time><name>PT2735</name></trkpt>
<trkpt lat="52.912409" lon="-3.354897"><ele>615</ele><time>2022-10-15T12:26:38Z</time><name>PT2736</name></trkpt>
<trkpt lat="52.912445" lon="-3.354874"><ele>616</ele><time>2022-10-15T12:26:42Z</time><name>PT2737</name></trkpt>
<trkpt lat="52.912468" lon="-3.354859"><ele>616</ele><time>2022-10-15T12:26:45Z</time><name>PT2738</name></trkpt>
<trkpt lat="52.912472" lon="-3.354851"><ele>617</ele><time>2022-10-15T12:26:48Z</time><name>PT2739</name></trkpt>
<trkpt lat="52.912475" lon="-3.354849"><ele>617</ele><time>2022-10-15T12:26:52Z</time><name>PT2740</name></trkpt>
<trkpt lat="52.912474" lon="-3.354845"><ele>617</ele><time>2022-10-15T12:26:55Z</time><name>PT2741</name></trkpt>
<trkpt lat="52.912487" lon="-3.354827"><ele>617</ele><time>2022-10-15T12:26:58Z</time><name>PT2742</name></trkpt>
<trkpt lat="52.912504" lon="-3.354816"><ele>617</ele><time>2022-10-15T12:27:01Z</time><name>PT2743</name></trkpt>
<trkpt lat="52.912512" lon="-3.354816"><ele>617</ele><time>2022-10-15T12:27:05Z</time><name>PT2744</name></trkpt>
<trkpt lat="52.912512" lon="-3.354815"><ele>617</ele><time>2022-10-15T12:27:08Z</time><name>PT2745</name></trkpt>
<trkpt lat="52.912534" lon="-3.354776"><ele>617</ele><time>2022-10-15T12:27:11Z</time><name>PT2746</name></trkpt>
<trkpt lat="52.912547" lon="-3.354757"><ele>618</ele><time>2022-10-15T12:27:14Z</time><name>PT2747</name></trkpt>
<trkpt lat="52.912581" lon="-3.354736"><ele>618</ele><time>2022-10-15T12:27:18Z</time><name>PT2748</name></trkpt>
<trkpt lat="52.912616" lon="-3.354729"><ele>619</ele><time>2022-10-15T12:27:22Z</time><name>PT2749</name></trkpt>
<trkpt lat="52.912643" lon="-3.354729"><ele>619</ele><time>2022-10-15T12:27:26Z</time><name>PT2750</name></trkpt>
<trkpt lat="52.912653" lon="-3.354724"><ele>620</ele><time>2022-10-15T12:27:30Z</time><name>PT2751</name></trkpt>
<trkpt lat="52.912664" lon="-3.354726"><ele>620</ele><time>2022-10-15T12:27:36Z</time><name>PT2752</name></trkpt>
<trkpt lat="52.912693" lon="-3.354745"><ele>620</ele><time>2022-10-15T12:27:39Z</time><name>PT2753</name></trkpt>
<trkpt lat="52.912707" lon="-3.354757"><ele>620</ele><time>2022-10-15T12:27:43Z</time><name>PT2754</name></trkpt>
<trkpt lat="52.912741" lon="-3.354785"><ele>621</ele><time>2022-10-15T12:27:46Z</time><name>PT2755</name></trkpt>
<trkpt lat="52.912781" lon="-3.354797"><ele>622</ele><time>2022-10-15T12:27:50Z</time><name>PT2756</name></trkpt>
<trkpt lat="52.912812" lon="-3.354808"><ele>622</ele><time>2022-10-15T12:27:54Z</time><name>PT2757</name></trkpt>
<trkpt lat="52.912813" lon="-3.354808"><ele>622</ele><time>2022-10-15T12:27:58Z</time><name>PT2758</name></trkpt>
<trkpt lat="52.912815" lon="-3.354808"><ele>622</ele><time>2022-10-15T12:28:14Z</time><name>PT2759</name></trkpt>
<trkpt lat="52.912826" lon="-3.354799"><ele>622</ele><time>2022-10-15T12:28:49Z</time><name>PT2760</name></trkpt>
<trkpt lat="52.912849" lon="-3.354790"><ele>622</ele><time>2022-10-15T12:28:52Z</time><name>PT2761</name></trkpt>
<trkpt lat="52.912875" lon="-3.354739"><ele>621</ele><time>2022-10-15T12:28:56Z</time><name>PT2762</name></trkpt>
<trkpt lat="52.912898" lon="-3.354675"><ele>621</ele><time>2022-10-15T12:29:00Z</time><name>PT2763</name></trkpt>
<trkpt lat="52.912944" lon="-3.354668"><ele>621</ele><time>2022-10-15T12:29:04Z</time><name>PT2764</name></trkpt>
<trkpt lat="52.912968" lon="-3.354697"><ele>621</ele><time>2022-10-15T12:29:07Z</time><name>PT2765</name></trkpt>
<trkpt lat="52.913000" lon="-3.354703"><ele>622</ele><time>2022-10-15T12:29:10Z</time><name>PT2766</name></trkpt>
<trkpt lat="52.913038" lon="-3.354728"><ele>621</ele><time>2022-10-15T12:29:13Z</time><name>PT2767</name></trkpt>
<trkpt lat="52.913078" lon="-3.354732"><ele>621</ele><time>2022-10-15T12:29:17Z</time><name>PT2768</name></trkpt>
<trkpt lat="52.913113" lon="-3.354733"><ele>621</ele><time>2022-10-15T12:29:20Z</time><name>PT2769</name></trkpt>
<trkpt lat="52.913147" lon="-3.354733"><ele>621</ele><time>2022-10-15T12:29:23Z</time><name>PT2770</name></trkpt>
<trkpt lat="52.913169" lon="-3.354729"><ele>622</ele><time>2022-10-15T12:29:26Z</time><name>PT2771</name></trkpt>
<trkpt lat="52.913207" lon="-3.354720"><ele>622</ele><time>2022-10-15T12:29:30Z</time><name>PT2772</name></trkpt>
<trkpt lat="52.913230" lon="-3.354722"><ele>621</ele><time>2022-10-15T12:29:33Z</time><name>PT2773</name></trkpt>
<trkpt lat="52.913239" lon="-3.354722"><ele>621</ele><time>2022-10-15T12:29:37Z</time><name>PT2774</name></trkpt>
<trkpt lat="52.913261" lon="-3.354717"><ele>621</ele><time>2022-10-15T12:29:40Z</time><name>PT2775</name></trkpt>
<trkpt lat="52.913292" lon="-3.354710"><ele>620</ele><time>2022-10-15T12:29:43Z</time><name>PT2776</name></trkpt>
<trkpt lat="52.913325" lon="-3.354707"><ele>619</ele><time>2022-10-15T12:29:46Z</time><name>PT2777</name></trkpt>
<trkpt lat="52.913358" lon="-3.354688"><ele>618</ele><time>2022-10-15T12:29:50Z</time><name>PT2778</name></trkpt>
<trkpt lat="52.913388" lon="-3.354665"><ele>617</ele><time>2022-10-15T12:29:53Z</time><name>PT2779</name></trkpt>
<trkpt lat="52.913424" lon="-3.354645"><ele>616</ele><time>2022-10-15T12:29:56Z</time><name>PT2780</name></trkpt>
<trkpt lat="52.913470" lon="-3.354633"><ele>616</ele><time>2022-10-15T12:30:00Z</time><name>PT2781</name></trkpt>
<trkpt lat="52.913517" lon="-3.354608"><ele>616</ele><time>2022-10-15T12:30:04Z</time><name>PT2782</name></trkpt>
<trkpt lat="52.913550" lon="-3.354569"><ele>615</ele><time>2022-10-15T12:30:08Z</time><name>PT2783</name></trkpt>
<trkpt lat="52.913596" lon="-3.354524"><ele>616</ele><time>2022-10-15T12:30:12Z</time><name>PT2784</name></trkpt>
<trkpt lat="52.913626" lon="-3.354506"><ele>614</ele><time>2022-10-15T12:30:16Z</time><name>PT2785</name></trkpt>
<trkpt lat="52.913653" lon="-3.354493"><ele>614</ele><time>2022-10-15T12:30:20Z</time><name>PT2786</name></trkpt>
<trkpt lat="52.913685" lon="-3.354496"><ele>614</ele><time>2022-10-15T12:30:23Z</time><name>PT2787</name></trkpt>
<trkpt lat="52.913735" lon="-3.354499"><ele>612</ele><time>2022-10-15T12:30:27Z</time><name>PT2788</name></trkpt>
<trkpt lat="52.913769" lon="-3.354502"><ele>612</ele><time>2022-10-15T12:30:30Z</time><name>PT2789</name></trkpt>
<trkpt lat="52.913800" lon="-3.354510"><ele>612</ele><time>2022-10-15T12:30:33Z</time><name>PT2790</name></trkpt>
<trkpt lat="52.913839" lon="-3.354528"><ele>611</ele><time>2022-10-15T12:30:37Z</time><name>PT2791</name></trkpt>
<trkpt lat="52.913857" lon="-3.354524"><ele>612</ele><time>2022-10-15T12:30:40Z</time><name>PT2792</name></trkpt>
<trkpt lat="52.913885" lon="-3.354504"><ele>611</ele><time>2022-10-15T12:30:43Z</time><name>PT2793</name></trkpt>
<trkpt lat="52.913911" lon="-3.354485"><ele>611</ele><time>2022-10-15T12:30:46Z</time><name>PT2794</name></trkpt>
<trkpt lat="52.913935" lon="-3.354473"><ele>610</ele><time>2022-10-15T12:30:49Z</time><name>PT2795</name></trkpt>
<trkpt lat="52.913970" lon="-3.354475"><ele>609</ele><time>2022-10-15T12:30:53Z</time><name>PT2796</name></trkpt>
<trkpt lat="52.914002" lon="-3.354485"><ele>608</ele><time>2022-10-15T12:30:57Z</time><name>PT2797</name></trkpt>
<trkpt lat="52.914025" lon="-3.354491"><ele>607</ele><time>2022-10-15T12:31:00Z</time><name>PT2798</name></trkpt>
<trkpt lat="52.914059" lon="-3.354504"><ele>606</ele><time>2022-10-15T12:31:03Z</time><name>PT2799</name></trkpt>
<trkpt lat="52.914089" lon="-3.354521"><ele>606</ele><time>2022-10-15T12:31:06Z</time><name>PT2800</name></trkpt>
<trkpt lat="52.914124" lon="-3.354565"><ele>606</ele><time>2022-10-15T12:31:10Z</time><name>PT2801</name></trkpt>
<trkpt lat="52.914139" lon="-3.354567"><ele>606</ele><time>2022-10-15T12:31:14Z</time><name>PT2802</name></trkpt>
<trkpt lat="52.914163" lon="-3.354576"><ele>606</ele><time>2022-10-15T12:31:17Z</time><name>PT2803</name></trkpt>
<trkpt lat="52.914172" lon="-3.354573"><ele>606</ele><time>2022-10-15T12:31:20Z</time><name>PT2804</name></trkpt>
<trkpt lat="52.914186" lon="-3.354585"><ele>606</ele><time>2022-10-15T12:31:24Z</time><name>PT2805</name></trkpt>
<trkpt lat="52.914191" lon="-3.354594"><ele>606</ele><time>2022-10-15T12:31:27Z</time><name>PT2806</name></trkpt>
<trkpt lat="52.914213" lon="-3.354614"><ele>606</ele><time>2022-10-15T12:31:31Z</time><name>PT2807</name></trkpt>
<trkpt lat="52.914266" lon="-3.354613"><ele>605</ele><time>2022-10-15T12:31:35Z</time><name>PT2808</name></trkpt>
<trkpt lat="52.914288" lon="-3.354616"><ele>604</ele><time>2022-10-15T12:31:38Z</time><name>PT2809</name></trkpt>
<trkpt lat="52.914326" lon="-3.354604"><ele>603</ele><time>2022-10-15T12:31:42Z</time><name>PT2810</name></trkpt>
<trkpt lat="52.914350" lon="-3.354581"><ele>602</ele><time>2022-10-15T12:31:45Z</time><name>PT2811</name></trkpt>
<trkpt lat="52.914380" lon="-3.354563"><ele>601</ele><time>2022-10-15T12:31:49Z</time><name>PT2812</name></trkpt>
<trkpt lat="52.914416" lon="-3.354555"><ele>599</ele><time>2022-10-15T12:31:53Z</time><name>PT2813</name></trkpt>
<trkpt lat="52.914449" lon="-3.354574"><ele>598</ele><time>2022-10-15T12:31:57Z</time><name>PT2814</name></trkpt>
<trkpt lat="52.914482" lon="-3.354583"><ele>598</ele><time>2022-10-15T12:32:00Z</time><name>PT2815</name></trkpt>
<trkpt lat="52.914528" lon="-3.354577"><ele>597</ele><time>2022-10-15T12:32:04Z</time><name>PT2816</name></trkpt>
<trkpt lat="52.914573" lon="-3.354592"><ele>595</ele><time>2022-10-15T12:32:08Z</time><name>PT2817</name></trkpt>
<trkpt lat="52.914606" lon="-3.354591"><ele>595</ele><time>2022-10-15T12:32:11Z</time><name>PT2818</name></trkpt>
<trkpt lat="52.914637" lon="-3.354580"><ele>594</ele><time>2022-10-15T12:32:14Z</time><name>PT2819</name></trkpt>
<trkpt lat="52.914680" lon="-3.354590"><ele>593</ele><time>2022-10-15T12:32:18Z</time><name>PT2820</name></trkpt>
<trkpt lat="52.914706" lon="-3.354613"><ele>592</ele><time>2022-10-15T12:32:21Z</time><name>PT2821</name></trkpt>
<trkpt lat="52.914741" lon="-3.354605"><ele>591</ele><time>2022-10-15T12:32:24Z</time><name>PT2822</name></trkpt>
<trkpt lat="52.914790" lon="-3.354578"><ele>591</ele><time>2022-10-15T12:32:28Z</time><name>PT2823</name></trkpt>
<trkpt lat="52.914824" lon="-3.354565"><ele>591</ele><time>2022-10-15T12:32:31Z</time><name>PT2824</name></trkpt>
<trkpt lat="52.914848" lon="-3.354543"><ele>591</ele><time>2022-10-15T12:32:34Z</time><name>PT2825</name></trkpt>
<trkpt lat="52.914865" lon="-3.354532"><ele>591</ele><time>2022-10-15T12:32:37Z</time><name>PT2826</name></trkpt>
<trkpt lat="52.914900" lon="-3.354512"><ele>591</ele><time>2022-10-15T12:32:41Z</time><name>PT2827</name></trkpt>
<trkpt lat="52.914940" lon="-3.354503"><ele>591</ele><time>2022-10-15T12:32:45Z</time><name>PT2828</name></trkpt>
<trkpt lat="52.914970" lon="-3.354506"><ele>591</ele><time>2022-10-15T12:32:48Z</time><name>PT2829</name></trkpt>
<trkpt lat="52.914999" lon="-3.354491"><ele>591</ele><time>2022-10-15T12:32:51Z</time><name>PT2830</name></trkpt>
<trkpt lat="52.915037" lon="-3.354461"><ele>591</ele><time>2022-10-15T12:32:55Z</time><name>PT2831</name></trkpt>
<trkpt lat="52.915083" lon="-3.354444"><ele>591</ele><time>2022-10-15T12:32:59Z</time><name>PT2832</name></trkpt>
<trkpt lat="52.915123" lon="-3.354432"><ele>591</ele><time>2022-10-15T12:33:02Z</time><name>PT2833</name></trkpt>
<trkpt lat="52.915155" lon="-3.354430"><ele>591</ele><time>2022-10-15T12:33:05Z</time><name>PT2834</name></trkpt>
<trkpt lat="52.915177" lon="-3.354462"><ele>592</ele><time>2022-10-15T12:33:09Z</time><name>PT2835</name></trkpt>
<trkpt lat="52.915191" lon="-3.354467"><ele>593</ele><time>2022-10-15T12:33:12Z</time><name>PT2836</name></trkpt>
<trkpt lat="52.915205" lon="-3.354479"><ele>593</ele><time>2022-10-15T12:33:15Z</time><name>PT2837</name></trkpt>
<trkpt lat="52.915228" lon="-3.354486"><ele>594</ele><time>2022-10-15T12:33:19Z</time><name>PT2838</name></trkpt>
<trkpt lat="52.915246" lon="-3.354471"><ele>595</ele><time>2022-10-15T12:33:23Z</time><name>PT2839</name></trkpt>
<trkpt lat="52.915273" lon="-3.354458"><ele>594</ele><time>2022-10-15T12:33:26Z</time><name>PT2840</name></trkpt>
<trkpt lat="52.915299" lon="-3.354457"><ele>595</ele><time>2022-10-15T12:33:29Z</time><name>PT2841</name></trkpt>
<trkpt lat="52.915307" lon="-3.354466"><ele>594</ele><time>2022-10-15T12:33:33Z</time><name>PT2842</name></trkpt>
<trkpt lat="52.915338" lon="-3.354447"><ele>593</ele><time>2022-10-15T12:33:36Z</time><name>PT2843</name></trkpt>
<trkpt lat="52.915386" lon="-3.354408"><ele>593</ele><time>2022-10-15T12:33:40Z</time><name>PT2844</name></trkpt>
<trkpt lat="52.915431" lon="-3.354386"><ele>593</ele><time>2022-10-15T12:33:44Z</time><name>PT2845</name></trkpt>
<trkpt lat="52.915478" lon="-3.354353"><ele>593</ele><time>2022-10-15T12:33:48Z</time><name>PT2846</name></trkpt>
<trkpt lat="52.915514" lon="-3.354309"><ele>593</ele><time>2022-10-15T12:33:52Z</time><name>PT2847</name></trkpt>
<trkpt lat="52.915544" lon="-3.354290"><ele>593</ele><time>2022-10-15T12:33:56Z</time><name>PT2848</name></trkpt>
<trkpt lat="52.915585" lon="-3.354259"><ele>593</ele><time>2022-10-15T12:34:00Z</time><name>PT2849</name></trkpt>
<trkpt lat="52.915617" lon="-3.354237"><ele>592</ele><time>2022-10-15T12:34:03Z</time><name>PT2850</name></trkpt>
<trkpt lat="52.915658" lon="-3.354197"><ele>592</ele><time>2022-10-15T12:34:07Z</time><name>PT2851</name></trkpt>
<trkpt lat="52.915673" lon="-3.354183"><ele>592</ele><time>2022-10-15T12:34:10Z</time><name>PT2852</name></trkpt>
<trkpt lat="52.915675" lon="-3.354182"><ele>592</ele><time>2022-10-15T12:34:13Z</time><name>PT2853</name></trkpt>
<trkpt lat="52.915681" lon="-3.354174"><ele>592</ele><time>2022-10-15T12:34:16Z</time><name>PT2854</name></trkpt>
<trkpt lat="52.915711" lon="-3.354135"><ele>592</ele><time>2022-10-15T12:34:20Z</time><name>PT2855</name></trkpt>
<trkpt lat="52.915746" lon="-3.354109"><ele>592</ele><time>2022-10-15T12:34:24Z</time><name>PT2856</name></trkpt>
<trkpt lat="52.915746" lon="-3.354110"><ele>592</ele><time>2022-10-15T12:34:27Z</time><name>PT2857</name></trkpt>
<trkpt lat="52.915762" lon="-3.354096"><ele>592</ele><time>2022-10-15T12:34:31Z</time><name>PT2858</name></trkpt>
<trkpt lat="52.915777" lon="-3.354092"><ele>592</ele><time>2022-10-15T12:34:35Z</time><name>PT2859</name></trkpt>
<trkpt lat="52.915778" lon="-3.354093"><ele>592</ele><time>2022-10-15T12:34:38Z</time><name>PT2860</name></trkpt>
<trkpt lat="52.915815" lon="-3.354065"><ele>593</ele><time>2022-10-15T12:34:42Z</time><name>PT2861</name></trkpt>
<trkpt lat="52.915848" lon="-3.354028"><ele>593</ele><time>2022-10-15T12:34:45Z</time><name>PT2862</name></trkpt>
<trkpt lat="52.915878" lon="-3.353993"><ele>592</ele><time>2022-10-15T12:34:48Z</time><name>PT2863</name></trkpt>
<trkpt lat="52.915905" lon="-3.353957"><ele>592</ele><time>2022-10-15T12:34:52Z</time><name>PT2864</name></trkpt>
<trkpt lat="52.915923" lon="-3.353911"><ele>591</ele><time>2022-10-15T12:34:56Z</time><name>PT2865</name></trkpt>
<trkpt lat="52.915946" lon="-3.353863"><ele>591</ele><time>2022-10-15T12:34:59Z</time><name>PT2866</name></trkpt>
<trkpt lat="52.915970" lon="-3.353823"><ele>592</ele><time>2022-10-15T12:35:02Z</time><name>PT2867</name></trkpt>
<trkpt lat="52.915983" lon="-3.353810"><ele>593</ele><time>2022-10-15T12:35:06Z</time><name>PT2868</name></trkpt>
<trkpt lat="52.915996" lon="-3.353788"><ele>593</ele><time>2022-10-15T12:35:09Z</time><name>PT2869</name></trkpt>
<trkpt lat="52.916012" lon="-3.353744"><ele>593</ele><time>2022-10-15T12:35:12Z</time><name>PT2870</name></trkpt>
<trkpt lat="52.916036" lon="-3.353716"><ele>593</ele><time>2022-10-15T12:35:15Z</time><name>PT2871</name></trkpt>
<trkpt lat="52.916044" lon="-3.353712"><ele>593</ele><time>2022-10-15T12:35:19Z</time><name>PT2872</name></trkpt>
<trkpt lat="52.916062" lon="-3.353707"><ele>593</ele><time>2022-10-15T12:35:23Z</time><name>PT2873</name></trkpt>
<trkpt lat="52.916090" lon="-3.353695"><ele>592</ele><time>2022-10-15T12:35:26Z</time><name>PT2874</name></trkpt>
<trkpt lat="52.916120" lon="-3.353682"><ele>592</ele><time>2022-10-15T12:35:29Z</time><name>PT2875</name></trkpt>
<trkpt lat="52.916170" lon="-3.353677"><ele>591</ele><time>2022-10-15T12:35:33Z</time><name>PT2876</name></trkpt>
<trkpt lat="52.916207" lon="-3.353676"><ele>591</ele><time>2022-10-15T12:35:37Z</time><name>PT2877</name></trkpt>
<trkpt lat="52.916216" lon="-3.353674"><ele>592</ele><time>2022-10-15T12:35:40Z</time><name>PT2878</name></trkpt>
<trkpt lat="52.916227" lon="-3.353663"><ele>592</ele><time>2022-10-15T12:35:43Z</time><name>PT2879</name></trkpt>
<trkpt lat="52.916249" lon="-3.353644"><ele>592</ele><time>2022-10-15T12:35:46Z</time><name>PT2880</name></trkpt>
<trkpt lat="52.916288" lon="-3.353634"><ele>591</ele><time>2022-10-15T12:35:50Z</time><name>PT2881</name></trkpt>
<trkpt lat="52.916314" lon="-3.353629"><ele>591</ele><time>2022-10-15T12:35:53Z</time><name>PT2882</name></trkpt>
<trkpt lat="52.916348" lon="-3.353628"><ele>591</ele><time>2022-10-15T12:35:57Z</time><name>PT2883</name></trkpt>
<trkpt lat="52.916379" lon="-3.353625"><ele>591</ele><time>2022-10-15T12:36:01Z</time><name>PT2884</name></trkpt>
<trkpt lat="52.916419" lon="-3.353615"><ele>591</ele><time>2022-10-15T12:36:05Z</time><name>PT2885</name></trkpt>
<trkpt lat="52.916449" lon="-3.353615"><ele>591</ele><time>2022-10-15T12:36:08Z</time><name>PT2886</name></trkpt>
<trkpt lat="52.916483" lon="-3.353599"><ele>592</ele><time>2022-10-15T12:36:12Z</time><name>PT2887</name></trkpt>
<trkpt lat="52.916497" lon="-3.353594"><ele>593</ele><time>2022-10-15T12:36:15Z</time><name>PT2888</name></trkpt>
<trkpt lat="52.916513" lon="-3.353579"><ele>593</ele><time>2022-10-15T12:36:21Z</time><name>PT2889</name></trkpt>
<trkpt lat="52.916550" lon="-3.353574"><ele>593</ele><time>2022-10-15T12:36:25Z</time><name>PT2890</name></trkpt>
<trkpt lat="52.916564" lon="-3.353573"><ele>594</ele><time>2022-10-15T12:36:28Z</time><name>PT2891</name></trkpt>
<trkpt lat="52.916573" lon="-3.353569"><ele>594</ele><time>2022-10-15T12:36:32Z</time><name>PT2892</name></trkpt>
<trkpt lat="52.916603" lon="-3.353551"><ele>594</ele><time>2022-10-15T12:36:35Z</time><name>PT2893</name></trkpt>
<trkpt lat="52.916619" lon="-3.353551"><ele>594</ele><time>2022-10-15T12:36:38Z</time><name>PT2894</name></trkpt>
<trkpt lat="52.916640" lon="-3.353542"><ele>594</ele><time>2022-10-15T12:36:42Z</time><name>PT2895</name></trkpt>
<trkpt lat="52.916662" lon="-3.353536"><ele>594</ele><time>2022-10-15T12:36:45Z</time><name>PT2896</name></trkpt>
<trkpt lat="52.916698" lon="-3.353527"><ele>593</ele><time>2022-10-15T12:36:49Z</time><name>PT2897</name></trkpt>
<trkpt lat="52.916743" lon="-3.353517"><ele>593</ele><time>2022-10-15T12:36:53Z</time><name>PT2898</name></trkpt>
<trkpt lat="52.916774" lon="-3.353507"><ele>594</ele><time>2022-10-15T12:36:56Z</time><name>PT2899</name></trkpt>
<trkpt lat="52.916809" lon="-3.353508"><ele>595</ele><time>2022-10-15T12:36:59Z</time><name>PT2900</name></trkpt>
<trkpt lat="52.916856" lon="-3.353507"><ele>594</ele><time>2022-10-15T12:37:03Z</time><name>PT2901</name></trkpt>
<trkpt lat="52.916874" lon="-3.353518"><ele>595</ele><time>2022-10-15T12:37:06Z</time><name>PT2902</name></trkpt>
<trkpt lat="52.916900" lon="-3.353527"><ele>596</ele><time>2022-10-15T12:37:10Z</time><name>PT2903</name></trkpt>
<trkpt lat="52.916912" lon="-3.353527"><ele>596</ele><time>2022-10-15T12:37:13Z</time><name>PT2904</name></trkpt>
<trkpt lat="52.916915" lon="-3.353521"><ele>596</ele><time>2022-10-15T12:37:16Z</time><name>PT2905</name></trkpt>
<trkpt lat="52.916947" lon="-3.353511"><ele>596</ele><time>2022-10-15T12:37:19Z</time><name>PT2906</name></trkpt>
<trkpt lat="52.916991" lon="-3.353518"><ele>596</ele><time>2022-10-15T12:37:23Z</time><name>PT2907</name></trkpt>
<trkpt lat="52.917039" lon="-3.353504"><ele>596</ele><time>2022-10-15T12:37:27Z</time><name>PT2908</name></trkpt>
<trkpt lat="52.917082" lon="-3.353483"><ele>597</ele><time>2022-10-15T12:37:31Z</time><name>PT2909</name></trkpt>
<trkpt lat="52.917108" lon="-3.353486"><ele>598</ele><time>2022-10-15T12:37:35Z</time><name>PT2910</name></trkpt>
<trkpt lat="52.917131" lon="-3.353481"><ele>598</ele><time>2022-10-15T12:37:39Z</time><name>PT2911</name></trkpt>
<trkpt lat="52.917171" lon="-3.353489"><ele>597</ele><time>2022-10-15T12:37:43Z</time><name>PT2912</name></trkpt>
<trkpt lat="52.917204" lon="-3.353493"><ele>597</ele><time>2022-10-15T12:37:47Z</time><name>PT2913</name></trkpt>
<trkpt lat="52.917227" lon="-3.353487"><ele>596</ele><time>2022-10-15T12:37:50Z</time><name>PT2914</name></trkpt>
<trkpt lat="52.917267" lon="-3.353460"><ele>595</ele><time>2022-10-15T12:37:54Z</time><name>PT2915</name></trkpt>
<trkpt lat="52.917297" lon="-3.353430"><ele>593</ele><time>2022-10-15T12:37:57Z</time><name>PT2916</name></trkpt>
<trkpt lat="52.917327" lon="-3.353418"><ele>593</ele><time>2022-10-15T12:38:00Z</time><name>PT2917</name></trkpt>
<trkpt lat="52.917372" lon="-3.353413"><ele>592</ele><time>2022-10-15T12:38:04Z</time><name>PT2918</name></trkpt>
<trkpt lat="52.917421" lon="-3.353410"><ele>591</ele><time>2022-10-15T12:38:08Z</time><name>PT2919</name></trkpt>
<trkpt lat="52.917458" lon="-3.353410"><ele>590</ele><time>2022-10-15T12:38:12Z</time><name>PT2920</name></trkpt>
<trkpt lat="52.917482" lon="-3.353402"><ele>592</ele><time>2022-10-15T12:38:15Z</time><name>PT2921</name></trkpt>
<trkpt lat="52.917505" lon="-3.353383"><ele>591</ele><time>2022-10-15T12:38:18Z</time><name>PT2922</name></trkpt>
<trkpt lat="52.917535" lon="-3.353380"><ele>591</ele><time>2022-10-15T12:38:21Z</time><name>PT2923</name></trkpt>
<trkpt lat="52.917569" lon="-3.353374"><ele>591</ele><time>2022-10-15T12:38:24Z</time><name>PT2924</name></trkpt>
<trkpt lat="52.917612" lon="-3.353362"><ele>591</ele><time>2022-10-15T12:38:28Z</time><name>PT2925</name></trkpt>
<trkpt lat="52.917656" lon="-3.353333"><ele>591</ele><time>2022-10-15T12:38:32Z</time><name>PT2926</name></trkpt>
<trkpt lat="52.917688" lon="-3.353314"><ele>592</ele><time>2022-10-15T12:38:35Z</time><name>PT2927</name></trkpt>
<trkpt lat="52.917714" lon="-3.353282"><ele>593</ele><time>2022-10-15T12:38:39Z</time><name>PT2928</name></trkpt>
<trkpt lat="52.917742" lon="-3.353260"><ele>594</ele><time>2022-10-15T12:38:42Z</time><name>PT2929</name></trkpt>
<trkpt lat="52.917764" lon="-3.353220"><ele>594</ele><time>2022-10-15T12:38:45Z</time><name>PT2930</name></trkpt>
<trkpt lat="52.917792" lon="-3.353173"><ele>595</ele><time>2022-10-15T12:38:49Z</time><name>PT2931</name></trkpt>
<trkpt lat="52.917812" lon="-3.353151"><ele>595</ele><time>2022-10-15T12:38:53Z</time><name>PT2932</name></trkpt>
<trkpt lat="52.917856" lon="-3.353125"><ele>595</ele><time>2022-10-15T12:38:57Z</time><name>PT2933</name></trkpt>
<trkpt lat="52.917876" lon="-3.353114"><ele>595</ele><time>2022-10-15T12:39:00Z</time><name>PT2934</name></trkpt>
<trkpt lat="52.917889" lon="-3.353126"><ele>595</ele><time>2022-10-15T12:39:03Z</time><name>PT2935</name></trkpt>
<trkpt lat="52.917892" lon="-3.353119"><ele>595</ele><time>2022-10-15T12:39:07Z</time><name>PT2936</name></trkpt>
<trkpt lat="52.917897" lon="-3.353122"><ele>595</ele><time>2022-10-15T12:39:10Z</time><name>PT2937</name></trkpt>
<trkpt lat="52.917920" lon="-3.353131"><ele>595</ele><time>2022-10-15T12:39:13Z</time><name>PT2938</name></trkpt>
<trkpt lat="52.917949" lon="-3.353142"><ele>595</ele><time>2022-10-15T12:39:16Z</time><name>PT2939</name></trkpt>
<trkpt lat="52.917982" lon="-3.353135"><ele>595</ele><time>2022-10-15T12:39:19Z</time><name>PT2940</name></trkpt>
<trkpt lat="52.918014" lon="-3.353134"><ele>595</ele><time>2022-10-15T12:39:22Z</time><name>PT2941</name></trkpt>
<trkpt lat="52.918057" lon="-3.353148"><ele>594</ele><time>2022-10-15T12:39:26Z</time><name>PT2942</name></trkpt>
<trkpt lat="52.918084" lon="-3.353149"><ele>594</ele><time>2022-10-15T12:39:29Z</time><name>PT2943</name></trkpt>
<trkpt lat="52.918112" lon="-3.353135"><ele>594</ele><time>2022-10-15T12:39:32Z</time><name>PT2944</name></trkpt>
<trkpt lat="52.918141" lon="-3.353120"><ele>594</ele><time>2022-10-15T12:39:35Z</time><name>PT2945</name></trkpt>
<trkpt lat="52.918176" lon="-3.353109"><ele>593</ele><time>2022-10-15T12:39:39Z</time><name>PT2946</name></trkpt>
<trkpt lat="52.918212" lon="-3.353110"><ele>593</ele><time>2022-10-15T12:39:43Z</time><name>PT2947</name></trkpt>
<trkpt lat="52.918254" lon="-3.353095"><ele>592</ele><time>2022-10-15T12:39:47Z</time><name>PT2948</name></trkpt>
<trkpt lat="52.918296" lon="-3.353079"><ele>592</ele><time>2022-10-15T12:39:51Z</time><name>PT2949</name></trkpt>
<trkpt lat="52.918329" lon="-3.353056"><ele>592</ele><time>2022-10-15T12:39:54Z</time><name>PT2950</name></trkpt>
<trkpt lat="52.918373" lon="-3.353022"><ele>591</ele><time>2022-10-15T12:39:58Z</time><name>PT2951</name></trkpt>
<trkpt lat="52.918416" lon="-3.352999"><ele>591</ele><time>2022-10-15T12:40:02Z</time><name>PT2952</name></trkpt>
<trkpt lat="52.918451" lon="-3.352984"><ele>591</ele><time>2022-10-15T12:40:05Z</time><name>PT2953</name></trkpt>
<trkpt lat="52.918488" lon="-3.352993"><ele>591</ele><time>2022-10-15T12:40:09Z</time><name>PT2954</name></trkpt>
<trkpt lat="52.918508" lon="-3.353034"><ele>590</ele><time>2022-10-15T12:40:12Z</time><name>PT2955</name></trkpt>
<trkpt lat="52.918544" lon="-3.353070"><ele>590</ele><time>2022-10-15T12:40:16Z</time><name>PT2956</name></trkpt>
<trkpt lat="52.918572" lon="-3.353112"><ele>589</ele><time>2022-10-15T12:40:19Z</time><name>PT2957</name></trkpt>
<trkpt lat="52.918601" lon="-3.353172"><ele>588</ele><time>2022-10-15T12:40:23Z</time><name>PT2958</name></trkpt>
<trkpt lat="52.918624" lon="-3.353213"><ele>588</ele><time>2022-10-15T12:40:26Z</time><name>PT2959</name></trkpt>
<trkpt lat="52.918648" lon="-3.353245"><ele>588</ele><time>2022-10-15T12:40:29Z</time><name>PT2960</name></trkpt>
<trkpt lat="52.918678" lon="-3.353267"><ele>588</ele><time>2022-10-15T12:40:32Z</time><name>PT2961</name></trkpt>
<trkpt lat="52.918716" lon="-3.353298"><ele>588</ele><time>2022-10-15T12:40:36Z</time><name>PT2962</name></trkpt>
<trkpt lat="52.918745" lon="-3.353325"><ele>588</ele><time>2022-10-15T12:40:39Z</time><name>PT2963</name></trkpt>
<trkpt lat="52.918787" lon="-3.353358"><ele>588</ele><time>2022-10-15T12:40:43Z</time><name>PT2964</name></trkpt>
<trkpt lat="52.918807" lon="-3.353401"><ele>588</ele><time>2022-10-15T12:40:46Z</time><name>PT2965</name></trkpt>
<trkpt lat="52.918830" lon="-3.353424"><ele>589</ele><time>2022-10-15T12:40:50Z</time><name>PT2966</name></trkpt>
<trkpt lat="52.918844" lon="-3.353433"><ele>589</ele><time>2022-10-15T12:40:54Z</time><name>PT2967</name></trkpt>
<trkpt lat="52.918869" lon="-3.353432"><ele>588</ele><time>2022-10-15T12:40:57Z</time><name>PT2968</name></trkpt>
<trkpt lat="52.918913" lon="-3.353451"><ele>588</ele><time>2022-10-15T12:41:01Z</time><name>PT2969</name></trkpt>
<trkpt lat="52.918940" lon="-3.353463"><ele>588</ele><time>2022-10-15T12:41:04Z</time><name>PT2970</name></trkpt>
<trkpt lat="52.918975" lon="-3.353445"><ele>587</ele><time>2022-10-15T12:41:08Z</time><name>PT2971</name></trkpt>
<trkpt lat="52.919001" lon="-3.353422"><ele>587</ele><time>2022-10-15T12:41:11Z</time><name>PT2972</name></trkpt>
<trkpt lat="52.919021" lon="-3.353411"><ele>588</ele><time>2022-10-15T12:41:15Z</time><name>PT2973</name></trkpt>
<trkpt lat="52.919029" lon="-3.353420"><ele>589</ele><time>2022-10-15T12:41:19Z</time><name>PT2974</name></trkpt>
<trkpt lat="52.919041" lon="-3.353417"><ele>590</ele><time>2022-10-15T12:41:23Z</time><name>PT2975</name></trkpt>
<trkpt lat="52.919043" lon="-3.353421"><ele>590</ele><time>2022-10-15T12:41:26Z</time><name>PT2976</name></trkpt>
<trkpt lat="52.919046" lon="-3.353422"><ele>590</ele><time>2022-10-15T12:41:29Z</time><name>PT2977</name></trkpt>
<trkpt lat="52.919044" lon="-3.353427"><ele>590</ele><time>2022-10-15T12:41:33Z</time><name>PT2978</name></trkpt>
<trkpt lat="52.919047" lon="-3.353431"><ele>590</ele><time>2022-10-15T12:41:37Z</time><name>PT2979</name></trkpt>
<trkpt lat="52.919053" lon="-3.353424"><ele>590</ele><time>2022-10-15T12:41:41Z</time><name>PT2980</name></trkpt>
<trkpt lat="52.919052" lon="-3.353430"><ele>590</ele><time>2022-10-15T12:41:45Z</time><name>PT2981</name></trkpt>
<trkpt lat="52.919063" lon="-3.353423"><ele>590</ele><time>2022-10-15T12:42:08Z</time><name>PT2982</name></trkpt>
<trkpt lat="52.919061" lon="-3.353427"><ele>589</ele><time>2022-10-15T12:42:12Z</time><name>PT2983</name></trkpt>
<trkpt lat="52.919059" lon="-3.353415"><ele>589</ele><time>2022-10-15T12:42:16Z</time><name>PT2984</name></trkpt>
<trkpt lat="52.919060" lon="-3.353404"><ele>589</ele><time>2022-10-15T12:42:20Z</time><name>PT2985</name></trkpt>
<trkpt lat="52.919067" lon="-3.353387"><ele>589</ele><time>2022-10-15T12:42:24Z</time><name>PT2986</name></trkpt>
<trkpt lat="52.919071" lon="-3.353394"><ele>587</ele><time>2022-10-15T12:42:32Z</time><name>PT2987</name></trkpt>
<trkpt lat="52.919078" lon="-3.353425"><ele>587</ele><time>2022-10-15T12:42:36Z</time><name>PT2988</name></trkpt>
<trkpt lat="52.919081" lon="-3.353419"><ele>587</ele><time>2022-10-15T12:42:40Z</time><name>PT2989</name></trkpt>
<trkpt lat="52.919076" lon="-3.353428"><ele>587</ele><time>2022-10-15T12:42:44Z</time><name>PT2990</name></trkpt>
<trkpt lat="52.919069" lon="-3.353426"><ele>588</ele><time>2022-10-15T12:43:00Z</time><name>PT2991</name></trkpt>
<trkpt lat="52.919073" lon="-3.353424"><ele>587</ele><time>2022-10-15T12:43:04Z</time><name>PT2992</name></trkpt>
<trkpt lat="52.919074" lon="-3.353425"><ele>587</ele><time>2022-10-15T12:43:08Z</time><name>PT2993</name></trkpt>
<trkpt lat="52.919073" lon="-3.353427"><ele>587</ele><time>2022-10-15T12:43:12Z</time><name>PT2994</name></trkpt>
<trkpt lat="52.919073" lon="-3.353437"><ele>587</ele><time>2022-10-15T12:46:56Z</time><name>PT2995</name></trkpt>
<trkpt lat="52.919074" lon="-3.353447"><ele>588</ele><time>2022-10-15T12:47:00Z</time><name>PT2996</name></trkpt>
<trkpt lat="52.919073" lon="-3.353451"><ele>588</ele><time>2022-10-15T12:47:04Z</time><name>PT2997</name></trkpt>
<trkpt lat="52.919075" lon="-3.353462"><ele>586</ele><time>2022-10-15T12:47:08Z</time><name>PT2998</name></trkpt>
<trkpt lat="52.919076" lon="-3.353467"><ele>586</ele><time>2022-10-15T12:47:12Z</time><name>PT2999</name></trkpt>
<trkpt lat="52.919085" lon="-3.353466"><ele>585</ele><time>2022-10-15T12:47:16Z</time><name>PT3000</name></trkpt>
<trkpt lat="52.919101" lon="-3.353472"><ele>583</ele><time>2022-10-15T12:47:20Z</time><name>PT3001</name></trkpt>
<trkpt lat="52.919106" lon="-3.353453"><ele>584</ele><time>2022-10-15T12:47:24Z</time><name>PT3002</name></trkpt>
<trkpt lat="52.919107" lon="-3.353466"><ele>583</ele><time>2022-10-15T12:47:40Z</time><name>PT3003</name></trkpt>
<trkpt lat="52.919103" lon="-3.353469"><ele>583</ele><time>2022-10-15T12:47:44Z</time><name>PT3004</name></trkpt>
<trkpt lat="52.919089" lon="-3.353465"><ele>584</ele><time>2022-10-15T12:50:31Z</time><name>PT3005</name></trkpt>
<trkpt lat="52.919087" lon="-3.353470"><ele>584</ele><time>2022-10-15T12:51:35Z</time><name>PT3006</name></trkpt>
<trkpt lat="52.919084" lon="-3.353472"><ele>584</ele><time>2022-10-15T12:51:42Z</time><name>PT3007</name></trkpt>
<trkpt lat="52.919079" lon="-3.353479"><ele>584</ele><time>2022-10-15T12:51:46Z</time><name>PT3008</name></trkpt>
<trkpt lat="52.919077" lon="-3.353464"><ele>584</ele><time>2022-10-15T12:51:50Z</time><name>PT3009</name></trkpt>
<trkpt lat="52.919064" lon="-3.353460"><ele>585</ele><time>2022-10-15T12:52:58Z</time><name>PT3010</name></trkpt>
<trkpt lat="52.919079" lon="-3.353457"><ele>585</ele><time>2022-10-15T12:53:10Z</time><name>PT3011</name></trkpt>
<trkpt lat="52.919079" lon="-3.353459"><ele>585</ele><time>2022-10-15T12:53:14Z</time><name>PT3012</name></trkpt>
<trkpt lat="52.919093" lon="-3.353458"><ele>585</ele><time>2022-10-15T12:56:14Z</time><name>PT3013</name></trkpt>
<trkpt lat="52.919091" lon="-3.353457"><ele>584</ele><time>2022-10-15T12:56:18Z</time><name>PT3014</name></trkpt>
<trkpt lat="52.919092" lon="-3.353451"><ele>585</ele><time>2022-10-15T12:56:38Z</time><name>PT3015</name></trkpt>
<trkpt lat="52.919092" lon="-3.353453"><ele>584</ele><time>2022-10-15T12:56:42Z</time><name>PT3016</name></trkpt>
<trkpt lat="52.919091" lon="-3.353458"><ele>583</ele><time>2022-10-15T12:57:34Z</time><name>PT3017</name></trkpt>
<trkpt lat="52.919093" lon="-3.353464"><ele>583</ele><time>2022-10-15T12:59:02Z</time><name>PT3018</name></trkpt>
<trkpt lat="52.919099" lon="-3.353472"><ele>581</ele><time>2022-10-15T12:59:06Z</time><name>PT3019</name></trkpt>
<trkpt lat="52.919103" lon="-3.353466"><ele>582</ele><time>2022-10-15T13:00:34Z</time><name>PT3020</name></trkpt>
<trkpt lat="52.919104" lon="-3.353467"><ele>582</ele><time>2022-10-15T13:01:02Z</time><name>PT3021</name></trkpt>
<trkpt lat="52.919102" lon="-3.353466"><ele>581</ele><time>2022-10-15T13:01:06Z</time><name>PT3022</name></trkpt>
<trkpt lat="52.919102" lon="-3.353447"><ele>581</ele><time>2022-10-15T13:01:10Z</time><name>PT3023</name></trkpt>
<trkpt lat="52.919101" lon="-3.353443"><ele>580</ele><time>2022-10-15T13:01:14Z</time><name>PT3024</name></trkpt>
<trkpt lat="52.919098" lon="-3.353440"><ele>580</ele><time>2022-10-15T13:01:18Z</time><name>PT3025</name></trkpt>
<trkpt lat="52.919084" lon="-3.353427"><ele>581</ele><time>2022-10-15T13:01:30Z</time><name>PT3026</name></trkpt>
<trkpt lat="52.919087" lon="-3.353434"><ele>583</ele><time>2022-10-15T13:01:34Z</time><name>PT3027</name></trkpt>
<trkpt lat="52.919088" lon="-3.353442"><ele>583</ele><time>2022-10-15T13:01:38Z</time><name>PT3028</name></trkpt>
<trkpt lat="52.919085" lon="-3.353445"><ele>584</ele><time>2022-10-15T13:01:42Z</time><name>PT3029</name></trkpt>
<trkpt lat="52.919083" lon="-3.353461"><ele>583</ele><time>2022-10-15T13:01:46Z</time><name>PT3030</name></trkpt>
<trkpt lat="52.919090" lon="-3.353438"><ele>584</ele><time>2022-10-15T13:01:50Z</time><name>PT3031</name></trkpt>
<trkpt lat="52.919080" lon="-3.353431"><ele>584</ele><time>2022-10-15T13:01:54Z</time><name>PT3032</name></trkpt>
<trkpt lat="52.919066" lon="-3.353441"><ele>585</ele><time>2022-10-15T13:01:58Z</time><name>PT3033</name></trkpt>
<trkpt lat="52.919067" lon="-3.353450"><ele>587</ele><time>2022-10-15T13:02:02Z</time><name>PT3034</name></trkpt>
<trkpt lat="52.919070" lon="-3.353445"><ele>587</ele><time>2022-10-15T13:02:06Z</time><name>PT3035</name></trkpt>
<trkpt lat="52.919073" lon="-3.353459"><ele>586</ele><time>2022-10-15T13:02:10Z</time><name>PT3036</name></trkpt>
<trkpt lat="52.919071" lon="-3.353468"><ele>586</ele><time>2022-10-15T13:02:14Z</time><name>PT3037</name></trkpt>
<trkpt lat="52.919083" lon="-3.353461"><ele>586</ele><time>2022-10-15T13:02:18Z</time><name>PT3038</name></trkpt>
<trkpt lat="52.919089" lon="-3.353458"><ele>585</ele><time>2022-10-15T13:03:42Z</time><name>PT3039</name></trkpt>
<trkpt lat="52.919093" lon="-3.353450"><ele>585</ele><time>2022-10-15T13:03:46Z</time><name>PT3040</name></trkpt>
<trkpt lat="52.919093" lon="-3.353441"><ele>585</ele><time>2022-10-15T13:03:50Z</time><name>PT3041</name></trkpt>
<trkpt lat="52.919098" lon="-3.353435"><ele>585</ele><time>2022-10-15T13:03:54Z</time><name>PT3042</name></trkpt>
<trkpt lat="52.919101" lon="-3.353432"><ele>585</ele><time>2022-10-15T13:03:58Z</time><name>PT3043</name></trkpt>
<trkpt lat="52.919108" lon="-3.353441"><ele>584</ele><time>2022-10-15T13:04:02Z</time><name>PT3044</name></trkpt>
<trkpt lat="52.919112" lon="-3.353432"><ele>584</ele><time>2022-10-15T13:04:06Z</time><name>PT3045</name></trkpt>
<trkpt lat="52.919095" lon="-3.353424"><ele>583</ele><time>2022-10-15T13:04:50Z</time><name>PT3046</name></trkpt>
<trkpt lat="52.919084" lon="-3.353418"><ele>583</ele><time>2022-10-15T13:04:54Z</time><name>PT3047</name></trkpt>
<trkpt lat="52.919086" lon="-3.353418"><ele>582</ele><time>2022-10-15T13:04:58Z</time><name>PT3048</name></trkpt>
<trkpt lat="52.919080" lon="-3.353445"><ele>583</ele><time>2022-10-15T13:05:46Z</time><name>PT3049</name></trkpt>
<trkpt lat="52.919081" lon="-3.353470"><ele>583</ele><time>2022-10-15T13:05:50Z</time><name>PT3050</name></trkpt>
<trkpt lat="52.919089" lon="-3.353434"><ele>582</ele><time>2022-10-15T13:05:54Z</time><name>PT3051</name></trkpt>
<trkpt lat="52.919090" lon="-3.353433"><ele>582</ele><time>2022-10-15T13:05:58Z</time><name>PT3052</name></trkpt>
<trkpt lat="52.919084" lon="-3.353422"><ele>584</ele><time>2022-10-15T13:06:02Z</time><name>PT3053</name></trkpt>
<trkpt lat="52.919087" lon="-3.353382"><ele>586</ele><time>2022-10-15T13:06:06Z</time><name>PT3054</name></trkpt>
<trkpt lat="52.919082" lon="-3.353372"><ele>586</ele><time>2022-10-15T13:06:10Z</time><name>PT3055</name></trkpt>
<trkpt lat="52.919077" lon="-3.353404"><ele>587</ele><time>2022-10-15T13:06:29Z</time><name>PT3056</name></trkpt>
<trkpt lat="52.919072" lon="-3.353416"><ele>586</ele><time>2022-10-15T13:07:55Z</time><name>PT3057</name></trkpt>
<trkpt lat="52.919071" lon="-3.353427"><ele>586</ele><time>2022-10-15T13:07:59Z</time><name>PT3058</name></trkpt>
<trkpt lat="52.919066" lon="-3.353440"><ele>585</ele><time>2022-10-15T13:08:26Z</time><name>PT3059</name></trkpt>
<trkpt lat="52.919065" lon="-3.353450"><ele>586</ele><time>2022-10-15T13:08:56Z</time><name>PT3060</name></trkpt>
<trkpt lat="52.919062" lon="-3.353456"><ele>586</ele><time>2022-10-15T13:09:00Z</time><name>PT3061</name></trkpt>
<trkpt lat="52.919064" lon="-3.353451"><ele>585</ele><time>2022-10-15T13:09:04Z</time><name>PT3062</name></trkpt>
<trkpt lat="52.919067" lon="-3.353453"><ele>585</ele><time>2022-10-15T13:09:08Z</time><name>PT3063</name></trkpt>
<trkpt lat="52.919061" lon="-3.353454"><ele>585</ele><time>2022-10-15T13:09:12Z</time><name>PT3064</name></trkpt>
<trkpt lat="52.919049" lon="-3.353463"><ele>585</ele><time>2022-10-15T13:09:41Z</time><name>PT3065</name></trkpt>
<trkpt lat="52.919029" lon="-3.353479"><ele>584</ele><time>2022-10-15T13:09:45Z</time><name>PT3066</name></trkpt>
<trkpt lat="52.919022" lon="-3.353486"><ele>584</ele><time>2022-10-15T13:09:48Z</time><name>PT3067</name></trkpt>
<trkpt lat="52.919018" lon="-3.353484"><ele>584</ele><time>2022-10-15T13:09:52Z</time><name>PT3068</name></trkpt>
<trkpt lat="52.919014" lon="-3.353491"><ele>584</ele><time>2022-10-15T13:10:29Z</time><name>PT3069</name></trkpt>
<trkpt lat="52.919007" lon="-3.353508"><ele>584</ele><time>2022-10-15T13:10:33Z</time><name>PT3070</name></trkpt>
<trkpt lat="52.918999" lon="-3.353510"><ele>584</ele><time>2022-10-15T13:10:36Z</time><name>PT3071</name></trkpt>
<trkpt lat="52.918994" lon="-3.353517"><ele>584</ele><time>2022-10-15T13:10:40Z</time><name>PT3072</name></trkpt>
<trkpt lat="52.918984" lon="-3.353507"><ele>584</ele><time>2022-10-15T13:10:58Z</time><name>PT3073</name></trkpt>
<trkpt lat="52.918977" lon="-3.353501"><ele>583</ele><time>2022-10-15T13:11:01Z</time><name>PT3074</name></trkpt>
<trkpt lat="52.918962" lon="-3.353509"><ele>583</ele><time>2022-10-15T13:11:05Z</time><name>PT3075</name></trkpt>
<trkpt lat="52.918951" lon="-3.353541"><ele>584</ele><time>2022-10-15T13:11:08Z</time><name>PT3076</name></trkpt>
<trkpt lat="52.918947" lon="-3.353596"><ele>584</ele><time>2022-10-15T13:11:12Z</time><name>PT3077</name></trkpt>
<trkpt lat="52.918952" lon="-3.353618"><ele>585</ele><time>2022-10-15T13:11:15Z</time><name>PT3078</name></trkpt>
<trkpt lat="52.918950" lon="-3.353618"><ele>585</ele><time>2022-10-15T13:11:19Z</time><name>PT3079</name></trkpt>
<trkpt lat="52.918949" lon="-3.353626"><ele>586</ele><time>2022-10-15T13:11:26Z</time><name>PT3080</name></trkpt>
<trkpt lat="52.918958" lon="-3.353660"><ele>586</ele><time>2022-10-15T13:11:38Z</time><name>PT3081</name></trkpt>
<trkpt lat="52.918969" lon="-3.353713"><ele>587</ele><time>2022-10-15T13:11:41Z</time><name>PT3082</name></trkpt>
<trkpt lat="52.918982" lon="-3.353765"><ele>587</ele><time>2022-10-15T13:11:44Z</time><name>PT3083</name></trkpt>
<trkpt lat="52.919003" lon="-3.353831"><ele>587</ele><time>2022-10-15T13:11:48Z</time><name>PT3084</name></trkpt>
<trkpt lat="52.919025" lon="-3.353889"><ele>588</ele><time>2022-10-15T13:11:52Z</time><name>PT3085</name></trkpt>
<trkpt lat="52.919031" lon="-3.353909"><ele>588</ele><time>2022-10-15T13:11:56Z</time><name>PT3086</name></trkpt>
<trkpt lat="52.919031" lon="-3.353910"><ele>588</ele><time>2022-10-15T13:12:00Z</time><name>PT3087</name></trkpt>
<trkpt lat="52.919043" lon="-3.353926"><ele>589</ele><time>2022-10-15T13:12:22Z</time><name>PT3088</name></trkpt>
<trkpt lat="52.919069" lon="-3.353982"><ele>589</ele><time>2022-10-15T13:12:26Z</time><name>PT3089</name></trkpt>
<trkpt lat="52.919099" lon="-3.354035"><ele>589</ele><time>2022-10-15T13:12:30Z</time><name>PT3090</name></trkpt>
<trkpt lat="52.919122" lon="-3.354082"><ele>589</ele><time>2022-10-15T13:12:33Z</time><name>PT3091</name></trkpt>
<trkpt lat="52.919149" lon="-3.354120"><ele>589</ele><time>2022-10-15T13:12:36Z</time><name>PT3092</name></trkpt>
<trkpt lat="52.919176" lon="-3.354149"><ele>588</ele><time>2022-10-15T13:12:39Z</time><name>PT3093</name></trkpt>
<trkpt lat="52.919210" lon="-3.354196"><ele>588</ele><time>2022-10-15T13:12:43Z</time><name>PT3094</name></trkpt>
<trkpt lat="52.919225" lon="-3.354236"><ele>589</ele><time>2022-10-15T13:12:47Z</time><name>PT3095</name></trkpt>
<trkpt lat="52.919253" lon="-3.354285"><ele>590</ele><time>2022-10-15T13:12:51Z</time><name>PT3096</name></trkpt>
<trkpt lat="52.919289" lon="-3.354321"><ele>590</ele><time>2022-10-15T13:12:54Z</time><name>PT3097</name></trkpt>
<trkpt lat="52.919317" lon="-3.354346"><ele>591</ele><time>2022-10-15T13:12:57Z</time><name>PT3098</name></trkpt>
<trkpt lat="52.919337" lon="-3.354392"><ele>591</ele><time>2022-10-15T13:13:00Z</time><name>PT3099</name></trkpt>
<trkpt lat="52.919354" lon="-3.354440"><ele>591</ele><time>2022-10-15T13:13:03Z</time><name>PT3100</name></trkpt>
<trkpt lat="52.919370" lon="-3.354505"><ele>590</ele><time>2022-10-15T13:13:07Z</time><name>PT3101</name></trkpt>
<trkpt lat="52.919378" lon="-3.354576"><ele>589</ele><time>2022-10-15T13:13:11Z</time><name>PT3102</name></trkpt>
<trkpt lat="52.919380" lon="-3.354646"><ele>588</ele><time>2022-10-15T13:13:15Z</time><name>PT3103</name></trkpt>
<trkpt lat="52.919377" lon="-3.354722"><ele>587</ele><time>2022-10-15T13:13:19Z</time><name>PT3104</name></trkpt>
<trkpt lat="52.919374" lon="-3.354777"><ele>587</ele><time>2022-10-15T13:13:22Z</time><name>PT3105</name></trkpt>
<trkpt lat="52.919367" lon="-3.354850"><ele>584</ele><time>2022-10-15T13:13:26Z</time><name>PT3106</name></trkpt>
<trkpt lat="52.919367" lon="-3.354905"><ele>584</ele><time>2022-10-15T13:13:29Z</time><name>PT3107</name></trkpt>
<trkpt lat="52.919366" lon="-3.354948"><ele>584</ele><time>2022-10-15T13:13:32Z</time><name>PT3108</name></trkpt>
<trkpt lat="52.919364" lon="-3.354995"><ele>584</ele><time>2022-10-15T13:13:36Z</time><name>PT3109</name></trkpt>
<trkpt lat="52.919364" lon="-3.355051"><ele>583</ele><time>2022-10-15T13:13:39Z</time><name>PT3110</name></trkpt>
<trkpt lat="52.919366" lon="-3.355115"><ele>582</ele><time>2022-10-15T13:13:42Z</time><name>PT3111</name></trkpt>
<trkpt lat="52.919369" lon="-3.355185"><ele>582</ele><time>2022-10-15T13:13:46Z</time><name>PT3112</name></trkpt>
<trkpt lat="52.919376" lon="-3.355241"><ele>581</ele><time>2022-10-15T13:13:49Z</time><name>PT3113</name></trkpt>
<trkpt lat="52.919383" lon="-3.355293"><ele>580</ele><time>2022-10-15T13:13:52Z</time><name>PT3114</name></trkpt>
<trkpt lat="52.919404" lon="-3.355360"><ele>579</ele><time>2022-10-15T13:13:56Z</time><name>PT3115</name></trkpt>
<trkpt lat="52.919419" lon="-3.355394"><ele>578</ele><time>2022-10-15T13:14:00Z</time><name>PT3116</name></trkpt>
<trkpt lat="52.919423" lon="-3.355395"><ele>578</ele><time>2022-10-15T13:14:04Z</time><name>PT3117</name></trkpt>
<trkpt lat="52.919438" lon="-3.355431"><ele>578</ele><time>2022-10-15T13:14:08Z</time><name>PT3118</name></trkpt>
<trkpt lat="52.919466" lon="-3.355500"><ele>577</ele><time>2022-10-15T13:14:12Z</time><name>PT3119</name></trkpt>
<trkpt lat="52.919492" lon="-3.355575"><ele>577</ele><time>2022-10-15T13:14:16Z</time><name>PT3120</name></trkpt>
<trkpt lat="52.919517" lon="-3.355637"><ele>577</ele><time>2022-10-15T13:14:20Z</time><name>PT3121</name></trkpt>
<trkpt lat="52.919554" lon="-3.355715"><ele>579</ele><time>2022-10-15T13:14:24Z</time><name>PT3122</name></trkpt>
<trkpt lat="52.919584" lon="-3.355774"><ele>579</ele><time>2022-10-15T13:14:28Z</time><name>PT3123</name></trkpt>
<trkpt lat="52.919614" lon="-3.355835"><ele>579</ele><time>2022-10-15T13:14:32Z</time><name>PT3124</name></trkpt>
<trkpt lat="52.919636" lon="-3.355876"><ele>579</ele><time>2022-10-15T13:14:35Z</time><name>PT3125</name></trkpt>
<trkpt lat="52.919658" lon="-3.355939"><ele>578</ele><time>2022-10-15T13:14:39Z</time><name>PT3126</name></trkpt>
<trkpt lat="52.919677" lon="-3.355985"><ele>577</ele><time>2022-10-15T13:14:42Z</time><name>PT3127</name></trkpt>
<trkpt lat="52.919708" lon="-3.356052"><ele>577</ele><time>2022-10-15T13:14:46Z</time><name>PT3128</name></trkpt>
<trkpt lat="52.919727" lon="-3.356094"><ele>577</ele><time>2022-10-15T13:14:49Z</time><name>PT3129</name></trkpt>
<trkpt lat="52.919751" lon="-3.356159"><ele>576</ele><time>2022-10-15T13:14:53Z</time><name>PT3130</name></trkpt>
<trkpt lat="52.919770" lon="-3.356221"><ele>575</ele><time>2022-10-15T13:14:57Z</time><name>PT3131</name></trkpt>
<trkpt lat="52.919776" lon="-3.356262"><ele>575</ele><time>2022-10-15T13:15:00Z</time><name>PT3132</name></trkpt>
<trkpt lat="52.919787" lon="-3.356299"><ele>574</ele><time>2022-10-15T13:15:04Z</time><name>PT3133</name></trkpt>
<trkpt lat="52.919791" lon="-3.356361"><ele>573</ele><time>2022-10-15T13:15:08Z</time><name>PT3134</name></trkpt>
<trkpt lat="52.919800" lon="-3.356403"><ele>572</ele><time>2022-10-15T13:15:11Z</time><name>PT3135</name></trkpt>
<trkpt lat="52.919807" lon="-3.356472"><ele>571</ele><time>2022-10-15T13:15:15Z</time><name>PT3136</name></trkpt>
<trkpt lat="52.919808" lon="-3.356533"><ele>571</ele><time>2022-10-15T13:15:19Z</time><name>PT3137</name></trkpt>
<trkpt lat="52.919809" lon="-3.356587"><ele>570</ele><time>2022-10-15T13:15:22Z</time><name>PT3138</name></trkpt>
<trkpt lat="52.919823" lon="-3.356639"><ele>571</ele><time>2022-10-15T13:15:25Z</time><name>PT3139</name></trkpt>
<trkpt lat="52.919831" lon="-3.356711"><ele>570</ele><time>2022-10-15T13:15:29Z</time><name>PT3140</name></trkpt>
<trkpt lat="52.919838" lon="-3.356761"><ele>569</ele><time>2022-10-15T13:15:32Z</time><name>PT3141</name></trkpt>
<trkpt lat="52.919847" lon="-3.356833"><ele>568</ele><time>2022-10-15T13:15:36Z</time><name>PT3142</name></trkpt>
<trkpt lat="52.919850" lon="-3.356887"><ele>568</ele><time>2022-10-15T13:15:39Z</time><name>PT3143</name></trkpt>
<trkpt lat="52.919846" lon="-3.356936"><ele>566</ele><time>2022-10-15T13:15:42Z</time><name>PT3144</name></trkpt>
<trkpt lat="52.919839" lon="-3.356996"><ele>565</ele><time>2022-10-15T13:15:46Z</time><name>PT3145</name></trkpt>
<trkpt lat="52.919829" lon="-3.357047"><ele>565</ele><time>2022-10-15T13:15:49Z</time><name>PT3146</name></trkpt>
<trkpt lat="52.919820" lon="-3.357102"><ele>564</ele><time>2022-10-15T13:15:52Z</time><name>PT3147</name></trkpt>
<trkpt lat="52.919803" lon="-3.357157"><ele>564</ele><time>2022-10-15T13:15:55Z</time><name>PT3148</name></trkpt>
<trkpt lat="52.919788" lon="-3.357232"><ele>563</ele><time>2022-10-15T13:15:59Z</time><name>PT3149</name></trkpt>
<trkpt lat="52.919777" lon="-3.357283"><ele>563</ele><time>2022-10-15T13:16:02Z</time><name>PT3150</name></trkpt>
<trkpt lat="52.919775" lon="-3.357354"><ele>562</ele><time>2022-10-15T13:16:06Z</time><name>PT3151</name></trkpt>
<trkpt lat="52.919776" lon="-3.357429"><ele>561</ele><time>2022-10-15T13:16:10Z</time><name>PT3152</name></trkpt>
<trkpt lat="52.919777" lon="-3.357486"><ele>560</ele><time>2022-10-15T13:16:13Z</time><name>PT3153</name></trkpt>
<trkpt lat="52.919774" lon="-3.357534"><ele>559</ele><time>2022-10-15T13:16:16Z</time><name>PT3154</name></trkpt>
<trkpt lat="52.919765" lon="-3.357601"><ele>558</ele><time>2022-10-15T13:16:20Z</time><name>PT3155</name></trkpt>
<trkpt lat="52.919761" lon="-3.357645"><ele>558</ele><time>2022-10-15T13:16:23Z</time><name>PT3156</name></trkpt>
<trkpt lat="52.919743" lon="-3.357716"><ele>557</ele><time>2022-10-15T13:16:27Z</time><name>PT3157</name></trkpt>
<trkpt lat="52.919728" lon="-3.357789"><ele>557</ele><time>2022-10-15T13:16:31Z</time><name>PT3158</name></trkpt>
<trkpt lat="52.919728" lon="-3.357849"><ele>557</ele><time>2022-10-15T13:16:34Z</time><name>PT3159</name></trkpt>
<trkpt lat="52.919726" lon="-3.357909"><ele>556</ele><time>2022-10-15T13:16:37Z</time><name>PT3160</name></trkpt>
<trkpt lat="52.919739" lon="-3.357971"><ele>555</ele><time>2022-10-15T13:16:41Z</time><name>PT3161</name></trkpt>
<trkpt lat="52.919755" lon="-3.358023"><ele>554</ele><time>2022-10-15T13:16:45Z</time><name>PT3162</name></trkpt>
<trkpt lat="52.919775" lon="-3.358091"><ele>554</ele><time>2022-10-15T13:16:49Z</time><name>PT3163</name></trkpt>
<trkpt lat="52.919788" lon="-3.358161"><ele>553</ele><time>2022-10-15T13:16:53Z</time><name>PT3164</name></trkpt>
<trkpt lat="52.919808" lon="-3.358225"><ele>552</ele><time>2022-10-15T13:16:57Z</time><name>PT3165</name></trkpt>
<trkpt lat="52.919824" lon="-3.358290"><ele>552</ele><time>2022-10-15T13:17:01Z</time><name>PT3166</name></trkpt>
<trkpt lat="52.919828" lon="-3.358350"><ele>551</ele><time>2022-10-15T13:17:05Z</time><name>PT3167</name></trkpt>
<trkpt lat="52.919831" lon="-3.358408"><ele>550</ele><time>2022-10-15T13:17:08Z</time><name>PT3168</name></trkpt>
<trkpt lat="52.919832" lon="-3.358482"><ele>550</ele><time>2022-10-15T13:17:12Z</time><name>PT3169</name></trkpt>
<trkpt lat="52.919828" lon="-3.358530"><ele>550</ele><time>2022-10-15T13:17:15Z</time><name>PT3170</name></trkpt>
<trkpt lat="52.919822" lon="-3.358613"><ele>550</ele><time>2022-10-15T13:17:19Z</time><name>PT3171</name></trkpt>
<trkpt lat="52.919807" lon="-3.358691"><ele>549</ele><time>2022-10-15T13:17:23Z</time><name>PT3172</name></trkpt>
<trkpt lat="52.919796" lon="-3.358742"><ele>548</ele><time>2022-10-15T13:17:26Z</time><name>PT3173</name></trkpt>
<trkpt lat="52.919782" lon="-3.358808"><ele>547</ele><time>2022-10-15T13:17:30Z</time><name>PT3174</name></trkpt>
<trkpt lat="52.919774" lon="-3.358836"><ele>547</ele><time>2022-10-15T13:17:33Z</time><name>PT3175</name></trkpt>
<trkpt lat="52.919765" lon="-3.358880"><ele>547</ele><time>2022-10-15T13:17:36Z</time><name>PT3176</name></trkpt>
<trkpt lat="52.919746" lon="-3.358957"><ele>546</ele><time>2022-10-15T13:17:40Z</time><name>PT3177</name></trkpt>
<trkpt lat="52.919734" lon="-3.359036"><ele>545</ele><time>2022-10-15T13:17:44Z</time><name>PT3178</name></trkpt>
<trkpt lat="52.919726" lon="-3.359113"><ele>544</ele><time>2022-10-15T13:17:48Z</time><name>PT3179</name></trkpt>
<trkpt lat="52.919718" lon="-3.359170"><ele>543</ele><time>2022-10-15T13:17:51Z</time><name>PT3180</name></trkpt>
<trkpt lat="52.919709" lon="-3.359244"><ele>542</ele><time>2022-10-15T13:17:55Z</time><name>PT3181</name></trkpt>
<trkpt lat="52.919697" lon="-3.359307"><ele>541</ele><time>2022-10-15T13:17:59Z</time><name>PT3182</name></trkpt>
<trkpt lat="52.919690" lon="-3.359375"><ele>540</ele><time>2022-10-15T13:18:03Z</time><name>PT3183</name></trkpt>
<trkpt lat="52.919679" lon="-3.359433"><ele>540</ele><time>2022-10-15T13:18:06Z</time><name>PT3184</name></trkpt>
<trkpt lat="52.919665" lon="-3.359504"><ele>539</ele><time>2022-10-15T13:18:10Z</time><name>PT3185</name></trkpt>
<trkpt lat="52.919649" lon="-3.359572"><ele>538</ele><time>2022-10-15T13:18:14Z</time><name>PT3186</name></trkpt>
<trkpt lat="52.919631" lon="-3.359644"><ele>537</ele><time>2022-10-15T13:18:18Z</time><name>PT3187</name></trkpt>
<trkpt lat="52.919613" lon="-3.359726"><ele>537</ele><time>2022-10-15T13:18:22Z</time><name>PT3188</name></trkpt>
<trkpt lat="52.919590" lon="-3.359790"><ele>536</ele><time>2022-10-15T13:18:26Z</time><name>PT3189</name></trkpt>
<trkpt lat="52.919575" lon="-3.359851"><ele>535</ele><time>2022-10-15T13:18:30Z</time><name>PT3190</name></trkpt>
<trkpt lat="52.919557" lon="-3.359914"><ele>534</ele><time>2022-10-15T13:18:34Z</time><name>PT3191</name></trkpt>
<trkpt lat="52.919541" lon="-3.359985"><ele>534</ele><time>2022-10-15T13:18:38Z</time><name>PT3192</name></trkpt>
<trkpt lat="52.919530" lon="-3.360057"><ele>533</ele><time>2022-10-15T13:18:42Z</time><name>PT3193</name></trkpt>
<trkpt lat="52.919531" lon="-3.360120"><ele>533</ele><time>2022-10-15T13:18:46Z</time><name>PT3194</name></trkpt>
<trkpt lat="52.919535" lon="-3.360196"><ele>532</ele><time>2022-10-15T13:18:50Z</time><name>PT3195</name></trkpt>
<trkpt lat="52.919542" lon="-3.360260"><ele>531</ele><time>2022-10-15T13:18:54Z</time><name>PT3196</name></trkpt>
<trkpt lat="52.919555" lon="-3.360335"><ele>531</ele><time>2022-10-15T13:18:58Z</time><name>PT3197</name></trkpt>
<trkpt lat="52.919570" lon="-3.360402"><ele>530</ele><time>2022-10-15T13:19:02Z</time><name>PT3198</name></trkpt>
<trkpt lat="52.919588" lon="-3.360467"><ele>529</ele><time>2022-10-15T13:19:06Z</time><name>PT3199</name></trkpt>
<trkpt lat="52.919597" lon="-3.360532"><ele>529</ele><time>2022-10-15T13:19:10Z</time><name>PT3200</name></trkpt>
<trkpt lat="52.919604" lon="-3.360606"><ele>528</ele><time>2022-10-15T13:19:14Z</time><name>PT3201</name></trkpt>
<trkpt lat="52.919597" lon="-3.360685"><ele>528</ele><time>2022-10-15T13:19:18Z</time><name>PT3202</name></trkpt>
<trkpt lat="52.919589" lon="-3.360755"><ele>527</ele><time>2022-10-15T13:19:22Z</time><name>PT3203</name></trkpt>
<trkpt lat="52.919575" lon="-3.360827"><ele>527</ele><time>2022-10-15T13:19:26Z</time><name>PT3204</name></trkpt>
<trkpt lat="52.919558" lon="-3.360868"><ele>526</ele><time>2022-10-15T13:19:30Z</time><name>PT3205</name></trkpt>
<trkpt lat="52.919554" lon="-3.360877"><ele>526</ele><time>2022-10-15T13:19:34Z</time><name>PT3206</name></trkpt>
<trkpt lat="52.919554" lon="-3.360892"><ele>526</ele><time>2022-10-15T13:19:40Z</time><name>PT3207</name></trkpt>
<trkpt lat="52.919545" lon="-3.360968"><ele>526</ele><time>2022-10-15T13:19:44Z</time><name>PT3208</name></trkpt>
<trkpt lat="52.919533" lon="-3.361054"><ele>525</ele><time>2022-10-15T13:19:48Z</time><name>PT3209</name></trkpt>
<trkpt lat="52.919526" lon="-3.361113"><ele>524</ele><time>2022-10-15T13:19:51Z</time><name>PT3210</name></trkpt>
<trkpt lat="52.919520" lon="-3.361193"><ele>524</ele><time>2022-10-15T13:19:55Z</time><name>PT3211</name></trkpt>
<trkpt lat="52.919511" lon="-3.361255"><ele>523</ele><time>2022-10-15T13:19:58Z</time><name>PT3212</name></trkpt>
<trkpt lat="52.919506" lon="-3.361315"><ele>523</ele><time>2022-10-15T13:20:01Z</time><name>PT3213</name></trkpt>
<trkpt lat="52.919499" lon="-3.361369"><ele>522</ele><time>2022-10-15T13:20:04Z</time><name>PT3214</name></trkpt>
<trkpt lat="52.919484" lon="-3.361449"><ele>522</ele><time>2022-10-15T13:20:08Z</time><name>PT3215</name></trkpt>
<trkpt lat="52.919470" lon="-3.361518"><ele>521</ele><time>2022-10-15T13:20:12Z</time><name>PT3216</name></trkpt>
<trkpt lat="52.919448" lon="-3.361580"><ele>521</ele><time>2022-10-15T13:20:16Z</time><name>PT3217</name></trkpt>
<trkpt lat="52.919434" lon="-3.361653"><ele>521</ele><time>2022-10-15T13:20:20Z</time><name>PT3218</name></trkpt>
<trkpt lat="52.919426" lon="-3.361709"><ele>520</ele><time>2022-10-15T13:20:23Z</time><name>PT3219</name></trkpt>
<trkpt lat="52.919412" lon="-3.361765"><ele>520</ele><time>2022-10-15T13:20:26Z</time><name>PT3220</name></trkpt>
<trkpt lat="52.919402" lon="-3.361836"><ele>519</ele><time>2022-10-15T13:20:30Z</time><name>PT3221</name></trkpt>
<trkpt lat="52.919394" lon="-3.361889"><ele>519</ele><time>2022-10-15T13:20:33Z</time><name>PT3222</name></trkpt>
<trkpt lat="52.919384" lon="-3.361939"><ele>518</ele><time>2022-10-15T13:20:36Z</time><name>PT3223</name></trkpt>
<trkpt lat="52.919376" lon="-3.361995"><ele>518</ele><time>2022-10-15T13:20:39Z</time><name>PT3224</name></trkpt>
<trkpt lat="52.919362" lon="-3.362075"><ele>517</ele><time>2022-10-15T13:20:43Z</time><name>PT3225</name></trkpt>
<trkpt lat="52.919353" lon="-3.362134"><ele>517</ele><time>2022-10-15T13:20:46Z</time><name>PT3226</name></trkpt>
<trkpt lat="52.919345" lon="-3.362221"><ele>516</ele><time>2022-10-15T13:20:50Z</time><name>PT3227</name></trkpt>
<trkpt lat="52.919340" lon="-3.362296"><ele>516</ele><time>2022-10-15T13:20:54Z</time><name>PT3228</name></trkpt>
<trkpt lat="52.919328" lon="-3.362373"><ele>514</ele><time>2022-10-15T13:20:58Z</time><name>PT3229</name></trkpt>
<trkpt lat="52.919316" lon="-3.362440"><ele>513</ele><time>2022-10-15T13:21:02Z</time><name>PT3230</name></trkpt>
<trkpt lat="52.919309" lon="-3.362513"><ele>512</ele><time>2022-10-15T13:21:06Z</time><name>PT3231</name></trkpt>
<trkpt lat="52.919302" lon="-3.362562"><ele>512</ele><time>2022-10-15T13:21:09Z</time><name>PT3232</name></trkpt>
<trkpt lat="52.919284" lon="-3.362650"><ele>511</ele><time>2022-10-15T13:21:13Z</time><name>PT3233</name></trkpt>
<trkpt lat="52.919268" lon="-3.362728"><ele>511</ele><time>2022-10-15T13:21:17Z</time><name>PT3234</name></trkpt>
<trkpt lat="52.919254" lon="-3.362775"><ele>510</ele><time>2022-10-15T13:21:20Z</time><name>PT3235</name></trkpt>
<trkpt lat="52.919244" lon="-3.362848"><ele>509</ele><time>2022-10-15T13:21:24Z</time><name>PT3236</name></trkpt>
<trkpt lat="52.919241" lon="-3.362907"><ele>509</ele><time>2022-10-15T13:21:27Z</time><name>PT3237</name></trkpt>
<trkpt lat="52.919235" lon="-3.362979"><ele>508</ele><time>2022-10-15T13:21:31Z</time><name>PT3238</name></trkpt>
<trkpt lat="52.919237" lon="-3.363048"><ele>507</ele><time>2022-10-15T13:21:35Z</time><name>PT3239</name></trkpt>
<trkpt lat="52.919235" lon="-3.363101"><ele>507</ele><time>2022-10-15T13:21:38Z</time><name>PT3240</name></trkpt>
<trkpt lat="52.919222" lon="-3.363198"><ele>506</ele><time>2022-10-15T13:21:43Z</time><name>PT3241</name></trkpt>
<trkpt lat="52.919224" lon="-3.363254"><ele>506</ele><time>2022-10-15T13:21:46Z</time><name>PT3242</name></trkpt>
<trkpt lat="52.919224" lon="-3.363329"><ele>504</ele><time>2022-10-15T13:21:50Z</time><name>PT3243</name></trkpt>
<trkpt lat="52.919221" lon="-3.363386"><ele>504</ele><time>2022-10-15T13:21:53Z</time><name>PT3244</name></trkpt>
<trkpt lat="52.919218" lon="-3.363455"><ele>502</ele><time>2022-10-15T13:21:57Z</time><name>PT3245</name></trkpt>
<trkpt lat="52.919220" lon="-3.363482"><ele>503</ele><time>2022-10-15T13:22:00Z</time><name>PT3246</name></trkpt>
<trkpt lat="52.919214" lon="-3.363535"><ele>502</ele><time>2022-10-15T13:22:03Z</time><name>PT3247</name></trkpt>
<trkpt lat="52.919206" lon="-3.363593"><ele>501</ele><time>2022-10-15T13:22:06Z</time><name>PT3248</name></trkpt>
<trkpt lat="52.919197" lon="-3.363661"><ele>501</ele><time>2022-10-15T13:22:10Z</time><name>PT3249</name></trkpt>
<trkpt lat="52.919189" lon="-3.363717"><ele>501</ele><time>2022-10-15T13:22:13Z</time><name>PT3250</name></trkpt>
<trkpt lat="52.919178" lon="-3.363786"><ele>500</ele><time>2022-10-15T13:22:17Z</time><name>PT3251</name></trkpt>
<trkpt lat="52.919163" lon="-3.363834"><ele>500</ele><time>2022-10-15T13:22:20Z</time><name>PT3252</name></trkpt>
<trkpt lat="52.919150" lon="-3.363891"><ele>499</ele><time>2022-10-15T13:22:24Z</time><name>PT3253</name></trkpt>
<trkpt lat="52.919142" lon="-3.363938"><ele>499</ele><time>2022-10-15T13:22:28Z</time><name>PT3254</name></trkpt>
<trkpt lat="52.919118" lon="-3.363941"><ele>498</ele><time>2022-10-15T13:22:32Z</time><name>PT3255</name></trkpt>
<trkpt lat="52.919124" lon="-3.363970"><ele>497</ele><time>2022-10-15T13:22:36Z</time><name>PT3256</name></trkpt>
<trkpt lat="52.919121" lon="-3.364033"><ele>497</ele><time>2022-10-15T13:22:40Z</time><name>PT3257</name></trkpt>
<trkpt lat="52.919133" lon="-3.364105"><ele>497</ele><time>2022-10-15T13:22:44Z</time><name>PT3258</name></trkpt>
<trkpt lat="52.919143" lon="-3.364161"><ele>496</ele><time>2022-10-15T13:22:47Z</time><name>PT3259</name></trkpt>
<trkpt lat="52.919156" lon="-3.364233"><ele>495</ele><time>2022-10-15T13:22:51Z</time><name>PT3260</name></trkpt>
<trkpt lat="52.919173" lon="-3.364305"><ele>495</ele><time>2022-10-15T13:22:55Z</time><name>PT3261</name></trkpt>
<trkpt lat="52.919189" lon="-3.364381"><ele>494</ele><time>2022-10-15T13:22:59Z</time><name>PT3262</name></trkpt>
<trkpt lat="52.919202" lon="-3.364458"><ele>494</ele><time>2022-10-15T13:23:03Z</time><name>PT3263</name></trkpt>
<trkpt lat="52.919198" lon="-3.364535"><ele>494</ele><time>2022-10-15T13:23:07Z</time><name>PT3264</name></trkpt>
<trkpt lat="52.919197" lon="-3.364591"><ele>493</ele><time>2022-10-15T13:23:10Z</time><name>PT3265</name></trkpt>
<trkpt lat="52.919196" lon="-3.364656"><ele>492</ele><time>2022-10-15T13:23:13Z</time><name>PT3266</name></trkpt>
<trkpt lat="52.919189" lon="-3.364716"><ele>493</ele><time>2022-10-15T13:23:16Z</time><name>PT3267</name></trkpt>
<trkpt lat="52.919183" lon="-3.364787"><ele>492</ele><time>2022-10-15T13:23:20Z</time><name>PT3268</name></trkpt>
<trkpt lat="52.919182" lon="-3.364854"><ele>492</ele><time>2022-10-15T13:23:23Z</time><name>PT3269</name></trkpt>
<trkpt lat="52.919174" lon="-3.364919"><ele>492</ele><time>2022-10-15T13:23:26Z</time><name>PT3270</name></trkpt>
<trkpt lat="52.919163" lon="-3.365000"><ele>491</ele><time>2022-10-15T13:23:30Z</time><name>PT3271</name></trkpt>
<trkpt lat="52.919160" lon="-3.365057"><ele>491</ele><time>2022-10-15T13:23:33Z</time><name>PT3272</name></trkpt>
<trkpt lat="52.919160" lon="-3.365134"><ele>490</ele><time>2022-10-15T13:23:37Z</time><name>PT3273</name></trkpt>
<trkpt lat="52.919158" lon="-3.365206"><ele>491</ele><time>2022-10-15T13:23:41Z</time><name>PT3274</name></trkpt>
<trkpt lat="52.919172" lon="-3.365281"><ele>490</ele><time>2022-10-15T13:23:45Z</time><name>PT3275</name></trkpt>
<trkpt lat="52.919185" lon="-3.365349"><ele>489</ele><time>2022-10-15T13:23:48Z</time><name>PT3276</name></trkpt>
<trkpt lat="52.919204" lon="-3.365418"><ele>489</ele><time>2022-10-15T13:23:52Z</time><name>PT3277</name></trkpt>
<trkpt lat="52.919232" lon="-3.365488"><ele>488</ele><time>2022-10-15T13:23:56Z</time><name>PT3278</name></trkpt>
<trkpt lat="52.919247" lon="-3.365570"><ele>488</ele><time>2022-10-15T13:24:00Z</time><name>PT3279</name></trkpt>
<trkpt lat="52.919252" lon="-3.365631"><ele>488</ele><time>2022-10-15T13:24:03Z</time><name>PT3280</name></trkpt>
<trkpt lat="52.919254" lon="-3.365690"><ele>488</ele><time>2022-10-15T13:24:06Z</time><name>PT3281</name></trkpt>
<trkpt lat="52.919247" lon="-3.365750"><ele>487</ele><time>2022-10-15T13:24:09Z</time><name>PT3282</name></trkpt>
<trkpt lat="52.919231" lon="-3.365812"><ele>487</ele><time>2022-10-15T13:24:13Z</time><name>PT3283</name></trkpt>
<trkpt lat="52.919222" lon="-3.365833"><ele>487</ele><time>2022-10-15T13:24:16Z</time><name>PT3284</name></trkpt>
<trkpt lat="52.919215" lon="-3.365860"><ele>487</ele><time>2022-10-15T13:24:20Z</time><name>PT3285</name></trkpt>
<trkpt lat="52.919217" lon="-3.365901"><ele>486</ele><time>2022-10-15T13:24:23Z</time><name>PT3286</name></trkpt>
<trkpt lat="52.919217" lon="-3.365992"><ele>486</ele><time>2022-10-15T13:24:27Z</time><name>PT3287</name></trkpt>
<trkpt lat="52.919216" lon="-3.366072"><ele>486</ele><time>2022-10-15T13:24:31Z</time><name>PT3288</name></trkpt>
<trkpt lat="52.919218" lon="-3.366123"><ele>485</ele><time>2022-10-15T13:24:34Z</time><name>PT3289</name></trkpt>
<trkpt lat="52.919222" lon="-3.366201"><ele>485</ele><time>2022-10-15T13:24:38Z</time><name>PT3290</name></trkpt>
<trkpt lat="52.919226" lon="-3.366273"><ele>484</ele><time>2022-10-15T13:24:42Z</time><name>PT3291</name></trkpt>
<trkpt lat="52.919236" lon="-3.366350"><ele>484</ele><time>2022-10-15T13:24:46Z</time><name>PT3292</name></trkpt>
<trkpt lat="52.919246" lon="-3.366418"><ele>483</ele><time>2022-10-15T13:24:50Z</time><name>PT3293</name></trkpt>
<trkpt lat="52.919260" lon="-3.366490"><ele>483</ele><time>2022-10-15T13:24:54Z</time><name>PT3294</name></trkpt>
<trkpt lat="52.919260" lon="-3.366570"><ele>482</ele><time>2022-10-15T13:24:58Z</time><name>PT3295</name></trkpt>
<trkpt lat="52.919257" lon="-3.366649"><ele>481</ele><time>2022-10-15T13:25:02Z</time><name>PT3296</name></trkpt>
<trkpt lat="52.919247" lon="-3.366732"><ele>480</ele><time>2022-10-15T13:25:06Z</time><name>PT3297</name></trkpt>
<trkpt lat="52.919237" lon="-3.366811"><ele>480</ele><time>2022-10-15T13:25:10Z</time><name>PT3298</name></trkpt>
<trkpt lat="52.919227" lon="-3.366868"><ele>480</ele><time>2022-10-15T13:25:13Z</time><name>PT3299</name></trkpt>
<trkpt lat="52.919218" lon="-3.366954"><ele>479</ele><time>2022-10-15T13:25:17Z</time><name>PT3300</name></trkpt>
<trkpt lat="52.919212" lon="-3.367036"><ele>479</ele><time>2022-10-15T13:25:21Z</time><name>PT3301</name></trkpt>
<trkpt lat="52.919208" lon="-3.367119"><ele>478</ele><time>2022-10-15T13:25:25Z</time><name>PT3302</name></trkpt>
<trkpt lat="52.919196" lon="-3.367198"><ele>478</ele><time>2022-10-15T13:25:29Z</time><name>PT3303</name></trkpt>
<trkpt lat="52.919193" lon="-3.367255"><ele>478</ele><time>2022-10-15T13:25:32Z</time><name>PT3304</name></trkpt>
<trkpt lat="52.919193" lon="-3.367329"><ele>478</ele><time>2022-10-15T13:25:36Z</time><name>PT3305</name></trkpt>
<trkpt lat="52.919186" lon="-3.367386"><ele>477</ele><time>2022-10-15T13:25:39Z</time><name>PT3306</name></trkpt>
<trkpt lat="52.919186" lon="-3.367447"><ele>476</ele><time>2022-10-15T13:25:43Z</time><name>PT3307</name></trkpt>
<trkpt lat="52.919177" lon="-3.367520"><ele>476</ele><time>2022-10-15T13:25:47Z</time><name>PT3308</name></trkpt>
<trkpt lat="52.919167" lon="-3.367591"><ele>475</ele><time>2022-10-15T13:25:51Z</time><name>PT3309</name></trkpt>
<trkpt lat="52.919153" lon="-3.367653"><ele>474</ele><time>2022-10-15T13:25:55Z</time><name>PT3310</name></trkpt>
<trkpt lat="52.919144" lon="-3.367725"><ele>474</ele><time>2022-10-15T13:25:59Z</time><name>PT3311</name></trkpt>
<trkpt lat="52.919136" lon="-3.367781"><ele>474</ele><time>2022-10-15T13:26:02Z</time><name>PT3312</name></trkpt>
<trkpt lat="52.919131" lon="-3.367850"><ele>474</ele><time>2022-10-15T13:26:06Z</time><name>PT3313</name></trkpt>
<trkpt lat="52.919130" lon="-3.367904"><ele>472</ele><time>2022-10-15T13:26:09Z</time><name>PT3314</name></trkpt>
<trkpt lat="52.919123" lon="-3.367981"><ele>472</ele><time>2022-10-15T13:26:13Z</time><name>PT3315</name></trkpt>
<trkpt lat="52.919117" lon="-3.368058"><ele>472</ele><time>2022-10-15T13:26:17Z</time><name>PT3316</name></trkpt>
<trkpt lat="52.919109" lon="-3.368117"><ele>472</ele><time>2022-10-15T13:26:21Z</time><name>PT3317</name></trkpt>
<trkpt lat="52.919102" lon="-3.368193"><ele>472</ele><time>2022-10-15T13:26:25Z</time><name>PT3318</name></trkpt>
<trkpt lat="52.919091" lon="-3.368280"><ele>471</ele><time>2022-10-15T13:26:29Z</time><name>PT3319</name></trkpt>
<trkpt lat="52.919088" lon="-3.368362"><ele>470</ele><time>2022-10-15T13:26:33Z</time><name>PT3320</name></trkpt>
<trkpt lat="52.919085" lon="-3.368435"><ele>470</ele><time>2022-10-15T13:26:37Z</time><name>PT3321</name></trkpt>
<trkpt lat="52.919083" lon="-3.368515"><ele>470</ele><time>2022-10-15T13:26:41Z</time><name>PT3322</name></trkpt>
<trkpt lat="52.919080" lon="-3.368591"><ele>469</ele><time>2022-10-15T13:26:45Z</time><name>PT3323</name></trkpt>
<trkpt lat="52.919074" lon="-3.368665"><ele>468</ele><time>2022-10-15T13:26:49Z</time><name>PT3324</name></trkpt>
<trkpt lat="52.919070" lon="-3.368739"><ele>468</ele><time>2022-10-15T13:26:53Z</time><name>PT3325</name></trkpt>
<trkpt lat="52.919066" lon="-3.368813"><ele>467</ele><time>2022-10-15T13:26:57Z</time><name>PT3326</name></trkpt>
<trkpt lat="52.919062" lon="-3.368891"><ele>467</ele><time>2022-10-15T13:27:01Z</time><name>PT3327</name></trkpt>
<trkpt lat="52.919060" lon="-3.368951"><ele>467</ele><time>2022-10-15T13:27:04Z</time><name>PT3328</name></trkpt>
<trkpt lat="52.919058" lon="-3.369031"><ele>466</ele><time>2022-10-15T13:27:08Z</time><name>PT3329</name></trkpt>
<trkpt lat="52.919055" lon="-3.369117"><ele>466</ele><time>2022-10-15T13:27:12Z</time><name>PT3330</name></trkpt>
<trkpt lat="52.919049" lon="-3.369180"><ele>465</ele><time>2022-10-15T13:27:15Z</time><name>PT3331</name></trkpt>
<trkpt lat="52.919044" lon="-3.369243"><ele>465</ele><time>2022-10-15T13:27:19Z</time><name>PT3332</name></trkpt>
<trkpt lat="52.919041" lon="-3.369298"><ele>464</ele><time>2022-10-15T13:27:22Z</time><name>PT3333</name></trkpt>
<trkpt lat="52.919044" lon="-3.369381"><ele>463</ele><time>2022-10-15T13:27:26Z</time><name>PT3334</name></trkpt>
<trkpt lat="52.919043" lon="-3.369453"><ele>462</ele><time>2022-10-15T13:27:30Z</time><name>PT3335</name></trkpt>
<trkpt lat="52.919038" lon="-3.369515"><ele>462</ele><time>2022-10-15T13:27:34Z</time><name>PT3336</name></trkpt>
<trkpt lat="52.919031" lon="-3.369575"><ele>461</ele><time>2022-10-15T13:27:38Z</time><name>PT3337</name></trkpt>
<trkpt lat="52.919021" lon="-3.369648"><ele>460</ele><time>2022-10-15T13:27:42Z</time><name>PT3338</name></trkpt>
<trkpt lat="52.919012" lon="-3.369712"><ele>460</ele><time>2022-10-15T13:27:46Z</time><name>PT3339</name></trkpt>
<trkpt lat="52.919007" lon="-3.369765"><ele>460</ele><time>2022-10-15T13:27:49Z</time><name>PT3340</name></trkpt>
<trkpt lat="52.918997" lon="-3.369821"><ele>460</ele><time>2022-10-15T13:27:53Z</time><name>PT3341</name></trkpt>
<trkpt lat="52.918986" lon="-3.369897"><ele>459</ele><time>2022-10-15T13:27:57Z</time><name>PT3342</name></trkpt>
<trkpt lat="52.918974" lon="-3.369976"><ele>459</ele><time>2022-10-15T13:28:01Z</time><name>PT3343</name></trkpt>
<trkpt lat="52.918967" lon="-3.370050"><ele>458</ele><time>2022-10-15T13:28:05Z</time><name>PT3344</name></trkpt>
<trkpt lat="52.918959" lon="-3.370130"><ele>458</ele><time>2022-10-15T13:28:09Z</time><name>PT3345</name></trkpt>
<trkpt lat="52.918954" lon="-3.370189"><ele>458</ele><time>2022-10-15T13:28:12Z</time><name>PT3346</name></trkpt>
<trkpt lat="52.918946" lon="-3.370267"><ele>457</ele><time>2022-10-15T13:28:16Z</time><name>PT3347</name></trkpt>
<trkpt lat="52.918943" lon="-3.370346"><ele>456</ele><time>2022-10-15T13:28:20Z</time><name>PT3348</name></trkpt>
<trkpt lat="52.918943" lon="-3.370411"><ele>456</ele><time>2022-10-15T13:28:24Z</time><name>PT3349</name></trkpt>
<trkpt lat="52.918946" lon="-3.370485"><ele>455</ele><time>2022-10-15T13:28:28Z</time><name>PT3350</name></trkpt>
<trkpt lat="52.918940" lon="-3.370570"><ele>452</ele><time>2022-10-15T13:28:32Z</time><name>PT3351</name></trkpt>
<trkpt lat="52.918937" lon="-3.370652"><ele>451</ele><time>2022-10-15T13:28:36Z</time><name>PT3352</name></trkpt>
<trkpt lat="52.918928" lon="-3.370730"><ele>450</ele><time>2022-10-15T13:28:40Z</time><name>PT3353</name></trkpt>
<trkpt lat="52.918924" lon="-3.370805"><ele>449</ele><time>2022-10-15T13:28:44Z</time><name>PT3354</name></trkpt>
<trkpt lat="52.918920" lon="-3.370878"><ele>448</ele><time>2022-10-15T13:28:48Z</time><name>PT3355</name></trkpt>
<trkpt lat="52.918919" lon="-3.370963"><ele>447</ele><time>2022-10-15T13:28:52Z</time><name>PT3356</name></trkpt>
<trkpt lat="52.918923" lon="-3.371021"><ele>447</ele><time>2022-10-15T13:28:55Z</time><name>PT3357</name></trkpt>
<trkpt lat="52.918929" lon="-3.371102"><ele>447</ele><time>2022-10-15T13:28:59Z</time><name>PT3358</name></trkpt>
<trkpt lat="52.918937" lon="-3.371157"><ele>446</ele><time>2022-10-15T13:29:02Z</time><name>PT3359</name></trkpt>
<trkpt lat="52.918946" lon="-3.371227"><ele>446</ele><time>2022-10-15T13:29:06Z</time><name>PT3360</name></trkpt>
<trkpt lat="52.918959" lon="-3.371290"><ele>445</ele><time>2022-10-15T13:29:10Z</time><name>PT3361</name></trkpt>
<trkpt lat="52.918963" lon="-3.371348"><ele>445</ele><time>2022-10-15T13:29:14Z</time><name>PT3362</name></trkpt>
<trkpt lat="52.918965" lon="-3.371405"><ele>445</ele><time>2022-10-15T13:29:17Z</time><name>PT3363</name></trkpt>
<trkpt lat="52.918964" lon="-3.371462"><ele>444</ele><time>2022-10-15T13:29:20Z</time><name>PT3364</name></trkpt>
<trkpt lat="52.918967" lon="-3.371521"><ele>444</ele><time>2022-10-15T13:29:23Z</time><name>PT3365</name></trkpt>
<trkpt lat="52.918972" lon="-3.371606"><ele>444</ele><time>2022-10-15T13:29:27Z</time><name>PT3366</name></trkpt>
<trkpt lat="52.918969" lon="-3.371683"><ele>443</ele><time>2022-10-15T13:29:31Z</time><name>PT3367</name></trkpt>
<trkpt lat="52.918959" lon="-3.371736"><ele>444</ele><time>2022-10-15T13:29:34Z</time><name>PT3368</name></trkpt>
<trkpt lat="52.918943" lon="-3.371798"><ele>443</ele><time>2022-10-15T13:29:38Z</time><name>PT3369</name></trkpt>
<trkpt lat="52.918929" lon="-3.371862"><ele>442</ele><time>2022-10-15T13:29:42Z</time><name>PT3370</name></trkpt>
<trkpt lat="52.918921" lon="-3.371918"><ele>441</ele><time>2022-10-15T13:29:45Z</time><name>PT3371</name></trkpt>
<trkpt lat="52.918915" lon="-3.371978"><ele>441</ele><time>2022-10-15T13:29:48Z</time><name>PT3372</name></trkpt>
<trkpt lat="52.918911" lon="-3.372058"><ele>441</ele><time>2022-10-15T13:29:52Z</time><name>PT3373</name></trkpt>
<trkpt lat="52.918907" lon="-3.372133"><ele>440</ele><time>2022-10-15T13:29:56Z</time><name>PT3374</name></trkpt>
<trkpt lat="52.918902" lon="-3.372213"><ele>440</ele><time>2022-10-15T13:30:00Z</time><name>PT3375</name></trkpt>
<trkpt lat="52.918901" lon="-3.372286"><ele>440</ele><time>2022-10-15T13:30:04Z</time><name>PT3376</name></trkpt>
<trkpt lat="52.918902" lon="-3.372354"><ele>439</ele><time>2022-10-15T13:30:08Z</time><name>PT3377</name></trkpt>
<trkpt lat="52.918905" lon="-3.372427"><ele>439</ele><time>2022-10-15T13:30:12Z</time><name>PT3378</name></trkpt>
<trkpt lat="52.918909" lon="-3.372484"><ele>438</ele><time>2022-10-15T13:30:15Z</time><name>PT3379</name></trkpt>
<trkpt lat="52.918918" lon="-3.372560"><ele>438</ele><time>2022-10-15T13:30:19Z</time><name>PT3380</name></trkpt>
<trkpt lat="52.918926" lon="-3.372614"><ele>438</ele><time>2022-10-15T13:30:22Z</time><name>PT3381</name></trkpt>
<trkpt lat="52.918936" lon="-3.372693"><ele>438</ele><time>2022-10-15T13:30:26Z</time><name>PT3382</name></trkpt>
<trkpt lat="52.918946" lon="-3.372741"><ele>437</ele><time>2022-10-15T13:30:29Z</time><name>PT3383</name></trkpt>
<trkpt lat="52.918959" lon="-3.372795"><ele>436</ele><time>2022-10-15T13:30:33Z</time><name>PT3384</name></trkpt>
<trkpt lat="52.918972" lon="-3.372865"><ele>435</ele><time>2022-10-15T13:30:37Z</time><name>PT3385</name></trkpt>
<trkpt lat="52.918981" lon="-3.372918"><ele>436</ele><time>2022-10-15T13:30:40Z</time><name>PT3386</name></trkpt>
<trkpt lat="52.918994" lon="-3.372992"><ele>436</ele><time>2022-10-15T13:30:44Z</time><name>PT3387</name></trkpt>
<trkpt lat="52.919010" lon="-3.373056"><ele>436</ele><time>2022-10-15T13:30:48Z</time><name>PT3388</name></trkpt>
<trkpt lat="52.919024" lon="-3.373110"><ele>435</ele><time>2022-10-15T13:30:52Z</time><name>PT3389</name></trkpt>
<trkpt lat="52.919044" lon="-3.373173"><ele>434</ele><time>2022-10-15T13:30:56Z</time><name>PT3390</name></trkpt>
<trkpt lat="52.919062" lon="-3.373236"><ele>435</ele><time>2022-10-15T13:31:00Z</time><name>PT3391</name></trkpt>
<trkpt lat="52.919068" lon="-3.373306"><ele>433</ele><time>2022-10-15T13:31:04Z</time><name>PT3392</name></trkpt>
<trkpt lat="52.919074" lon="-3.373393"><ele>432</ele><time>2022-10-15T13:31:08Z</time><name>PT3393</name></trkpt>
<trkpt lat="52.919074" lon="-3.373481"><ele>432</ele><time>2022-10-15T13:31:12Z</time><name>PT3394</name></trkpt>
<trkpt lat="52.919074" lon="-3.373557"><ele>431</ele><time>2022-10-15T13:31:16Z</time><name>PT3395</name></trkpt>
<trkpt lat="52.919072" lon="-3.373633"><ele>431</ele><time>2022-10-15T13:31:20Z</time><name>PT3396</name></trkpt>
<trkpt lat="52.919076" lon="-3.373696"><ele>430</ele><time>2022-10-15T13:31:23Z</time><name>PT3397</name></trkpt>
<trkpt lat="52.919081" lon="-3.373755"><ele>430</ele><time>2022-10-15T13:31:26Z</time><name>PT3398</name></trkpt>
<trkpt lat="52.919087" lon="-3.373827"><ele>429</ele><time>2022-10-15T13:31:30Z</time><name>PT3399</name></trkpt>
<trkpt lat="52.919094" lon="-3.373873"><ele>429</ele><time>2022-10-15T13:31:33Z</time><name>PT3400</name></trkpt>
<trkpt lat="52.919102" lon="-3.373930"><ele>428</ele><time>2022-10-15T13:31:36Z</time><name>PT3401</name></trkpt>
<trkpt lat="52.919111" lon="-3.374004"><ele>428</ele><time>2022-10-15T13:31:40Z</time><name>PT3402</name></trkpt>
<trkpt lat="52.919117" lon="-3.374081"><ele>427</ele><time>2022-10-15T13:31:44Z</time><name>PT3403</name></trkpt>
<trkpt lat="52.919127" lon="-3.374159"><ele>427</ele><time>2022-10-15T13:31:48Z</time><name>PT3404</name></trkpt>
<trkpt lat="52.919134" lon="-3.374229"><ele>426</ele><time>2022-10-15T13:31:52Z</time><name>PT3405</name></trkpt>
<trkpt lat="52.919141" lon="-3.374274"><ele>425</ele><time>2022-10-15T13:31:55Z</time><name>PT3406</name></trkpt>
<trkpt lat="52.919158" lon="-3.374343"><ele>425</ele><time>2022-10-15T13:31:59Z</time><name>PT3407</name></trkpt>
<trkpt lat="52.919165" lon="-3.374389"><ele>424</ele><time>2022-10-15T13:32:02Z</time><name>PT3408</name></trkpt>
<trkpt lat="52.919189" lon="-3.374451"><ele>423</ele><time>2022-10-15T13:32:06Z</time><name>PT3409</name></trkpt>
<trkpt lat="52.919215" lon="-3.374514"><ele>423</ele><time>2022-10-15T13:32:10Z</time><name>PT3410</name></trkpt>
<trkpt lat="52.919238" lon="-3.374557"><ele>423</ele><time>2022-10-15T13:32:13Z</time><name>PT3411</name></trkpt>
<trkpt lat="52.919262" lon="-3.374622"><ele>423</ele><time>2022-10-15T13:32:17Z</time><name>PT3412</name></trkpt>
<trkpt lat="52.919275" lon="-3.374672"><ele>422</ele><time>2022-10-15T13:32:20Z</time><name>PT3413</name></trkpt>
<trkpt lat="52.919293" lon="-3.374737"><ele>422</ele><time>2022-10-15T13:32:24Z</time><name>PT3414</name></trkpt>
<trkpt lat="52.919310" lon="-3.374809"><ele>422</ele><time>2022-10-15T13:32:28Z</time><name>PT3415</name></trkpt>
<trkpt lat="52.919325" lon="-3.374877"><ele>421</ele><time>2022-10-15T13:32:32Z</time><name>PT3416</name></trkpt>
<trkpt lat="52.919345" lon="-3.374950"><ele>420</ele><time>2022-10-15T13:32:36Z</time><name>PT3417</name></trkpt>
<trkpt lat="52.919356" lon="-3.375030"><ele>419</ele><time>2022-10-15T13:32:40Z</time><name>PT3418</name></trkpt>
<trkpt lat="52.919369" lon="-3.375102"><ele>419</ele><time>2022-10-15T13:32:44Z</time><name>PT3419</name></trkpt>
<trkpt lat="52.919380" lon="-3.375164"><ele>419</ele><time>2022-10-15T13:32:47Z</time><name>PT3420</name></trkpt>
<trkpt lat="52.919390" lon="-3.375218"><ele>418</ele><time>2022-10-15T13:32:50Z</time><name>PT3421</name></trkpt>
<trkpt lat="52.919401" lon="-3.375276"><ele>418</ele><time>2022-10-15T13:32:53Z</time><name>PT3422</name></trkpt>
<trkpt lat="52.919417" lon="-3.375352"><ele>418</ele><time>2022-10-15T13:32:57Z</time><name>PT3423</name></trkpt>
<trkpt lat="52.919429" lon="-3.375428"><ele>417</ele><time>2022-10-15T13:33:01Z</time><name>PT3424</name></trkpt>
<trkpt lat="52.919444" lon="-3.375500"><ele>417</ele><time>2022-10-15T13:33:05Z</time><name>PT3425</name></trkpt>
<trkpt lat="52.919456" lon="-3.375571"><ele>416</ele><time>2022-10-15T13:33:09Z</time><name>PT3426</name></trkpt>
<trkpt lat="52.919469" lon="-3.375637"><ele>416</ele><time>2022-10-15T13:33:13Z</time><name>PT3427</name></trkpt>
<trkpt lat="52.919484" lon="-3.375709"><ele>415</ele><time>2022-10-15T13:33:17Z</time><name>PT3428</name></trkpt>
<trkpt lat="52.919495" lon="-3.375760"><ele>415</ele><time>2022-10-15T13:33:20Z</time><name>PT3429</name></trkpt>
<trkpt lat="52.919509" lon="-3.375812"><ele>414</ele><time>2022-10-15T13:33:23Z</time><name>PT3430</name></trkpt>
<trkpt lat="52.919530" lon="-3.375878"><ele>414</ele><time>2022-10-15T13:33:27Z</time><name>PT3431</name></trkpt>
<trkpt lat="52.919544" lon="-3.375925"><ele>414</ele><time>2022-10-15T13:33:30Z</time><name>PT3432</name></trkpt>
<trkpt lat="52.919559" lon="-3.375968"><ele>414</ele><time>2022-10-15T13:33:33Z</time><name>PT3433</name></trkpt>
<trkpt lat="52.919579" lon="-3.376015"><ele>413</ele><time>2022-10-15T13:33:36Z</time><name>PT3434</name></trkpt>
<trkpt lat="52.919598" lon="-3.376060"><ele>413</ele><time>2022-10-15T13:33:39Z</time><name>PT3435</name></trkpt>
<trkpt lat="52.919620" lon="-3.376121"><ele>413</ele><time>2022-10-15T13:33:43Z</time><name>PT3436</name></trkpt>
<trkpt lat="52.919638" lon="-3.376162"><ele>412</ele><time>2022-10-15T13:33:46Z</time><name>PT3437</name></trkpt>
<trkpt lat="52.919655" lon="-3.376204"><ele>412</ele><time>2022-10-15T13:33:49Z</time><name>PT3438</name></trkpt>
<trkpt lat="52.919680" lon="-3.376262"><ele>411</ele><time>2022-10-15T13:33:53Z</time><name>PT3439</name></trkpt>
<trkpt lat="52.919700" lon="-3.376312"><ele>411</ele><time>2022-10-15T13:33:56Z</time><name>PT3440</name></trkpt>
<trkpt lat="52.919731" lon="-3.376368"><ele>411</ele><time>2022-10-15T13:34:00Z</time><name>PT3441</name></trkpt>
<trkpt lat="52.919757" lon="-3.376435"><ele>411</ele><time>2022-10-15T13:34:04Z</time><name>PT3442</name></trkpt>
<trkpt lat="52.919774" lon="-3.376509"><ele>411</ele><time>2022-10-15T13:34:08Z</time><name>PT3443</name></trkpt>
<trkpt lat="52.919792" lon="-3.376554"><ele>410</ele><time>2022-10-15T13:34:11Z</time><name>PT3444</name></trkpt>
<trkpt lat="52.919804" lon="-3.376633"><ele>410</ele><time>2022-10-15T13:34:15Z</time><name>PT3445</name></trkpt>
<trkpt lat="52.919812" lon="-3.376689"><ele>410</ele><time>2022-10-15T13:34:18Z</time><name>PT3446</name></trkpt>
<trkpt lat="52.919826" lon="-3.376763"><ele>410</ele><time>2022-10-15T13:34:22Z</time><name>PT3447</name></trkpt>
<trkpt lat="52.919839" lon="-3.376834"><ele>409</ele><time>2022-10-15T13:34:26Z</time><name>PT3448</name></trkpt>
<trkpt lat="52.919847" lon="-3.376873"><ele>409</ele><time>2022-10-15T13:34:29Z</time><name>PT3449</name></trkpt>
<trkpt lat="52.919841" lon="-3.376879"><ele>410</ele><time>2022-10-15T13:34:33Z</time><name>PT3450</name></trkpt>
<trkpt lat="52.919852" lon="-3.376893"><ele>410</ele><time>2022-10-15T13:34:37Z</time><name>PT3451</name></trkpt>
<trkpt lat="52.919854" lon="-3.376897"><ele>410</ele><time>2022-10-15T13:34:40Z</time><name>PT3452</name></trkpt>
<trkpt lat="52.919873" lon="-3.376947"><ele>410</ele><time>2022-10-15T13:34:47Z</time><name>PT3453</name></trkpt>
<trkpt lat="52.919881" lon="-3.376969"><ele>410</ele><time>2022-10-15T13:34:50Z</time><name>PT3454</name></trkpt>
<trkpt lat="52.919886" lon="-3.376980"><ele>410</ele><time>2022-10-15T13:34:53Z</time><name>PT3455</name></trkpt>
<trkpt lat="52.919899" lon="-3.377031"><ele>409</ele><time>2022-10-15T13:34:57Z</time><name>PT3456</name></trkpt>
<trkpt lat="52.919912" lon="-3.377085"><ele>409</ele><time>2022-10-15T13:35:00Z</time><name>PT3457</name></trkpt>
<trkpt lat="52.919919" lon="-3.377135"><ele>409</ele><time>2022-10-15T13:35:03Z</time><name>PT3458</name></trkpt>
<trkpt lat="52.919934" lon="-3.377201"><ele>409</ele><time>2022-10-15T13:35:07Z</time><name>PT3459</name></trkpt>
<trkpt lat="52.919942" lon="-3.377255"><ele>409</ele><time>2022-10-15T13:35:10Z</time><name>PT3460</name></trkpt>
<trkpt lat="52.919952" lon="-3.377350"><ele>408</ele><time>2022-10-15T13:35:15Z</time><name>PT3461</name></trkpt>
<trkpt lat="52.919955" lon="-3.377428"><ele>408</ele><time>2022-10-15T13:35:19Z</time><name>PT3462</name></trkpt>
<trkpt lat="52.919954" lon="-3.377497"><ele>407</ele><time>2022-10-15T13:35:23Z</time><name>PT3463</name></trkpt>
<trkpt lat="52.919960" lon="-3.377578"><ele>407</ele><time>2022-10-15T13:35:27Z</time><name>PT3464</name></trkpt>
<trkpt lat="52.919970" lon="-3.377634"><ele>407</ele><time>2022-10-15T13:35:30Z</time><name>PT3465</name></trkpt>
<trkpt lat="52.919986" lon="-3.377725"><ele>407</ele><time>2022-10-15T13:35:34Z</time><name>PT3466</name></trkpt>
<trkpt lat="52.919998" lon="-3.377802"><ele>407</ele><time>2022-10-15T13:35:38Z</time><name>PT3467</name></trkpt>
<trkpt lat="52.920001" lon="-3.377855"><ele>406</ele><time>2022-10-15T13:35:41Z</time><name>PT3468</name></trkpt>
<trkpt lat="52.920017" lon="-3.377920"><ele>406</ele><time>2022-10-15T13:35:45Z</time><name>PT3469</name></trkpt>
<trkpt lat="52.920023" lon="-3.377988"><ele>406</ele><time>2022-10-15T13:35:49Z</time><name>PT3470</name></trkpt>
<trkpt lat="52.920043" lon="-3.378054"><ele>406</ele><time>2022-10-15T13:35:53Z</time><name>PT3471</name></trkpt>
<trkpt lat="52.920057" lon="-3.378111"><ele>406</ele><time>2022-10-15T13:35:56Z</time><name>PT3472</name></trkpt>
<trkpt lat="52.920080" lon="-3.378173"><ele>406</ele><time>2022-10-15T13:36:00Z</time><name>PT3473</name></trkpt>
<trkpt lat="52.920107" lon="-3.378239"><ele>406</ele><time>2022-10-15T13:36:04Z</time><name>PT3474</name></trkpt>
<trkpt lat="52.920126" lon="-3.378288"><ele>405</ele><time>2022-10-15T13:36:07Z</time><name>PT3475</name></trkpt>
<trkpt lat="52.920156" lon="-3.378344"><ele>404</ele><time>2022-10-15T13:36:11Z</time><name>PT3476</name></trkpt>
<trkpt lat="52.920185" lon="-3.378400"><ele>404</ele><time>2022-10-15T13:36:15Z</time><name>PT3477</name></trkpt>
<trkpt lat="52.920206" lon="-3.378442"><ele>404</ele><time>2022-10-15T13:36:18Z</time><name>PT3478</name></trkpt>
<trkpt lat="52.920224" lon="-3.378485"><ele>404</ele><time>2022-10-15T13:36:21Z</time><name>PT3479</name></trkpt>
<trkpt lat="52.920245" lon="-3.378531"><ele>402</ele><time>2022-10-15T13:36:25Z</time><name>PT3480</name></trkpt>
<trkpt lat="52.920265" lon="-3.378590"><ele>402</ele><time>2022-10-15T13:36:29Z</time><name>PT3481</name></trkpt>
<trkpt lat="52.920297" lon="-3.378643"><ele>402</ele><time>2022-10-15T13:36:33Z</time><name>PT3482</name></trkpt>
<trkpt lat="52.920316" lon="-3.378686"><ele>402</ele><time>2022-10-15T13:36:36Z</time><name>PT3483</name></trkpt>
<trkpt lat="52.920342" lon="-3.378740"><ele>400</ele><time>2022-10-15T13:36:40Z</time><name>PT3484</name></trkpt>
<trkpt lat="52.920361" lon="-3.378791"><ele>400</ele><time>2022-10-15T13:36:43Z</time><name>PT3485</name></trkpt>
<trkpt lat="52.920376" lon="-3.378843"><ele>400</ele><time>2022-10-15T13:36:46Z</time><name>PT3486</name></trkpt>
<trkpt lat="52.920391" lon="-3.378896"><ele>399</ele><time>2022-10-15T13:36:49Z</time><name>PT3487</name></trkpt>
<trkpt lat="52.920407" lon="-3.378972"><ele>399</ele><time>2022-10-15T13:36:53Z</time><name>PT3488</name></trkpt>
<trkpt lat="52.920409" lon="-3.379029"><ele>399</ele><time>2022-10-15T13:36:56Z</time><name>PT3489</name></trkpt>
<trkpt lat="52.920413" lon="-3.379081"><ele>398</ele><time>2022-10-15T13:36:59Z</time><name>PT3490</name></trkpt>
<trkpt lat="52.920420" lon="-3.379151"><ele>398</ele><time>2022-10-15T13:37:03Z</time><name>PT3491</name></trkpt>
<trkpt lat="52.920417" lon="-3.379219"><ele>397</ele><time>2022-10-15T13:37:07Z</time><name>PT3492</name></trkpt>
<trkpt lat="52.920422" lon="-3.379267"><ele>397</ele><time>2022-10-15T13:37:10Z</time><name>PT3493</name></trkpt>
<trkpt lat="52.920426" lon="-3.379316"><ele>395</ele><time>2022-10-15T13:37:13Z</time><name>PT3494</name></trkpt>
<trkpt lat="52.920438" lon="-3.379363"><ele>395</ele><time>2022-10-15T13:37:16Z</time><name>PT3495</name></trkpt>
<trkpt lat="52.920448" lon="-3.379421"><ele>394</ele><time>2022-10-15T13:37:19Z</time><name>PT3496</name></trkpt>
<trkpt lat="52.920469" lon="-3.379471"><ele>393</ele><time>2022-10-15T13:37:23Z</time><name>PT3497</name></trkpt>
<trkpt lat="52.920493" lon="-3.379521"><ele>391</ele><time>2022-10-15T13:37:27Z</time><name>PT3498</name></trkpt>
<trkpt lat="52.920510" lon="-3.379564"><ele>391</ele><time>2022-10-15T13:37:30Z</time><name>PT3499</name></trkpt>
<trkpt lat="52.920539" lon="-3.379623"><ele>390</ele><time>2022-10-15T13:37:34Z</time><name>PT3500</name></trkpt>
<trkpt lat="52.920566" lon="-3.379672"><ele>389</ele><time>2022-10-15T13:37:38Z</time><name>PT3501</name></trkpt>
<trkpt lat="52.920588" lon="-3.379735"><ele>388</ele><time>2022-10-15T13:37:42Z</time><name>PT3502</name></trkpt>
<trkpt lat="52.920606" lon="-3.379795"><ele>388</ele><time>2022-10-15T13:37:46Z</time><name>PT3503</name></trkpt>
<trkpt lat="52.920619" lon="-3.379839"><ele>387</ele><time>2022-10-15T13:37:50Z</time><name>PT3504</name></trkpt>
<trkpt lat="52.920635" lon="-3.379879"><ele>387</ele><time>2022-10-15T13:37:53Z</time><name>PT3505</name></trkpt>
<trkpt lat="52.920653" lon="-3.379934"><ele>386</ele><time>2022-10-15T13:37:57Z</time><name>PT3506</name></trkpt>
<trkpt lat="52.920682" lon="-3.379996"><ele>386</ele><time>2022-10-15T13:38:01Z</time><name>PT3507</name></trkpt>
<trkpt lat="52.920709" lon="-3.380048"><ele>386</ele><time>2022-10-15T13:38:05Z</time><name>PT3508</name></trkpt>
<trkpt lat="52.920740" lon="-3.380106"><ele>385</ele><time>2022-10-15T13:38:09Z</time><name>PT3509</name></trkpt>
<trkpt lat="52.920763" lon="-3.380167"><ele>384</ele><time>2022-10-15T13:38:13Z</time><name>PT3510</name></trkpt>
<trkpt lat="52.920784" lon="-3.380225"><ele>383</ele><time>2022-10-15T13:38:17Z</time><name>PT3511</name></trkpt>
<trkpt lat="52.920808" lon="-3.380286"><ele>382</ele><time>2022-10-15T13:38:21Z</time><name>PT3512</name></trkpt>
<trkpt lat="52.920832" lon="-3.380327"><ele>382</ele><time>2022-10-15T13:38:24Z</time><name>PT3513</name></trkpt>
<trkpt lat="52.920857" lon="-3.380390"><ele>382</ele><time>2022-10-15T13:38:28Z</time><name>PT3514</name></trkpt>
<trkpt lat="52.920872" lon="-3.380441"><ele>380</ele><time>2022-10-15T13:38:31Z</time><name>PT3515</name></trkpt>
<trkpt lat="52.920890" lon="-3.380509"><ele>379</ele><time>2022-10-15T13:38:35Z</time><name>PT3516</name></trkpt>
<trkpt lat="52.920905" lon="-3.380579"><ele>379</ele><time>2022-10-15T13:38:39Z</time><name>PT3517</name></trkpt>
<trkpt lat="52.920921" lon="-3.380626"><ele>378</ele><time>2022-10-15T13:38:42Z</time><name>PT3518</name></trkpt>
<trkpt lat="52.920945" lon="-3.380687"><ele>378</ele><time>2022-10-15T13:38:46Z</time><name>PT3519</name></trkpt>
<trkpt lat="52.920972" lon="-3.380753"><ele>377</ele><time>2022-10-15T13:38:50Z</time><name>PT3520</name></trkpt>
<trkpt lat="52.920989" lon="-3.380797"><ele>376</ele><time>2022-10-15T13:38:53Z</time><name>PT3521</name></trkpt>
<trkpt lat="52.921001" lon="-3.380828"><ele>376</ele><time>2022-10-15T13:38:57Z</time><name>PT3522</name></trkpt>
<trkpt lat="52.920996" lon="-3.380819"><ele>376</ele><time>2022-10-15T13:39:24Z</time><name>PT3523</name></trkpt>
<trkpt lat="52.920985" lon="-3.380802"><ele>376</ele><time>2022-10-15T13:39:28Z</time><name>PT3524</name></trkpt>
<trkpt lat="52.920984" lon="-3.380803"><ele>376</ele><time>2022-10-15T13:39:32Z</time><name>PT3525</name></trkpt>
<trkpt lat="52.920972" lon="-3.380779"><ele>375</ele><time>2022-10-15T13:39:54Z</time><name>PT3526</name></trkpt>
<trkpt lat="52.920956" lon="-3.380742"><ele>375</ele><time>2022-10-15T13:39:57Z</time><name>PT3527</name></trkpt>
<trkpt lat="52.920942" lon="-3.380708"><ele>375</ele><time>2022-10-15T13:40:01Z</time><name>PT3528</name></trkpt>
<trkpt lat="52.920934" lon="-3.380685"><ele>376</ele><time>2022-10-15T13:40:04Z</time><name>PT3529</name></trkpt>
<trkpt lat="52.920931" lon="-3.380682"><ele>375</ele><time>2022-10-15T13:40:07Z</time><name>PT3530</name></trkpt>
<trkpt lat="52.920930" lon="-3.380682"><ele>375</ele><time>2022-10-15T13:41:31Z</time><name>PT3531</name></trkpt>
<trkpt lat="52.920932" lon="-3.380678"><ele>375</ele><time>2022-10-15T13:41:35Z</time><name>PT3532</name></trkpt>
<trkpt lat="52.920935" lon="-3.380678"><ele>376</ele><time>2022-10-15T13:43:03Z</time><name>PT3533</name></trkpt>
<trkpt lat="52.920936" lon="-3.380681"><ele>376</ele><time>2022-10-15T13:43:06Z</time><name>PT3534</name></trkpt>
<trkpt lat="52.920938" lon="-3.380693"><ele>376</ele><time>2022-10-15T13:43:09Z</time><name>PT3535</name></trkpt>
<trkpt lat="52.920951" lon="-3.380746"><ele>376</ele><time>2022-10-15T13:43:13Z</time><name>PT3536</name></trkpt>
<trkpt lat="52.920965" lon="-3.380783"><ele>375</ele><time>2022-10-15T13:43:16Z</time><name>PT3537</name></trkpt>
<trkpt lat="52.920984" lon="-3.380826"><ele>375</ele><time>2022-10-15T13:43:20Z</time><name>PT3538</name></trkpt>
<trkpt lat="52.921000" lon="-3.380865"><ele>374</ele><time>2022-10-15T13:43:24Z</time><name>PT3539</name></trkpt>
<trkpt lat="52.921006" lon="-3.380898"><ele>374</ele><time>2022-10-15T13:43:27Z</time><name>PT3540</name></trkpt>
<trkpt lat="52.921021" lon="-3.380949"><ele>373</ele><time>2022-10-15T13:43:31Z</time><name>PT3541</name></trkpt>
<trkpt lat="52.921029" lon="-3.380993"><ele>373</ele><time>2022-10-15T13:43:34Z</time><name>PT3542</name></trkpt>
<trkpt lat="52.921030" lon="-3.381028"><ele>373</ele><time>2022-10-15T13:43:37Z</time><name>PT3543</name></trkpt>
<trkpt lat="52.921030" lon="-3.381029"><ele>373</ele><time>2022-10-15T13:43:40Z</time><name>PT3544</name></trkpt>
<trkpt lat="52.921032" lon="-3.381037"><ele>373</ele><time>2022-10-15T13:43:44Z</time><name>PT3545</name></trkpt>
<trkpt lat="52.921046" lon="-3.381116"><ele>372</ele><time>2022-10-15T13:43:48Z</time><name>PT3546</name></trkpt>
<trkpt lat="52.921060" lon="-3.381185"><ele>371</ele><time>2022-10-15T13:43:52Z</time><name>PT3547</name></trkpt>
<trkpt lat="52.921070" lon="-3.381255"><ele>370</ele><time>2022-10-15T13:43:56Z</time><name>PT3548</name></trkpt>
<trkpt lat="52.921085" lon="-3.381328"><ele>370</ele><time>2022-10-15T13:44:00Z</time><name>PT3549</name></trkpt>
<trkpt lat="52.921096" lon="-3.381415"><ele>371</ele><time>2022-10-15T13:44:04Z</time><name>PT3550</name></trkpt>
<trkpt lat="52.921111" lon="-3.381484"><ele>371</ele><time>2022-10-15T13:44:08Z</time><name>PT3551</name></trkpt>
<trkpt lat="52.921133" lon="-3.381553"><ele>373</ele><time>2022-10-15T13:44:12Z</time><name>PT3552</name></trkpt>
<trkpt lat="52.921149" lon="-3.381601"><ele>373</ele><time>2022-10-15T13:44:15Z</time><name>PT3553</name></trkpt>
<trkpt lat="52.921163" lon="-3.381660"><ele>375</ele><time>2022-10-15T13:44:19Z</time><name>PT3554</name></trkpt>
<trkpt lat="52.921177" lon="-3.381713"><ele>376</ele><time>2022-10-15T13:44:23Z</time><name>PT3555</name></trkpt>
<trkpt lat="52.921191" lon="-3.381753"><ele>377</ele><time>2022-10-15T13:44:26Z</time><name>PT3556</name></trkpt>
<trkpt lat="52.921205" lon="-3.381787"><ele>378</ele><time>2022-10-15T13:44:29Z</time><name>PT3557</name></trkpt>
<trkpt lat="52.921225" lon="-3.381830"><ele>378</ele><time>2022-10-15T13:44:33Z</time><name>PT3558</name></trkpt>
<trkpt lat="52.921250" lon="-3.381878"><ele>379</ele><time>2022-10-15T13:44:37Z</time><name>PT3559</name></trkpt>
<trkpt lat="52.921269" lon="-3.381910"><ele>379</ele><time>2022-10-15T13:44:40Z</time><name>PT3560</name></trkpt>
<trkpt lat="52.921285" lon="-3.381917"><ele>380</ele><time>2022-10-15T13:44:43Z</time><name>PT3561</name></trkpt>
<trkpt lat="52.921312" lon="-3.381952"><ele>380</ele><time>2022-10-15T13:44:47Z</time><name>PT3562</name></trkpt>
<trkpt lat="52.921355" lon="-3.381994"><ele>380</ele><time>2022-10-15T13:44:51Z</time><name>PT3563</name></trkpt>
<trkpt lat="52.921392" lon="-3.382039"><ele>380</ele><time>2022-10-15T13:44:55Z</time><name>PT3564</name></trkpt>
<trkpt lat="52.921423" lon="-3.382087"><ele>380</ele><time>2022-10-15T13:44:59Z</time><name>PT3565</name></trkpt>
<trkpt lat="52.921445" lon="-3.382144"><ele>379</ele><time>2022-10-15T13:45:03Z</time><name>PT3566</name></trkpt>
<trkpt lat="52.921473" lon="-3.382199"><ele>380</ele><time>2022-10-15T13:45:07Z</time><name>PT3567</name></trkpt>
<trkpt lat="52.921495" lon="-3.382262"><ele>380</ele><time>2022-10-15T13:45:11Z</time><name>PT3568</name></trkpt>
<trkpt lat="52.921511" lon="-3.382327"><ele>380</ele><time>2022-10-15T13:45:15Z</time><name>PT3569</name></trkpt>
<trkpt lat="52.921529" lon="-3.382390"><ele>380</ele><time>2022-10-15T13:45:19Z</time><name>PT3570</name></trkpt>
<trkpt lat="52.921563" lon="-3.382442"><ele>380</ele><time>2022-10-15T13:45:23Z</time><name>PT3571</name></trkpt>
<trkpt lat="52.921594" lon="-3.382466"><ele>380</ele><time>2022-10-15T13:45:26Z</time><name>PT3572</name></trkpt>
<trkpt lat="52.921631" lon="-3.382495"><ele>380</ele><time>2022-10-15T13:45:30Z</time><name>PT3573</name></trkpt>
<trkpt lat="52.921665" lon="-3.382533"><ele>379</ele><time>2022-10-15T13:45:34Z</time><name>PT3574</name></trkpt>
<trkpt lat="52.921686" lon="-3.382573"><ele>379</ele><time>2022-10-15T13:45:37Z</time><name>PT3575</name></trkpt>
<trkpt lat="52.921710" lon="-3.382617"><ele>380</ele><time>2022-10-15T13:45:41Z</time><name>PT3576</name></trkpt>
<trkpt lat="52.921733" lon="-3.382653"><ele>380</ele><time>2022-10-15T13:45:45Z</time><name>PT3577</name></trkpt>
<trkpt lat="52.921761" lon="-3.382689"><ele>379</ele><time>2022-10-15T13:45:49Z</time><name>PT3578</name></trkpt>
<trkpt lat="52.921793" lon="-3.382749"><ele>379</ele><time>2022-10-15T13:45:53Z</time><name>PT3579</name></trkpt>
<trkpt lat="52.921819" lon="-3.382776"><ele>379</ele><time>2022-10-15T13:45:57Z</time><name>PT3580</name></trkpt>
<trkpt lat="52.921823" lon="-3.382789"><ele>380</ele><time>2022-10-15T13:46:01Z</time><name>PT3581</name></trkpt>
<trkpt lat="52.921825" lon="-3.382817"><ele>380</ele><time>2022-10-15T13:46:05Z</time><name>PT3582</name></trkpt>
<trkpt lat="52.921854" lon="-3.382870"><ele>380</ele><time>2022-10-15T13:46:09Z</time><name>PT3583</name></trkpt>
<trkpt lat="52.921885" lon="-3.382908"><ele>380</ele><time>2022-10-15T13:46:13Z</time><name>PT3584</name></trkpt>
<trkpt lat="52.921913" lon="-3.382938"><ele>380</ele><time>2022-10-15T13:46:16Z</time><name>PT3585</name></trkpt>
<trkpt lat="52.921944" lon="-3.382979"><ele>380</ele><time>2022-10-15T13:46:20Z</time><name>PT3586</name></trkpt>
<trkpt lat="52.921969" lon="-3.383025"><ele>381</ele><time>2022-10-15T13:46:24Z</time><name>PT3587</name></trkpt>
<trkpt lat="52.921991" lon="-3.383072"><ele>381</ele><time>2022-10-15T13:46:28Z</time><name>PT3588</name></trkpt>
<trkpt lat="52.922018" lon="-3.383108"><ele>381</ele><time>2022-10-15T13:46:32Z</time><name>PT3589</name></trkpt>
<trkpt lat="52.922039" lon="-3.383147"><ele>380</ele><time>2022-10-15T13:46:35Z</time><name>PT3590</name></trkpt>
<trkpt lat="52.922072" lon="-3.383192"><ele>381</ele><time>2022-10-15T13:46:39Z</time><name>PT3591</name></trkpt>
<trkpt lat="52.922094" lon="-3.383234"><ele>381</ele><time>2022-10-15T13:46:42Z</time><name>PT3592</name></trkpt>
<trkpt lat="52.922132" lon="-3.383276"><ele>380</ele><time>2022-10-15T13:46:46Z</time><name>PT3593</name></trkpt>
<trkpt lat="52.922158" lon="-3.383303"><ele>380</ele><time>2022-10-15T13:46:49Z</time><name>PT3594</name></trkpt>
<trkpt lat="52.922190" lon="-3.383337"><ele>380</ele><time>2022-10-15T13:46:52Z</time><name>PT3595</name></trkpt>
<trkpt lat="52.922222" lon="-3.383362"><ele>381</ele><time>2022-10-15T13:46:55Z</time><name>PT3596</name></trkpt>
<trkpt lat="52.922240" lon="-3.383376"><ele>381</ele><time>2022-10-15T13:46:58Z</time><name>PT3597</name></trkpt>
<trkpt lat="52.922253" lon="-3.383389"><ele>382</ele><time>2022-10-15T13:47:02Z</time><name>PT3598</name></trkpt>
<trkpt lat="52.922289" lon="-3.383405"><ele>382</ele><time>2022-10-15T13:47:06Z</time><name>PT3599</name></trkpt>
<trkpt lat="52.922309" lon="-3.383413"><ele>381</ele><time>2022-10-15T13:47:09Z</time><name>PT3600</name></trkpt>
<trkpt lat="52.922348" lon="-3.383448"><ele>382</ele><time>2022-10-15T13:47:13Z</time><name>PT3601</name></trkpt>
<trkpt lat="52.922374" lon="-3.383475"><ele>381</ele><time>2022-10-15T13:47:16Z</time><name>PT3602</name></trkpt>
<trkpt lat="52.922405" lon="-3.383516"><ele>381</ele><time>2022-10-15T13:47:20Z</time><name>PT3603</name></trkpt>
<trkpt lat="52.922438" lon="-3.383563"><ele>381</ele><time>2022-10-15T13:47:24Z</time><name>PT3604</name></trkpt>
<trkpt lat="52.922474" lon="-3.383605"><ele>381</ele><time>2022-10-15T13:47:28Z</time><name>PT3605</name></trkpt>
<trkpt lat="52.922507" lon="-3.383639"><ele>381</ele><time>2022-10-15T13:47:32Z</time><name>PT3606</name></trkpt>
<trkpt lat="52.922528" lon="-3.383679"><ele>381</ele><time>2022-10-15T13:47:35Z</time><name>PT3607</name></trkpt>
<trkpt lat="52.922562" lon="-3.383730"><ele>381</ele><time>2022-10-15T13:47:39Z</time><name>PT3608</name></trkpt>
<trkpt lat="52.922589" lon="-3.383781"><ele>381</ele><time>2022-10-15T13:47:43Z</time><name>PT3609</name></trkpt>
<trkpt lat="52.922610" lon="-3.383828"><ele>381</ele><time>2022-10-15T13:47:46Z</time><name>PT3610</name></trkpt>
<trkpt lat="52.922641" lon="-3.383881"><ele>382</ele><time>2022-10-15T13:47:50Z</time><name>PT3611</name></trkpt>
<trkpt lat="52.922666" lon="-3.383933"><ele>382</ele><time>2022-10-15T13:47:54Z</time><name>PT3612</name></trkpt>
<trkpt lat="52.922687" lon="-3.383988"><ele>381</ele><time>2022-10-15T13:47:58Z</time><name>PT3613</name></trkpt>
<trkpt lat="52.922706" lon="-3.384040"><ele>380</ele><time>2022-10-15T13:48:02Z</time><name>PT3614</name></trkpt>
<trkpt lat="52.922712" lon="-3.384084"><ele>380</ele><time>2022-10-15T13:48:06Z</time><name>PT3615</name></trkpt>
<trkpt lat="52.922722" lon="-3.384120"><ele>381</ele><time>2022-10-15T13:48:10Z</time><name>PT3616</name></trkpt>
<trkpt lat="52.922724" lon="-3.384159"><ele>382</ele><time>2022-10-15T13:48:15Z</time><name>PT3617</name></trkpt>
<trkpt lat="52.922722" lon="-3.384164"><ele>383</ele><time>2022-10-15T13:48:29Z</time><name>PT3618</name></trkpt>
<trkpt lat="52.922725" lon="-3.384187"><ele>382</ele><time>2022-10-15T13:48:32Z</time><name>PT3619</name></trkpt>
<trkpt lat="52.922727" lon="-3.384195"><ele>382</ele><time>2022-10-15T13:48:53Z</time><name>PT3620</name></trkpt>
<trkpt lat="52.922723" lon="-3.384198"><ele>382</ele><time>2022-10-15T13:48:56Z</time><name>PT3621</name></trkpt>
<trkpt lat="52.922723" lon="-3.384198"><ele>382</ele><time>2022-10-15T13:49:00Z</time><name>PT3622</name></trkpt>
<trkpt lat="52.922728" lon="-3.384198"><ele>382</ele><time>2022-10-15T13:49:04Z</time><name>PT3623</name></trkpt>
<trkpt lat="52.922733" lon="-3.384209"><ele>381</ele><time>2022-10-15T13:49:08Z</time><name>PT3624</name></trkpt>
<trkpt lat="52.922732" lon="-3.384267"><ele>381</ele><time>2022-10-15T13:49:20Z</time><name>PT3625</name></trkpt>
<trkpt lat="52.922742" lon="-3.384326"><ele>381</ele><time>2022-10-15T13:49:24Z</time><name>PT3626</name></trkpt>
<trkpt lat="52.922763" lon="-3.384375"><ele>379</ele><time>2022-10-15T13:49:28Z</time><name>PT3627</name></trkpt>
<trkpt lat="52.922772" lon="-3.384424"><ele>379</ele><time>2022-10-15T13:49:31Z</time><name>PT3628</name></trkpt>
<trkpt lat="52.922785" lon="-3.384491"><ele>379</ele><time>2022-10-15T13:49:35Z</time><name>PT3629</name></trkpt>
<trkpt lat="52.922790" lon="-3.384544"><ele>379</ele><time>2022-10-15T13:49:38Z</time><name>PT3630</name></trkpt>
<trkpt lat="52.922796" lon="-3.384614"><ele>379</ele><time>2022-10-15T13:49:42Z</time><name>PT3631</name></trkpt>
<trkpt lat="52.922798" lon="-3.384689"><ele>378</ele><time>2022-10-15T13:49:46Z</time><name>PT3632</name></trkpt>
<trkpt lat="52.922807" lon="-3.384762"><ele>377</ele><time>2022-10-15T13:49:50Z</time><name>PT3633</name></trkpt>
<trkpt lat="52.922817" lon="-3.384830"><ele>374</ele><time>2022-10-15T13:49:54Z</time><name>PT3634</name></trkpt>
<trkpt lat="52.922831" lon="-3.384898"><ele>375</ele><time>2022-10-15T13:49:58Z</time><name>PT3635</name></trkpt>
<trkpt lat="52.922840" lon="-3.384962"><ele>375</ele><time>2022-10-15T13:50:02Z</time><name>PT3636</name></trkpt>
<trkpt lat="52.922852" lon="-3.385024"><ele>374</ele><time>2022-10-15T13:50:06Z</time><name>PT3637</name></trkpt>
<trkpt lat="52.922858" lon="-3.385074"><ele>374</ele><time>2022-10-15T13:50:09Z</time><name>PT3638</name></trkpt>
<trkpt lat="52.922878" lon="-3.385136"><ele>375</ele><time>2022-10-15T13:50:13Z</time><name>PT3639</name></trkpt>
<trkpt lat="52.922886" lon="-3.385188"><ele>374</ele><time>2022-10-15T13:50:16Z</time><name>PT3640</name></trkpt>
<trkpt lat="52.922895" lon="-3.385239"><ele>375</ele><time>2022-10-15T13:50:19Z</time><name>PT3641</name></trkpt>
<trkpt lat="52.922913" lon="-3.385304"><ele>376</ele><time>2022-10-15T13:50:23Z</time><name>PT3642</name></trkpt>
<trkpt lat="52.922925" lon="-3.385346"><ele>374</ele><time>2022-10-15T13:50:26Z</time><name>PT3643</name></trkpt>
<trkpt lat="52.922939" lon="-3.385385"><ele>373</ele><time>2022-10-15T13:50:30Z</time><name>PT3644</name></trkpt>
<trkpt lat="52.922958" lon="-3.385428"><ele>372</ele><time>2022-10-15T13:50:34Z</time><name>PT3645</name></trkpt>
<trkpt lat="52.922978" lon="-3.385486"><ele>372</ele><time>2022-10-15T13:50:38Z</time><name>PT3646</name></trkpt>
<trkpt lat="52.922991" lon="-3.385536"><ele>373</ele><time>2022-10-15T13:50:42Z</time><name>PT3647</name></trkpt>
<trkpt lat="52.923013" lon="-3.385582"><ele>374</ele><time>2022-10-15T13:50:46Z</time><name>PT3648</name></trkpt>
<trkpt lat="52.923030" lon="-3.385621"><ele>371</ele><time>2022-10-15T13:50:50Z</time><name>PT3649</name></trkpt>
<trkpt lat="52.923046" lon="-3.385666"><ele>371</ele><time>2022-10-15T13:50:54Z</time><name>PT3650</name></trkpt>
<trkpt lat="52.923056" lon="-3.385704"><ele>372</ele><time>2022-10-15T13:50:57Z</time><name>PT3651</name></trkpt>
<trkpt lat="52.923064" lon="-3.385762"><ele>371</ele><time>2022-10-15T13:51:01Z</time><name>PT3652</name></trkpt>
<trkpt lat="52.923083" lon="-3.385821"><ele>372</ele><time>2022-10-15T13:51:05Z</time><name>PT3653</name></trkpt>
<trkpt lat="52.923110" lon="-3.385860"><ele>372</ele><time>2022-10-15T13:51:09Z</time><name>PT3654</name></trkpt>
<trkpt lat="52.923128" lon="-3.385917"><ele>373</ele><time>2022-10-15T13:51:13Z</time><name>PT3655</name></trkpt>
<trkpt lat="52.923151" lon="-3.385966"><ele>374</ele><time>2022-10-15T13:51:17Z</time><name>PT3656</name></trkpt>
<trkpt lat="52.923166" lon="-3.386029"><ele>374</ele><time>2022-10-15T13:51:21Z</time><name>PT3657</name></trkpt>
<trkpt lat="52.923177" lon="-3.386078"><ele>374</ele><time>2022-10-15T13:51:25Z</time><name>PT3658</name></trkpt>
<trkpt lat="52.923188" lon="-3.386133"><ele>375</ele><time>2022-10-15T13:51:29Z</time><name>PT3659</name></trkpt>
<trkpt lat="52.923194" lon="-3.386149"><ele>374</ele><time>2022-10-15T13:51:33Z</time><name>PT3660</name></trkpt>
<trkpt lat="52.923200" lon="-3.386207"><ele>374</ele><time>2022-10-15T13:51:37Z</time><name>PT3661</name></trkpt>
<trkpt lat="52.923210" lon="-3.386255"><ele>375</ele><time>2022-10-15T13:51:40Z</time><name>PT3662</name></trkpt>
<trkpt lat="52.923208" lon="-3.386268"><ele>375</ele><time>2022-10-15T13:51:44Z</time><name>PT3663</name></trkpt>
<trkpt lat="52.923220" lon="-3.386325"><ele>376</ele><time>2022-10-15T13:51:51Z</time><name>PT3664</name></trkpt>
<trkpt lat="52.923234" lon="-3.386413"><ele>376</ele><time>2022-10-15T13:51:54Z</time><name>PT3665</name></trkpt>
<trkpt lat="52.923254" lon="-3.386487"><ele>376</ele><time>2022-10-15T13:51:58Z</time><name>PT3666</name></trkpt>
<trkpt lat="52.923268" lon="-3.386554"><ele>375</ele><time>2022-10-15T13:52:02Z</time><name>PT3667</name></trkpt>
<trkpt lat="52.923280" lon="-3.386615"><ele>375</ele><time>2022-10-15T13:52:06Z</time><name>PT3668</name></trkpt>
<trkpt lat="52.923293" lon="-3.386676"><ele>376</ele><time>2022-10-15T13:52:10Z</time><name>PT3669</name></trkpt>
<trkpt lat="52.923304" lon="-3.386731"><ele>377</ele><time>2022-10-15T13:52:14Z</time><name>PT3670</name></trkpt>
<trkpt lat="52.923329" lon="-3.386785"><ele>377</ele><time>2022-10-15T13:52:18Z</time><name>PT3671</name></trkpt>
<trkpt lat="52.923327" lon="-3.386868"><ele>381</ele><time>2022-10-15T13:52:22Z</time><name>PT3672</name></trkpt>
<trkpt lat="52.923339" lon="-3.386928"><ele>384</ele><time>2022-10-15T13:52:26Z</time><name>PT3673</name></trkpt>
<trkpt lat="52.923358" lon="-3.386977"><ele>384</ele><time>2022-10-15T13:52:30Z</time><name>PT3674</name></trkpt>
<trkpt lat="52.923373" lon="-3.387029"><ele>385</ele><time>2022-10-15T13:52:34Z</time><name>PT3675</name></trkpt>
<trkpt lat="52.923379" lon="-3.387095"><ele>387</ele><time>2022-10-15T13:52:38Z</time><name>PT3676</name></trkpt>
<trkpt lat="52.923390" lon="-3.387159"><ele>387</ele><time>2022-10-15T13:52:42Z</time><name>PT3677</name></trkpt>
<trkpt lat="52.923407" lon="-3.387216"><ele>387</ele><time>2022-10-15T13:52:46Z</time><name>PT3678</name></trkpt>
<trkpt lat="52.923419" lon="-3.387274"><ele>388</ele><time>2022-10-15T13:52:50Z</time><name>PT3679</name></trkpt>
<trkpt lat="52.923429" lon="-3.387339"><ele>389</ele><time>2022-10-15T13:52:54Z</time><name>PT3680</name></trkpt>
<trkpt lat="52.923442" lon="-3.387411"><ele>390</ele><time>2022-10-15T13:52:58Z</time><name>PT3681</name></trkpt>
<trkpt lat="52.923451" lon="-3.387473"><ele>391</ele><time>2022-10-15T13:53:02Z</time><name>PT3682</name></trkpt>
<trkpt lat="52.923456" lon="-3.387537"><ele>392</ele><time>2022-10-15T13:53:06Z</time><name>PT3683</name></trkpt>
<trkpt lat="52.923461" lon="-3.387603"><ele>393</ele><time>2022-10-15T13:53:10Z</time><name>PT3684</name></trkpt>
<trkpt lat="52.923473" lon="-3.387664"><ele>393</ele><time>2022-10-15T13:53:14Z</time><name>PT3685</name></trkpt>
<trkpt lat="52.923481" lon="-3.387740"><ele>396</ele><time>2022-10-15T13:53:18Z</time><name>PT3686</name></trkpt>
<trkpt lat="52.923494" lon="-3.387791"><ele>398</ele><time>2022-10-15T13:53:21Z</time><name>PT3687</name></trkpt>
<trkpt lat="52.923512" lon="-3.387855"><ele>398</ele><time>2022-10-15T13:53:25Z</time><name>PT3688</name></trkpt>
<trkpt lat="52.923529" lon="-3.387929"><ele>399</ele><time>2022-10-15T13:53:29Z</time><name>PT3689</name></trkpt>
<trkpt lat="52.923546" lon="-3.387993"><ele>400</ele><time>2022-10-15T13:53:33Z</time><name>PT3690</name></trkpt>
<trkpt lat="52.923567" lon="-3.388074"><ele>401</ele><time>2022-10-15T13:53:37Z</time><name>PT3691</name></trkpt>
<trkpt lat="52.923580" lon="-3.388130"><ele>402</ele><time>2022-10-15T13:53:40Z</time><name>PT3692</name></trkpt>
<trkpt lat="52.923601" lon="-3.388197"><ele>401</ele><time>2022-10-15T13:53:44Z</time><name>PT3693</name></trkpt>
<trkpt lat="52.923617" lon="-3.388266"><ele>400</ele><time>2022-10-15T13:53:48Z</time><name>PT3694</name></trkpt>
<trkpt lat="52.923631" lon="-3.388332"><ele>401</ele><time>2022-10-15T13:53:52Z</time><name>PT3695</name></trkpt>
<trkpt lat="52.923647" lon="-3.388377"><ele>401</ele><time>2022-10-15T13:53:55Z</time><name>PT3696</name></trkpt>
<trkpt lat="52.923664" lon="-3.388440"><ele>402</ele><time>2022-10-15T13:53:59Z</time><name>PT3697</name></trkpt>
<trkpt lat="52.923681" lon="-3.388504"><ele>402</ele><time>2022-10-15T13:54:03Z</time><name>PT3698</name></trkpt>
<trkpt lat="52.923699" lon="-3.388564"><ele>402</ele><time>2022-10-15T13:54:07Z</time><name>PT3699</name></trkpt>
<trkpt lat="52.923728" lon="-3.388618"><ele>401</ele><time>2022-10-15T13:54:11Z</time><name>PT3700</name></trkpt>
<trkpt lat="52.923753" lon="-3.388687"><ele>402</ele><time>2022-10-15T13:54:15Z</time><name>PT3701</name></trkpt>
<trkpt lat="52.923772" lon="-3.388758"><ele>403</ele><time>2022-10-15T13:54:19Z</time><name>PT3702</name></trkpt>
<trkpt lat="52.923793" lon="-3.388823"><ele>403</ele><time>2022-10-15T13:54:23Z</time><name>PT3703</name></trkpt>
<trkpt lat="52.923812" lon="-3.388893"><ele>404</ele><time>2022-10-15T13:54:27Z</time><name>PT3704</name></trkpt>
<trkpt lat="52.923836" lon="-3.388959"><ele>404</ele><time>2022-10-15T13:54:31Z</time><name>PT3705</name></trkpt>
<trkpt lat="52.923849" lon="-3.389005"><ele>405</ele><time>2022-10-15T13:54:34Z</time><name>PT3706</name></trkpt>
<trkpt lat="52.923868" lon="-3.389054"><ele>405</ele><time>2022-10-15T13:54:38Z</time><name>PT3707</name></trkpt>
<trkpt lat="52.923887" lon="-3.389115"><ele>405</ele><time>2022-10-15T13:54:42Z</time><name>PT3708</name></trkpt>
<trkpt lat="52.923899" lon="-3.389179"><ele>406</ele><time>2022-10-15T13:54:46Z</time><name>PT3709</name></trkpt>
<trkpt lat="52.923918" lon="-3.389251"><ele>406</ele><time>2022-10-15T13:54:50Z</time><name>PT3710</name></trkpt>
<trkpt lat="52.923931" lon="-3.389309"><ele>405</ele><time>2022-10-15T13:54:54Z</time><name>PT3711</name></trkpt>
<trkpt lat="52.923955" lon="-3.389366"><ele>405</ele><time>2022-10-15T13:54:58Z</time><name>PT3712</name></trkpt>
<trkpt lat="52.923971" lon="-3.389429"><ele>405</ele><time>2022-10-15T13:55:02Z</time><name>PT3713</name></trkpt>
<trkpt lat="52.923982" lon="-3.389496"><ele>405</ele><time>2022-10-15T13:55:06Z</time><name>PT3714</name></trkpt>
<trkpt lat="52.923987" lon="-3.389551"><ele>404</ele><time>2022-10-15T13:55:10Z</time><name>PT3715</name></trkpt>
<trkpt lat="52.923998" lon="-3.389609"><ele>403</ele><time>2022-10-15T13:55:14Z</time><name>PT3716</name></trkpt>
<trkpt lat="52.924006" lon="-3.389660"><ele>403</ele><time>2022-10-15T13:55:17Z</time><name>PT3717</name></trkpt>
<trkpt lat="52.924016" lon="-3.389726"><ele>403</ele><time>2022-10-15T13:55:21Z</time><name>PT3718</name></trkpt>
<trkpt lat="52.924026" lon="-3.389797"><ele>403</ele><time>2022-10-15T13:55:25Z</time><name>PT3719</name></trkpt>
<trkpt lat="52.924023" lon="-3.389854"><ele>403</ele><time>2022-10-15T13:55:29Z</time><name>PT3720</name></trkpt>
<trkpt lat="52.924020" lon="-3.389931"><ele>403</ele><time>2022-10-15T13:55:33Z</time><name>PT3721</name></trkpt>
<trkpt lat="52.924017" lon="-3.389988"><ele>403</ele><time>2022-10-15T13:55:36Z</time><name>PT3722</name></trkpt>
<trkpt lat="52.924013" lon="-3.390056"><ele>403</ele><time>2022-10-15T13:55:40Z</time><name>PT3723</name></trkpt>
<trkpt lat="52.924014" lon="-3.390111"><ele>402</ele><time>2022-10-15T13:55:43Z</time><name>PT3724</name></trkpt>
<trkpt lat="52.924016" lon="-3.390175"><ele>402</ele><time>2022-10-15T13:55:47Z</time><name>PT3725</name></trkpt>
<trkpt lat="52.924020" lon="-3.390232"><ele>402</ele><time>2022-10-15T13:55:51Z</time><name>PT3726</name></trkpt>
<trkpt lat="52.924021" lon="-3.390301"><ele>403</ele><time>2022-10-15T13:55:55Z</time><name>PT3727</name></trkpt>
<trkpt lat="52.924020" lon="-3.390366"><ele>403</ele><time>2022-10-15T13:55:59Z</time><name>PT3728</name></trkpt>
<trkpt lat="52.924010" lon="-3.390427"><ele>403</ele><time>2022-10-15T13:56:03Z</time><name>PT3729</name></trkpt>
<trkpt lat="52.924003" lon="-3.390477"><ele>402</ele><time>2022-10-15T13:56:07Z</time><name>PT3730</name></trkpt>
<trkpt lat="52.924001" lon="-3.390520"><ele>402</ele><time>2022-10-15T13:56:10Z</time><name>PT3731</name></trkpt>
<trkpt lat="52.923993" lon="-3.390592"><ele>403</ele><time>2022-10-15T13:56:14Z</time><name>PT3732</name></trkpt>
<trkpt lat="52.923984" lon="-3.390667"><ele>403</ele><time>2022-10-15T13:56:18Z</time><name>PT3733</name></trkpt>
<trkpt lat="52.923978" lon="-3.390738"><ele>403</ele><time>2022-10-15T13:56:22Z</time><name>PT3734</name></trkpt>
<trkpt lat="52.923986" lon="-3.390802"><ele>402</ele><time>2022-10-15T13:56:26Z</time><name>PT3735</name></trkpt>
<trkpt lat="52.923991" lon="-3.390859"><ele>402</ele><time>2022-10-15T13:56:30Z</time><name>PT3736</name></trkpt>
<trkpt lat="52.923994" lon="-3.390914"><ele>402</ele><time>2022-10-15T13:56:34Z</time><name>PT3737</name></trkpt>
<trkpt lat="52.923994" lon="-3.390948"><ele>403</ele><time>2022-10-15T13:56:38Z</time><name>PT3738</name></trkpt>
<trkpt lat="52.923998" lon="-3.390978"><ele>403</ele><time>2022-10-15T13:56:41Z</time><name>PT3739</name></trkpt>
<trkpt lat="52.924000" lon="-3.391031"><ele>402</ele><time>2022-10-15T13:56:45Z</time><name>PT3740</name></trkpt>
<trkpt lat="52.924014" lon="-3.391081"><ele>403</ele><time>2022-10-15T13:56:48Z</time><name>PT3741</name></trkpt>
<trkpt lat="52.924026" lon="-3.391144"><ele>403</ele><time>2022-10-15T13:56:52Z</time><name>PT3742</name></trkpt>
<trkpt lat="52.924025" lon="-3.391215"><ele>403</ele><time>2022-10-15T13:56:56Z</time><name>PT3743</name></trkpt>
<trkpt lat="52.924023" lon="-3.391263"><ele>403</ele><time>2022-10-15T13:57:00Z</time><name>PT3744</name></trkpt>
<trkpt lat="52.924023" lon="-3.391282"><ele>403</ele><time>2022-10-15T13:57:04Z</time><name>PT3745</name></trkpt>
<trkpt lat="52.924030" lon="-3.391318"><ele>404</ele><time>2022-10-15T13:57:12Z</time><name>PT3746</name></trkpt>
<trkpt lat="52.924041" lon="-3.391383"><ele>404</ele><time>2022-10-15T13:57:16Z</time><name>PT3747</name></trkpt>
<trkpt lat="52.924047" lon="-3.391411"><ele>403</ele><time>2022-10-15T13:57:20Z</time><name>PT3748</name></trkpt>
<trkpt lat="52.924057" lon="-3.391460"><ele>403</ele><time>2022-10-15T13:57:24Z</time><name>PT3749</name></trkpt>
<trkpt lat="52.924066" lon="-3.391525"><ele>403</ele><time>2022-10-15T13:57:28Z</time><name>PT3750</name></trkpt>
<trkpt lat="52.924073" lon="-3.391601"><ele>402</ele><time>2022-10-15T13:57:32Z</time><name>PT3751</name></trkpt>
<trkpt lat="52.924079" lon="-3.391665"><ele>402</ele><time>2022-10-15T13:57:36Z</time><name>PT3752</name></trkpt>
<trkpt lat="52.924091" lon="-3.391733"><ele>402</ele><time>2022-10-15T13:57:40Z</time><name>PT3753</name></trkpt>
<trkpt lat="52.924106" lon="-3.391811"><ele>402</ele><time>2022-10-15T13:57:44Z</time><name>PT3754</name></trkpt>
<trkpt lat="52.924117" lon="-3.391895"><ele>403</ele><time>2022-10-15T13:57:48Z</time><name>PT3755</name></trkpt>
<trkpt lat="52.924123" lon="-3.391972"><ele>402</ele><time>2022-10-15T13:57:52Z</time><name>PT3756</name></trkpt>
<trkpt lat="52.924127" lon="-3.392022"><ele>402</ele><time>2022-10-15T13:57:56Z</time><name>PT3757</name></trkpt>
<trkpt lat="52.924124" lon="-3.392020"><ele>402</ele><time>2022-10-15T13:58:00Z</time><name>PT3758</name></trkpt>
<trkpt lat="52.924122" lon="-3.392015"><ele>401</ele><time>2022-10-15T13:58:08Z</time><name>PT3759</name></trkpt>
<trkpt lat="52.924120" lon="-3.392021"><ele>401</ele><time>2022-10-15T13:58:28Z</time><name>PT3760</name></trkpt>
<trkpt lat="52.924123" lon="-3.392031"><ele>401</ele><time>2022-10-15T13:58:35Z</time><name>PT3761</name></trkpt>
<trkpt lat="52.924131" lon="-3.392077"><ele>402</ele><time>2022-10-15T13:58:39Z</time><name>PT3762</name></trkpt>
<trkpt lat="52.924133" lon="-3.392114"><ele>402</ele><time>2022-10-15T13:58:42Z</time><name>PT3763</name></trkpt>
<trkpt lat="52.924142" lon="-3.392168"><ele>402</ele><time>2022-10-15T13:58:45Z</time><name>PT3764</name></trkpt>
<trkpt lat="52.924153" lon="-3.392248"><ele>402</ele><time>2022-10-15T13:58:49Z</time><name>PT3765</name></trkpt>
<trkpt lat="52.924152" lon="-3.392315"><ele>401</ele><time>2022-10-15T13:58:53Z</time><name>PT3766</name></trkpt>
<trkpt lat="52.924160" lon="-3.392391"><ele>401</ele><time>2022-10-15T13:58:57Z</time><name>PT3767</name></trkpt>
<trkpt lat="52.924173" lon="-3.392467"><ele>400</ele><time>2022-10-15T13:59:01Z</time><name>PT3768</name></trkpt>
<trkpt lat="52.924180" lon="-3.392550"><ele>399</ele><time>2022-10-15T13:59:05Z</time><name>PT3769</name></trkpt>
<trkpt lat="52.924183" lon="-3.392614"><ele>399</ele><time>2022-10-15T13:59:08Z</time><name>PT3770</name></trkpt>
<trkpt lat="52.924195" lon="-3.392690"><ele>398</ele><time>2022-10-15T13:59:12Z</time><name>PT3771</name></trkpt>
<trkpt lat="52.924203" lon="-3.392777"><ele>397</ele><time>2022-10-15T13:59:16Z</time><name>PT3772</name></trkpt>
<trkpt lat="52.924210" lon="-3.392866"><ele>397</ele><time>2022-10-15T13:59:20Z</time><name>PT3773</name></trkpt>
<trkpt lat="52.924216" lon="-3.392946"><ele>395</ele><time>2022-10-15T13:59:24Z</time><name>PT3774</name></trkpt>
<trkpt lat="52.924222" lon="-3.393014"><ele>395</ele><time>2022-10-15T13:59:27Z</time><name>PT3775</name></trkpt>
<trkpt lat="52.924229" lon="-3.393099"><ele>394</ele><time>2022-10-15T13:59:31Z</time><name>PT3776</name></trkpt>
<trkpt lat="52.924241" lon="-3.393172"><ele>394</ele><time>2022-10-15T13:59:35Z</time><name>PT3777</name></trkpt>
<trkpt lat="52.924246" lon="-3.393234"><ele>394</ele><time>2022-10-15T13:59:38Z</time><name>PT3778</name></trkpt>
<trkpt lat="52.924254" lon="-3.393320"><ele>395</ele><time>2022-10-15T13:59:42Z</time><name>PT3779</name></trkpt>
<trkpt lat="52.924264" lon="-3.393365"><ele>395</ele><time>2022-10-15T13:59:46Z</time><name>PT3780</name></trkpt>
<trkpt lat="52.924262" lon="-3.393366"><ele>394</ele><time>2022-10-15T13:59:50Z</time><name>PT3781</name></trkpt>
<trkpt lat="52.924261" lon="-3.393366"><ele>394</ele><time>2022-10-15T13:59:58Z</time><name>PT3782</name></trkpt>
<trkpt lat="52.924261" lon="-3.393370"><ele>395</ele><time>2022-10-15T14:00:01Z</time><name>PT3783</name></trkpt>
<trkpt lat="52.924265" lon="-3.393408"><ele>395</ele><time>2022-10-15T14:00:12Z</time><name>PT3784</name></trkpt>
<trkpt lat="52.924275" lon="-3.393488"><ele>394</ele><time>2022-10-15T14:00:16Z</time><name>PT3785</name></trkpt>
<trkpt lat="52.924282" lon="-3.393563"><ele>393</ele><time>2022-10-15T14:00:20Z</time><name>PT3786</name></trkpt>
<trkpt lat="52.924294" lon="-3.393637"><ele>392</ele><time>2022-10-15T14:00:24Z</time><name>PT3787</name></trkpt>
<trkpt lat="52.924313" lon="-3.393718"><ele>393</ele><time>2022-10-15T14:00:28Z</time><name>PT3788</name></trkpt>
<trkpt lat="52.924331" lon="-3.393790"><ele>392</ele><time>2022-10-15T14:00:32Z</time><name>PT3789</name></trkpt>
<trkpt lat="52.924353" lon="-3.393859"><ele>393</ele><time>2022-10-15T14:00:36Z</time><name>PT3790</name></trkpt>
<trkpt lat="52.924374" lon="-3.393939"><ele>393</ele><time>2022-10-15T14:00:40Z</time><name>PT3791</name></trkpt>
<trkpt lat="52.924395" lon="-3.394014"><ele>393</ele><time>2022-10-15T14:00:44Z</time><name>PT3792</name></trkpt>
<trkpt lat="52.924406" lon="-3.394068"><ele>393</ele><time>2022-10-15T14:00:47Z</time><name>PT3793</name></trkpt>
<trkpt lat="52.924425" lon="-3.394137"><ele>392</ele><time>2022-10-15T14:00:51Z</time><name>PT3794</name></trkpt>
<trkpt lat="52.924438" lon="-3.394214"><ele>392</ele><time>2022-10-15T14:00:55Z</time><name>PT3795</name></trkpt>
<trkpt lat="52.924455" lon="-3.394303"><ele>393</ele><time>2022-10-15T14:00:59Z</time><name>PT3796</name></trkpt>
<trkpt lat="52.924459" lon="-3.394382"><ele>392</ele><time>2022-10-15T14:01:03Z</time><name>PT3797</name></trkpt>
<trkpt lat="52.924465" lon="-3.394445"><ele>392</ele><time>2022-10-15T14:01:06Z</time><name>PT3798</name></trkpt>
<trkpt lat="52.924469" lon="-3.394528"><ele>392</ele><time>2022-10-15T14:01:10Z</time><name>PT3799</name></trkpt>
<trkpt lat="52.924467" lon="-3.394607"><ele>392</ele><time>2022-10-15T14:01:14Z</time><name>PT3800</name></trkpt>
<trkpt lat="52.924462" lon="-3.394685"><ele>392</ele><time>2022-10-15T14:01:18Z</time><name>PT3801</name></trkpt>
<trkpt lat="52.924460" lon="-3.394745"><ele>392</ele><time>2022-10-15T14:01:21Z</time><name>PT3802</name></trkpt>
<trkpt lat="52.924461" lon="-3.394804"><ele>392</ele><time>2022-10-15T14:01:24Z</time><name>PT3803</name></trkpt>
<trkpt lat="52.924460" lon="-3.394860"><ele>392</ele><time>2022-10-15T14:01:27Z</time><name>PT3804</name></trkpt>
<trkpt lat="52.924460" lon="-3.394944"><ele>391</ele><time>2022-10-15T14:01:31Z</time><name>PT3805</name></trkpt>
<trkpt lat="52.924456" lon="-3.395033"><ele>391</ele><time>2022-10-15T14:01:35Z</time><name>PT3806</name></trkpt>
<trkpt lat="52.924450" lon="-3.395109"><ele>391</ele><time>2022-10-15T14:01:39Z</time><name>PT3807</name></trkpt>
<trkpt lat="52.924444" lon="-3.395165"><ele>390</ele><time>2022-10-15T14:01:42Z</time><name>PT3808</name></trkpt>
<trkpt lat="52.924432" lon="-3.395251"><ele>389</ele><time>2022-10-15T14:01:46Z</time><name>PT3809</name></trkpt>
<trkpt lat="52.924425" lon="-3.395330"><ele>390</ele><time>2022-10-15T14:01:50Z</time><name>PT3810</name></trkpt>
<trkpt lat="52.924424" lon="-3.395411"><ele>391</ele><time>2022-10-15T14:01:54Z</time><name>PT3811</name></trkpt>
<trkpt lat="52.924413" lon="-3.395484"><ele>391</ele><time>2022-10-15T14:01:58Z</time><name>PT3812</name></trkpt>
<trkpt lat="52.924396" lon="-3.395560"><ele>391</ele><time>2022-10-15T14:02:02Z</time><name>PT3813</name></trkpt>
<trkpt lat="52.924383" lon="-3.395621"><ele>390</ele><time>2022-10-15T14:02:06Z</time><name>PT3814</name></trkpt>
<trkpt lat="52.924378" lon="-3.395702"><ele>389</ele><time>2022-10-15T14:02:10Z</time><name>PT3815</name></trkpt>
<trkpt lat="52.924379" lon="-3.395772"><ele>388</ele><time>2022-10-15T14:02:14Z</time><name>PT3816</name></trkpt>
<trkpt lat="52.924390" lon="-3.395832"><ele>389</ele><time>2022-10-15T14:02:18Z</time><name>PT3817</name></trkpt>
<trkpt lat="52.924402" lon="-3.395890"><ele>389</ele><time>2022-10-15T14:02:22Z</time><name>PT3818</name></trkpt>
<trkpt lat="52.924421" lon="-3.395942"><ele>389</ele><time>2022-10-15T14:02:26Z</time><name>PT3819</name></trkpt>
<trkpt lat="52.924448" lon="-3.395979"><ele>390</ele><time>2022-10-15T14:02:30Z</time><name>PT3820</name></trkpt>
<trkpt lat="52.924476" lon="-3.396005"><ele>390</ele><time>2022-10-15T14:02:34Z</time><name>PT3821</name></trkpt>
<trkpt lat="52.924505" lon="-3.396043"><ele>391</ele><time>2022-10-15T14:02:38Z</time><name>PT3822</name></trkpt>
<trkpt lat="52.924528" lon="-3.396073"><ele>392</ele><time>2022-10-15T14:02:42Z</time><name>PT3823</name></trkpt>
<trkpt lat="52.924566" lon="-3.396106"><ele>392</ele><time>2022-10-15T14:02:46Z</time><name>PT3824</name></trkpt>
<trkpt lat="52.924591" lon="-3.396128"><ele>393</ele><time>2022-10-15T14:02:49Z</time><name>PT3825</name></trkpt>
<trkpt lat="52.924620" lon="-3.396161"><ele>393</ele><time>2022-10-15T14:02:53Z</time><name>PT3826</name></trkpt>
<trkpt lat="52.924647" lon="-3.396182"><ele>394</ele><time>2022-10-15T14:02:56Z</time><name>PT3827</name></trkpt>
<trkpt lat="52.924677" lon="-3.396213"><ele>394</ele><time>2022-10-15T14:03:00Z</time><name>PT3828</name></trkpt>
<trkpt lat="52.924701" lon="-3.396250"><ele>393</ele><time>2022-10-15T14:03:04Z</time><name>PT3829</name></trkpt>
<trkpt lat="52.924735" lon="-3.396287"><ele>393</ele><time>2022-10-15T14:03:08Z</time><name>PT3830</name></trkpt>
<trkpt lat="52.924764" lon="-3.396332"><ele>393</ele><time>2022-10-15T14:03:12Z</time><name>PT3831</name></trkpt>
<trkpt lat="52.924802" lon="-3.396381"><ele>392</ele><time>2022-10-15T14:03:16Z</time><name>PT3832</name></trkpt>
<trkpt lat="52.924833" lon="-3.396432"><ele>392</ele><time>2022-10-15T14:03:20Z</time><name>PT3833</name></trkpt>
<trkpt lat="52.924869" lon="-3.396472"><ele>392</ele><time>2022-10-15T14:03:24Z</time><name>PT3834</name></trkpt>
<trkpt lat="52.924903" lon="-3.396516"><ele>393</ele><time>2022-10-15T14:03:28Z</time><name>PT3835</name></trkpt>
<trkpt lat="52.924920" lon="-3.396563"><ele>393</ele><time>2022-10-15T14:03:32Z</time><name>PT3836</name></trkpt>
<trkpt lat="52.924976" lon="-3.396610"><ele>395</ele><time>2022-10-15T14:03:36Z</time><name>PT3837</name></trkpt>
<trkpt lat="52.925020" lon="-3.396631"><ele>396</ele><time>2022-10-15T14:03:40Z</time><name>PT3838</name></trkpt>
<trkpt lat="52.925055" lon="-3.396654"><ele>396</ele><time>2022-10-15T14:03:44Z</time><name>PT3839</name></trkpt>
<trkpt lat="52.925066" lon="-3.396659"><ele>396</ele><time>2022-10-15T14:03:48Z</time><name>PT3840</name></trkpt>
<trkpt lat="52.925077" lon="-3.396698"><ele>397</ele><time>2022-10-15T14:03:52Z</time><name>PT3841</name></trkpt>
<trkpt lat="52.925118" lon="-3.396769"><ele>396</ele><time>2022-10-15T14:03:56Z</time><name>PT3842</name></trkpt>
<trkpt lat="52.925149" lon="-3.396823"><ele>396</ele><time>2022-10-15T14:04:00Z</time><name>PT3843</name></trkpt>
<trkpt lat="52.925159" lon="-3.396839"><ele>395</ele><time>2022-10-15T14:04:04Z</time><name>PT3844</name></trkpt>
<trkpt lat="52.925160" lon="-3.396840"><ele>395</ele><time>2022-10-15T14:04:08Z</time><name>PT3845</name></trkpt>
<trkpt lat="52.925181" lon="-3.396844"><ele>395</ele><time>2022-10-15T14:04:12Z</time><name>PT3846</name></trkpt>
<trkpt lat="52.925184" lon="-3.396845"><ele>395</ele><time>2022-10-15T14:04:16Z</time><name>PT3847</name></trkpt>
<trkpt lat="52.925200" lon="-3.396857"><ele>394</ele><time>2022-10-15T14:04:19Z</time><name>PT3848</name></trkpt>
<trkpt lat="52.925236" lon="-3.396879"><ele>394</ele><time>2022-10-15T14:04:23Z</time><name>PT3849</name></trkpt>
<trkpt lat="52.925275" lon="-3.396903"><ele>395</ele><time>2022-10-15T14:04:27Z</time><name>PT3850</name></trkpt>
<trkpt lat="52.925297" lon="-3.396916"><ele>394</ele><time>2022-10-15T14:04:31Z</time><name>PT3851</name></trkpt>
<trkpt lat="52.925301" lon="-3.396922"><ele>395</ele><time>2022-10-15T14:04:39Z</time><name>PT3852</name></trkpt>
<trkpt lat="52.925343" lon="-3.396929"><ele>395</ele><time>2022-10-15T14:04:43Z</time><name>PT3853</name></trkpt>
<trkpt lat="52.925391" lon="-3.396931"><ele>395</ele><time>2022-10-15T14:04:47Z</time><name>PT3854</name></trkpt>
<trkpt lat="52.925425" lon="-3.396925"><ele>395</ele><time>2022-10-15T14:04:51Z</time><name>PT3855</name></trkpt>
<trkpt lat="52.925439" lon="-3.396927"><ele>395</ele><time>2022-10-15T14:04:55Z</time><name>PT3856</name></trkpt>
<trkpt lat="52.925440" lon="-3.396934"><ele>395</ele><time>2022-10-15T14:04:59Z</time><name>PT3857</name></trkpt>
<trkpt lat="52.925462" lon="-3.396950"><ele>395</ele><time>2022-10-15T14:05:03Z</time><name>PT3858</name></trkpt>
<trkpt lat="52.925504" lon="-3.396953"><ele>396</ele><time>2022-10-15T14:05:07Z</time><name>PT3859</name></trkpt>
<trkpt lat="52.925548" lon="-3.396954"><ele>397</ele><time>2022-10-15T14:05:11Z</time><name>PT3860</name></trkpt>
<trkpt lat="52.925594" lon="-3.396966"><ele>398</ele><time>2022-10-15T14:05:15Z</time><name>PT3861</name></trkpt>
<trkpt lat="52.925640" lon="-3.396981"><ele>399</ele><time>2022-10-15T14:05:19Z</time><name>PT3862</name></trkpt>
<trkpt lat="52.925683" lon="-3.397004"><ele>398</ele><time>2022-10-15T14:05:23Z</time><name>PT3863</name></trkpt>
<trkpt lat="52.925719" lon="-3.397021"><ele>398</ele><time>2022-10-15T14:05:27Z</time><name>PT3864</name></trkpt>
<trkpt lat="52.925765" lon="-3.397054"><ele>398</ele><time>2022-10-15T14:05:31Z</time><name>PT3865</name></trkpt>
<trkpt lat="52.925810" lon="-3.397092"><ele>399</ele><time>2022-10-15T14:05:35Z</time><name>PT3866</name></trkpt>
<trkpt lat="52.925840" lon="-3.397125"><ele>397</ele><time>2022-10-15T14:05:39Z</time><name>PT3867</name></trkpt>
<trkpt lat="52.925879" lon="-3.397158"><ele>397</ele><time>2022-10-15T14:05:43Z</time><name>PT3868</name></trkpt>
<trkpt lat="52.925906" lon="-3.397189"><ele>397</ele><time>2022-10-15T14:05:46Z</time><name>PT3869</name></trkpt>
<trkpt lat="52.925943" lon="-3.397232"><ele>397</ele><time>2022-10-15T14:05:50Z</time><name>PT3870</name></trkpt>
<trkpt lat="52.925970" lon="-3.397266"><ele>397</ele><time>2022-10-15T14:05:54Z</time><name>PT3871</name></trkpt>
<trkpt lat="52.925994" lon="-3.397301"><ele>397</ele><time>2022-10-15T14:05:58Z</time><name>PT3872</name></trkpt>
<trkpt lat="52.926022" lon="-3.397337"><ele>396</ele><time>2022-10-15T14:06:02Z</time><name>PT3873</name></trkpt>
<trkpt lat="52.926055" lon="-3.397382"><ele>395</ele><time>2022-10-15T14:06:06Z</time><name>PT3874</name></trkpt>
<trkpt lat="52.926086" lon="-3.397419"><ele>395</ele><time>2022-10-15T14:06:10Z</time><name>PT3875</name></trkpt>
<trkpt lat="52.926102" lon="-3.397447"><ele>394</ele><time>2022-10-15T14:06:14Z</time><name>PT3876</name></trkpt>
<trkpt lat="52.926122" lon="-3.397481"><ele>394</ele><time>2022-10-15T14:06:17Z</time><name>PT3877</name></trkpt>
<trkpt lat="52.926154" lon="-3.397536"><ele>394</ele><time>2022-10-15T14:06:21Z</time><name>PT3878</name></trkpt>
<trkpt lat="52.926181" lon="-3.397574"><ele>394</ele><time>2022-10-15T14:06:24Z</time><name>PT3879</name></trkpt>
<trkpt lat="52.926220" lon="-3.397629"><ele>394</ele><time>2022-10-15T14:06:28Z</time><name>PT3880</name></trkpt>
<trkpt lat="52.926259" lon="-3.397683"><ele>394</ele><time>2022-10-15T14:06:32Z</time><name>PT3881</name></trkpt>
<trkpt lat="52.926293" lon="-3.397747"><ele>394</ele><time>2022-10-15T14:06:36Z</time><name>PT3882</name></trkpt>
<trkpt lat="52.926331" lon="-3.397800"><ele>394</ele><time>2022-10-15T14:06:40Z</time><name>PT3883</name></trkpt>
<trkpt lat="52.926361" lon="-3.397853"><ele>394</ele><time>2022-10-15T14:06:44Z</time><name>PT3884</name></trkpt>
<trkpt lat="52.926370" lon="-3.397898"><ele>394</ele><time>2022-10-15T14:06:48Z</time><name>PT3885</name></trkpt>
<trkpt lat="52.926398" lon="-3.397954"><ele>394</ele><time>2022-10-15T14:06:52Z</time><name>PT3886</name></trkpt>
<trkpt lat="52.926435" lon="-3.398011"><ele>394</ele><time>2022-10-15T14:06:56Z</time><name>PT3887</name></trkpt>
<trkpt lat="52.926470" lon="-3.398076"><ele>394</ele><time>2022-10-15T14:07:00Z</time><name>PT3888</name></trkpt>
<trkpt lat="52.926502" lon="-3.398130"><ele>394</ele><time>2022-10-15T14:07:04Z</time><name>PT3889</name></trkpt>
<trkpt lat="52.926537" lon="-3.398190"><ele>393</ele><time>2022-10-15T14:07:08Z</time><name>PT3890</name></trkpt>
<trkpt lat="52.926572" lon="-3.398254"><ele>393</ele><time>2022-10-15T14:07:12Z</time><name>PT3891</name></trkpt>
<trkpt lat="52.926601" lon="-3.398314"><ele>392</ele><time>2022-10-15T14:07:16Z</time><name>PT3892</name></trkpt>
<trkpt lat="52.926632" lon="-3.398382"><ele>392</ele><time>2022-10-15T14:07:20Z</time><name>PT3893</name></trkpt>
<trkpt lat="52.926658" lon="-3.398450"><ele>392</ele><time>2022-10-15T14:07:24Z</time><name>PT3894</name></trkpt>
<trkpt lat="52.926687" lon="-3.398518"><ele>391</ele><time>2022-10-15T14:07:28Z</time><name>PT3895</name></trkpt>
<trkpt lat="52.926719" lon="-3.398578"><ele>391</ele><time>2022-10-15T14:07:32Z</time><name>PT3896</name></trkpt>
<trkpt lat="52.926745" lon="-3.398646"><ele>391</ele><time>2022-10-15T14:07:36Z</time><name>PT3897</name></trkpt>
<trkpt lat="52.926773" lon="-3.398712"><ele>392</ele><time>2022-10-15T14:07:40Z</time><name>PT3898</name></trkpt>
<trkpt lat="52.926803" lon="-3.398778"><ele>392</ele><time>2022-10-15T14:07:44Z</time><name>PT3899</name></trkpt>
<trkpt lat="52.926827" lon="-3.398854"><ele>392</ele><time>2022-10-15T14:07:48Z</time><name>PT3900</name></trkpt>
<trkpt lat="52.926854" lon="-3.398921"><ele>392</ele><time>2022-10-15T14:07:52Z</time><name>PT3901</name></trkpt>
<trkpt lat="52.926887" lon="-3.398984"><ele>392</ele><time>2022-10-15T14:07:56Z</time><name>PT3902</name></trkpt>
<trkpt lat="52.926926" lon="-3.399039"><ele>393</ele><time>2022-10-15T14:08:00Z</time><name>PT3903</name></trkpt>
<trkpt lat="52.926961" lon="-3.399095"><ele>393</ele><time>2022-10-15T14:08:04Z</time><name>PT3904</name></trkpt>
<trkpt lat="52.927002" lon="-3.399147"><ele>393</ele><time>2022-10-15T14:08:08Z</time><name>PT3905</name></trkpt>
<trkpt lat="52.927042" lon="-3.399194"><ele>393</ele><time>2022-10-15T14:08:12Z</time><name>PT3906</name></trkpt>
<trkpt lat="52.927080" lon="-3.399237"><ele>392</ele><time>2022-10-15T14:08:16Z</time><name>PT3907</name></trkpt>
<trkpt lat="52.927125" lon="-3.399280"><ele>393</ele><time>2022-10-15T14:08:20Z</time><name>PT3908</name></trkpt>
<trkpt lat="52.927164" lon="-3.399319"><ele>394</ele><time>2022-10-15T14:08:24Z</time><name>PT3909</name></trkpt>
<trkpt lat="52.927207" lon="-3.399364"><ele>394</ele><time>2022-10-15T14:08:28Z</time><name>PT3910</name></trkpt>
<trkpt lat="52.927247" lon="-3.399409"><ele>394</ele><time>2022-10-15T14:08:32Z</time><name>PT3911</name></trkpt>
<trkpt lat="52.927282" lon="-3.399451"><ele>394</ele><time>2022-10-15T14:08:36Z</time><name>PT3912</name></trkpt>
<trkpt lat="52.927307" lon="-3.399485"><ele>393</ele><time>2022-10-15T14:08:39Z</time><name>PT3913</name></trkpt>
<trkpt lat="52.927344" lon="-3.399535"><ele>393</ele><time>2022-10-15T14:08:43Z</time><name>PT3914</name></trkpt>
<trkpt lat="52.927373" lon="-3.399583"><ele>393</ele><time>2022-10-15T14:08:47Z</time><name>PT3915</name></trkpt>
<trkpt lat="52.927408" lon="-3.399640"><ele>393</ele><time>2022-10-15T14:08:51Z</time><name>PT3916</name></trkpt>
<trkpt lat="52.927443" lon="-3.399698"><ele>394</ele><time>2022-10-15T14:08:55Z</time><name>PT3917</name></trkpt>
<trkpt lat="52.927476" lon="-3.399759"><ele>394</ele><time>2022-10-15T14:08:59Z</time><name>PT3918</name></trkpt>
<trkpt lat="52.927512" lon="-3.399824"><ele>394</ele><time>2022-10-15T14:09:03Z</time><name>PT3919</name></trkpt>
<trkpt lat="52.927544" lon="-3.399881"><ele>395</ele><time>2022-10-15T14:09:07Z</time><name>PT3920</name></trkpt>
<trkpt lat="52.927576" lon="-3.399939"><ele>395</ele><time>2022-10-15T14:09:11Z</time><name>PT3921</name></trkpt>
<trkpt lat="52.927606" lon="-3.399996"><ele>395</ele><time>2022-10-15T14:09:15Z</time><name>PT3922</name></trkpt>
<trkpt lat="52.927632" lon="-3.400067"><ele>395</ele><time>2022-10-15T14:09:19Z</time><name>PT3923</name></trkpt>
<trkpt lat="52.927656" lon="-3.400136"><ele>395</ele><time>2022-10-15T14:09:23Z</time><name>PT3924</name></trkpt>
<trkpt lat="52.927682" lon="-3.400200"><ele>394</ele><time>2022-10-15T14:09:27Z</time><name>PT3925</name></trkpt>
<trkpt lat="52.927705" lon="-3.400270"><ele>394</ele><time>2022-10-15T14:09:31Z</time><name>PT3926</name></trkpt>
<trkpt lat="52.927729" lon="-3.400333"><ele>393</ele><time>2022-10-15T14:09:35Z</time><name>PT3927</name></trkpt>
<trkpt lat="52.927752" lon="-3.400398"><ele>393</ele><time>2022-10-15T14:09:39Z</time><name>PT3928</name></trkpt>
<trkpt lat="52.927773" lon="-3.400446"><ele>393</ele><time>2022-10-15T14:09:42Z</time><name>PT3929</name></trkpt>
<trkpt lat="52.927796" lon="-3.400503"><ele>393</ele><time>2022-10-15T14:09:46Z</time><name>PT3930</name></trkpt>
<trkpt lat="52.927814" lon="-3.400521"><ele>393</ele><time>2022-10-15T14:09:50Z</time><name>PT3931</name></trkpt>
<trkpt lat="52.927823" lon="-3.400534"><ele>392</ele><time>2022-10-15T14:09:54Z</time><name>PT3932</name></trkpt>
<trkpt lat="52.927826" lon="-3.400540"><ele>392</ele><time>2022-10-15T14:09:58Z</time><name>PT3933</name></trkpt>
<trkpt lat="52.927838" lon="-3.400576"><ele>392</ele><time>2022-10-15T14:10:10Z</time><name>PT3934</name></trkpt>
<trkpt lat="52.927837" lon="-3.400586"><ele>392</ele><time>2022-10-15T14:10:14Z</time><name>PT3935</name></trkpt>
<trkpt lat="52.927854" lon="-3.400615"><ele>391</ele><time>2022-10-15T14:10:41Z</time><name>PT3936</name></trkpt>
<trkpt lat="52.927857" lon="-3.400626"><ele>391</ele><time>2022-10-15T14:10:45Z</time><name>PT3937</name></trkpt>
<trkpt lat="52.927888" lon="-3.400697"><ele>391</ele><time>2022-10-15T14:10:49Z</time><name>PT3938</name></trkpt>
<trkpt lat="52.927911" lon="-3.400781"><ele>389</ele><time>2022-10-15T14:10:53Z</time><name>PT3939</name></trkpt>
<trkpt lat="52.927933" lon="-3.400857"><ele>390</ele><time>2022-10-15T14:10:57Z</time><name>PT3940</name></trkpt>
<trkpt lat="52.927949" lon="-3.400936"><ele>389</ele><time>2022-10-15T14:11:01Z</time><name>PT3941</name></trkpt>
<trkpt lat="52.927964" lon="-3.401014"><ele>390</ele><time>2022-10-15T14:11:05Z</time><name>PT3942</name></trkpt>
<trkpt lat="52.927982" lon="-3.401094"><ele>389</ele><time>2022-10-15T14:11:09Z</time><name>PT3943</name></trkpt>
<trkpt lat="52.927997" lon="-3.401170"><ele>389</ele><time>2022-10-15T14:11:13Z</time><name>PT3944</name></trkpt>
<trkpt lat="52.928013" lon="-3.401250"><ele>388</ele><time>2022-10-15T14:11:17Z</time><name>PT3945</name></trkpt>
<trkpt lat="52.928028" lon="-3.401334"><ele>388</ele><time>2022-10-15T14:11:21Z</time><name>PT3946</name></trkpt>
<trkpt lat="52.928047" lon="-3.401416"><ele>388</ele><time>2022-10-15T14:11:25Z</time><name>PT3947</name></trkpt>
<trkpt lat="52.928061" lon="-3.401494"><ele>388</ele><time>2022-10-15T14:11:29Z</time><name>PT3948</name></trkpt>
<trkpt lat="52.928079" lon="-3.401575"><ele>387</ele><time>2022-10-15T14:11:33Z</time><name>PT3949</name></trkpt>
<trkpt lat="52.928095" lon="-3.401655"><ele>387</ele><time>2022-10-15T14:11:37Z</time><name>PT3950</name></trkpt>
<trkpt lat="52.928113" lon="-3.401724"><ele>387</ele><time>2022-10-15T14:11:41Z</time><name>PT3951</name></trkpt>
<trkpt lat="52.928126" lon="-3.401772"><ele>386</ele><time>2022-10-15T14:11:45Z</time><name>PT3952</name></trkpt>
<trkpt lat="52.928126" lon="-3.401776"><ele>386</ele><time>2022-10-15T14:11:49Z</time><name>PT3953</name></trkpt>
<trkpt lat="52.928131" lon="-3.401832"><ele>387</ele><time>2022-10-15T14:11:53Z</time><name>PT3954</name></trkpt>
<trkpt lat="52.928142" lon="-3.401913"><ele>386</ele><time>2022-10-15T14:11:57Z</time><name>PT3955</name></trkpt>
<trkpt lat="52.928144" lon="-3.401995"><ele>385</ele><time>2022-10-15T14:12:01Z</time><name>PT3956</name></trkpt>
<trkpt lat="52.928146" lon="-3.402068"><ele>385</ele><time>2022-10-15T14:12:05Z</time><name>PT3957</name></trkpt>
<trkpt lat="52.928146" lon="-3.402152"><ele>384</ele><time>2022-10-15T14:12:09Z</time><name>PT3958</name></trkpt>
<trkpt lat="52.928142" lon="-3.402238"><ele>384</ele><time>2022-10-15T14:12:13Z</time><name>PT3959</name></trkpt>
<trkpt lat="52.928145" lon="-3.402318"><ele>383</ele><time>2022-10-15T14:12:17Z</time><name>PT3960</name></trkpt>
<trkpt lat="52.928144" lon="-3.402403"><ele>382</ele><time>2022-10-15T14:12:21Z</time><name>PT3961</name></trkpt>
<trkpt lat="52.928148" lon="-3.402480"><ele>382</ele><time>2022-10-15T14:12:25Z</time><name>PT3962</name></trkpt>
<trkpt lat="52.928147" lon="-3.402562"><ele>381</ele><time>2022-10-15T14:12:29Z</time><name>PT3963</name></trkpt>
<trkpt lat="52.928151" lon="-3.402639"><ele>380</ele><time>2022-10-15T14:12:33Z</time><name>PT3964</name></trkpt>
<trkpt lat="52.928155" lon="-3.402712"><ele>380</ele><time>2022-10-15T14:12:37Z</time><name>PT3965</name></trkpt>
<trkpt lat="52.928159" lon="-3.402783"><ele>380</ele><time>2022-10-15T14:12:41Z</time><name>PT3966</name></trkpt>
<trkpt lat="52.928157" lon="-3.402857"><ele>380</ele><time>2022-10-15T14:12:45Z</time><name>PT3967</name></trkpt>
<trkpt lat="52.928157" lon="-3.402926"><ele>380</ele><time>2022-10-15T14:12:49Z</time><name>PT3968</name></trkpt>
<trkpt lat="52.928157" lon="-3.402979"><ele>379</ele><time>2022-10-15T14:12:52Z</time><name>PT3969</name></trkpt>
<trkpt lat="52.928152" lon="-3.403051"><ele>379</ele><time>2022-10-15T14:12:56Z</time><name>PT3970</name></trkpt>
<trkpt lat="52.928151" lon="-3.403136"><ele>379</ele><time>2022-10-15T14:13:00Z</time><name>PT3971</name></trkpt>
<trkpt lat="52.928146" lon="-3.403212"><ele>378</ele><time>2022-10-15T14:13:04Z</time><name>PT3972</name></trkpt>
<trkpt lat="52.928143" lon="-3.403297"><ele>377</ele><time>2022-10-15T14:13:08Z</time><name>PT3973</name></trkpt>
<trkpt lat="52.928141" lon="-3.403375"><ele>377</ele><time>2022-10-15T14:13:12Z</time><name>PT3974</name></trkpt>
<trkpt lat="52.928139" lon="-3.403454"><ele>376</ele><time>2022-10-15T14:13:16Z</time><name>PT3975</name></trkpt>
<trkpt lat="52.928135" lon="-3.403539"><ele>377</ele><time>2022-10-15T14:13:20Z</time><name>PT3976</name></trkpt>
<trkpt lat="52.928132" lon="-3.403598"><ele>377</ele><time>2022-10-15T14:13:23Z</time><name>PT3977</name></trkpt>
<trkpt lat="52.928134" lon="-3.403670"><ele>376</ele><time>2022-10-15T14:13:27Z</time><name>PT3978</name></trkpt>
<trkpt lat="52.928134" lon="-3.403726"><ele>376</ele><time>2022-10-15T14:13:30Z</time><name>PT3979</name></trkpt>
<trkpt lat="52.928131" lon="-3.403811"><ele>375</ele><time>2022-10-15T14:13:34Z</time><name>PT3980</name></trkpt>
<trkpt lat="52.928125" lon="-3.403901"><ele>375</ele><time>2022-10-15T14:13:38Z</time><name>PT3981</name></trkpt>
<trkpt lat="52.928119" lon="-3.403987"><ele>374</ele><time>2022-10-15T14:13:42Z</time><name>PT3982</name></trkpt>
<trkpt lat="52.928112" lon="-3.404073"><ele>373</ele><time>2022-10-15T14:13:46Z</time><name>PT3983</name></trkpt>
<trkpt lat="52.928108" lon="-3.404151"><ele>372</ele><time>2022-10-15T14:13:50Z</time><name>PT3984</name></trkpt>
<trkpt lat="52.928107" lon="-3.404211"><ele>371</ele><time>2022-10-15T14:13:53Z</time><name>PT3985</name></trkpt>
<trkpt lat="52.928102" lon="-3.404299"><ele>371</ele><time>2022-10-15T14:13:57Z</time><name>PT3986</name></trkpt>
<trkpt lat="52.928102" lon="-3.404407"><ele>370</ele><time>2022-10-15T14:14:01Z</time><name>PT3987</name></trkpt>
<trkpt lat="52.928096" lon="-3.404501"><ele>369</ele><time>2022-10-15T14:14:05Z</time><name>PT3988</name></trkpt>
<trkpt lat="52.928092" lon="-3.404580"><ele>369</ele><time>2022-10-15T14:14:09Z</time><name>PT3989</name></trkpt>
<trkpt lat="52.928083" lon="-3.404658"><ele>369</ele><time>2022-10-15T14:14:13Z</time><name>PT3990</name></trkpt>
<trkpt lat="52.928076" lon="-3.404736"><ele>368</ele><time>2022-10-15T14:14:17Z</time><name>PT3991</name></trkpt>
<trkpt lat="52.928065" lon="-3.404817"><ele>367</ele><time>2022-10-15T14:14:21Z</time><name>PT3992</name></trkpt>
<trkpt lat="52.928057" lon="-3.404877"><ele>367</ele><time>2022-10-15T14:14:24Z</time><name>PT3993</name></trkpt>
<trkpt lat="52.928046" lon="-3.404954"><ele>367</ele><time>2022-10-15T14:14:28Z</time><name>PT3994</name></trkpt>
<trkpt lat="52.928037" lon="-3.405008"><ele>367</ele><time>2022-10-15T14:14:31Z</time><name>PT3995</name></trkpt>
<trkpt lat="52.928031" lon="-3.405076"><ele>367</ele><time>2022-10-15T14:14:35Z</time><name>PT3996</name></trkpt>
<trkpt lat="52.928019" lon="-3.405158"><ele>367</ele><time>2022-10-15T14:14:39Z</time><name>PT3997</name></trkpt>
<trkpt lat="52.928017" lon="-3.405216"><ele>366</ele><time>2022-10-15T14:14:42Z</time><name>PT3998</name></trkpt>
<trkpt lat="52.928013" lon="-3.405276"><ele>366</ele><time>2022-10-15T14:14:45Z</time><name>PT3999</name></trkpt>
<trkpt lat="52.928006" lon="-3.405346"><ele>365</ele><time>2022-10-15T14:14:49Z</time><name>PT4000</name></trkpt>
<trkpt lat="52.928003" lon="-3.405421"><ele>365</ele><time>2022-10-15T14:14:53Z</time><name>PT4001</name></trkpt>
<trkpt lat="52.927997" lon="-3.405494"><ele>365</ele><time>2022-10-15T14:14:57Z</time><name>PT4002</name></trkpt>
<trkpt lat="52.927990" lon="-3.405574"><ele>363</ele><time>2022-10-15T14:15:01Z</time><name>PT4003</name></trkpt>
<trkpt lat="52.927982" lon="-3.405644"><ele>363</ele><time>2022-10-15T14:15:05Z</time><name>PT4004</name></trkpt>
<trkpt lat="52.927974" lon="-3.405723"><ele>363</ele><time>2022-10-15T14:15:09Z</time><name>PT4005</name></trkpt>
<trkpt lat="52.927965" lon="-3.405807"><ele>363</ele><time>2022-10-15T14:15:13Z</time><name>PT4006</name></trkpt>
<trkpt lat="52.927955" lon="-3.405891"><ele>363</ele><time>2022-10-15T14:15:17Z</time><name>PT4007</name></trkpt>
<trkpt lat="52.927948" lon="-3.405972"><ele>362</ele><time>2022-10-15T14:15:21Z</time><name>PT4008</name></trkpt>
<trkpt lat="52.927942" lon="-3.406051"><ele>362</ele><time>2022-10-15T14:15:25Z</time><name>PT4009</name></trkpt>
<trkpt lat="52.927932" lon="-3.406130"><ele>362</ele><time>2022-10-15T14:15:29Z</time><name>PT4010</name></trkpt>
<trkpt lat="52.927924" lon="-3.406213"><ele>362</ele><time>2022-10-15T14:15:33Z</time><name>PT4011</name></trkpt>
<trkpt lat="52.927922" lon="-3.406296"><ele>362</ele><time>2022-10-15T14:15:37Z</time><name>PT4012</name></trkpt>
<trkpt lat="52.927919" lon="-3.406374"><ele>362</ele><time>2022-10-15T14:15:41Z</time><name>PT4013</name></trkpt>
<trkpt lat="52.927926" lon="-3.406458"><ele>362</ele><time>2022-10-15T14:15:45Z</time><name>PT4014</name></trkpt>
<trkpt lat="52.927926" lon="-3.406546"><ele>362</ele><time>2022-10-15T14:15:49Z</time><name>PT4015</name></trkpt>
<trkpt lat="52.927931" lon="-3.406629"><ele>362</ele><time>2022-10-15T14:15:53Z</time><name>PT4016</name></trkpt>
<trkpt lat="52.927932" lon="-3.406716"><ele>361</ele><time>2022-10-15T14:15:57Z</time><name>PT4017</name></trkpt>
<trkpt lat="52.927938" lon="-3.406769"><ele>360</ele><time>2022-10-15T14:16:00Z</time><name>PT4018</name></trkpt>
<trkpt lat="52.927940" lon="-3.406843"><ele>359</ele><time>2022-10-15T14:16:04Z</time><name>PT4019</name></trkpt>
<trkpt lat="52.927935" lon="-3.406920"><ele>359</ele><time>2022-10-15T14:16:08Z</time><name>PT4020</name></trkpt>
<trkpt lat="52.927930" lon="-3.407007"><ele>358</ele><time>2022-10-15T14:16:12Z</time><name>PT4021</name></trkpt>
<trkpt lat="52.927925" lon="-3.407092"><ele>357</ele><time>2022-10-15T14:16:16Z</time><name>PT4022</name></trkpt>
<trkpt lat="52.927921" lon="-3.407150"><ele>357</ele><time>2022-10-15T14:16:19Z</time><name>PT4023</name></trkpt>
<trkpt lat="52.927918" lon="-3.407217"><ele>356</ele><time>2022-10-15T14:16:23Z</time><name>PT4024</name></trkpt>
<trkpt lat="52.927916" lon="-3.407286"><ele>356</ele><time>2022-10-15T14:16:27Z</time><name>PT4025</name></trkpt>
<trkpt lat="52.927906" lon="-3.407366"><ele>355</ele><time>2022-10-15T14:16:31Z</time><name>PT4026</name></trkpt>
<trkpt lat="52.927900" lon="-3.407432"><ele>354</ele><time>2022-10-15T14:16:35Z</time><name>PT4027</name></trkpt>
<trkpt lat="52.927886" lon="-3.407522"><ele>354</ele><time>2022-10-15T14:16:39Z</time><name>PT4028</name></trkpt>
<trkpt lat="52.927874" lon="-3.407611"><ele>354</ele><time>2022-10-15T14:16:43Z</time><name>PT4029</name></trkpt>
<trkpt lat="52.927869" lon="-3.407689"><ele>353</ele><time>2022-10-15T14:16:47Z</time><name>PT4030</name></trkpt>
<trkpt lat="52.927863" lon="-3.407773"><ele>353</ele><time>2022-10-15T14:16:51Z</time><name>PT4031</name></trkpt>
<trkpt lat="52.927855" lon="-3.407856"><ele>352</ele><time>2022-10-15T14:16:55Z</time><name>PT4032</name></trkpt>
<trkpt lat="52.927847" lon="-3.407941"><ele>352</ele><time>2022-10-15T14:16:59Z</time><name>PT4033</name></trkpt>
<trkpt lat="52.927843" lon="-3.408018"><ele>351</ele><time>2022-10-15T14:17:03Z</time><name>PT4034</name></trkpt>
<trkpt lat="52.927838" lon="-3.408088"><ele>351</ele><time>2022-10-15T14:17:07Z</time><name>PT4035</name></trkpt>
<trkpt lat="52.927832" lon="-3.408165"><ele>350</ele><time>2022-10-15T14:17:11Z</time><name>PT4036</name></trkpt>
<trkpt lat="52.927822" lon="-3.408242"><ele>350</ele><time>2022-10-15T14:17:15Z</time><name>PT4037</name></trkpt>
<trkpt lat="52.927815" lon="-3.408307"><ele>350</ele><time>2022-10-15T14:17:18Z</time><name>PT4038</name></trkpt>
<trkpt lat="52.927800" lon="-3.408391"><ele>351</ele><time>2022-10-15T14:17:22Z</time><name>PT4039</name></trkpt>
<trkpt lat="52.927786" lon="-3.408465"><ele>352</ele><time>2022-10-15T14:17:26Z</time><name>PT4040</name></trkpt>
<trkpt lat="52.927783" lon="-3.408547"><ele>351</ele><time>2022-10-15T14:17:30Z</time><name>PT4041</name></trkpt>
<trkpt lat="52.927775" lon="-3.408633"><ele>351</ele><time>2022-10-15T14:17:34Z</time><name>PT4042</name></trkpt>
<trkpt lat="52.927772" lon="-3.408689"><ele>350</ele><time>2022-10-15T14:17:37Z</time><name>PT4043</name></trkpt>
<trkpt lat="52.927770" lon="-3.408759"><ele>350</ele><time>2022-10-15T14:17:41Z</time><name>PT4044</name></trkpt>
<trkpt lat="52.927764" lon="-3.408818"><ele>349</ele><time>2022-10-15T14:17:44Z</time><name>PT4045</name></trkpt>
<trkpt lat="52.927751" lon="-3.408889"><ele>349</ele><time>2022-10-15T14:17:48Z</time><name>PT4046</name></trkpt>
<trkpt lat="52.927744" lon="-3.408978"><ele>347</ele><time>2022-10-15T14:17:52Z</time><name>PT4047</name></trkpt>
<trkpt lat="52.927731" lon="-3.409060"><ele>347</ele><time>2022-10-15T14:17:56Z</time><name>PT4048</name></trkpt>
<trkpt lat="52.927730" lon="-3.409133"><ele>347</ele><time>2022-10-15T14:18:00Z</time><name>PT4049</name></trkpt>
<trkpt lat="52.927731" lon="-3.409191"><ele>347</ele><time>2022-10-15T14:18:04Z</time><name>PT4050</name></trkpt>
<trkpt lat="52.927742" lon="-3.409248"><ele>345</ele><time>2022-10-15T14:18:08Z</time><name>PT4051</name></trkpt>
<trkpt lat="52.927737" lon="-3.409316"><ele>344</ele><time>2022-10-15T14:18:12Z</time><name>PT4052</name></trkpt>
<trkpt lat="52.927740" lon="-3.409365"><ele>345</ele><time>2022-10-15T14:18:16Z</time><name>PT4053</name></trkpt>
<trkpt lat="52.927734" lon="-3.409431"><ele>345</ele><time>2022-10-15T14:18:20Z</time><name>PT4054</name></trkpt>
<trkpt lat="52.927735" lon="-3.409506"><ele>344</ele><time>2022-10-15T14:18:24Z</time><name>PT4055</name></trkpt>
<trkpt lat="52.927726" lon="-3.409580"><ele>345</ele><time>2022-10-15T14:18:28Z</time><name>PT4056</name></trkpt>
<trkpt lat="52.927718" lon="-3.409656"><ele>344</ele><time>2022-10-15T14:18:32Z</time><name>PT4057</name></trkpt>
<trkpt lat="52.927706" lon="-3.409738"><ele>343</ele><time>2022-10-15T14:18:36Z</time><name>PT4058</name></trkpt>
<trkpt lat="52.927685" lon="-3.409805"><ele>344</ele><time>2022-10-15T14:18:40Z</time><name>PT4059</name></trkpt>
<trkpt lat="52.927665" lon="-3.409915"><ele>341</ele><time>2022-10-15T14:18:44Z</time><name>PT4060</name></trkpt>
<trkpt lat="52.927642" lon="-3.410002"><ele>341</ele><time>2022-10-15T14:18:48Z</time><name>PT4061</name></trkpt>
<trkpt lat="52.927625" lon="-3.410087"><ele>340</ele><time>2022-10-15T14:18:52Z</time><name>PT4062</name></trkpt>
<trkpt lat="52.927610" lon="-3.410171"><ele>340</ele><time>2022-10-15T14:18:56Z</time><name>PT4063</name></trkpt>
<trkpt lat="52.927592" lon="-3.410251"><ele>338</ele><time>2022-10-15T14:19:00Z</time><name>PT4064</name></trkpt>
<trkpt lat="52.927579" lon="-3.410334"><ele>338</ele><time>2022-10-15T14:19:04Z</time><name>PT4065</name></trkpt>
<trkpt lat="52.927568" lon="-3.410402"><ele>338</ele><time>2022-10-15T14:19:08Z</time><name>PT4066</name></trkpt>
<trkpt lat="52.927549" lon="-3.410477"><ele>338</ele><time>2022-10-15T14:19:12Z</time><name>PT4067</name></trkpt>
<trkpt lat="52.927520" lon="-3.410573"><ele>337</ele><time>2022-10-15T14:19:16Z</time><name>PT4068</name></trkpt>
<trkpt lat="52.927489" lon="-3.410685"><ele>336</ele><time>2022-10-15T14:19:20Z</time><name>PT4069</name></trkpt>
<trkpt lat="52.927456" lon="-3.410781"><ele>337</ele><time>2022-10-15T14:19:24Z</time><name>PT4070</name></trkpt>
<trkpt lat="52.927434" lon="-3.410863"><ele>337</ele><time>2022-10-15T14:19:28Z</time><name>PT4071</name></trkpt>
<trkpt lat="52.927418" lon="-3.410950"><ele>337</ele><time>2022-10-15T14:19:32Z</time><name>PT4072</name></trkpt>
<trkpt lat="52.927410" lon="-3.411031"><ele>338</ele><time>2022-10-15T14:19:36Z</time><name>PT4073</name></trkpt>
<trkpt lat="52.927414" lon="-3.411100"><ele>338</ele><time>2022-10-15T14:19:40Z</time><name>PT4074</name></trkpt>
<trkpt lat="52.927417" lon="-3.411180"><ele>337</ele><time>2022-10-15T14:19:44Z</time><name>PT4075</name></trkpt>
<trkpt lat="52.927413" lon="-3.411246"><ele>336</ele><time>2022-10-15T14:19:48Z</time><name>PT4076</name></trkpt>
<trkpt lat="52.927400" lon="-3.411310"><ele>336</ele><time>2022-10-15T14:19:52Z</time><name>PT4077</name></trkpt>
<trkpt lat="52.927389" lon="-3.411375"><ele>335</ele><time>2022-10-15T14:19:56Z</time><name>PT4078</name></trkpt>
<trkpt lat="52.927380" lon="-3.411444"><ele>334</ele><time>2022-10-15T14:20:00Z</time><name>PT4079</name></trkpt>
<trkpt lat="52.927349" lon="-3.411574"><ele>337</ele><time>2022-10-15T14:20:04Z</time><name>PT4080</name></trkpt>
<trkpt lat="52.927338" lon="-3.411652"><ele>337</ele><time>2022-10-15T14:20:08Z</time><name>PT4081</name></trkpt>
<trkpt lat="52.927329" lon="-3.411737"><ele>336</ele><time>2022-10-15T14:20:12Z</time><name>PT4082</name></trkpt>
<trkpt lat="52.927322" lon="-3.411826"><ele>335</ele><time>2022-10-15T14:20:16Z</time><name>PT4083</name></trkpt>
<trkpt lat="52.927315" lon="-3.411912"><ele>335</ele><time>2022-10-15T14:20:20Z</time><name>PT4084</name></trkpt>
<trkpt lat="52.927309" lon="-3.411996"><ele>334</ele><time>2022-10-15T14:20:24Z</time><name>PT4085</name></trkpt>
<trkpt lat="52.927301" lon="-3.412060"><ele>334</ele><time>2022-10-15T14:20:27Z</time><name>PT4086</name></trkpt>
<trkpt lat="52.927291" lon="-3.412145"><ele>335</ele><time>2022-10-15T14:20:31Z</time><name>PT4087</name></trkpt>
<trkpt lat="52.927285" lon="-3.412197"><ele>334</ele><time>2022-10-15T14:20:34Z</time><name>PT4088</name></trkpt>
<trkpt lat="52.927284" lon="-3.412285"><ele>334</ele><time>2022-10-15T14:20:38Z</time><name>PT4089</name></trkpt>
<trkpt lat="52.927268" lon="-3.412411"><ele>333</ele><time>2022-10-15T14:20:42Z</time><name>PT4090</name></trkpt>
<trkpt lat="52.927256" lon="-3.412505"><ele>333</ele><time>2022-10-15T14:20:46Z</time><name>PT4091</name></trkpt>
<trkpt lat="52.927250" lon="-3.412584"><ele>332</ele><time>2022-10-15T14:20:50Z</time><name>PT4092</name></trkpt>
<trkpt lat="52.927248" lon="-3.412644"><ele>332</ele><time>2022-10-15T14:20:53Z</time><name>PT4093</name></trkpt>
<trkpt lat="52.927251" lon="-3.412702"><ele>333</ele><time>2022-10-15T14:20:56Z</time><name>PT4094</name></trkpt>
<trkpt lat="52.927261" lon="-3.412771"><ele>333</ele><time>2022-10-15T14:21:00Z</time><name>PT4095</name></trkpt>
<trkpt lat="52.927273" lon="-3.412820"><ele>332</ele><time>2022-10-15T14:21:04Z</time><name>PT4096</name></trkpt>
<trkpt lat="52.927279" lon="-3.412811"><ele>332</ele><time>2022-10-15T14:21:08Z</time><name>PT4097</name></trkpt>
<trkpt lat="52.927279" lon="-3.412819"><ele>332</ele><time>2022-10-15T14:21:12Z</time><name>PT4098</name></trkpt>
<trkpt lat="52.927285" lon="-3.412872"><ele>332</ele><time>2022-10-15T14:21:16Z</time><name>PT4099</name></trkpt>
<trkpt lat="52.927295" lon="-3.412920"><ele>332</ele><time>2022-10-15T14:21:20Z</time><name>PT4100</name></trkpt>
<trkpt lat="52.927297" lon="-3.412920"><ele>333</ele><time>2022-10-15T14:21:23Z</time><name>PT4101</name></trkpt>
<trkpt lat="52.927299" lon="-3.412922"><ele>332</ele><time>2022-10-15T14:21:27Z</time><name>PT4102</name></trkpt>
<trkpt lat="52.927307" lon="-3.412915"><ele>333</ele><time>2022-10-15T14:21:55Z</time><name>PT4103</name></trkpt>
<trkpt lat="52.927306" lon="-3.412915"><ele>333</ele><time>2022-10-15T14:22:30Z</time><name>PT4104</name></trkpt>
<trkpt lat="52.927308" lon="-3.412932"><ele>333</ele><time>2022-10-15T14:22:34Z</time><name>PT4105</name></trkpt>
<trkpt lat="52.927307" lon="-3.412941"><ele>332</ele><time>2022-10-15T14:22:37Z</time><name>PT4106</name></trkpt>
<trkpt lat="52.927310" lon="-3.412961"><ele>333</ele><time>2022-10-15T14:22:43Z</time><name>PT4107</name></trkpt>
<trkpt lat="52.927310" lon="-3.412988"><ele>332</ele><time>2022-10-15T14:22:47Z</time><name>PT4108</name></trkpt>
<trkpt lat="52.927313" lon="-3.413005"><ele>333</ele><time>2022-10-15T14:22:55Z</time><name>PT4109</name></trkpt>
<trkpt lat="52.927320" lon="-3.413029"><ele>333</ele><time>2022-10-15T14:22:59Z</time><name>PT4110</name></trkpt>
<trkpt lat="52.927329" lon="-3.413069"><ele>333</ele><time>2022-10-15T14:23:03Z</time><name>PT4111</name></trkpt>
<trkpt lat="52.927333" lon="-3.413099"><ele>333</ele><time>2022-10-15T14:23:06Z</time><name>PT4112</name></trkpt>
<trkpt lat="52.927350" lon="-3.413172"><ele>332</ele><time>2022-10-15T14:23:10Z</time><name>PT4113</name></trkpt>
<trkpt lat="52.927360" lon="-3.413238"><ele>332</ele><time>2022-10-15T14:23:14Z</time><name>PT4114</name></trkpt>
<trkpt lat="52.927366" lon="-3.413318"><ele>332</ele><time>2022-10-15T14:23:18Z</time><name>PT4115</name></trkpt>
<trkpt lat="52.927369" lon="-3.413398"><ele>331</ele><time>2022-10-15T14:23:22Z</time><name>PT4116</name></trkpt>
<trkpt lat="52.927370" lon="-3.413451"><ele>331</ele><time>2022-10-15T14:23:25Z</time><name>PT4117</name></trkpt>
<trkpt lat="52.927371" lon="-3.413537"><ele>330</ele><time>2022-10-15T14:23:29Z</time><name>PT4118</name></trkpt>
<trkpt lat="52.927371" lon="-3.413628"><ele>329</ele><time>2022-10-15T14:23:33Z</time><name>PT4119</name></trkpt>
<trkpt lat="52.927375" lon="-3.413708"><ele>329</ele><time>2022-10-15T14:23:37Z</time><name>PT4120</name></trkpt>
<trkpt lat="52.927380" lon="-3.413790"><ele>329</ele><time>2022-10-15T14:23:41Z</time><name>PT4121</name></trkpt>
<trkpt lat="52.927385" lon="-3.413857"><ele>330</ele><time>2022-10-15T14:23:44Z</time><name>PT4122</name></trkpt>
<trkpt lat="52.927395" lon="-3.413939"><ele>329</ele><time>2022-10-15T14:23:48Z</time><name>PT4123</name></trkpt>
<trkpt lat="52.927401" lon="-3.414028"><ele>329</ele><time>2022-10-15T14:23:52Z</time><name>PT4124</name></trkpt>
<trkpt lat="52.927406" lon="-3.414111"><ele>328</ele><time>2022-10-15T14:23:56Z</time><name>PT4125</name></trkpt>
<trkpt lat="52.927403" lon="-3.414172"><ele>327</ele><time>2022-10-15T14:23:59Z</time><name>PT4126</name></trkpt>
<trkpt lat="52.927392" lon="-3.414262"><ele>327</ele><time>2022-10-15T14:24:03Z</time><name>PT4127</name></trkpt>
<trkpt lat="52.927376" lon="-3.414346"><ele>327</ele><time>2022-10-15T14:24:07Z</time><name>PT4128</name></trkpt>
<trkpt lat="52.927354" lon="-3.414423"><ele>326</ele><time>2022-10-15T14:24:11Z</time><name>PT4129</name></trkpt>
<trkpt lat="52.927334" lon="-3.414476"><ele>325</ele><time>2022-10-15T14:24:14Z</time><name>PT4130</name></trkpt>
<trkpt lat="52.927314" lon="-3.414548"><ele>324</ele><time>2022-10-15T14:24:18Z</time><name>PT4131</name></trkpt>
<trkpt lat="52.927306" lon="-3.414603"><ele>324</ele><time>2022-10-15T14:24:21Z</time><name>PT4132</name></trkpt>
<trkpt lat="52.927304" lon="-3.414664"><ele>323</ele><time>2022-10-15T14:24:24Z</time><name>PT4133</name></trkpt>
<trkpt lat="52.927309" lon="-3.414742"><ele>321</ele><time>2022-10-15T14:24:28Z</time><name>PT4134</name></trkpt>
<trkpt lat="52.927305" lon="-3.414827"><ele>321</ele><time>2022-10-15T14:24:32Z</time><name>PT4135</name></trkpt>
<trkpt lat="52.927299" lon="-3.414910"><ele>320</ele><time>2022-10-15T14:24:36Z</time><name>PT4136</name></trkpt>
<trkpt lat="52.927296" lon="-3.414991"><ele>319</ele><time>2022-10-15T14:24:40Z</time><name>PT4137</name></trkpt>
<trkpt lat="52.927290" lon="-3.415051"><ele>319</ele><time>2022-10-15T14:24:43Z</time><name>PT4138</name></trkpt>
<trkpt lat="52.927279" lon="-3.415120"><ele>318</ele><time>2022-10-15T14:24:47Z</time><name>PT4139</name></trkpt>
<trkpt lat="52.927276" lon="-3.415193"><ele>317</ele><time>2022-10-15T14:24:51Z</time><name>PT4140</name></trkpt>
<trkpt lat="52.927269" lon="-3.415273"><ele>317</ele><time>2022-10-15T14:24:55Z</time><name>PT4141</name></trkpt>
<trkpt lat="52.927260" lon="-3.415348"><ele>316</ele><time>2022-10-15T14:24:59Z</time><name>PT4142</name></trkpt>
<trkpt lat="52.927255" lon="-3.415423"><ele>315</ele><time>2022-10-15T14:25:03Z</time><name>PT4143</name></trkpt>
<trkpt lat="52.927254" lon="-3.415503"><ele>315</ele><time>2022-10-15T14:25:07Z</time><name>PT4144</name></trkpt>
<trkpt lat="52.927253" lon="-3.415588"><ele>315</ele><time>2022-10-15T14:25:11Z</time><name>PT4145</name></trkpt>
<trkpt lat="52.927256" lon="-3.415672"><ele>315</ele><time>2022-10-15T14:25:15Z</time><name>PT4146</name></trkpt>
<trkpt lat="52.927258" lon="-3.415746"><ele>314</ele><time>2022-10-15T14:25:19Z</time><name>PT4147</name></trkpt>
<trkpt lat="52.927252" lon="-3.415826"><ele>312</ele><time>2022-10-15T14:25:23Z</time><name>PT4148</name></trkpt>
<trkpt lat="52.927242" lon="-3.415902"><ele>311</ele><time>2022-10-15T14:25:27Z</time><name>PT4149</name></trkpt>
<trkpt lat="52.927229" lon="-3.415972"><ele>310</ele><time>2022-10-15T14:25:31Z</time><name>PT4150</name></trkpt>
<trkpt lat="52.927216" lon="-3.416052"><ele>309</ele><time>2022-10-15T14:25:35Z</time><name>PT4151</name></trkpt>
<trkpt lat="52.927208" lon="-3.416114"><ele>309</ele><time>2022-10-15T14:25:38Z</time><name>PT4152</name></trkpt>
<trkpt lat="52.927204" lon="-3.416192"><ele>308</ele><time>2022-10-15T14:25:42Z</time><name>PT4153</name></trkpt>
<trkpt lat="52.927204" lon="-3.416274"><ele>307</ele><time>2022-10-15T14:25:46Z</time><name>PT4154</name></trkpt>
<trkpt lat="52.927206" lon="-3.416336"><ele>307</ele><time>2022-10-15T14:25:49Z</time><name>PT4155</name></trkpt>
<trkpt lat="52.927216" lon="-3.416417"><ele>307</ele><time>2022-10-15T14:25:53Z</time><name>PT4156</name></trkpt>
<trkpt lat="52.927229" lon="-3.416508"><ele>307</ele><time>2022-10-15T14:25:57Z</time><name>PT4157</name></trkpt>
<trkpt lat="52.927248" lon="-3.416593"><ele>306</ele><time>2022-10-15T14:26:01Z</time><name>PT4158</name></trkpt>
<trkpt lat="52.927256" lon="-3.416650"><ele>306</ele><time>2022-10-15T14:26:04Z</time><name>PT4159</name></trkpt>
<trkpt lat="52.927255" lon="-3.416685"><ele>305</ele><time>2022-10-15T14:26:08Z</time><name>PT4160</name></trkpt>
<trkpt lat="52.927257" lon="-3.416717"><ele>305</ele><time>2022-10-15T14:26:11Z</time><name>PT4161</name></trkpt>
<trkpt lat="52.927256" lon="-3.416746"><ele>306</ele><time>2022-10-15T14:26:15Z</time><name>PT4162</name></trkpt>
<trkpt lat="52.927250" lon="-3.416747"><ele>306</ele><time>2022-10-15T14:26:19Z</time><name>PT4163</name></trkpt>
<trkpt lat="52.927247" lon="-3.416741"><ele>305</ele><time>2022-10-15T14:26:23Z</time><name>PT4164</name></trkpt>
<trkpt lat="52.927255" lon="-3.416767"><ele>305</ele><time>2022-10-15T14:26:26Z</time><name>PT4165</name></trkpt>
<trkpt lat="52.927265" lon="-3.416825"><ele>305</ele><time>2022-10-15T14:26:30Z</time><name>PT4166</name></trkpt>
<trkpt lat="52.927273" lon="-3.416890"><ele>306</ele><time>2022-10-15T14:26:34Z</time><name>PT4167</name></trkpt>
<trkpt lat="52.927273" lon="-3.416945"><ele>305</ele><time>2022-10-15T14:26:37Z</time><name>PT4168</name></trkpt>
<trkpt lat="52.927270" lon="-3.417029"><ele>305</ele><time>2022-10-15T14:26:41Z</time><name>PT4169</name></trkpt>
<trkpt lat="52.927262" lon="-3.417114"><ele>304</ele><time>2022-10-15T14:26:45Z</time><name>PT4170</name></trkpt>
<trkpt lat="52.927253" lon="-3.417201"><ele>303</ele><time>2022-10-15T14:26:49Z</time><name>PT4171</name></trkpt>
<trkpt lat="52.927235" lon="-3.417271"><ele>303</ele><time>2022-10-15T14:26:53Z</time><name>PT4172</name></trkpt>
<trkpt lat="52.927217" lon="-3.417324"><ele>303</ele><time>2022-10-15T14:26:56Z</time><name>PT4173</name></trkpt>
<trkpt lat="52.927188" lon="-3.417381"><ele>303</ele><time>2022-10-15T14:27:00Z</time><name>PT4174</name></trkpt>
<trkpt lat="52.927170" lon="-3.417414"><ele>304</ele><time>2022-10-15T14:27:03Z</time><name>PT4175</name></trkpt>
<trkpt lat="52.927134" lon="-3.417454"><ele>304</ele><time>2022-10-15T14:27:07Z</time><name>PT4176</name></trkpt>
<trkpt lat="52.927099" lon="-3.417495"><ele>302</ele><time>2022-10-15T14:27:11Z</time><name>PT4177</name></trkpt>
<trkpt lat="52.927069" lon="-3.417546"><ele>301</ele><time>2022-10-15T14:27:15Z</time><name>PT4178</name></trkpt>
<trkpt lat="52.927038" lon="-3.417602"><ele>300</ele><time>2022-10-15T14:27:19Z</time><name>PT4179</name></trkpt>
<trkpt lat="52.927022" lon="-3.417671"><ele>300</ele><time>2022-10-15T14:27:23Z</time><name>PT4180</name></trkpt>
<trkpt lat="52.927015" lon="-3.417738"><ele>299</ele><time>2022-10-15T14:27:27Z</time><name>PT4181</name></trkpt>
<trkpt lat="52.927011" lon="-3.417821"><ele>297</ele><time>2022-10-15T14:27:31Z</time><name>PT4182</name></trkpt>
<trkpt lat="52.926999" lon="-3.417892"><ele>295</ele><time>2022-10-15T14:27:35Z</time><name>PT4183</name></trkpt>
<trkpt lat="52.926979" lon="-3.417972"><ele>295</ele><time>2022-10-15T14:27:39Z</time><name>PT4184</name></trkpt>
<trkpt lat="52.926960" lon="-3.418038"><ele>296</ele><time>2022-10-15T14:27:43Z</time><name>PT4185</name></trkpt>
<trkpt lat="52.926936" lon="-3.418104"><ele>295</ele><time>2022-10-15T14:27:47Z</time><name>PT4186</name></trkpt>
<trkpt lat="52.926910" lon="-3.418163"><ele>294</ele><time>2022-10-15T14:27:51Z</time><name>PT4187</name></trkpt>
<trkpt lat="52.926882" lon="-3.418222"><ele>293</ele><time>2022-10-15T14:27:55Z</time><name>PT4188</name></trkpt>
<trkpt lat="52.926864" lon="-3.418278"><ele>292</ele><time>2022-10-15T14:27:59Z</time><name>PT4189</name></trkpt>
<trkpt lat="52.926833" lon="-3.418327"><ele>293</ele><time>2022-10-15T14:28:03Z</time><name>PT4190</name></trkpt>
<trkpt lat="52.926786" lon="-3.418366"><ele>290</ele><time>2022-10-15T14:28:07Z</time><name>PT4191</name></trkpt>
<trkpt lat="52.926751" lon="-3.418404"><ele>287</ele><time>2022-10-15T14:28:11Z</time><name>PT4192</name></trkpt>
<trkpt lat="52.926711" lon="-3.418438"><ele>287</ele><time>2022-10-15T14:28:15Z</time><name>PT4193</name></trkpt>
<trkpt lat="52.926653" lon="-3.418469"><ele>285</ele><time>2022-10-15T14:28:19Z</time><name>PT4194</name></trkpt>
<trkpt lat="52.926612" lon="-3.418510"><ele>286</ele><time>2022-10-15T14:28:23Z</time><name>PT4195</name></trkpt>
<trkpt lat="52.926580" lon="-3.418581"><ele>288</ele><time>2022-10-15T14:28:27Z</time><name>PT4196</name></trkpt>
<trkpt lat="52.926559" lon="-3.418652"><ele>293</ele><time>2022-10-15T14:28:31Z</time><name>PT4197</name></trkpt>
<trkpt lat="52.926528" lon="-3.418701"><ele>295</ele><time>2022-10-15T14:28:35Z</time><name>PT4198</name></trkpt>
<trkpt lat="52.926512" lon="-3.418741"><ele>294</ele><time>2022-10-15T14:28:39Z</time><name>PT4199</name></trkpt>
<trkpt lat="52.926479" lon="-3.418795"><ele>292</ele><time>2022-10-15T14:28:43Z</time><name>PT4200</name></trkpt>
<trkpt lat="52.926444" lon="-3.418842"><ele>291</ele><time>2022-10-15T14:28:47Z</time><name>PT4201</name></trkpt>
<trkpt lat="52.926417" lon="-3.418913"><ele>290</ele><time>2022-10-15T14:28:51Z</time><name>PT4202</name></trkpt>
<trkpt lat="52.926395" lon="-3.418991"><ele>291</ele><time>2022-10-15T14:28:55Z</time><name>PT4203</name></trkpt>
<trkpt lat="52.926382" lon="-3.419067"><ele>292</ele><time>2022-10-15T14:28:59Z</time><name>PT4204</name></trkpt>
<trkpt lat="52.926363" lon="-3.419153"><ele>292</ele><time>2022-10-15T14:29:02Z</time><name>PT4205</name></trkpt>
<trkpt lat="52.926339" lon="-3.419229"><ele>292</ele><time>2022-10-15T14:29:05Z</time><name>PT4206</name></trkpt>
<trkpt lat="52.926320" lon="-3.419307"><ele>293</ele><time>2022-10-15T14:29:09Z</time><name>PT4207</name></trkpt>
<trkpt lat="52.926305" lon="-3.419357"><ele>293</ele><time>2022-10-15T14:29:12Z</time><name>PT4208</name></trkpt>
<trkpt lat="52.926287" lon="-3.419417"><ele>293</ele><time>2022-10-15T14:29:16Z</time><name>PT4209</name></trkpt>
<trkpt lat="52.926273" lon="-3.419472"><ele>293</ele><time>2022-10-15T14:29:20Z</time><name>PT4210</name></trkpt>
<trkpt lat="52.926255" lon="-3.419508"><ele>291</ele><time>2022-10-15T14:29:24Z</time><name>PT4211</name></trkpt>
<trkpt lat="52.926237" lon="-3.419553"><ele>290</ele><time>2022-10-15T14:29:28Z</time><name>PT4212</name></trkpt>
<trkpt lat="52.926212" lon="-3.419591"><ele>290</ele><time>2022-10-15T14:29:32Z</time><name>PT4213</name></trkpt>
<trkpt lat="52.926194" lon="-3.419622"><ele>287</ele><time>2022-10-15T14:29:36Z</time><name>PT4214</name></trkpt>
<trkpt lat="52.926170" lon="-3.419673"><ele>283</ele><time>2022-10-15T14:29:40Z</time><name>PT4215</name></trkpt>
<trkpt lat="52.926144" lon="-3.419725"><ele>279</ele><time>2022-10-15T14:29:44Z</time><name>PT4216</name></trkpt>
<trkpt lat="52.926115" lon="-3.419781"><ele>276</ele><time>2022-10-15T14:29:48Z</time><name>PT4217</name></trkpt>
<trkpt lat="52.926090" lon="-3.419839"><ele>279</ele><time>2022-10-15T14:29:52Z</time><name>PT4218</name></trkpt>
<trkpt lat="52.926086" lon="-3.419858"><ele>280</ele><time>2022-10-15T14:29:56Z</time><name>PT4219</name></trkpt>
<trkpt lat="52.926077" lon="-3.419889"><ele>281</ele><time>2022-10-15T14:30:08Z</time><name>PT4220</name></trkpt>
<trkpt lat="52.926056" lon="-3.419916"><ele>280</ele><time>2022-10-15T14:30:12Z</time><name>PT4221</name></trkpt>
<trkpt lat="52.926053" lon="-3.419935"><ele>282</ele><time>2022-10-15T14:30:16Z</time><name>PT4222</name></trkpt>
<trkpt lat="52.926049" lon="-3.419947"><ele>282</ele><time>2022-10-15T14:30:20Z</time><name>PT4223</name></trkpt>
<trkpt lat="52.926054" lon="-3.419961"><ele>281</ele><time>2022-10-15T14:30:24Z</time><name>PT4224</name></trkpt>
<trkpt lat="52.926052" lon="-3.419963"><ele>282</ele><time>2022-10-15T14:30:36Z</time><name>PT4225</name></trkpt>
<trkpt lat="52.926043" lon="-3.419963"><ele>283</ele><time>2022-10-15T14:30:40Z</time><name>PT4226</name></trkpt>
<trkpt lat="52.926037" lon="-3.419964"><ele>284</ele><time>2022-10-15T14:30:44Z</time><name>PT4227</name></trkpt>
<trkpt lat="52.926039" lon="-3.419981"><ele>284</ele><time>2022-10-15T14:30:48Z</time><name>PT4228</name></trkpt>
<trkpt lat="52.926039" lon="-3.419980"><ele>285</ele><time>2022-10-15T14:30:52Z</time><name>PT4229</name></trkpt>
<trkpt lat="52.926038" lon="-3.419979"><ele>285</ele><time>2022-10-15T14:30:56Z</time><name>PT4230</name></trkpt>
<trkpt lat="52.926041" lon="-3.419984"><ele>285</ele><time>2022-10-15T14:31:00Z</time><name>PT4231</name></trkpt>
<trkpt lat="52.926041" lon="-3.419997"><ele>286</ele><time>2022-10-15T14:31:04Z</time><name>PT4232</name></trkpt>
<trkpt lat="52.926032" lon="-3.420001"><ele>287</ele><time>2022-10-15T14:31:08Z</time><name>PT4233</name></trkpt>
<trkpt lat="52.926033" lon="-3.420001"><ele>288</ele><time>2022-10-15T14:31:12Z</time><name>PT4234</name></trkpt>
<trkpt lat="52.926032" lon="-3.419996"><ele>288</ele><time>2022-10-15T14:31:20Z</time><name>PT4235</name></trkpt>
<trkpt lat="52.926030" lon="-3.419997"><ele>288</ele><time>2022-10-15T14:31:28Z</time><name>PT4236</name></trkpt>
<trkpt lat="52.926024" lon="-3.420013"><ele>288</ele><time>2022-10-15T14:31:32Z</time><name>PT4237</name></trkpt>
<trkpt lat="52.926009" lon="-3.420042"><ele>288</ele><time>2022-10-15T14:31:36Z</time><name>PT4238</name></trkpt>
<trkpt lat="52.925990" lon="-3.420062"><ele>285</ele><time>2022-10-15T14:31:40Z</time><name>PT4239</name></trkpt>
<trkpt lat="52.925975" lon="-3.420084"><ele>286</ele><time>2022-10-15T14:31:44Z</time><name>PT4240</name></trkpt>
<trkpt lat="52.925973" lon="-3.420084"><ele>285</ele><time>2022-10-15T14:31:48Z</time><name>PT4241</name></trkpt>
<trkpt lat="52.925960" lon="-3.420102"><ele>284</ele><time>2022-10-15T14:31:52Z</time><name>PT4242</name></trkpt>
<trkpt lat="52.925952" lon="-3.420122"><ele>284</ele><time>2022-10-15T14:31:56Z</time><name>PT4243</name></trkpt>
<trkpt lat="52.925953" lon="-3.420178"><ele>283</ele><time>2022-10-15T14:32:00Z</time><name>PT4244</name></trkpt>
<trkpt lat="52.925961" lon="-3.420213"><ele>281</ele><time>2022-10-15T14:32:04Z</time><name>PT4245</name></trkpt>
<trkpt lat="52.925962" lon="-3.420221"><ele>281</ele><time>2022-10-15T14:32:08Z</time><name>PT4246</name></trkpt>
<trkpt lat="52.925978" lon="-3.420255"><ele>281</ele><time>2022-10-15T14:32:12Z</time><name>PT4247</name></trkpt>
<trkpt lat="52.926003" lon="-3.420281"><ele>281</ele><time>2022-10-15T14:32:16Z</time><name>PT4248</name></trkpt>
<trkpt lat="52.926026" lon="-3.420294"><ele>282</ele><time>2022-10-15T14:32:20Z</time><name>PT4249</name></trkpt>
<trkpt lat="52.926024" lon="-3.420289"><ele>283</ele><time>2022-10-15T14:32:24Z</time><name>PT4250</name></trkpt>
<trkpt lat="52.926036" lon="-3.420315"><ele>282</ele><time>2022-10-15T14:32:28Z</time><name>PT4251</name></trkpt>
<trkpt lat="52.926076" lon="-3.420355"><ele>282</ele><time>2022-10-15T14:32:32Z</time><name>PT4252</name></trkpt>
<trkpt lat="52.926110" lon="-3.420401"><ele>280</ele><time>2022-10-15T14:32:36Z</time><name>PT4253</name></trkpt>
<trkpt lat="52.926137" lon="-3.420430"><ele>278</ele><time>2022-10-15T14:32:40Z</time><name>PT4254</name></trkpt>
<trkpt lat="52.926148" lon="-3.420491"><ele>278</ele><time>2022-10-15T14:32:44Z</time><name>PT4255</name></trkpt>
<trkpt lat="52.926172" lon="-3.420564"><ele>281</ele><time>2022-10-15T14:32:48Z</time><name>PT4256</name></trkpt>
<trkpt lat="52.926174" lon="-3.420645"><ele>283</ele><time>2022-10-15T14:32:52Z</time><name>PT4257</name></trkpt>
<trkpt lat="52.926181" lon="-3.420722"><ele>283</ele><time>2022-10-15T14:32:56Z</time><name>PT4258</name></trkpt>
<trkpt lat="52.926184" lon="-3.420794"><ele>284</ele><time>2022-10-15T14:33:00Z</time><name>PT4259</name></trkpt>
<trkpt lat="52.926195" lon="-3.420855"><ele>283</ele><time>2022-10-15T14:33:04Z</time><name>PT4260</name></trkpt>
<trkpt lat="52.926196" lon="-3.420918"><ele>282</ele><time>2022-10-15T14:33:08Z</time><name>PT4261</name></trkpt>
<trkpt lat="52.926197" lon="-3.420986"><ele>281</ele><time>2022-10-15T14:33:12Z</time><name>PT4262</name></trkpt>
<trkpt lat="52.926185" lon="-3.421054"><ele>280</ele><time>2022-10-15T14:33:16Z</time><name>PT4263</name></trkpt>
<trkpt lat="52.926172" lon="-3.421115"><ele>279</ele><time>2022-10-15T14:33:20Z</time><name>PT4264</name></trkpt>
<trkpt lat="52.926159" lon="-3.421164"><ele>279</ele><time>2022-10-15T14:33:24Z</time><name>PT4265</name></trkpt>
<trkpt lat="52.926145" lon="-3.421204"><ele>278</ele><time>2022-10-15T14:33:28Z</time><name>PT4266</name></trkpt>
<trkpt lat="52.926137" lon="-3.421217"><ele>277</ele><time>2022-10-15T14:33:32Z</time><name>PT4267</name></trkpt>
<trkpt lat="52.926135" lon="-3.421246"><ele>279</ele><time>2022-10-15T14:33:36Z</time><name>PT4268</name></trkpt>
<trkpt lat="52.926130" lon="-3.421256"><ele>279</ele><time>2022-10-15T14:33:39Z</time><name>PT4269</name></trkpt>
<trkpt lat="52.926134" lon="-3.421281"><ele>279</ele><time>2022-10-15T14:33:43Z</time><name>PT4270</name></trkpt>
<trkpt lat="52.926135" lon="-3.421301"><ele>280</ele><time>2022-10-15T14:33:47Z</time><name>PT4271</name></trkpt>
<trkpt lat="52.926118" lon="-3.421367"><ele>280</ele><time>2022-10-15T14:34:07Z</time><name>PT4272</name></trkpt>
<trkpt lat="52.926109" lon="-3.421418"><ele>279</ele><time>2022-10-15T14:34:11Z</time><name>PT4273</name></trkpt>
<trkpt lat="52.926100" lon="-3.421474"><ele>276</ele><time>2022-10-15T14:34:15Z</time><name>PT4274</name></trkpt>
<trkpt lat="52.926096" lon="-3.421533"><ele>277</ele><time>2022-10-15T14:34:19Z</time><name>PT4275</name></trkpt>
<trkpt lat="52.926099" lon="-3.421580"><ele>278</ele><time>2022-10-15T14:34:23Z</time><name>PT4276</name></trkpt>
<trkpt lat="52.926102" lon="-3.421608"><ele>278</ele><time>2022-10-15T14:34:27Z</time><name>PT4277</name></trkpt>
<trkpt lat="52.926108" lon="-3.421670"><ele>278</ele><time>2022-10-15T14:34:31Z</time><name>PT4278</name></trkpt>
<trkpt lat="52.926099" lon="-3.421733"><ele>278</ele><time>2022-10-15T14:34:35Z</time><name>PT4279</name></trkpt>
<trkpt lat="52.926101" lon="-3.421783"><ele>277</ele><time>2022-10-15T14:34:39Z</time><name>PT4280</name></trkpt>
<trkpt lat="52.926091" lon="-3.421842"><ele>280</ele><time>2022-10-15T14:34:43Z</time><name>PT4281</name></trkpt>
<trkpt lat="52.926081" lon="-3.421909"><ele>277</ele><time>2022-10-15T14:34:47Z</time><name>PT4282</name></trkpt>
<trkpt lat="52.926063" lon="-3.421966"><ele>276</ele><time>2022-10-15T14:34:51Z</time><name>PT4283</name></trkpt>
<trkpt lat="52.926047" lon="-3.422020"><ele>274</ele><time>2022-10-15T14:34:55Z</time><name>PT4284</name></trkpt>
<trkpt lat="52.926034" lon="-3.422081"><ele>275</ele><time>2022-10-15T14:34:59Z</time><name>PT4285</name></trkpt>
<trkpt lat="52.926024" lon="-3.422138"><ele>272</ele><time>2022-10-15T14:35:03Z</time><name>PT4286</name></trkpt>
<trkpt lat="52.926027" lon="-3.422206"><ele>272</ele><time>2022-10-15T14:35:07Z</time><name>PT4287</name></trkpt>
<trkpt lat="52.926024" lon="-3.422269"><ele>272</ele><time>2022-10-15T14:35:11Z</time><name>PT4288</name></trkpt>
<trkpt lat="52.926017" lon="-3.422328"><ele>271</ele><time>2022-10-15T14:35:15Z</time><name>PT4289</name></trkpt>
<trkpt lat="52.926007" lon="-3.422388"><ele>272</ele><time>2022-10-15T14:35:19Z</time><name>PT4290</name></trkpt>
<trkpt lat="52.926007" lon="-3.422450"><ele>270</ele><time>2022-10-15T14:35:23Z</time><name>PT4291</name></trkpt>
<trkpt lat="52.926002" lon="-3.422509"><ele>268</ele><time>2022-10-15T14:35:27Z</time><name>PT4292</name></trkpt>
<trkpt lat="52.926005" lon="-3.422580"><ele>269</ele><time>2022-10-15T14:35:31Z</time><name>PT4293</name></trkpt>
<trkpt lat="52.926005" lon="-3.422654"><ele>266</ele><time>2022-10-15T14:35:35Z</time><name>PT4294</name></trkpt>
<trkpt lat="52.926002" lon="-3.422720"><ele>264</ele><time>2022-10-15T14:35:39Z</time><name>PT4295</name></trkpt>
<trkpt lat="52.925997" lon="-3.422789"><ele>264</ele><time>2022-10-15T14:35:43Z</time><name>PT4296</name></trkpt>
<trkpt lat="52.926001" lon="-3.422856"><ele>264</ele><time>2022-10-15T14:35:47Z</time><name>PT4297</name></trkpt>
<trkpt lat="52.926005" lon="-3.422917"><ele>263</ele><time>2022-10-15T14:35:51Z</time><name>PT4298</name></trkpt>
<trkpt lat="52.926002" lon="-3.422967"><ele>263</ele><time>2022-10-15T14:35:55Z</time><name>PT4299</name></trkpt>
<trkpt lat="52.925998" lon="-3.423033"><ele>263</ele><time>2022-10-15T14:35:59Z</time><name>PT4300</name></trkpt>
<trkpt lat="52.925996" lon="-3.423087"><ele>263</ele><time>2022-10-15T14:36:03Z</time><name>PT4301</name></trkpt>
<trkpt lat="52.925986" lon="-3.423133"><ele>260</ele><time>2022-10-15T14:36:07Z</time><name>PT4302</name></trkpt>
<trkpt lat="52.925975" lon="-3.423173"><ele>258</ele><time>2022-10-15T14:36:11Z</time><name>PT4303</name></trkpt>
<trkpt lat="52.925960" lon="-3.423249"><ele>257</ele><time>2022-10-15T14:36:15Z</time><name>PT4304</name></trkpt>
<trkpt lat="52.925944" lon="-3.423295"><ele>252</ele><time>2022-10-15T14:36:19Z</time><name>PT4305</name></trkpt>
<trkpt lat="52.925928" lon="-3.423347"><ele>250</ele><time>2022-10-15T14:36:23Z</time><name>PT4306</name></trkpt>
<trkpt lat="52.925904" lon="-3.423414"><ele>251</ele><time>2022-10-15T14:36:27Z</time><name>PT4307</name></trkpt>
<trkpt lat="52.925878" lon="-3.423473"><ele>250</ele><time>2022-10-15T14:36:31Z</time><name>PT4308</name></trkpt>
<trkpt lat="52.925868" lon="-3.423527"><ele>248</ele><time>2022-10-15T14:36:35Z</time><name>PT4309</name></trkpt>
<trkpt lat="52.925843" lon="-3.423567"><ele>246</ele><time>2022-10-15T14:36:39Z</time><name>PT4310</name></trkpt>
<trkpt lat="52.925822" lon="-3.423625"><ele>244</ele><time>2022-10-15T14:36:43Z</time><name>PT4311</name></trkpt>
<trkpt lat="52.925809" lon="-3.423703"><ele>247</ele><time>2022-10-15T14:36:47Z</time><name>PT4312</name></trkpt>
<trkpt lat="52.925788" lon="-3.423766"><ele>247</ele><time>2022-10-15T14:36:51Z</time><name>PT4313</name></trkpt>
<trkpt lat="52.925776" lon="-3.423822"><ele>246</ele><time>2022-10-15T14:36:55Z</time><name>PT4314</name></trkpt>
<trkpt lat="52.925746" lon="-3.423869"><ele>243</ele><time>2022-10-15T14:36:59Z</time><name>PT4315</name></trkpt>
<trkpt lat="52.925725" lon="-3.423933"><ele>242</ele><time>2022-10-15T14:37:03Z</time><name>PT4316</name></trkpt>
<trkpt lat="52.925699" lon="-3.424017"><ele>243</ele><time>2022-10-15T14:37:07Z</time><name>PT4317</name></trkpt>
<trkpt lat="52.925676" lon="-3.424118"><ele>244</ele><time>2022-10-15T14:37:11Z</time><name>PT4318</name></trkpt>
<trkpt lat="52.925657" lon="-3.424196"><ele>246</ele><time>2022-10-15T14:37:15Z</time><name>PT4319</name></trkpt>
<trkpt lat="52.925656" lon="-3.424273"><ele>245</ele><time>2022-10-15T14:37:19Z</time><name>PT4320</name></trkpt>
<trkpt lat="52.925620" lon="-3.424342"><ele>245</ele><time>2022-10-15T14:37:23Z</time><name>PT4321</name></trkpt>
<trkpt lat="52.925590" lon="-3.424408"><ele>245</ele><time>2022-10-15T14:37:27Z</time><name>PT4322</name></trkpt>
<trkpt lat="52.925572" lon="-3.424476"><ele>246</ele><time>2022-10-15T14:37:31Z</time><name>PT4323</name></trkpt>
<trkpt lat="52.925547" lon="-3.424531"><ele>245</ele><time>2022-10-15T14:37:35Z</time><name>PT4324</name></trkpt>
<trkpt lat="52.925527" lon="-3.424588"><ele>241</ele><time>2022-10-15T14:37:39Z</time><name>PT4325</name></trkpt>
<trkpt lat="52.925499" lon="-3.424639"><ele>243</ele><time>2022-10-15T14:37:43Z</time><name>PT4326</name></trkpt>
<trkpt lat="52.925469" lon="-3.424698"><ele>243</ele><time>2022-10-15T14:37:47Z</time><name>PT4327</name></trkpt>
<trkpt lat="52.925446" lon="-3.424757"><ele>244</ele><time>2022-10-15T14:37:51Z</time><name>PT4328</name></trkpt>
<trkpt lat="52.925410" lon="-3.424796"><ele>243</ele><time>2022-10-15T14:37:55Z</time><name>PT4329</name></trkpt>
<trkpt lat="52.925370" lon="-3.424847"><ele>241</ele><time>2022-10-15T14:37:59Z</time><name>PT4330</name></trkpt>
<trkpt lat="52.925324" lon="-3.424892"><ele>240</ele><time>2022-10-15T14:38:03Z</time><name>PT4331</name></trkpt>
<trkpt lat="52.925284" lon="-3.424949"><ele>240</ele><time>2022-10-15T14:38:07Z</time><name>PT4332</name></trkpt>
<trkpt lat="52.925247" lon="-3.424988"><ele>239</ele><time>2022-10-15T14:38:11Z</time><name>PT4333</name></trkpt>
<trkpt lat="52.925211" lon="-3.425041"><ele>237</ele><time>2022-10-15T14:38:15Z</time><name>PT4334</name></trkpt>
<trkpt lat="52.925182" lon="-3.425076"><ele>234</ele><time>2022-10-15T14:38:19Z</time><name>PT4335</name></trkpt>
<trkpt lat="52.925155" lon="-3.425119"><ele>231</ele><time>2022-10-15T14:38:23Z</time><name>PT4336</name></trkpt>
<trkpt lat="52.925134" lon="-3.425151"><ele>227</ele><time>2022-10-15T14:38:27Z</time><name>PT4337</name></trkpt>
<trkpt lat="52.925117" lon="-3.425184"><ele>224</ele><time>2022-10-15T14:38:31Z</time><name>PT4338</name></trkpt>
<trkpt lat="52.925092" lon="-3.425236"><ele>224</ele><time>2022-10-15T14:38:35Z</time><name>PT4339</name></trkpt>
<trkpt lat="52.925074" lon="-3.425289"><ele>224</ele><time>2022-10-15T14:38:39Z</time><name>PT4340</name></trkpt>
<trkpt lat="52.925047" lon="-3.425342"><ele>224</ele><time>2022-10-15T14:38:43Z</time><name>PT4341</name></trkpt>
<trkpt lat="52.925014" lon="-3.425424"><ele>229</ele><time>2022-10-15T14:38:47Z</time><name>PT4342</name></trkpt>
<trkpt lat="52.924984" lon="-3.425495"><ele>232</ele><time>2022-10-15T14:38:51Z</time><name>PT4343</name></trkpt>
<trkpt lat="52.924972" lon="-3.425543"><ele>231</ele><time>2022-10-15T14:38:55Z</time><name>PT4344</name></trkpt>
<trkpt lat="52.924955" lon="-3.425647"><ele>236</ele><time>2022-10-15T14:38:59Z</time><name>PT4345</name></trkpt>
<trkpt lat="52.924954" lon="-3.425670"><ele>235</ele><time>2022-10-15T14:39:07Z</time><name>PT4346</name></trkpt>
<trkpt lat="52.924960" lon="-3.425708"><ele>236</ele><time>2022-10-15T14:39:11Z</time><name>PT4347</name></trkpt>
<trkpt lat="52.924933" lon="-3.425734"><ele>235</ele><time>2022-10-15T14:39:15Z</time><name>PT4348</name></trkpt>
<trkpt lat="52.924912" lon="-3.425766"><ele>232</ele><time>2022-10-15T14:39:19Z</time><name>PT4349</name></trkpt>
<trkpt lat="52.924877" lon="-3.425796"><ele>230</ele><time>2022-10-15T14:39:23Z</time><name>PT4350</name></trkpt>
<trkpt lat="52.924853" lon="-3.425828"><ele>226</ele><time>2022-10-15T14:39:27Z</time><name>PT4351</name></trkpt>
<trkpt lat="52.924820" lon="-3.425886"><ele>223</ele><time>2022-10-15T14:39:31Z</time><name>PT4352</name></trkpt>
<trkpt lat="52.924777" lon="-3.425912"><ele>220</ele><time>2022-10-15T14:39:35Z</time><name>PT4353</name></trkpt>
<trkpt lat="52.924734" lon="-3.425982"><ele>224</ele><time>2022-10-15T14:39:39Z</time><name>PT4354</name></trkpt>
<trkpt lat="52.924686" lon="-3.426011"><ele>226</ele><time>2022-10-15T14:39:43Z</time><name>PT4355</name></trkpt>
<trkpt lat="52.924662" lon="-3.426042"><ele>226</ele><time>2022-10-15T14:39:47Z</time><name>PT4356</name></trkpt>
<trkpt lat="52.924637" lon="-3.426090"><ele>225</ele><time>2022-10-15T14:39:51Z</time><name>PT4357</name></trkpt>
<trkpt lat="52.924596" lon="-3.426151"><ele>222</ele><time>2022-10-15T14:39:55Z</time><name>PT4358</name></trkpt>
<trkpt lat="52.924561" lon="-3.426218"><ele>218</ele><time>2022-10-15T14:39:59Z</time><name>PT4359</name></trkpt>
<trkpt lat="52.924521" lon="-3.426287"><ele>220</ele><time>2022-10-15T14:40:03Z</time><name>PT4360</name></trkpt>
<trkpt lat="52.924498" lon="-3.426325"><ele>221</ele><time>2022-10-15T14:40:07Z</time><name>PT4361</name></trkpt>
<trkpt lat="52.924454" lon="-3.426366"><ele>222</ele><time>2022-10-15T14:40:11Z</time><name>PT4362</name></trkpt>
<trkpt lat="52.924421" lon="-3.426416"><ele>224</ele><time>2022-10-15T14:40:15Z</time><name>PT4363</name></trkpt>
<trkpt lat="52.924392" lon="-3.426468"><ele>223</ele><time>2022-10-15T14:40:19Z</time><name>PT4364</name></trkpt>
<trkpt lat="52.924371" lon="-3.426512"><ele>223</ele><time>2022-10-15T14:40:23Z</time><name>PT4365</name></trkpt>
<trkpt lat="52.924341" lon="-3.426558"><ele>223</ele><time>2022-10-15T14:40:27Z</time><name>PT4366</name></trkpt>
<trkpt lat="52.924305" lon="-3.426609"><ele>223</ele><time>2022-10-15T14:40:31Z</time><name>PT4367</name></trkpt>
<trkpt lat="52.924266" lon="-3.426647"><ele>222</ele><time>2022-10-15T14:40:35Z</time><name>PT4368</name></trkpt>
<trkpt lat="52.924233" lon="-3.426680"><ele>222</ele><time>2022-10-15T14:40:39Z</time><name>PT4369</name></trkpt>
<trkpt lat="52.924203" lon="-3.426710"><ele>220</ele><time>2022-10-15T14:40:43Z</time><name>PT4370</name></trkpt>
<trkpt lat="52.924182" lon="-3.426742"><ele>219</ele><time>2022-10-15T14:40:47Z</time><name>PT4371</name></trkpt>
<trkpt lat="52.924161" lon="-3.426779"><ele>219</ele><time>2022-10-15T14:40:51Z</time><name>PT4372</name></trkpt>
<trkpt lat="52.924141" lon="-3.426843"><ele>219</ele><time>2022-10-15T14:40:55Z</time><name>PT4373</name></trkpt>
<trkpt lat="52.924109" lon="-3.426895"><ele>218</ele><time>2022-10-15T14:40:59Z</time><name>PT4374</name></trkpt>
<trkpt lat="52.924079" lon="-3.426967"><ele>217</ele><time>2022-10-15T14:41:03Z</time><name>PT4375</name></trkpt>
<trkpt lat="52.924056" lon="-3.427022"><ele>215</ele><time>2022-10-15T14:41:07Z</time><name>PT4376</name></trkpt>
<trkpt lat="52.924016" lon="-3.427088"><ele>215</ele><time>2022-10-15T14:41:11Z</time><name>PT4377</name></trkpt>
<trkpt lat="52.923980" lon="-3.427142"><ele>213</ele><time>2022-10-15T14:41:15Z</time><name>PT4378</name></trkpt>
<trkpt lat="52.923948" lon="-3.427174"><ele>211</ele><time>2022-10-15T14:41:19Z</time><name>PT4379</name></trkpt>
<trkpt lat="52.923920" lon="-3.427223"><ele>211</ele><time>2022-10-15T14:41:23Z</time><name>PT4380</name></trkpt>
<trkpt lat="52.923913" lon="-3.427285"><ele>213</ele><time>2022-10-15T14:41:27Z</time><name>PT4381</name></trkpt>
<trkpt lat="52.923903" lon="-3.427316"><ele>213</ele><time>2022-10-15T14:41:31Z</time><name>PT4382</name></trkpt>
<trkpt lat="52.923894" lon="-3.427363"><ele>213</ele><time>2022-10-15T14:41:43Z</time><name>PT4383</name></trkpt>
<trkpt lat="52.923855" lon="-3.427522"><ele>209</ele><time>2022-10-15T14:41:47Z</time><name>PT4384</name></trkpt>
<trkpt lat="52.923814" lon="-3.427593"><ele>208</ele><time>2022-10-15T14:41:51Z</time><name>PT4385</name></trkpt>
<trkpt lat="52.923780" lon="-3.427642"><ele>207</ele><time>2022-10-15T14:41:55Z</time><name>PT4386</name></trkpt>
<trkpt lat="52.923760" lon="-3.427676"><ele>206</ele><time>2022-10-15T14:41:59Z</time><name>PT4387</name></trkpt>
<trkpt lat="52.923753" lon="-3.427737"><ele>205</ele><time>2022-10-15T14:42:03Z</time><name>PT4388</name></trkpt>
<trkpt lat="52.923749" lon="-3.427778"><ele>205</ele><time>2022-10-15T14:42:07Z</time><name>PT4389</name></trkpt>
<trkpt lat="52.923747" lon="-3.427791"><ele>205</ele><time>2022-10-15T14:42:11Z</time><name>PT4390</name></trkpt>
<trkpt lat="52.923743" lon="-3.427850"><ele>203</ele><time>2022-10-15T14:42:27Z</time><name>PT4391</name></trkpt>
<trkpt lat="52.923750" lon="-3.427950"><ele>201</ele><time>2022-10-15T14:42:31Z</time><name>PT4392</name></trkpt>
<trkpt lat="52.923761" lon="-3.428016"><ele>200</ele><time>2022-10-15T14:42:35Z</time><name>PT4393</name></trkpt>
<trkpt lat="52.923779" lon="-3.428078"><ele>200</ele><time>2022-10-15T14:42:39Z</time><name>PT4394</name></trkpt>
<trkpt lat="52.923801" lon="-3.428129"><ele>200</ele><time>2022-10-15T14:42:43Z</time><name>PT4395</name></trkpt>
<trkpt lat="52.923820" lon="-3.428174"><ele>200</ele><time>2022-10-15T14:42:47Z</time><name>PT4396</name></trkpt>
<trkpt lat="52.923835" lon="-3.428233"><ele>200</ele><time>2022-10-15T14:42:51Z</time><name>PT4397</name></trkpt>
<trkpt lat="52.923842" lon="-3.428305"><ele>199</ele><time>2022-10-15T14:42:55Z</time><name>PT4398</name></trkpt>
<trkpt lat="52.923847" lon="-3.428374"><ele>198</ele><time>2022-10-15T14:42:59Z</time><name>PT4399</name></trkpt>
<trkpt lat="52.923853" lon="-3.428442"><ele>198</ele><time>2022-10-15T14:43:03Z</time><name>PT4400</name></trkpt>
<trkpt lat="52.923865" lon="-3.428505"><ele>197</ele><time>2022-10-15T14:43:07Z</time><name>PT4401</name></trkpt>
<trkpt lat="52.923876" lon="-3.428557"><ele>197</ele><time>2022-10-15T14:43:11Z</time><name>PT4402</name></trkpt>
<trkpt lat="52.923897" lon="-3.428625"><ele>196</ele><time>2022-10-15T14:43:15Z</time><name>PT4403</name></trkpt>
<trkpt lat="52.923914" lon="-3.428680"><ele>195</ele><time>2022-10-15T14:43:19Z</time><name>PT4404</name></trkpt>
<trkpt lat="52.923927" lon="-3.428738"><ele>194</ele><time>2022-10-15T14:43:23Z</time><name>PT4405</name></trkpt>
<trkpt lat="52.923937" lon="-3.428789"><ele>193</ele><time>2022-10-15T14:43:27Z</time><name>PT4406</name></trkpt>
<trkpt lat="52.923940" lon="-3.428835"><ele>191</ele><time>2022-10-15T14:43:31Z</time><name>PT4407</name></trkpt>
<trkpt lat="52.923953" lon="-3.428888"><ele>190</ele><time>2022-10-15T14:43:35Z</time><name>PT4408</name></trkpt>
<trkpt lat="52.923959" lon="-3.428932"><ele>188</ele><time>2022-10-15T14:43:38Z</time><name>PT4409</name></trkpt>
<trkpt lat="52.923960" lon="-3.428995"><ele>186</ele><time>2022-10-15T14:43:42Z</time><name>PT4410</name></trkpt>
<trkpt lat="52.923972" lon="-3.429055"><ele>187</ele><time>2022-10-15T14:43:46Z</time><name>PT4411</name></trkpt>
<trkpt lat="52.923995" lon="-3.429118"><ele>186</ele><time>2022-10-15T14:43:50Z</time><name>PT4412</name></trkpt>
<trkpt lat="52.924004" lon="-3.429192"><ele>186</ele><time>2022-10-15T14:43:54Z</time><name>PT4413</name></trkpt>
<trkpt lat="52.924004" lon="-3.429257"><ele>185</ele><time>2022-10-15T14:43:58Z</time><name>PT4414</name></trkpt>
<trkpt lat="52.923996" lon="-3.429319"><ele>182</ele><time>2022-10-15T14:44:02Z</time><name>PT4415</name></trkpt>
<trkpt lat="52.923988" lon="-3.429390"><ele>182</ele><time>2022-10-15T14:44:06Z</time><name>PT4416</name></trkpt>
<trkpt lat="52.923971" lon="-3.429437"><ele>181</ele><time>2022-10-15T14:44:10Z</time><name>PT4417</name></trkpt>
<trkpt lat="52.923954" lon="-3.429475"><ele>179</ele><time>2022-10-15T14:44:14Z</time><name>PT4418</name></trkpt>
<trkpt lat="52.923942" lon="-3.429525"><ele>178</ele><time>2022-10-15T14:44:18Z</time><name>PT4419</name></trkpt>
<trkpt lat="52.923910" lon="-3.429559"><ele>176</ele><time>2022-10-15T14:44:22Z</time><name>PT4420</name></trkpt>
<trkpt lat="52.923894" lon="-3.429588"><ele>174</ele><time>2022-10-15T14:44:26Z</time><name>PT4421</name></trkpt>
<trkpt lat="52.923888" lon="-3.429647"><ele>174</ele><time>2022-10-15T14:44:30Z</time><name>PT4422</name></trkpt>
<trkpt lat="52.923889" lon="-3.429733"><ele>174</ele><time>2022-10-15T14:44:34Z</time><name>PT4423</name></trkpt>
<trkpt lat="52.923887" lon="-3.429808"><ele>173</ele><time>2022-10-15T14:44:38Z</time><name>PT4424</name></trkpt>
<trkpt lat="52.923892" lon="-3.429886"><ele>174</ele><time>2022-10-15T14:44:42Z</time><name>PT4425</name></trkpt>
<trkpt lat="52.923901" lon="-3.429958"><ele>175</ele><time>2022-10-15T14:44:46Z</time><name>PT4426</name></trkpt>
<trkpt lat="52.923916" lon="-3.430043"><ele>176</ele><time>2022-10-15T14:44:50Z</time><name>PT4427</name></trkpt>
<trkpt lat="52.923927" lon="-3.430126"><ele>176</ele><time>2022-10-15T14:44:54Z</time><name>PT4428</name></trkpt>
<trkpt lat="52.923937" lon="-3.430189"><ele>175</ele><time>2022-10-15T14:44:58Z</time><name>PT4429</name></trkpt>
<trkpt lat="52.923943" lon="-3.430272"><ele>172</ele><time>2022-10-15T14:45:02Z</time><name>PT4430</name></trkpt>
<trkpt lat="52.923958" lon="-3.430366"><ele>173</ele><time>2022-10-15T14:45:06Z</time><name>PT4431</name></trkpt>
<trkpt lat="52.923969" lon="-3.430431"><ele>171</ele><time>2022-10-15T14:45:10Z</time><name>PT4432</name></trkpt>
<trkpt lat="52.923973" lon="-3.430505"><ele>170</ele><time>2022-10-15T14:45:14Z</time><name>PT4433</name></trkpt>
<trkpt lat="52.923975" lon="-3.430573"><ele>169</ele><time>2022-10-15T14:45:18Z</time><name>PT4434</name></trkpt>
<trkpt lat="52.923982" lon="-3.430646"><ele>169</ele><time>2022-10-15T14:45:22Z</time><name>PT4435</name></trkpt>
<trkpt lat="52.923999" lon="-3.430718"><ele>168</ele><time>2022-10-15T14:45:26Z</time><name>PT4436</name></trkpt>
<trkpt lat="52.924012" lon="-3.430794"><ele>168</ele><time>2022-10-15T14:45:30Z</time><name>PT4437</name></trkpt>
<trkpt lat="52.924004" lon="-3.430864"><ele>164</ele><time>2022-10-15T14:45:34Z</time><name>PT4438</name></trkpt>
<trkpt lat="52.924013" lon="-3.430935"><ele>164</ele><time>2022-10-15T14:45:38Z</time><name>PT4439</name></trkpt>
<trkpt lat="52.924019" lon="-3.431011"><ele>163</ele><time>2022-10-15T14:45:42Z</time><name>PT4440</name></trkpt>
<trkpt lat="52.924019" lon="-3.431096"><ele>163</ele><time>2022-10-15T14:45:46Z</time><name>PT4441</name></trkpt>
<trkpt lat="52.924015" lon="-3.431164"><ele>164</ele><time>2022-10-15T14:45:50Z</time><name>PT4442</name></trkpt>
<trkpt lat="52.924008" lon="-3.431219"><ele>162</ele><time>2022-10-15T14:45:54Z</time><name>PT4443</name></trkpt>
<trkpt lat="52.923985" lon="-3.431286"><ele>162</ele><time>2022-10-15T14:45:58Z</time><name>PT4444</name></trkpt>
<trkpt lat="52.923952" lon="-3.431353"><ele>162</ele><time>2022-10-15T14:46:02Z</time><name>PT4445</name></trkpt>
<trkpt lat="52.923916" lon="-3.431404"><ele>161</ele><time>2022-10-15T14:46:06Z</time><name>PT4446</name></trkpt>
<trkpt lat="52.923880" lon="-3.431444"><ele>161</ele><time>2022-10-15T14:46:10Z</time><name>PT4447</name></trkpt>
<trkpt lat="52.923862" lon="-3.431474"><ele>162</ele><time>2022-10-15T14:46:14Z</time><name>PT4448</name></trkpt>
<trkpt lat="52.923840" lon="-3.431499"><ele>164</ele><time>2022-10-15T14:46:18Z</time><name>PT4449</name></trkpt>
<trkpt lat="52.923821" lon="-3.431510"><ele>165</ele><time>2022-10-15T14:46:22Z</time><name>PT4450</name></trkpt>
<trkpt lat="52.923793" lon="-3.431534"><ele>164</ele><time>2022-10-15T14:46:26Z</time><name>PT4451</name></trkpt>
<trkpt lat="52.923791" lon="-3.431540"><ele>165</ele><time>2022-10-15T14:46:30Z</time><name>PT4452</name></trkpt>
<trkpt lat="52.923778" lon="-3.431588"><ele>166</ele><time>2022-10-15T14:46:34Z</time><name>PT4453</name></trkpt>
<trkpt lat="52.923760" lon="-3.431663"><ele>165</ele><time>2022-10-15T14:46:38Z</time><name>PT4454</name></trkpt>
<trkpt lat="52.923753" lon="-3.431741"><ele>165</ele><time>2022-10-15T14:46:42Z</time><name>PT4455</name></trkpt>
<trkpt lat="52.923760" lon="-3.431823"><ele>164</ele><time>2022-10-15T14:46:46Z</time><name>PT4456</name></trkpt>
<trkpt lat="52.923754" lon="-3.431911"><ele>164</ele><time>2022-10-15T14:46:50Z</time><name>PT4457</name></trkpt>
<trkpt lat="52.923745" lon="-3.431987"><ele>163</ele><time>2022-10-15T14:46:54Z</time><name>PT4458</name></trkpt>
<trkpt lat="52.923736" lon="-3.432040"><ele>162</ele><time>2022-10-15T14:46:58Z</time><name>PT4459</name></trkpt>
<trkpt lat="52.923727" lon="-3.432109"><ele>162</ele><time>2022-10-15T14:47:02Z</time><name>PT4460</name></trkpt>
<trkpt lat="52.923717" lon="-3.432195"><ele>163</ele><time>2022-10-15T14:47:06Z</time><name>PT4461</name></trkpt>
<trkpt lat="52.923704" lon="-3.432279"><ele>163</ele><time>2022-10-15T14:47:10Z</time><name>PT4462</name></trkpt>
<trkpt lat="52.923694" lon="-3.432353"><ele>162</ele><time>2022-10-15T14:47:14Z</time><name>PT4463</name></trkpt>
<trkpt lat="52.923687" lon="-3.432423"><ele>161</ele><time>2022-10-15T14:47:18Z</time><name>PT4464</name></trkpt>
<trkpt lat="52.923668" lon="-3.432509"><ele>162</ele><time>2022-10-15T14:47:22Z</time><name>PT4465</name></trkpt>
<trkpt lat="52.923651" lon="-3.432588"><ele>162</ele><time>2022-10-15T14:47:26Z</time><name>PT4466</name></trkpt>
<trkpt lat="52.923633" lon="-3.432676"><ele>162</ele><time>2022-10-15T14:47:30Z</time><name>PT4467</name></trkpt>
<trkpt lat="52.923620" lon="-3.432758"><ele>162</ele><time>2022-10-15T14:47:34Z</time><name>PT4468</name></trkpt>
<trkpt lat="52.923615" lon="-3.432838"><ele>163</ele><time>2022-10-15T14:47:38Z</time><name>PT4469</name></trkpt>
<trkpt lat="52.923605" lon="-3.432917"><ele>163</ele><time>2022-10-15T14:47:42Z</time><name>PT4470</name></trkpt>
<trkpt lat="52.923588" lon="-3.432995"><ele>162</ele><time>2022-10-15T14:47:46Z</time><name>PT4471</name></trkpt>
<trkpt lat="52.923569" lon="-3.433075"><ele>163</ele><time>2022-10-15T14:47:50Z</time><name>PT4472</name></trkpt>
<trkpt lat="52.923553" lon="-3.433145"><ele>164</ele><time>2022-10-15T14:47:54Z</time><name>PT4473</name></trkpt>
<trkpt lat="52.923532" lon="-3.433206"><ele>164</ele><time>2022-10-15T14:47:58Z</time><name>PT4474</name></trkpt>
<trkpt lat="52.923523" lon="-3.433274"><ele>164</ele><time>2022-10-15T14:48:02Z</time><name>PT4475</name></trkpt>
<trkpt lat="52.923505" lon="-3.433336"><ele>164</ele><time>2022-10-15T14:48:06Z</time><name>PT4476</name></trkpt>
<trkpt lat="52.923488" lon="-3.433418"><ele>163</ele><time>2022-10-15T14:48:10Z</time><name>PT4477</name></trkpt>
<trkpt lat="52.923474" lon="-3.433508"><ele>159</ele><time>2022-10-15T14:48:14Z</time><name>PT4478</name></trkpt>
<trkpt lat="52.923471" lon="-3.433591"><ele>158</ele><time>2022-10-15T14:48:18Z</time><name>PT4479</name></trkpt>
<trkpt lat="52.923459" lon="-3.433659"><ele>155</ele><time>2022-10-15T14:48:22Z</time><name>PT4480</name></trkpt>
<trkpt lat="52.923450" lon="-3.433724"><ele>151</ele><time>2022-10-15T14:48:26Z</time><name>PT4481</name></trkpt>
<trkpt lat="52.923437" lon="-3.433808"><ele>150</ele><time>2022-10-15T14:48:30Z</time><name>PT4482</name></trkpt>
<trkpt lat="52.923418" lon="-3.433879"><ele>148</ele><time>2022-10-15T14:48:34Z</time><name>PT4483</name></trkpt>
<trkpt lat="52.923394" lon="-3.433946"><ele>147</ele><time>2022-10-15T14:48:38Z</time><name>PT4484</name></trkpt>
<trkpt lat="52.923372" lon="-3.434029"><ele>147</ele><time>2022-10-15T14:48:42Z</time><name>PT4485</name></trkpt>
<trkpt lat="52.923355" lon="-3.434130"><ele>147</ele><time>2022-10-15T14:48:46Z</time><name>PT4486</name></trkpt>
<trkpt lat="52.923351" lon="-3.434232"><ele>148</ele><time>2022-10-15T14:48:50Z</time><name>PT4487</name></trkpt>
<trkpt lat="52.923323" lon="-3.434329"><ele>149</ele><time>2022-10-15T14:48:54Z</time><name>PT4488</name></trkpt>
<trkpt lat="52.923293" lon="-3.434449"><ele>153</ele><time>2022-10-15T14:48:58Z</time><name>PT4489</name></trkpt>
<trkpt lat="52.923277" lon="-3.434533"><ele>152</ele><time>2022-10-15T14:49:02Z</time><name>PT4490</name></trkpt>
<trkpt lat="52.923260" lon="-3.434605"><ele>153</ele><time>2022-10-15T14:49:06Z</time><name>PT4491</name></trkpt>
<trkpt lat="52.923237" lon="-3.434697"><ele>156</ele><time>2022-10-15T14:49:10Z</time><name>PT4492</name></trkpt>
<trkpt lat="52.923256" lon="-3.434786"><ele>156</ele><time>2022-10-15T14:49:14Z</time><name>PT4493</name></trkpt>
<trkpt lat="52.923253" lon="-3.434876"><ele>155</ele><time>2022-10-15T14:49:18Z</time><name>PT4494</name></trkpt>
<trkpt lat="52.923250" lon="-3.434968"><ele>157</ele><time>2022-10-15T14:49:22Z</time><name>PT4495</name></trkpt>
<trkpt lat="52.923245" lon="-3.435070"><ele>158</ele><time>2022-10-15T14:49:26Z</time><name>PT4496</name></trkpt>
<trkpt lat="52.923240" lon="-3.435160"><ele>158</ele><time>2022-10-15T14:49:30Z</time><name>PT4497</name></trkpt>
<trkpt lat="52.923229" lon="-3.435244"><ele>157</ele><time>2022-10-15T14:49:34Z</time><name>PT4498</name></trkpt>
<trkpt lat="52.923211" lon="-3.435318"><ele>155</ele><time>2022-10-15T14:49:38Z</time><name>PT4499</name></trkpt>
<trkpt lat="52.923186" lon="-3.435390"><ele>153</ele><time>2022-10-15T14:49:42Z</time><name>PT4500</name></trkpt>
<trkpt lat="52.923162" lon="-3.435479"><ele>155</ele><time>2022-10-15T14:49:46Z</time><name>PT4501</name></trkpt>
<trkpt lat="52.923133" lon="-3.435579"><ele>157</ele><time>2022-10-15T14:49:50Z</time><name>PT4502</name></trkpt>
<trkpt lat="52.923102" lon="-3.435682"><ele>160</ele><time>2022-10-15T14:49:54Z</time><name>PT4503</name></trkpt>
<trkpt lat="52.923080" lon="-3.435785"><ele>162</ele><time>2022-10-15T14:49:58Z</time><name>PT4504</name></trkpt>
<trkpt lat="52.923069" lon="-3.435875"><ele>164</ele><time>2022-10-15T14:50:02Z</time><name>PT4505</name></trkpt>
<trkpt lat="52.923055" lon="-3.435968"><ele>164</ele><time>2022-10-15T14:50:06Z</time><name>PT4506</name></trkpt>
<trkpt lat="52.923040" lon="-3.436050"><ele>161</ele><time>2022-10-15T14:50:10Z</time><name>PT4507</name></trkpt>
<trkpt lat="52.923040" lon="-3.436140"><ele>162</ele><time>2022-10-15T14:50:14Z</time><name>PT4508</name></trkpt>
<trkpt lat="52.923059" lon="-3.436210"><ele>162</ele><time>2022-10-15T14:50:18Z</time><name>PT4509</name></trkpt>
<trkpt lat="52.923092" lon="-3.436254"><ele>162</ele><time>2022-10-15T14:50:22Z</time><name>PT4510</name></trkpt>
<trkpt lat="52.923124" lon="-3.436285"><ele>162</ele><time>2022-10-15T14:50:26Z</time><name>PT4511</name></trkpt>
<trkpt lat="52.923149" lon="-3.436294"><ele>162</ele><time>2022-10-15T14:50:30Z</time><name>PT4512</name></trkpt>
<trkpt lat="52.923158" lon="-3.436295"><ele>161</ele><time>2022-10-15T14:50:34Z</time><name>PT4513</name></trkpt>
<trkpt lat="52.923155" lon="-3.436299"><ele>160</ele><time>2022-10-15T14:50:38Z</time><name>PT4514</name></trkpt>
<trkpt lat="52.923162" lon="-3.436332"><ele>160</ele><time>2022-10-15T14:50:42Z</time><name>PT4515</name></trkpt>
<trkpt lat="52.923161" lon="-3.436335"><ele>160</ele><time>2022-10-15T14:50:46Z</time><name>PT4516</name></trkpt>
<trkpt lat="52.923158" lon="-3.436334"><ele>160</ele><time>2022-10-15T14:50:50Z</time><name>PT4517</name></trkpt>
<trkpt lat="52.923158" lon="-3.436334"><ele>160</ele><time>2022-10-15T14:50:54Z</time><name>PT4518</name></trkpt>
<trkpt lat="52.923155" lon="-3.436338"><ele>159</ele><time>2022-10-15T14:51:06Z</time><name>PT4519</name></trkpt>
<trkpt lat="52.923158" lon="-3.436323"><ele>161</ele><time>2022-10-15T14:51:38Z</time><name>PT4520</name></trkpt>
<trkpt lat="52.923153" lon="-3.436302"><ele>161</ele><time>2022-10-15T14:51:42Z</time><name>PT4521</name></trkpt>
<trkpt lat="52.923149" lon="-3.436319"><ele>161</ele><time>2022-10-15T14:51:46Z</time><name>PT4522</name></trkpt>
<trkpt lat="52.923147" lon="-3.436326"><ele>164</ele><time>2022-10-15T14:51:49Z</time><name>PT4523</name></trkpt></trkseg></trk></gpx>